<?xml version="1.0" encoding="UTF-8" standalone="no" ?>
<gpx xmlns="http://www.topografix.com/GPX/1/1" xmlns:xsi="http://www.w3.org/2001/XMLSchema-instance" xsi:schemaLocation="http://www.topografix.com/GPX/1/1 http://www.topografix.com/GPX/1/1/gpx.xsd" version="1.1" creator="VisuGPX - https://www.visugpx.com">
  <metadata>
    <name>Lockdown ride #3 V2</name>
  </metadata>
  <trk>
    <name><![CDATA[Lockdown ride #3 V2_1]]></name>
    <trkseg>
      <trkpt lat="43.64656" lon="3.89324">
        <ele>37</ele>
        <time>2020-11-04T20:55:17Z</time>
      </trkpt>
      <trkpt lat="43.64656" lon="3.89324">
        <ele>37</ele>
        <time>2020-11-04T20:55:17Z</time>
      </trkpt>
      <trkpt lat="43.64661" lon="3.89337">
        <ele>37</ele>
        <time>2020-11-04T20:55:11Z</time>
      </trkpt>
      <trkpt lat="43.64656" lon="3.89342">
        <ele>37</ele>
        <time>2020-11-04T20:55:08Z</time>
      </trkpt>
      <trkpt lat="43.64644" lon="3.89348">
        <ele>36</ele>
        <time>2020-11-04T20:55:04Z</time>
      </trkpt>
      <trkpt lat="43.64641" lon="3.8935">
        <ele>36</ele>
        <time>2020-11-04T20:55:03Z</time>
      </trkpt>
      <trkpt lat="43.64638" lon="3.89351">
        <ele>36</ele>
        <time>2020-11-04T20:55:02Z</time>
      </trkpt>
      <trkpt lat="43.64625" lon="3.89359">
        <ele>35</ele>
        <time>2020-11-04T20:54:58Z</time>
      </trkpt>
      <trkpt lat="43.64622" lon="3.89362">
        <ele>35</ele>
        <time>2020-11-04T20:54:57Z</time>
      </trkpt>
      <trkpt lat="43.64618" lon="3.89363">
        <ele>35</ele>
        <time>2020-11-04T20:54:56Z</time>
      </trkpt>
      <trkpt lat="43.64612" lon="3.89365">
        <ele>35</ele>
        <time>2020-11-04T20:54:55Z</time>
      </trkpt>
      <trkpt lat="43.64603" lon="3.8937">
        <ele>34</ele>
        <time>2020-11-04T20:54:53Z</time>
      </trkpt>
      <trkpt lat="43.64599" lon="3.89373">
        <ele>34</ele>
        <time>2020-11-04T20:54:52Z</time>
      </trkpt>
      <trkpt lat="43.64584" lon="3.89383">
        <ele>34</ele>
        <time>2020-11-04T20:54:49Z</time>
      </trkpt>
      <trkpt lat="43.64552" lon="3.89407">
        <ele>33</ele>
        <time>2020-11-04T20:54:43Z</time>
      </trkpt>
      <trkpt lat="43.64546" lon="3.89412">
        <ele>33</ele>
        <time>2020-11-04T20:54:42Z</time>
      </trkpt>
      <trkpt lat="43.6453" lon="3.89426">
        <ele>33</ele>
        <time>2020-11-04T20:54:39Z</time>
      </trkpt>
      <trkpt lat="43.64514" lon="3.89439">
        <ele>33</ele>
        <time>2020-11-04T20:54:36Z</time>
      </trkpt>
      <trkpt lat="43.64499" lon="3.89451">
        <ele>33</ele>
        <time>2020-11-04T20:54:33Z</time>
      </trkpt>
      <trkpt lat="43.64489" lon="3.89455">
        <ele>33</ele>
        <time>2020-11-04T20:54:31Z</time>
      </trkpt>
      <trkpt lat="43.64478" lon="3.89456">
        <ele>32</ele>
        <time>2020-11-04T20:54:29Z</time>
      </trkpt>
      <trkpt lat="43.64473" lon="3.89458">
        <ele>32</ele>
        <time>2020-11-04T20:54:28Z</time>
      </trkpt>
      <trkpt lat="43.64469" lon="3.8946">
        <ele>32</ele>
        <time>2020-11-04T20:54:27Z</time>
      </trkpt>
      <trkpt lat="43.64463" lon="3.89462">
        <ele>33</ele>
        <time>2020-11-04T20:54:26Z</time>
      </trkpt>
      <trkpt lat="43.64459" lon="3.89466">
        <ele>33</ele>
        <time>2020-11-04T20:54:25Z</time>
      </trkpt>
      <trkpt lat="43.64456" lon="3.8948">
        <ele>33</ele>
        <time>2020-11-04T20:54:23Z</time>
      </trkpt>
      <trkpt lat="43.64458" lon="3.89488">
        <ele>33</ele>
        <time>2020-11-04T20:54:22Z</time>
      </trkpt>
      <trkpt lat="43.64473" lon="3.89521">
        <ele>33</ele>
        <time>2020-11-04T20:54:18Z</time>
      </trkpt>
      <trkpt lat="43.64477" lon="3.8953">
        <ele>33</ele>
        <time>2020-11-04T20:54:17Z</time>
      </trkpt>
      <trkpt lat="43.6448" lon="3.89538">
        <ele>33</ele>
        <time>2020-11-04T20:54:16Z</time>
      </trkpt>
      <trkpt lat="43.6449" lon="3.89573">
        <ele>33</ele>
        <time>2020-11-04T20:54:12Z</time>
      </trkpt>
      <trkpt lat="43.64491" lon="3.89582">
        <ele>33</ele>
        <time>2020-11-04T20:54:11Z</time>
      </trkpt>
      <trkpt lat="43.64493" lon="3.89591">
        <ele>34</ele>
        <time>2020-11-04T20:54:10Z</time>
      </trkpt>
      <trkpt lat="43.64495" lon="3.89601">
        <ele>34</ele>
        <time>2020-11-04T20:54:09Z</time>
      </trkpt>
      <trkpt lat="43.64497" lon="3.8961">
        <ele>34</ele>
        <time>2020-11-04T20:54:08Z</time>
      </trkpt>
      <trkpt lat="43.64502" lon="3.89646">
        <ele>34</ele>
        <time>2020-11-04T20:54:04Z</time>
      </trkpt>
      <trkpt lat="43.64504" lon="3.89655">
        <ele>34</ele>
        <time>2020-11-04T20:54:03Z</time>
      </trkpt>
      <trkpt lat="43.64506" lon="3.89673">
        <ele>34</ele>
        <time>2020-11-04T20:54:01Z</time>
      </trkpt>
      <trkpt lat="43.6451" lon="3.89692">
        <ele>34</ele>
        <time>2020-11-04T20:53:59Z</time>
      </trkpt>
      <trkpt lat="43.64511" lon="3.89701">
        <ele>34</ele>
        <time>2020-11-04T20:53:58Z</time>
      </trkpt>
      <trkpt lat="43.64516" lon="3.89738">
        <ele>34</ele>
        <time>2020-11-04T20:53:54Z</time>
      </trkpt>
      <trkpt lat="43.64517" lon="3.89756">
        <ele>34</ele>
        <time>2020-11-04T20:53:52Z</time>
      </trkpt>
      <trkpt lat="43.64516" lon="3.89774">
        <ele>34</ele>
        <time>2020-11-04T20:53:50Z</time>
      </trkpt>
      <trkpt lat="43.64515" lon="3.89783">
        <ele>34</ele>
        <time>2020-11-04T20:53:49Z</time>
      </trkpt>
      <trkpt lat="43.64514" lon="3.89791">
        <ele>34</ele>
        <time>2020-11-04T20:53:48Z</time>
      </trkpt>
      <trkpt lat="43.64511" lon="3.89799">
        <ele>35</ele>
        <time>2020-11-04T20:53:47Z</time>
      </trkpt>
      <trkpt lat="43.6451" lon="3.89806">
        <ele>35</ele>
        <time>2020-11-04T20:53:46Z</time>
      </trkpt>
      <trkpt lat="43.64507" lon="3.89812">
        <ele>35</ele>
        <time>2020-11-04T20:53:45Z</time>
      </trkpt>
      <trkpt lat="43.64504" lon="3.89816">
        <ele>35</ele>
        <time>2020-11-04T20:53:44Z</time>
      </trkpt>
      <trkpt lat="43.64493" lon="3.89824">
        <ele>34</ele>
        <time>2020-11-04T20:53:41Z</time>
      </trkpt>
      <trkpt lat="43.64492" lon="3.89831">
        <ele>34</ele>
        <time>2020-11-04T20:53:40Z</time>
      </trkpt>
      <trkpt lat="43.64491" lon="3.89839">
        <ele>34</ele>
        <time>2020-11-04T20:53:38Z</time>
      </trkpt>
      <trkpt lat="43.6449" lon="3.8984">
        <ele>34</ele>
        <time>2020-11-04T20:53:37Z</time>
      </trkpt>
      <trkpt lat="43.64485" lon="3.89839">
        <ele>35</ele>
        <time>2020-11-04T20:53:35Z</time>
      </trkpt>
      <trkpt lat="43.64481" lon="3.89837">
        <ele>35</ele>
        <time>2020-11-04T20:53:34Z</time>
      </trkpt>
      <trkpt lat="43.64474" lon="3.89833">
        <ele>35</ele>
        <time>2020-11-04T20:53:32Z</time>
      </trkpt>
      <trkpt lat="43.64466" lon="3.89828">
        <ele>35</ele>
        <time>2020-11-04T20:53:30Z</time>
      </trkpt>
      <trkpt lat="43.64462" lon="3.89825">
        <ele>35</ele>
        <time>2020-11-04T20:53:29Z</time>
      </trkpt>
      <trkpt lat="43.64459" lon="3.89823">
        <ele>35</ele>
        <time>2020-11-04T20:53:28Z</time>
      </trkpt>
      <trkpt lat="43.64455" lon="3.89822">
        <ele>35</ele>
        <time>2020-11-04T20:53:27Z</time>
      </trkpt>
      <trkpt lat="43.64451" lon="3.89823">
        <ele>35</ele>
        <time>2020-11-04T20:53:25Z</time>
      </trkpt>
      <trkpt lat="43.64448" lon="3.89832">
        <ele>36</ele>
        <time>2020-11-04T20:53:23Z</time>
      </trkpt>
      <trkpt lat="43.64447" lon="3.89838">
        <ele>36</ele>
        <time>2020-11-04T20:53:22Z</time>
      </trkpt>
      <trkpt lat="43.64448" lon="3.89845">
        <ele>36</ele>
        <time>2020-11-04T20:53:21Z</time>
      </trkpt>
      <trkpt lat="43.64448" lon="3.89852">
        <ele>36</ele>
        <time>2020-11-04T20:53:20Z</time>
      </trkpt>
      <trkpt lat="43.64448" lon="3.89871">
        <ele>36</ele>
        <time>2020-11-04T20:53:17Z</time>
      </trkpt>
      <trkpt lat="43.64448" lon="3.89877">
        <ele>36</ele>
        <time>2020-11-04T20:53:16Z</time>
      </trkpt>
      <trkpt lat="43.64449" lon="3.89885">
        <ele>36</ele>
        <time>2020-11-04T20:53:15Z</time>
      </trkpt>
      <trkpt lat="43.64451" lon="3.89912">
        <ele>36</ele>
        <time>2020-11-04T20:53:12Z</time>
      </trkpt>
      <trkpt lat="43.64461" lon="3.89937">
        <ele>36</ele>
        <time>2020-11-04T20:53:09Z</time>
      </trkpt>
      <trkpt lat="43.6448" lon="3.9">
        <ele>37</ele>
        <time>2020-11-04T20:53:03Z</time>
      </trkpt>
      <trkpt lat="43.64483" lon="3.90012">
        <ele>37</ele>
        <time>2020-11-04T20:53:02Z</time>
      </trkpt>
      <trkpt lat="43.64486" lon="3.90023">
        <ele>37</ele>
        <time>2020-11-04T20:53:01Z</time>
      </trkpt>
      <trkpt lat="43.6449" lon="3.90044">
        <ele>38</ele>
        <time>2020-11-04T20:52:59Z</time>
      </trkpt>
      <trkpt lat="43.64492" lon="3.90054">
        <ele>38</ele>
        <time>2020-11-04T20:52:58Z</time>
      </trkpt>
      <trkpt lat="43.64493" lon="3.90065">
        <ele>38</ele>
        <time>2020-11-04T20:52:57Z</time>
      </trkpt>
      <trkpt lat="43.64494" lon="3.90076">
        <ele>38</ele>
        <time>2020-11-04T20:52:56Z</time>
      </trkpt>
      <trkpt lat="43.64495" lon="3.90086">
        <ele>38</ele>
        <time>2020-11-04T20:52:55Z</time>
      </trkpt>
      <trkpt lat="43.64495" lon="3.90107">
        <ele>38</ele>
        <time>2020-11-04T20:52:53Z</time>
      </trkpt>
      <trkpt lat="43.64495" lon="3.90118">
        <ele>38</ele>
        <time>2020-11-04T20:52:52Z</time>
      </trkpt>
      <trkpt lat="43.64492" lon="3.90128">
        <ele>38</ele>
        <time>2020-11-04T20:52:51Z</time>
      </trkpt>
      <trkpt lat="43.64491" lon="3.90138">
        <ele>38</ele>
        <time>2020-11-04T20:52:50Z</time>
      </trkpt>
      <trkpt lat="43.64492" lon="3.90166">
        <ele>39</ele>
        <time>2020-11-04T20:52:47Z</time>
      </trkpt>
      <trkpt lat="43.64494" lon="3.90177">
        <ele>39</ele>
        <time>2020-11-04T20:52:46Z</time>
      </trkpt>
      <trkpt lat="43.64501" lon="3.90208">
        <ele>39</ele>
        <time>2020-11-04T20:52:43Z</time>
      </trkpt>
      <trkpt lat="43.64516" lon="3.90273">
        <ele>40</ele>
        <time>2020-11-04T20:52:37Z</time>
      </trkpt>
      <trkpt lat="43.64522" lon="3.90295">
        <ele>40</ele>
        <time>2020-11-04T20:52:35Z</time>
      </trkpt>
      <trkpt lat="43.64526" lon="3.90306">
        <ele>40</ele>
        <time>2020-11-04T20:52:34Z</time>
      </trkpt>
      <trkpt lat="43.6453" lon="3.90316">
        <ele>40</ele>
        <time>2020-11-04T20:52:33Z</time>
      </trkpt>
      <trkpt lat="43.64557" lon="3.9037">
        <ele>41</ele>
        <time>2020-11-04T20:52:27Z</time>
      </trkpt>
      <trkpt lat="43.64567" lon="3.90387">
        <ele>41</ele>
        <time>2020-11-04T20:52:25Z</time>
      </trkpt>
      <trkpt lat="43.64599" lon="3.9045">
        <ele>42</ele>
        <time>2020-11-04T20:52:18Z</time>
      </trkpt>
      <trkpt lat="43.64603" lon="3.9046">
        <ele>42</ele>
        <time>2020-11-04T20:52:17Z</time>
      </trkpt>
      <trkpt lat="43.64606" lon="3.9047">
        <ele>42</ele>
        <time>2020-11-04T20:52:16Z</time>
      </trkpt>
      <trkpt lat="43.64609" lon="3.9048">
        <ele>42</ele>
        <time>2020-11-04T20:52:15Z</time>
      </trkpt>
      <trkpt lat="43.64623" lon="3.90519">
        <ele>42</ele>
        <time>2020-11-04T20:52:11Z</time>
      </trkpt>
      <trkpt lat="43.64635" lon="3.90548">
        <ele>42</ele>
        <time>2020-11-04T20:52:08Z</time>
      </trkpt>
      <trkpt lat="43.64642" lon="3.90567">
        <ele>42</ele>
        <time>2020-11-04T20:52:06Z</time>
      </trkpt>
      <trkpt lat="43.64649" lon="3.90585">
        <ele>42</ele>
        <time>2020-11-04T20:52:04Z</time>
      </trkpt>
      <trkpt lat="43.64652" lon="3.90594">
        <ele>42</ele>
        <time>2020-11-04T20:52:03Z</time>
      </trkpt>
      <trkpt lat="43.64655" lon="3.90603">
        <ele>42</ele>
        <time>2020-11-04T20:52:02Z</time>
      </trkpt>
      <trkpt lat="43.64658" lon="3.90612">
        <ele>42</ele>
        <time>2020-11-04T20:52:01Z</time>
      </trkpt>
      <trkpt lat="43.64661" lon="3.9062">
        <ele>42</ele>
        <time>2020-11-04T20:52:00Z</time>
      </trkpt>
      <trkpt lat="43.64663" lon="3.90628">
        <ele>42</ele>
        <time>2020-11-04T20:51:59Z</time>
      </trkpt>
      <trkpt lat="43.64666" lon="3.90635">
        <ele>42</ele>
        <time>2020-11-04T20:51:58Z</time>
      </trkpt>
      <trkpt lat="43.64675" lon="3.9064">
        <ele>43</ele>
        <time>2020-11-04T20:51:56Z</time>
      </trkpt>
      <trkpt lat="43.6468" lon="3.90638">
        <ele>43</ele>
        <time>2020-11-04T20:51:55Z</time>
      </trkpt>
      <trkpt lat="43.64684" lon="3.90634">
        <ele>43</ele>
        <time>2020-11-04T20:51:54Z</time>
      </trkpt>
      <trkpt lat="43.64689" lon="3.90631">
        <ele>43</ele>
        <time>2020-11-04T20:51:53Z</time>
      </trkpt>
      <trkpt lat="43.64693" lon="3.90634">
        <ele>43</ele>
        <time>2020-11-04T20:51:52Z</time>
      </trkpt>
      <trkpt lat="43.64696" lon="3.90639">
        <ele>43</ele>
        <time>2020-11-04T20:51:51Z</time>
      </trkpt>
      <trkpt lat="43.64705" lon="3.90688">
        <ele>43</ele>
        <time>2020-11-04T20:51:46Z</time>
      </trkpt>
      <trkpt lat="43.64758" lon="3.90824">
        <ele>45</ele>
        <time>2020-11-04T20:51:31Z</time>
      </trkpt>
      <trkpt lat="43.64854" lon="3.9091">
        <ele>47</ele>
        <time>2020-11-04T20:51:17Z</time>
      </trkpt>
      <trkpt lat="43.64862" lon="3.90916">
        <ele>47</ele>
        <time>2020-11-04T20:51:16Z</time>
      </trkpt>
      <trkpt lat="43.64869" lon="3.90922">
        <ele>47</ele>
        <time>2020-11-04T20:51:15Z</time>
      </trkpt>
      <trkpt lat="43.64875" lon="3.9093">
        <ele>47</ele>
        <time>2020-11-04T20:51:14Z</time>
      </trkpt>
      <trkpt lat="43.6488" lon="3.90939">
        <ele>47</ele>
        <time>2020-11-04T20:51:13Z</time>
      </trkpt>
      <trkpt lat="43.64885" lon="3.90947">
        <ele>47</ele>
        <time>2020-11-04T20:51:12Z</time>
      </trkpt>
      <trkpt lat="43.64894" lon="3.90962">
        <ele>47</ele>
        <time>2020-11-04T20:51:10Z</time>
      </trkpt>
      <trkpt lat="43.649" lon="3.90969">
        <ele>48</ele>
        <time>2020-11-04T20:51:09Z</time>
      </trkpt>
      <trkpt lat="43.64904" lon="3.90976">
        <ele>48</ele>
        <time>2020-11-04T20:51:08Z</time>
      </trkpt>
      <trkpt lat="43.64908" lon="3.90983">
        <ele>48</ele>
        <time>2020-11-04T20:51:07Z</time>
      </trkpt>
      <trkpt lat="43.64911" lon="3.90991">
        <ele>48</ele>
        <time>2020-11-04T20:51:06Z</time>
      </trkpt>
      <trkpt lat="43.64914" lon="3.90998">
        <ele>48</ele>
        <time>2020-11-04T20:51:05Z</time>
      </trkpt>
      <trkpt lat="43.64917" lon="3.91004">
        <ele>48</ele>
        <time>2020-11-04T20:51:04Z</time>
      </trkpt>
      <trkpt lat="43.64919" lon="3.9101">
        <ele>48</ele>
        <time>2020-11-04T20:51:03Z</time>
      </trkpt>
      <trkpt lat="43.64921" lon="3.91015">
        <ele>48</ele>
        <time>2020-11-04T20:51:02Z</time>
      </trkpt>
      <trkpt lat="43.64923" lon="3.9102">
        <ele>49</ele>
        <time>2020-11-04T20:51:01Z</time>
      </trkpt>
      <trkpt lat="43.64924" lon="3.91025">
        <ele>49</ele>
        <time>2020-11-04T20:51:00Z</time>
      </trkpt>
      <trkpt lat="43.64924" lon="3.91029">
        <ele>49</ele>
        <time>2020-11-04T20:50:59Z</time>
      </trkpt>
      <trkpt lat="43.64925" lon="3.91033">
        <ele>49</ele>
        <time>2020-11-04T20:50:58Z</time>
      </trkpt>
      <trkpt lat="43.64926" lon="3.91037">
        <ele>49</ele>
        <time>2020-11-04T20:50:57Z</time>
      </trkpt>
      <trkpt lat="43.64926" lon="3.91039">
        <ele>49</ele>
        <time>2020-11-04T20:50:56Z</time>
      </trkpt>
      <trkpt lat="43.64925" lon="3.91043">
        <ele>50</ele>
        <time>2020-11-04T20:50:55Z</time>
      </trkpt>
      <trkpt lat="43.64924" lon="3.91047">
        <ele>50</ele>
        <time>2020-11-04T20:50:54Z</time>
      </trkpt>
      <trkpt lat="43.64923" lon="3.91063">
        <ele>50</ele>
        <time>2020-11-04T20:50:52Z</time>
      </trkpt>
      <trkpt lat="43.64921" lon="3.91072">
        <ele>50</ele>
        <time>2020-11-04T20:50:51Z</time>
      </trkpt>
      <trkpt lat="43.64923" lon="3.91107">
        <ele>51</ele>
        <time>2020-11-04T20:50:47Z</time>
      </trkpt>
      <trkpt lat="43.64926" lon="3.91115">
        <ele>51</ele>
        <time>2020-11-04T20:50:46Z</time>
      </trkpt>
      <trkpt lat="43.64935" lon="3.91127">
        <ele>51</ele>
        <time>2020-11-04T20:50:44Z</time>
      </trkpt>
      <trkpt lat="43.64941" lon="3.91132">
        <ele>51</ele>
        <time>2020-11-04T20:50:43Z</time>
      </trkpt>
      <trkpt lat="43.64947" lon="3.91135">
        <ele>51</ele>
        <time>2020-11-04T20:50:42Z</time>
      </trkpt>
      <trkpt lat="43.64961" lon="3.91139">
        <ele>51</ele>
        <time>2020-11-04T20:50:40Z</time>
      </trkpt>
      <trkpt lat="43.64974" lon="3.91143">
        <ele>51</ele>
        <time>2020-11-04T20:50:38Z</time>
      </trkpt>
      <trkpt lat="43.64995" lon="3.91152">
        <ele>51</ele>
        <time>2020-11-04T20:50:35Z</time>
      </trkpt>
      <trkpt lat="43.65002" lon="3.91154">
        <ele>51</ele>
        <time>2020-11-04T20:50:34Z</time>
      </trkpt>
      <trkpt lat="43.6501" lon="3.91156">
        <ele>51</ele>
        <time>2020-11-04T20:50:33Z</time>
      </trkpt>
      <trkpt lat="43.65017" lon="3.91158">
        <ele>52</ele>
        <time>2020-11-04T20:50:32Z</time>
      </trkpt>
      <trkpt lat="43.65024" lon="3.91159">
        <ele>52</ele>
        <time>2020-11-04T20:50:31Z</time>
      </trkpt>
      <trkpt lat="43.65031" lon="3.9116">
        <ele>52</ele>
        <time>2020-11-04T20:50:30Z</time>
      </trkpt>
      <trkpt lat="43.65038" lon="3.91161">
        <ele>52</ele>
        <time>2020-11-04T20:50:29Z</time>
      </trkpt>
      <trkpt lat="43.65045" lon="3.91161">
        <ele>52</ele>
        <time>2020-11-04T20:50:28Z</time>
      </trkpt>
      <trkpt lat="43.65052" lon="3.91162">
        <ele>52</ele>
        <time>2020-11-04T20:50:27Z</time>
      </trkpt>
      <trkpt lat="43.65058" lon="3.91162">
        <ele>53</ele>
        <time>2020-11-04T20:50:26Z</time>
      </trkpt>
      <trkpt lat="43.65064" lon="3.91162">
        <ele>53</ele>
        <time>2020-11-04T20:50:25Z</time>
      </trkpt>
      <trkpt lat="43.65069" lon="3.91164">
        <ele>53</ele>
        <time>2020-11-04T20:50:24Z</time>
      </trkpt>
      <trkpt lat="43.65074" lon="3.91166">
        <ele>53</ele>
        <time>2020-11-04T20:50:23Z</time>
      </trkpt>
      <trkpt lat="43.65078" lon="3.9117">
        <ele>53</ele>
        <time>2020-11-04T20:50:22Z</time>
      </trkpt>
      <trkpt lat="43.6508" lon="3.91176">
        <ele>54</ele>
        <time>2020-11-04T20:50:21Z</time>
      </trkpt>
      <trkpt lat="43.6508" lon="3.91186">
        <ele>54</ele>
        <time>2020-11-04T20:50:20Z</time>
      </trkpt>
      <trkpt lat="43.65096" lon="3.91263">
        <ele>56</ele>
        <time>2020-11-04T20:50:13Z</time>
      </trkpt>
      <trkpt lat="43.65099" lon="3.91273">
        <ele>56</ele>
        <time>2020-11-04T20:50:12Z</time>
      </trkpt>
      <trkpt lat="43.65102" lon="3.91283">
        <ele>56</ele>
        <time>2020-11-04T20:50:11Z</time>
      </trkpt>
      <trkpt lat="43.65105" lon="3.91294">
        <ele>57</ele>
        <time>2020-11-04T20:50:10Z</time>
      </trkpt>
      <trkpt lat="43.65114" lon="3.91328">
        <ele>57</ele>
        <time>2020-11-04T20:50:07Z</time>
      </trkpt>
      <trkpt lat="43.65125" lon="3.91373">
        <ele>58</ele>
        <time>2020-11-04T20:50:03Z</time>
      </trkpt>
      <trkpt lat="43.65129" lon="3.91384">
        <ele>59</ele>
        <time>2020-11-04T20:50:02Z</time>
      </trkpt>
      <trkpt lat="43.65132" lon="3.91395">
        <ele>59</ele>
        <time>2020-11-04T20:50:01Z</time>
      </trkpt>
      <trkpt lat="43.65136" lon="3.91405">
        <ele>59</ele>
        <time>2020-11-04T20:50:00Z</time>
      </trkpt>
      <trkpt lat="43.6514" lon="3.91415">
        <ele>59</ele>
        <time>2020-11-04T20:49:59Z</time>
      </trkpt>
      <trkpt lat="43.65144" lon="3.91425">
        <ele>59</ele>
        <time>2020-11-04T20:49:58Z</time>
      </trkpt>
      <trkpt lat="43.65148" lon="3.91435">
        <ele>59</ele>
        <time>2020-11-04T20:49:57Z</time>
      </trkpt>
      <trkpt lat="43.65152" lon="3.91444">
        <ele>60</ele>
        <time>2020-11-04T20:49:56Z</time>
      </trkpt>
      <trkpt lat="43.65156" lon="3.91454">
        <ele>60</ele>
        <time>2020-11-04T20:49:55Z</time>
      </trkpt>
      <trkpt lat="43.65168" lon="3.9148">
        <ele>60</ele>
        <time>2020-11-04T20:49:52Z</time>
      </trkpt>
      <trkpt lat="43.65189" lon="3.91525">
        <ele>61</ele>
        <time>2020-11-04T20:49:47Z</time>
      </trkpt>
      <trkpt lat="43.65192" lon="3.91535">
        <ele>61</ele>
        <time>2020-11-04T20:49:46Z</time>
      </trkpt>
      <trkpt lat="43.65213" lon="3.91592">
        <ele>62</ele>
        <time>2020-11-04T20:49:39Z</time>
      </trkpt>
      <trkpt lat="43.65217" lon="3.916">
        <ele>62</ele>
        <time>2020-11-04T20:49:38Z</time>
      </trkpt>
      <trkpt lat="43.6524" lon="3.9166">
        <ele>63</ele>
        <time>2020-11-04T20:49:31Z</time>
      </trkpt>
      <trkpt lat="43.6525" lon="3.91687">
        <ele>63</ele>
        <time>2020-11-04T20:49:28Z</time>
      </trkpt>
      <trkpt lat="43.65254" lon="3.91696">
        <ele>63</ele>
        <time>2020-11-04T20:49:27Z</time>
      </trkpt>
      <trkpt lat="43.65258" lon="3.91704">
        <ele>63</ele>
        <time>2020-11-04T20:49:26Z</time>
      </trkpt>
      <trkpt lat="43.65294" lon="3.91748">
        <ele>61</ele>
        <time>2020-11-04T20:49:19Z</time>
      </trkpt>
      <trkpt lat="43.653" lon="3.91765">
        <ele>61</ele>
        <time>2020-11-04T20:49:17Z</time>
      </trkpt>
      <trkpt lat="43.65305" lon="3.91782">
        <ele>61</ele>
        <time>2020-11-04T20:49:15Z</time>
      </trkpt>
      <trkpt lat="43.65311" lon="3.918">
        <ele>61</ele>
        <time>2020-11-04T20:49:13Z</time>
      </trkpt>
      <trkpt lat="43.65313" lon="3.91809">
        <ele>60</ele>
        <time>2020-11-04T20:49:12Z</time>
      </trkpt>
      <trkpt lat="43.65316" lon="3.91817">
        <ele>60</ele>
        <time>2020-11-04T20:49:11Z</time>
      </trkpt>
      <trkpt lat="43.65319" lon="3.91826">
        <ele>60</ele>
        <time>2020-11-04T20:49:10Z</time>
      </trkpt>
      <trkpt lat="43.65321" lon="3.91834">
        <ele>60</ele>
        <time>2020-11-04T20:49:09Z</time>
      </trkpt>
      <trkpt lat="43.65324" lon="3.91842">
        <ele>60</ele>
        <time>2020-11-04T20:49:08Z</time>
      </trkpt>
      <trkpt lat="43.65328" lon="3.9185">
        <ele>60</ele>
        <time>2020-11-04T20:49:07Z</time>
      </trkpt>
      <trkpt lat="43.65331" lon="3.91858">
        <ele>60</ele>
        <time>2020-11-04T20:49:06Z</time>
      </trkpt>
      <trkpt lat="43.65344" lon="3.91888">
        <ele>59</ele>
        <time>2020-11-04T20:49:02Z</time>
      </trkpt>
      <trkpt lat="43.6535" lon="3.91903">
        <ele>58</ele>
        <time>2020-11-04T20:49:00Z</time>
      </trkpt>
      <trkpt lat="43.65359" lon="3.91924">
        <ele>57</ele>
        <time>2020-11-04T20:48:57Z</time>
      </trkpt>
      <trkpt lat="43.65383" lon="3.91979">
        <ele>56</ele>
        <time>2020-11-04T20:48:49Z</time>
      </trkpt>
      <trkpt lat="43.65386" lon="3.91986">
        <ele>56</ele>
        <time>2020-11-04T20:48:48Z</time>
      </trkpt>
      <trkpt lat="43.65389" lon="3.91992">
        <ele>55</ele>
        <time>2020-11-04T20:48:47Z</time>
      </trkpt>
      <trkpt lat="43.65405" lon="3.92025">
        <ele>55</ele>
        <time>2020-11-04T20:48:42Z</time>
      </trkpt>
      <trkpt lat="43.65408" lon="3.9203">
        <ele>55</ele>
        <time>2020-11-04T20:48:41Z</time>
      </trkpt>
      <trkpt lat="43.65412" lon="3.92036">
        <ele>55</ele>
        <time>2020-11-04T20:48:40Z</time>
      </trkpt>
      <trkpt lat="43.65415" lon="3.92041">
        <ele>55</ele>
        <time>2020-11-04T20:48:39Z</time>
      </trkpt>
      <trkpt lat="43.65419" lon="3.92046">
        <ele>55</ele>
        <time>2020-11-04T20:48:38Z</time>
      </trkpt>
      <trkpt lat="43.65422" lon="3.92049">
        <ele>55</ele>
        <time>2020-11-04T20:48:37Z</time>
      </trkpt>
      <trkpt lat="43.65428" lon="3.92053">
        <ele>55</ele>
        <time>2020-11-04T20:48:35Z</time>
      </trkpt>
      <trkpt lat="43.6543" lon="3.92062">
        <ele>55</ele>
        <time>2020-11-04T20:48:33Z</time>
      </trkpt>
      <trkpt lat="43.65427" lon="3.92073">
        <ele>54</ele>
        <time>2020-11-04T20:48:31Z</time>
      </trkpt>
      <trkpt lat="43.65427" lon="3.92096">
        <ele>54</ele>
        <time>2020-11-04T20:48:28Z</time>
      </trkpt>
      <trkpt lat="43.65445" lon="3.92152">
        <ele>53</ele>
        <time>2020-11-04T20:48:21Z</time>
      </trkpt>
      <trkpt lat="43.65448" lon="3.9216">
        <ele>53</ele>
        <time>2020-11-04T20:48:20Z</time>
      </trkpt>
      <trkpt lat="43.65457" lon="3.92184">
        <ele>53</ele>
        <time>2020-11-04T20:48:17Z</time>
      </trkpt>
      <trkpt lat="43.65493" lon="3.92295">
        <ele>53</ele>
        <time>2020-11-04T20:48:03Z</time>
      </trkpt>
      <trkpt lat="43.65496" lon="3.92303">
        <ele>53</ele>
        <time>2020-11-04T20:48:02Z</time>
      </trkpt>
      <trkpt lat="43.65499" lon="3.92311">
        <ele>52</ele>
        <time>2020-11-04T20:48:01Z</time>
      </trkpt>
      <trkpt lat="43.65527" lon="3.92411">
        <ele>51</ele>
        <time>2020-11-04T20:47:48Z</time>
      </trkpt>
      <trkpt lat="43.6553" lon="3.92427">
        <ele>51</ele>
        <time>2020-11-04T20:47:46Z</time>
      </trkpt>
      <trkpt lat="43.65552" lon="3.92528">
        <ele>49</ele>
        <time>2020-11-04T20:47:34Z</time>
      </trkpt>
      <trkpt lat="43.65553" lon="3.92536">
        <ele>49</ele>
        <time>2020-11-04T20:47:33Z</time>
      </trkpt>
      <trkpt lat="43.65554" lon="3.92545">
        <ele>49</ele>
        <time>2020-11-04T20:47:32Z</time>
      </trkpt>
      <trkpt lat="43.65555" lon="3.92553">
        <ele>49</ele>
        <time>2020-11-04T20:47:31Z</time>
      </trkpt>
      <trkpt lat="43.65562" lon="3.92644">
        <ele>46</ele>
        <time>2020-11-04T20:47:20Z</time>
      </trkpt>
      <trkpt lat="43.65563" lon="3.92652">
        <ele>46</ele>
        <time>2020-11-04T20:47:19Z</time>
      </trkpt>
      <trkpt lat="43.65564" lon="3.9266">
        <ele>46</ele>
        <time>2020-11-04T20:47:18Z</time>
      </trkpt>
      <trkpt lat="43.65564" lon="3.92668">
        <ele>45</ele>
        <time>2020-11-04T20:47:17Z</time>
      </trkpt>
      <trkpt lat="43.65564" lon="3.92675">
        <ele>45</ele>
        <time>2020-11-04T20:47:16Z</time>
      </trkpt>
      <trkpt lat="43.65564" lon="3.92682">
        <ele>45</ele>
        <time>2020-11-04T20:47:15Z</time>
      </trkpt>
      <trkpt lat="43.65565" lon="3.92689">
        <ele>45</ele>
        <time>2020-11-04T20:47:14Z</time>
      </trkpt>
      <trkpt lat="43.65572" lon="3.92766">
        <ele>43</ele>
        <time>2020-11-04T20:47:05Z</time>
      </trkpt>
      <trkpt lat="43.65573" lon="3.92774">
        <ele>43</ele>
        <time>2020-11-04T20:47:04Z</time>
      </trkpt>
      <trkpt lat="43.65574" lon="3.92783">
        <ele>43</ele>
        <time>2020-11-04T20:47:03Z</time>
      </trkpt>
      <trkpt lat="43.65575" lon="3.92791">
        <ele>43</ele>
        <time>2020-11-04T20:47:02Z</time>
      </trkpt>
      <trkpt lat="43.6558" lon="3.92822">
        <ele>42</ele>
        <time>2020-11-04T20:46:58Z</time>
      </trkpt>
      <trkpt lat="43.6562" lon="3.92931">
        <ele>41</ele>
        <time>2020-11-04T20:46:43Z</time>
      </trkpt>
      <trkpt lat="43.65658" lon="3.93034">
        <ele>40</ele>
        <time>2020-11-04T20:46:29Z</time>
      </trkpt>
      <trkpt lat="43.65664" lon="3.93055">
        <ele>40</ele>
        <time>2020-11-04T20:46:26Z</time>
      </trkpt>
      <trkpt lat="43.65669" lon="3.93069">
        <ele>40</ele>
        <time>2020-11-04T20:46:24Z</time>
      </trkpt>
      <trkpt lat="43.65671" lon="3.93077">
        <ele>40</ele>
        <time>2020-11-04T20:46:23Z</time>
      </trkpt>
      <trkpt lat="43.65672" lon="3.93082">
        <ele>40</ele>
        <time>2020-11-04T20:46:22Z</time>
      </trkpt>
      <trkpt lat="43.65674" lon="3.93096">
        <ele>39</ele>
        <time>2020-11-04T20:46:20Z</time>
      </trkpt>
      <trkpt lat="43.65672" lon="3.93128">
        <ele>39</ele>
        <time>2020-11-04T20:46:15Z</time>
      </trkpt>
      <trkpt lat="43.65672" lon="3.93135">
        <ele>39</ele>
        <time>2020-11-04T20:46:14Z</time>
      </trkpt>
      <trkpt lat="43.65671" lon="3.93149">
        <ele>39</ele>
        <time>2020-11-04T20:46:12Z</time>
      </trkpt>
      <trkpt lat="43.65671" lon="3.93157">
        <ele>39</ele>
        <time>2020-11-04T20:46:11Z</time>
      </trkpt>
      <trkpt lat="43.65671" lon="3.93165">
        <ele>39</ele>
        <time>2020-11-04T20:46:10Z</time>
      </trkpt>
      <trkpt lat="43.6567" lon="3.93173">
        <ele>39</ele>
        <time>2020-11-04T20:46:09Z</time>
      </trkpt>
      <trkpt lat="43.6567" lon="3.9318">
        <ele>39</ele>
        <time>2020-11-04T20:46:08Z</time>
      </trkpt>
      <trkpt lat="43.65667" lon="3.93202">
        <ele>39</ele>
        <time>2020-11-04T20:46:05Z</time>
      </trkpt>
      <trkpt lat="43.65666" lon="3.93217">
        <ele>39</ele>
        <time>2020-11-04T20:46:03Z</time>
      </trkpt>
      <trkpt lat="43.65663" lon="3.93296">
        <ele>38</ele>
        <time>2020-11-04T20:45:54Z</time>
      </trkpt>
      <trkpt lat="43.65662" lon="3.93305">
        <ele>38</ele>
        <time>2020-11-04T20:45:53Z</time>
      </trkpt>
      <trkpt lat="43.65661" lon="3.93313">
        <ele>38</ele>
        <time>2020-11-04T20:45:52Z</time>
      </trkpt>
      <trkpt lat="43.6566" lon="3.93322">
        <ele>38</ele>
        <time>2020-11-04T20:45:51Z</time>
      </trkpt>
      <trkpt lat="43.65658" lon="3.93349">
        <ele>38</ele>
        <time>2020-11-04T20:45:48Z</time>
      </trkpt>
      <trkpt lat="43.65648" lon="3.93381">
        <ele>38</ele>
        <time>2020-11-04T20:45:44Z</time>
      </trkpt>
      <trkpt lat="43.65646" lon="3.93389">
        <ele>38</ele>
        <time>2020-11-04T20:45:43Z</time>
      </trkpt>
      <trkpt lat="43.65644" lon="3.93397">
        <ele>38</ele>
        <time>2020-11-04T20:45:42Z</time>
      </trkpt>
      <trkpt lat="43.65643" lon="3.93405">
        <ele>38</ele>
        <time>2020-11-04T20:45:41Z</time>
      </trkpt>
      <trkpt lat="43.65641" lon="3.93439">
        <ele>38</ele>
        <time>2020-11-04T20:45:37Z</time>
      </trkpt>
      <trkpt lat="43.65633" lon="3.93486">
        <ele>38</ele>
        <time>2020-11-04T20:45:31Z</time>
      </trkpt>
      <trkpt lat="43.6563" lon="3.93494">
        <ele>38</ele>
        <time>2020-11-04T20:45:30Z</time>
      </trkpt>
      <trkpt lat="43.65629" lon="3.93502">
        <ele>38</ele>
        <time>2020-11-04T20:45:29Z</time>
      </trkpt>
      <trkpt lat="43.65629" lon="3.93511">
        <ele>38</ele>
        <time>2020-11-04T20:45:28Z</time>
      </trkpt>
      <trkpt lat="43.6563" lon="3.93519">
        <ele>38</ele>
        <time>2020-11-04T20:45:27Z</time>
      </trkpt>
      <trkpt lat="43.6565" lon="3.93546">
        <ele>39</ele>
        <time>2020-11-04T20:45:23Z</time>
      </trkpt>
      <trkpt lat="43.65701" lon="3.93571">
        <ele>39</ele>
        <time>2020-11-04T20:45:15Z</time>
      </trkpt>
      <trkpt lat="43.65708" lon="3.93573">
        <ele>39</ele>
        <time>2020-11-04T20:45:14Z</time>
      </trkpt>
      <trkpt lat="43.65722" lon="3.93578">
        <ele>39</ele>
        <time>2020-11-04T20:45:12Z</time>
      </trkpt>
      <trkpt lat="43.65729" lon="3.9358">
        <ele>39</ele>
        <time>2020-11-04T20:45:11Z</time>
      </trkpt>
      <trkpt lat="43.65735" lon="3.93582">
        <ele>40</ele>
        <time>2020-11-04T20:45:10Z</time>
      </trkpt>
      <trkpt lat="43.65742" lon="3.93583">
        <ele>40</ele>
        <time>2020-11-04T20:45:09Z</time>
      </trkpt>
      <trkpt lat="43.65756" lon="3.93587">
        <ele>40</ele>
        <time>2020-11-04T20:45:07Z</time>
      </trkpt>
      <trkpt lat="43.6578" lon="3.93601">
        <ele>40</ele>
        <time>2020-11-04T20:45:03Z</time>
      </trkpt>
      <trkpt lat="43.65799" lon="3.9361">
        <ele>40</ele>
        <time>2020-11-04T20:45:00Z</time>
      </trkpt>
      <trkpt lat="43.65806" lon="3.93611">
        <ele>40</ele>
        <time>2020-11-04T20:44:59Z</time>
      </trkpt>
      <trkpt lat="43.65813" lon="3.93612">
        <ele>40</ele>
        <time>2020-11-04T20:44:58Z</time>
      </trkpt>
      <trkpt lat="43.65834" lon="3.93612">
        <ele>40</ele>
        <time>2020-11-04T20:44:55Z</time>
      </trkpt>
      <trkpt lat="43.6584" lon="3.93613">
        <ele>40</ele>
        <time>2020-11-04T20:44:54Z</time>
      </trkpt>
      <trkpt lat="43.65853" lon="3.93617">
        <ele>40</ele>
        <time>2020-11-04T20:44:52Z</time>
      </trkpt>
      <trkpt lat="43.65859" lon="3.9362">
        <ele>40</ele>
        <time>2020-11-04T20:44:51Z</time>
      </trkpt>
      <trkpt lat="43.65865" lon="3.93624">
        <ele>40</ele>
        <time>2020-11-04T20:44:50Z</time>
      </trkpt>
      <trkpt lat="43.6587" lon="3.93628">
        <ele>40</ele>
        <time>2020-11-04T20:44:49Z</time>
      </trkpt>
      <trkpt lat="43.65875" lon="3.93632">
        <ele>41</ele>
        <time>2020-11-04T20:44:48Z</time>
      </trkpt>
      <trkpt lat="43.65879" lon="3.93636">
        <ele>41</ele>
        <time>2020-11-04T20:44:47Z</time>
      </trkpt>
      <trkpt lat="43.65888" lon="3.9364">
        <ele>41</ele>
        <time>2020-11-04T20:44:45Z</time>
      </trkpt>
      <trkpt lat="43.65893" lon="3.93639">
        <ele>41</ele>
        <time>2020-11-04T20:44:44Z</time>
      </trkpt>
      <trkpt lat="43.65899" lon="3.93637">
        <ele>41</ele>
        <time>2020-11-04T20:44:43Z</time>
      </trkpt>
      <trkpt lat="43.65905" lon="3.93636">
        <ele>41</ele>
        <time>2020-11-04T20:44:36Z</time>
      </trkpt>
      <trkpt lat="43.65912" lon="3.93635">
        <ele>41</ele>
        <time>2020-11-04T20:44:35Z</time>
      </trkpt>
      <trkpt lat="43.65914" lon="3.93637">
        <ele>41</ele>
        <time>2020-11-04T20:44:34Z</time>
      </trkpt>
      <trkpt lat="43.65916" lon="3.93639">
        <ele>41</ele>
        <time>2020-11-04T20:44:33Z</time>
      </trkpt>
      <trkpt lat="43.6592" lon="3.93642">
        <ele>42</ele>
        <time>2020-11-04T20:44:32Z</time>
      </trkpt>
      <trkpt lat="43.65937" lon="3.93662">
        <ele>42</ele>
        <time>2020-11-04T20:44:28Z</time>
      </trkpt>
      <trkpt lat="43.65952" lon="3.9372">
        <ele>42</ele>
        <time>2020-11-04T20:44:21Z</time>
      </trkpt>
      <trkpt lat="43.65953" lon="3.93729">
        <ele>42</ele>
        <time>2020-11-04T20:44:20Z</time>
      </trkpt>
      <trkpt lat="43.65955" lon="3.93738">
        <ele>42</ele>
        <time>2020-11-04T20:44:19Z</time>
      </trkpt>
      <trkpt lat="43.65956" lon="3.93746">
        <ele>42</ele>
        <time>2020-11-04T20:44:18Z</time>
      </trkpt>
      <trkpt lat="43.65963" lon="3.93783">
        <ele>42</ele>
        <time>2020-11-04T20:44:13Z</time>
      </trkpt>
      <trkpt lat="43.65965" lon="3.93791">
        <ele>41</ele>
        <time>2020-11-04T20:44:12Z</time>
      </trkpt>
      <trkpt lat="43.65967" lon="3.93798">
        <ele>41</ele>
        <time>2020-11-04T20:44:11Z</time>
      </trkpt>
      <trkpt lat="43.65969" lon="3.93804">
        <ele>41</ele>
        <time>2020-11-04T20:44:10Z</time>
      </trkpt>
      <trkpt lat="43.6597" lon="3.9381">
        <ele>41</ele>
        <time>2020-11-04T20:44:09Z</time>
      </trkpt>
      <trkpt lat="43.65973" lon="3.93813">
        <ele>41</ele>
        <time>2020-11-04T20:44:08Z</time>
      </trkpt>
      <trkpt lat="43.65975" lon="3.93814">
        <ele>41</ele>
        <time>2020-11-04T20:44:07Z</time>
      </trkpt>
      <trkpt lat="43.65985" lon="3.93816">
        <ele>41</ele>
        <time>2020-11-04T20:44:04Z</time>
      </trkpt>
      <trkpt lat="43.65988" lon="3.9382">
        <ele>41</ele>
        <time>2020-11-04T20:44:03Z</time>
      </trkpt>
      <trkpt lat="43.65991" lon="3.93825">
        <ele>42</ele>
        <time>2020-11-04T20:44:02Z</time>
      </trkpt>
      <trkpt lat="43.65993" lon="3.93832">
        <ele>42</ele>
        <time>2020-11-04T20:44:01Z</time>
      </trkpt>
      <trkpt lat="43.65995" lon="3.9384">
        <ele>42</ele>
        <time>2020-11-04T20:44:00Z</time>
      </trkpt>
      <trkpt lat="43.65997" lon="3.93861">
        <ele>42</ele>
        <time>2020-11-04T20:43:57Z</time>
      </trkpt>
      <trkpt lat="43.66002" lon="3.93893">
        <ele>43</ele>
        <time>2020-11-04T20:43:53Z</time>
      </trkpt>
      <trkpt lat="43.66004" lon="3.93901">
        <ele>43</ele>
        <time>2020-11-04T20:43:52Z</time>
      </trkpt>
      <trkpt lat="43.66006" lon="3.93909">
        <ele>43</ele>
        <time>2020-11-04T20:43:51Z</time>
      </trkpt>
      <trkpt lat="43.66007" lon="3.93916">
        <ele>43</ele>
        <time>2020-11-04T20:43:50Z</time>
      </trkpt>
      <trkpt lat="43.66007" lon="3.93923">
        <ele>43</ele>
        <time>2020-11-04T20:43:49Z</time>
      </trkpt>
      <trkpt lat="43.66007" lon="3.93929">
        <ele>43</ele>
        <time>2020-11-04T20:43:48Z</time>
      </trkpt>
      <trkpt lat="43.66007" lon="3.93935">
        <ele>43</ele>
        <time>2020-11-04T20:43:47Z</time>
      </trkpt>
      <trkpt lat="43.66008" lon="3.93943">
        <ele>43</ele>
        <time>2020-11-04T20:43:45Z</time>
      </trkpt>
      <trkpt lat="43.6601" lon="3.93946">
        <ele>43</ele>
        <time>2020-11-04T20:43:44Z</time>
      </trkpt>
      <trkpt lat="43.66011" lon="3.9395">
        <ele>44</ele>
        <time>2020-11-04T20:43:43Z</time>
      </trkpt>
      <trkpt lat="43.66013" lon="3.93962">
        <ele>44</ele>
        <time>2020-11-04T20:43:41Z</time>
      </trkpt>
      <trkpt lat="43.66015" lon="3.93969">
        <ele>44</ele>
        <time>2020-11-04T20:43:40Z</time>
      </trkpt>
      <trkpt lat="43.66016" lon="3.93977">
        <ele>44</ele>
        <time>2020-11-04T20:43:39Z</time>
      </trkpt>
      <trkpt lat="43.66024" lon="3.94013">
        <ele>45</ele>
        <time>2020-11-04T20:43:34Z</time>
      </trkpt>
      <trkpt lat="43.66026" lon="3.94021">
        <ele>45</ele>
        <time>2020-11-04T20:43:33Z</time>
      </trkpt>
      <trkpt lat="43.66028" lon="3.94028">
        <ele>46</ele>
        <time>2020-11-04T20:43:32Z</time>
      </trkpt>
      <trkpt lat="43.6603" lon="3.94035">
        <ele>46</ele>
        <time>2020-11-04T20:43:31Z</time>
      </trkpt>
      <trkpt lat="43.66032" lon="3.94042">
        <ele>46</ele>
        <time>2020-11-04T20:43:30Z</time>
      </trkpt>
      <trkpt lat="43.66034" lon="3.94048">
        <ele>47</ele>
        <time>2020-11-04T20:43:29Z</time>
      </trkpt>
      <trkpt lat="43.66036" lon="3.94056">
        <ele>47</ele>
        <time>2020-11-04T20:43:28Z</time>
      </trkpt>
      <trkpt lat="43.66037" lon="3.94065">
        <ele>47</ele>
        <time>2020-11-04T20:43:27Z</time>
      </trkpt>
      <trkpt lat="43.66046" lon="3.94113">
        <ele>48</ele>
        <time>2020-11-04T20:43:22Z</time>
      </trkpt>
      <trkpt lat="43.66049" lon="3.94123">
        <ele>48</ele>
        <time>2020-11-04T20:43:21Z</time>
      </trkpt>
      <trkpt lat="43.66052" lon="3.94133">
        <ele>49</ele>
        <time>2020-11-04T20:43:20Z</time>
      </trkpt>
      <trkpt lat="43.66054" lon="3.94142">
        <ele>49</ele>
        <time>2020-11-04T20:43:19Z</time>
      </trkpt>
      <trkpt lat="43.66055" lon="3.94151">
        <ele>49</ele>
        <time>2020-11-04T20:43:18Z</time>
      </trkpt>
      <trkpt lat="43.66058" lon="3.9416">
        <ele>49</ele>
        <time>2020-11-04T20:43:17Z</time>
      </trkpt>
      <trkpt lat="43.66059" lon="3.94167">
        <ele>49</ele>
        <time>2020-11-04T20:43:16Z</time>
      </trkpt>
      <trkpt lat="43.66065" lon="3.9419">
        <ele>49</ele>
        <time>2020-11-04T20:43:13Z</time>
      </trkpt>
      <trkpt lat="43.66066" lon="3.94198">
        <ele>49</ele>
        <time>2020-11-04T20:43:12Z</time>
      </trkpt>
      <trkpt lat="43.66068" lon="3.94207">
        <ele>49</ele>
        <time>2020-11-04T20:43:11Z</time>
      </trkpt>
      <trkpt lat="43.6607" lon="3.94215">
        <ele>49</ele>
        <time>2020-11-04T20:43:10Z</time>
      </trkpt>
      <trkpt lat="43.66072" lon="3.94223">
        <ele>50</ele>
        <time>2020-11-04T20:42:41Z</time>
      </trkpt>
      <trkpt lat="43.66076" lon="3.94231">
        <ele>50</ele>
        <time>2020-11-04T20:42:40Z</time>
      </trkpt>
      <trkpt lat="43.66078" lon="3.94231">
        <ele>50</ele>
        <time>2020-11-04T20:42:39Z</time>
      </trkpt>
      <trkpt lat="43.66086" lon="3.94228">
        <ele>50</ele>
        <time>2020-11-04T20:42:37Z</time>
      </trkpt>
      <trkpt lat="43.6609" lon="3.94226">
        <ele>50</ele>
        <time>2020-11-04T20:42:36Z</time>
      </trkpt>
      <trkpt lat="43.66095" lon="3.94225">
        <ele>50</ele>
        <time>2020-11-04T20:42:35Z</time>
      </trkpt>
      <trkpt lat="43.66099" lon="3.94225">
        <ele>50</ele>
        <time>2020-11-04T20:42:34Z</time>
      </trkpt>
      <trkpt lat="43.66103" lon="3.94226">
        <ele>50</ele>
        <time>2020-11-04T20:42:33Z</time>
      </trkpt>
      <trkpt lat="43.66109" lon="3.94229">
        <ele>50</ele>
        <time>2020-11-04T20:42:31Z</time>
      </trkpt>
      <trkpt lat="43.66112" lon="3.94231">
        <ele>50</ele>
        <time>2020-11-04T20:42:30Z</time>
      </trkpt>
      <trkpt lat="43.66114" lon="3.94233">
        <ele>50</ele>
        <time>2020-11-04T20:42:29Z</time>
      </trkpt>
      <trkpt lat="43.66116" lon="3.94239">
        <ele>49</ele>
        <time>2020-11-04T20:42:27Z</time>
      </trkpt>
      <trkpt lat="43.66117" lon="3.94243">
        <ele>49</ele>
        <time>2020-11-04T20:42:26Z</time>
      </trkpt>
      <trkpt lat="43.66118" lon="3.94246">
        <ele>49</ele>
        <time>2020-11-04T20:42:25Z</time>
      </trkpt>
      <trkpt lat="43.66119" lon="3.94249">
        <ele>49</ele>
        <time>2020-11-04T20:42:24Z</time>
      </trkpt>
      <trkpt lat="43.6612" lon="3.94252">
        <ele>49</ele>
        <time>2020-11-04T20:42:23Z</time>
      </trkpt>
      <trkpt lat="43.6612" lon="3.94254">
        <ele>49</ele>
        <time>2020-11-04T20:42:22Z</time>
      </trkpt>
      <trkpt lat="43.66122" lon="3.94257">
        <ele>49</ele>
        <time>2020-11-04T20:42:21Z</time>
      </trkpt>
      <trkpt lat="43.66124" lon="3.94267">
        <ele>49</ele>
        <time>2020-11-04T20:42:19Z</time>
      </trkpt>
      <trkpt lat="43.66125" lon="3.94273">
        <ele>49</ele>
        <time>2020-11-04T20:42:18Z</time>
      </trkpt>
      <trkpt lat="43.66126" lon="3.94285">
        <ele>48</ele>
        <time>2020-11-04T20:42:16Z</time>
      </trkpt>
      <trkpt lat="43.66129" lon="3.94298">
        <ele>48</ele>
        <time>2020-11-04T20:42:14Z</time>
      </trkpt>
      <trkpt lat="43.66139" lon="3.94325">
        <ele>48</ele>
        <time>2020-11-04T20:42:10Z</time>
      </trkpt>
      <trkpt lat="43.66143" lon="3.94331">
        <ele>48</ele>
        <time>2020-11-04T20:42:09Z</time>
      </trkpt>
      <trkpt lat="43.66151" lon="3.94341">
        <ele>47</ele>
        <time>2020-11-04T20:42:07Z</time>
      </trkpt>
      <trkpt lat="43.66154" lon="3.94347">
        <ele>48</ele>
        <time>2020-11-04T20:42:06Z</time>
      </trkpt>
      <trkpt lat="43.66159" lon="3.94352">
        <ele>48</ele>
        <time>2020-11-04T20:42:05Z</time>
      </trkpt>
      <trkpt lat="43.66162" lon="3.94356">
        <ele>48</ele>
        <time>2020-11-04T20:42:04Z</time>
      </trkpt>
      <trkpt lat="43.66161" lon="3.94369">
        <ele>48</ele>
        <time>2020-11-04T20:41:59Z</time>
      </trkpt>
      <trkpt lat="43.66156" lon="3.94372">
        <ele>48</ele>
        <time>2020-11-04T20:41:57Z</time>
      </trkpt>
      <trkpt lat="43.6615" lon="3.94377">
        <ele>48</ele>
        <time>2020-11-04T20:41:55Z</time>
      </trkpt>
      <trkpt lat="43.66146" lon="3.9438">
        <ele>48</ele>
        <time>2020-11-04T20:41:54Z</time>
      </trkpt>
      <trkpt lat="43.66144" lon="3.94383">
        <ele>48</ele>
        <time>2020-11-04T20:41:53Z</time>
      </trkpt>
      <trkpt lat="43.66141" lon="3.94386">
        <ele>48</ele>
        <time>2020-11-04T20:41:52Z</time>
      </trkpt>
      <trkpt lat="43.66138" lon="3.94389">
        <ele>48</ele>
        <time>2020-11-04T20:41:51Z</time>
      </trkpt>
      <trkpt lat="43.66127" lon="3.94402">
        <ele>48</ele>
        <time>2020-11-04T20:41:47Z</time>
      </trkpt>
      <trkpt lat="43.66119" lon="3.94416">
        <ele>49</ele>
        <time>2020-11-04T20:41:44Z</time>
      </trkpt>
      <trkpt lat="43.66115" lon="3.9443">
        <ele>49</ele>
        <time>2020-11-04T20:41:42Z</time>
      </trkpt>
      <trkpt lat="43.66112" lon="3.94461">
        <ele>50</ele>
        <time>2020-11-04T20:41:38Z</time>
      </trkpt>
      <trkpt lat="43.66118" lon="3.94484">
        <ele>50</ele>
        <time>2020-11-04T20:41:35Z</time>
      </trkpt>
      <trkpt lat="43.66121" lon="3.94491">
        <ele>50</ele>
        <time>2020-11-04T20:41:34Z</time>
      </trkpt>
      <trkpt lat="43.66125" lon="3.94504">
        <ele>50</ele>
        <time>2020-11-04T20:41:32Z</time>
      </trkpt>
      <trkpt lat="43.66128" lon="3.94511">
        <ele>50</ele>
        <time>2020-11-04T20:41:31Z</time>
      </trkpt>
      <trkpt lat="43.66131" lon="3.94518">
        <ele>50</ele>
        <time>2020-11-04T20:41:30Z</time>
      </trkpt>
      <trkpt lat="43.66133" lon="3.94524">
        <ele>50</ele>
        <time>2020-11-04T20:41:29Z</time>
      </trkpt>
      <trkpt lat="43.66136" lon="3.94537">
        <ele>50</ele>
        <time>2020-11-04T20:41:27Z</time>
      </trkpt>
      <trkpt lat="43.66136" lon="3.9455">
        <ele>50</ele>
        <time>2020-11-04T20:41:25Z</time>
      </trkpt>
      <trkpt lat="43.66137" lon="3.94556">
        <ele>50</ele>
        <time>2020-11-04T20:41:24Z</time>
      </trkpt>
      <trkpt lat="43.66136" lon="3.94561">
        <ele>50</ele>
        <time>2020-11-04T20:41:23Z</time>
      </trkpt>
      <trkpt lat="43.66136" lon="3.94566">
        <ele>50</ele>
        <time>2020-11-04T20:41:22Z</time>
      </trkpt>
      <trkpt lat="43.66135" lon="3.94571">
        <ele>50</ele>
        <time>2020-11-04T20:41:21Z</time>
      </trkpt>
      <trkpt lat="43.66134" lon="3.94575">
        <ele>51</ele>
        <time>2020-11-04T20:41:20Z</time>
      </trkpt>
      <trkpt lat="43.66134" lon="3.94578">
        <ele>51</ele>
        <time>2020-11-04T20:41:19Z</time>
      </trkpt>
      <trkpt lat="43.66134" lon="3.9458">
        <ele>51</ele>
        <time>2020-11-04T20:41:17Z</time>
      </trkpt>
      <trkpt lat="43.66136" lon="3.94581">
        <ele>51</ele>
        <time>2020-11-04T20:41:15Z</time>
      </trkpt>
      <trkpt lat="43.66138" lon="3.94581">
        <ele>51</ele>
        <time>2020-11-04T20:41:14Z</time>
      </trkpt>
      <trkpt lat="43.66141" lon="3.9458">
        <ele>52</ele>
        <time>2020-11-04T20:41:11Z</time>
      </trkpt>
      <trkpt lat="43.66143" lon="3.9458">
        <ele>52</ele>
        <time>2020-11-04T20:41:10Z</time>
      </trkpt>
      <trkpt lat="43.66146" lon="3.9458">
        <ele>52</ele>
        <time>2020-11-04T20:41:09Z</time>
      </trkpt>
      <trkpt lat="43.66151" lon="3.9458">
        <ele>53</ele>
        <time>2020-11-04T20:41:08Z</time>
      </trkpt>
      <trkpt lat="43.66179" lon="3.94578">
        <ele>53</ele>
        <time>2020-11-04T20:41:04Z</time>
      </trkpt>
      <trkpt lat="43.66186" lon="3.94578">
        <ele>54</ele>
        <time>2020-11-04T20:41:03Z</time>
      </trkpt>
      <trkpt lat="43.66226" lon="3.94573">
        <ele>55</ele>
        <time>2020-11-04T20:40:57Z</time>
      </trkpt>
      <trkpt lat="43.66239" lon="3.94572">
        <ele>55</ele>
        <time>2020-11-04T20:40:55Z</time>
      </trkpt>
      <trkpt lat="43.66246" lon="3.94571">
        <ele>55</ele>
        <time>2020-11-04T20:40:54Z</time>
      </trkpt>
      <trkpt lat="43.66253" lon="3.94571">
        <ele>55</ele>
        <time>2020-11-04T20:40:53Z</time>
      </trkpt>
      <trkpt lat="43.66277" lon="3.94566">
        <ele>56</ele>
        <time>2020-11-04T20:40:49Z</time>
      </trkpt>
      <trkpt lat="43.66283" lon="3.94564">
        <ele>56</ele>
        <time>2020-11-04T20:40:48Z</time>
      </trkpt>
      <trkpt lat="43.66294" lon="3.94561">
        <ele>56</ele>
        <time>2020-11-04T20:40:46Z</time>
      </trkpt>
      <trkpt lat="43.663" lon="3.9456">
        <ele>56</ele>
        <time>2020-11-04T20:40:45Z</time>
      </trkpt>
      <trkpt lat="43.66306" lon="3.94557">
        <ele>56</ele>
        <time>2020-11-04T20:40:44Z</time>
      </trkpt>
      <trkpt lat="43.66319" lon="3.94559">
        <ele>56</ele>
        <time>2020-11-04T20:40:41Z</time>
      </trkpt>
      <trkpt lat="43.66323" lon="3.9457">
        <ele>56</ele>
        <time>2020-11-04T20:40:39Z</time>
      </trkpt>
      <trkpt lat="43.66328" lon="3.94599">
        <ele>57</ele>
        <time>2020-11-04T20:40:35Z</time>
      </trkpt>
      <trkpt lat="43.66329" lon="3.94606">
        <ele>57</ele>
        <time>2020-11-04T20:40:34Z</time>
      </trkpt>
      <trkpt lat="43.6633" lon="3.94612">
        <ele>57</ele>
        <time>2020-11-04T20:40:33Z</time>
      </trkpt>
      <trkpt lat="43.6633" lon="3.94618">
        <ele>57</ele>
        <time>2020-11-04T20:40:32Z</time>
      </trkpt>
      <trkpt lat="43.66331" lon="3.94629">
        <ele>57</ele>
        <time>2020-11-04T20:40:30Z</time>
      </trkpt>
      <trkpt lat="43.66334" lon="3.94642">
        <ele>57</ele>
        <time>2020-11-04T20:40:28Z</time>
      </trkpt>
      <trkpt lat="43.66336" lon="3.94648">
        <ele>57</ele>
        <time>2020-11-04T20:40:27Z</time>
      </trkpt>
      <trkpt lat="43.66341" lon="3.94661">
        <ele>57</ele>
        <time>2020-11-04T20:40:25Z</time>
      </trkpt>
      <trkpt lat="43.66344" lon="3.94668">
        <ele>57</ele>
        <time>2020-11-04T20:40:24Z</time>
      </trkpt>
      <trkpt lat="43.66349" lon="3.94682">
        <ele>58</ele>
        <time>2020-11-04T20:40:22Z</time>
      </trkpt>
      <trkpt lat="43.66354" lon="3.94697">
        <ele>58</ele>
        <time>2020-11-04T20:40:20Z</time>
      </trkpt>
      <trkpt lat="43.66364" lon="3.9473">
        <ele>59</ele>
        <time>2020-11-04T20:40:16Z</time>
      </trkpt>
      <trkpt lat="43.66366" lon="3.94739">
        <ele>59</ele>
        <time>2020-11-04T20:40:15Z</time>
      </trkpt>
      <trkpt lat="43.66368" lon="3.94748">
        <ele>59</ele>
        <time>2020-11-04T20:40:14Z</time>
      </trkpt>
      <trkpt lat="43.6637" lon="3.94756">
        <ele>59</ele>
        <time>2020-11-04T20:40:13Z</time>
      </trkpt>
      <trkpt lat="43.6638" lon="3.94789">
        <ele>60</ele>
        <time>2020-11-04T20:40:09Z</time>
      </trkpt>
      <trkpt lat="43.66382" lon="3.94797">
        <ele>60</ele>
        <time>2020-11-04T20:40:08Z</time>
      </trkpt>
      <trkpt lat="43.66389" lon="3.94813">
        <ele>60</ele>
        <time>2020-11-04T20:40:06Z</time>
      </trkpt>
      <trkpt lat="43.66391" lon="3.94821">
        <ele>61</ele>
        <time>2020-11-04T20:40:05Z</time>
      </trkpt>
      <trkpt lat="43.66394" lon="3.94829">
        <ele>61</ele>
        <time>2020-11-04T20:40:04Z</time>
      </trkpt>
      <trkpt lat="43.66397" lon="3.94837">
        <ele>61</ele>
        <time>2020-11-04T20:40:03Z</time>
      </trkpt>
      <trkpt lat="43.664" lon="3.94844">
        <ele>61</ele>
        <time>2020-11-04T20:40:02Z</time>
      </trkpt>
      <trkpt lat="43.66405" lon="3.94858">
        <ele>61</ele>
        <time>2020-11-04T20:40:00Z</time>
      </trkpt>
      <trkpt lat="43.66407" lon="3.94866">
        <ele>61</ele>
        <time>2020-11-04T20:39:59Z</time>
      </trkpt>
      <trkpt lat="43.66409" lon="3.94873">
        <ele>61</ele>
        <time>2020-11-04T20:39:58Z</time>
      </trkpt>
      <trkpt lat="43.66411" lon="3.9488">
        <ele>61</ele>
        <time>2020-11-04T20:39:57Z</time>
      </trkpt>
      <trkpt lat="43.66412" lon="3.94887">
        <ele>61</ele>
        <time>2020-11-04T20:39:56Z</time>
      </trkpt>
      <trkpt lat="43.66415" lon="3.94891">
        <ele>61</ele>
        <time>2020-11-04T20:39:55Z</time>
      </trkpt>
      <trkpt lat="43.66424" lon="3.94896">
        <ele>61</ele>
        <time>2020-11-04T20:39:53Z</time>
      </trkpt>
      <trkpt lat="43.66434" lon="3.94898">
        <ele>61</ele>
        <time>2020-11-04T20:39:51Z</time>
      </trkpt>
      <trkpt lat="43.66439" lon="3.94897">
        <ele>61</ele>
        <time>2020-11-04T20:39:50Z</time>
      </trkpt>
      <trkpt lat="43.66466" lon="3.94884">
        <ele>60</ele>
        <time>2020-11-04T20:39:45Z</time>
      </trkpt>
      <trkpt lat="43.66487" lon="3.94872">
        <ele>60</ele>
        <time>2020-11-04T20:39:41Z</time>
      </trkpt>
      <trkpt lat="43.66525" lon="3.94855">
        <ele>59</ele>
        <time>2020-11-04T20:39:34Z</time>
      </trkpt>
      <trkpt lat="43.66541" lon="3.94853">
        <ele>59</ele>
        <time>2020-11-04T20:39:31Z</time>
      </trkpt>
      <trkpt lat="43.66555" lon="3.9486">
        <ele>59</ele>
        <time>2020-11-04T20:39:28Z</time>
      </trkpt>
      <trkpt lat="43.66566" lon="3.94859">
        <ele>58</ele>
        <time>2020-11-04T20:39:26Z</time>
      </trkpt>
      <trkpt lat="43.66571" lon="3.94858">
        <ele>58</ele>
        <time>2020-11-04T20:39:25Z</time>
      </trkpt>
      <trkpt lat="43.66588" lon="3.94859">
        <ele>58</ele>
        <time>2020-11-04T20:39:22Z</time>
      </trkpt>
      <trkpt lat="43.66606" lon="3.94862">
        <ele>58</ele>
        <time>2020-11-04T20:39:19Z</time>
      </trkpt>
      <trkpt lat="43.66628" lon="3.9487">
        <ele>59</ele>
        <time>2020-11-04T20:39:15Z</time>
      </trkpt>
      <trkpt lat="43.66633" lon="3.94873">
        <ele>59</ele>
        <time>2020-11-04T20:39:14Z</time>
      </trkpt>
      <trkpt lat="43.66639" lon="3.94876">
        <ele>59</ele>
        <time>2020-11-04T20:39:13Z</time>
      </trkpt>
      <trkpt lat="43.66645" lon="3.9488">
        <ele>59</ele>
        <time>2020-11-04T20:39:12Z</time>
      </trkpt>
      <trkpt lat="43.66662" lon="3.94892">
        <ele>60</ele>
        <time>2020-11-04T20:39:08Z</time>
      </trkpt>
      <trkpt lat="43.66668" lon="3.94894">
        <ele>60</ele>
        <time>2020-11-04T20:39:07Z</time>
      </trkpt>
      <trkpt lat="43.66678" lon="3.94898">
        <ele>60</ele>
        <time>2020-11-04T20:39:05Z</time>
      </trkpt>
      <trkpt lat="43.66683" lon="3.94901">
        <ele>60</ele>
        <time>2020-11-04T20:39:04Z</time>
      </trkpt>
      <trkpt lat="43.66693" lon="3.94907">
        <ele>60</ele>
        <time>2020-11-04T20:39:02Z</time>
      </trkpt>
      <trkpt lat="43.66703" lon="3.94911">
        <ele>60</ele>
        <time>2020-11-04T20:39:00Z</time>
      </trkpt>
      <trkpt lat="43.66707" lon="3.94912">
        <ele>60</ele>
        <time>2020-11-04T20:38:59Z</time>
      </trkpt>
      <trkpt lat="43.66718" lon="3.94914">
        <ele>61</ele>
        <time>2020-11-04T20:38:56Z</time>
      </trkpt>
      <trkpt lat="43.66721" lon="3.94915">
        <ele>61</ele>
        <time>2020-11-04T20:38:55Z</time>
      </trkpt>
      <trkpt lat="43.66723" lon="3.94915">
        <ele>61</ele>
        <time>2020-11-04T20:38:54Z</time>
      </trkpt>
      <trkpt lat="43.66726" lon="3.94917">
        <ele>60</ele>
        <time>2020-11-04T20:38:53Z</time>
      </trkpt>
      <trkpt lat="43.66732" lon="3.94919">
        <ele>60</ele>
        <time>2020-11-04T20:38:50Z</time>
      </trkpt>
      <trkpt lat="43.66735" lon="3.9492">
        <ele>60</ele>
        <time>2020-11-04T20:38:49Z</time>
      </trkpt>
      <trkpt lat="43.66738" lon="3.9492">
        <ele>60</ele>
        <time>2020-11-04T20:38:48Z</time>
      </trkpt>
      <trkpt lat="43.66739" lon="3.9492">
        <ele>60</ele>
        <time>2020-11-04T20:38:47Z</time>
      </trkpt>
      <trkpt lat="43.66739" lon="3.9492">
        <ele>60</ele>
        <time>2020-11-04T20:38:46Z</time>
      </trkpt>
      <trkpt lat="43.66742" lon="3.94937">
        <ele>59</ele>
        <time>2020-11-04T20:38:34Z</time>
      </trkpt>
      <trkpt lat="43.66742" lon="3.94939">
        <ele>59</ele>
        <time>2020-11-04T20:38:33Z</time>
      </trkpt>
      <trkpt lat="43.66741" lon="3.94941">
        <ele>59</ele>
        <time>2020-11-04T20:38:32Z</time>
      </trkpt>
      <trkpt lat="43.66741" lon="3.94949">
        <ele>59</ele>
        <time>2020-11-04T20:38:30Z</time>
      </trkpt>
      <trkpt lat="43.6674" lon="3.94954">
        <ele>58</ele>
        <time>2020-11-04T20:38:29Z</time>
      </trkpt>
      <trkpt lat="43.6674" lon="3.94961">
        <ele>58</ele>
        <time>2020-11-04T20:38:27Z</time>
      </trkpt>
      <trkpt lat="43.66739" lon="3.94965">
        <ele>58</ele>
        <time>2020-11-04T20:38:26Z</time>
      </trkpt>
      <trkpt lat="43.66739" lon="3.94974">
        <ele>58</ele>
        <time>2020-11-04T20:38:24Z</time>
      </trkpt>
      <trkpt lat="43.66737" lon="3.94985">
        <ele>58</ele>
        <time>2020-11-04T20:38:22Z</time>
      </trkpt>
      <trkpt lat="43.66733" lon="3.95004">
        <ele>58</ele>
        <time>2020-11-04T20:38:19Z</time>
      </trkpt>
      <trkpt lat="43.66731" lon="3.9501">
        <ele>58</ele>
        <time>2020-11-04T20:38:18Z</time>
      </trkpt>
      <trkpt lat="43.66726" lon="3.95029">
        <ele>58</ele>
        <time>2020-11-04T20:38:15Z</time>
      </trkpt>
      <trkpt lat="43.66725" lon="3.95037">
        <ele>58</ele>
        <time>2020-11-04T20:38:14Z</time>
      </trkpt>
      <trkpt lat="43.66723" lon="3.95051">
        <ele>58</ele>
        <time>2020-11-04T20:38:12Z</time>
      </trkpt>
      <trkpt lat="43.66723" lon="3.95064">
        <ele>58</ele>
        <time>2020-11-04T20:38:10Z</time>
      </trkpt>
      <trkpt lat="43.66737" lon="3.95134">
        <ele>58</ele>
        <time>2020-11-04T20:38:00Z</time>
      </trkpt>
      <trkpt lat="43.66737" lon="3.95142">
        <ele>58</ele>
        <time>2020-11-04T20:37:59Z</time>
      </trkpt>
      <trkpt lat="43.66737" lon="3.9515">
        <ele>58</ele>
        <time>2020-11-04T20:37:58Z</time>
      </trkpt>
      <trkpt lat="43.66737" lon="3.95157">
        <ele>58</ele>
        <time>2020-11-04T20:37:57Z</time>
      </trkpt>
      <trkpt lat="43.66735" lon="3.95164">
        <ele>58</ele>
        <time>2020-11-04T20:37:56Z</time>
      </trkpt>
      <trkpt lat="43.66735" lon="3.9517">
        <ele>58</ele>
        <time>2020-11-04T20:37:55Z</time>
      </trkpt>
      <trkpt lat="43.66735" lon="3.95175">
        <ele>58</ele>
        <time>2020-11-04T20:37:54Z</time>
      </trkpt>
      <trkpt lat="43.66736" lon="3.9518">
        <ele>58</ele>
        <time>2020-11-04T20:37:53Z</time>
      </trkpt>
      <trkpt lat="43.66737" lon="3.95184">
        <ele>58</ele>
        <time>2020-11-04T20:37:52Z</time>
      </trkpt>
      <trkpt lat="43.66738" lon="3.95188">
        <ele>58</ele>
        <time>2020-11-04T20:37:51Z</time>
      </trkpt>
      <trkpt lat="43.66738" lon="3.9519">
        <ele>58</ele>
        <time>2020-11-04T20:37:50Z</time>
      </trkpt>
      <trkpt lat="43.66739" lon="3.95192">
        <ele>58</ele>
        <time>2020-11-04T20:37:49Z</time>
      </trkpt>
      <trkpt lat="43.6674" lon="3.95194">
        <ele>58</ele>
        <time>2020-11-04T20:37:48Z</time>
      </trkpt>
      <trkpt lat="43.6674" lon="3.95197">
        <ele>58</ele>
        <time>2020-11-04T20:37:47Z</time>
      </trkpt>
      <trkpt lat="43.66742" lon="3.95208">
        <ele>58</ele>
        <time>2020-11-04T20:37:45Z</time>
      </trkpt>
      <trkpt lat="43.66746" lon="3.9524">
        <ele>58</ele>
        <time>2020-11-04T20:37:40Z</time>
      </trkpt>
      <trkpt lat="43.66747" lon="3.95247">
        <ele>58</ele>
        <time>2020-11-04T20:37:39Z</time>
      </trkpt>
      <trkpt lat="43.66747" lon="3.95316">
        <ele>58</ele>
        <time>2020-11-04T20:37:30Z</time>
      </trkpt>
      <trkpt lat="43.66747" lon="3.95324">
        <ele>58</ele>
        <time>2020-11-04T20:37:29Z</time>
      </trkpt>
      <trkpt lat="43.66746" lon="3.95332">
        <ele>58</ele>
        <time>2020-11-04T20:37:28Z</time>
      </trkpt>
      <trkpt lat="43.66745" lon="3.9534">
        <ele>58</ele>
        <time>2020-11-04T20:37:27Z</time>
      </trkpt>
      <trkpt lat="43.66744" lon="3.95348">
        <ele>58</ele>
        <time>2020-11-04T20:37:26Z</time>
      </trkpt>
      <trkpt lat="43.66741" lon="3.95397">
        <ele>58</ele>
        <time>2020-11-04T20:37:20Z</time>
      </trkpt>
      <trkpt lat="43.66741" lon="3.95465">
        <ele>58</ele>
        <time>2020-11-04T20:37:12Z</time>
      </trkpt>
      <trkpt lat="43.66743" lon="3.95481">
        <ele>58</ele>
        <time>2020-11-04T20:37:10Z</time>
      </trkpt>
      <trkpt lat="43.66743" lon="3.95488">
        <ele>58</ele>
        <time>2020-11-04T20:37:09Z</time>
      </trkpt>
      <trkpt lat="43.66744" lon="3.95496">
        <ele>58</ele>
        <time>2020-11-04T20:37:08Z</time>
      </trkpt>
      <trkpt lat="43.66744" lon="3.95503">
        <ele>58</ele>
        <time>2020-11-04T20:37:07Z</time>
      </trkpt>
      <trkpt lat="43.66744" lon="3.95511">
        <ele>58</ele>
        <time>2020-11-04T20:37:06Z</time>
      </trkpt>
      <trkpt lat="43.66744" lon="3.95518">
        <ele>57</ele>
        <time>2020-11-04T20:37:05Z</time>
      </trkpt>
      <trkpt lat="43.66744" lon="3.95525">
        <ele>57</ele>
        <time>2020-11-04T20:37:04Z</time>
      </trkpt>
      <trkpt lat="43.66744" lon="3.95533">
        <ele>57</ele>
        <time>2020-11-04T20:37:03Z</time>
      </trkpt>
      <trkpt lat="43.66744" lon="3.9554">
        <ele>57</ele>
        <time>2020-11-04T20:37:02Z</time>
      </trkpt>
      <trkpt lat="43.66745" lon="3.95546">
        <ele>57</ele>
        <time>2020-11-04T20:37:01Z</time>
      </trkpt>
      <trkpt lat="43.66746" lon="3.95553">
        <ele>57</ele>
        <time>2020-11-04T20:37:00Z</time>
      </trkpt>
      <trkpt lat="43.66751" lon="3.9557">
        <ele>56</ele>
        <time>2020-11-04T20:36:57Z</time>
      </trkpt>
      <trkpt lat="43.66758" lon="3.9559">
        <ele>56</ele>
        <time>2020-11-04T20:36:54Z</time>
      </trkpt>
      <trkpt lat="43.66764" lon="3.95608">
        <ele>55</ele>
        <time>2020-11-04T20:36:51Z</time>
      </trkpt>
      <trkpt lat="43.66766" lon="3.95636">
        <ele>54</ele>
        <time>2020-11-04T20:36:47Z</time>
      </trkpt>
      <trkpt lat="43.66766" lon="3.95651">
        <ele>54</ele>
        <time>2020-11-04T20:36:45Z</time>
      </trkpt>
      <trkpt lat="43.66766" lon="3.95673">
        <ele>54</ele>
        <time>2020-11-04T20:36:42Z</time>
      </trkpt>
      <trkpt lat="43.66763" lon="3.95725">
        <ele>53</ele>
        <time>2020-11-04T20:36:35Z</time>
      </trkpt>
      <trkpt lat="43.66756" lon="3.95786">
        <ele>53</ele>
        <time>2020-11-04T20:36:26Z</time>
      </trkpt>
      <trkpt lat="43.66756" lon="3.95793">
        <ele>53</ele>
        <time>2020-11-04T20:36:25Z</time>
      </trkpt>
      <trkpt lat="43.66756" lon="3.95812">
        <ele>52</ele>
        <time>2020-11-04T20:36:22Z</time>
      </trkpt>
      <trkpt lat="43.66755" lon="3.95832">
        <ele>52</ele>
        <time>2020-11-04T20:36:19Z</time>
      </trkpt>
      <trkpt lat="43.66754" lon="3.95839">
        <ele>52</ele>
        <time>2020-11-04T20:36:18Z</time>
      </trkpt>
      <trkpt lat="43.66753" lon="3.95853">
        <ele>52</ele>
        <time>2020-11-04T20:36:16Z</time>
      </trkpt>
      <trkpt lat="43.66745" lon="3.9594">
        <ele>52</ele>
        <time>2020-11-04T20:36:04Z</time>
      </trkpt>
      <trkpt lat="43.66737" lon="3.95979">
        <ele>52</ele>
        <time>2020-11-04T20:35:59Z</time>
      </trkpt>
      <trkpt lat="43.66728" lon="3.96008">
        <ele>51</ele>
        <time>2020-11-04T20:35:55Z</time>
      </trkpt>
      <trkpt lat="43.66721" lon="3.96039">
        <ele>51</ele>
        <time>2020-11-04T20:35:51Z</time>
      </trkpt>
      <trkpt lat="43.66719" lon="3.96046">
        <ele>51</ele>
        <time>2020-11-04T20:35:50Z</time>
      </trkpt>
      <trkpt lat="43.66716" lon="3.96053">
        <ele>51</ele>
        <time>2020-11-04T20:35:49Z</time>
      </trkpt>
      <trkpt lat="43.66713" lon="3.9606">
        <ele>51</ele>
        <time>2020-11-04T20:35:48Z</time>
      </trkpt>
      <trkpt lat="43.6671" lon="3.96069">
        <ele>52</ele>
        <time>2020-11-04T20:35:46Z</time>
      </trkpt>
      <trkpt lat="43.66712" lon="3.96078">
        <ele>52</ele>
        <time>2020-11-04T20:35:44Z</time>
      </trkpt>
      <trkpt lat="43.66715" lon="3.96081">
        <ele>52</ele>
        <time>2020-11-04T20:35:43Z</time>
      </trkpt>
      <trkpt lat="43.6672" lon="3.9608">
        <ele>53</ele>
        <time>2020-11-04T20:35:42Z</time>
      </trkpt>
      <trkpt lat="43.66727" lon="3.9608">
        <ele>53</ele>
        <time>2020-11-04T20:35:41Z</time>
      </trkpt>
      <trkpt lat="43.66779" lon="3.96087">
        <ele>53</ele>
        <time>2020-11-04T20:35:34Z</time>
      </trkpt>
      <trkpt lat="43.66786" lon="3.96088">
        <ele>53</ele>
        <time>2020-11-04T20:35:33Z</time>
      </trkpt>
      <trkpt lat="43.66794" lon="3.9609">
        <ele>53</ele>
        <time>2020-11-04T20:35:32Z</time>
      </trkpt>
      <trkpt lat="43.66851" lon="3.96083">
        <ele>54</ele>
        <time>2020-11-04T20:35:24Z</time>
      </trkpt>
      <trkpt lat="43.66857" lon="3.96079">
        <ele>54</ele>
        <time>2020-11-04T20:35:23Z</time>
      </trkpt>
      <trkpt lat="43.66864" lon="3.96075">
        <ele>54</ele>
        <time>2020-11-04T20:35:22Z</time>
      </trkpt>
      <trkpt lat="43.66876" lon="3.96064">
        <ele>54</ele>
        <time>2020-11-04T20:35:20Z</time>
      </trkpt>
      <trkpt lat="43.6688" lon="3.96058">
        <ele>54</ele>
        <time>2020-11-04T20:35:19Z</time>
      </trkpt>
      <trkpt lat="43.66885" lon="3.96051">
        <ele>54</ele>
        <time>2020-11-04T20:35:18Z</time>
      </trkpt>
      <trkpt lat="43.66889" lon="3.96045">
        <ele>54</ele>
        <time>2020-11-04T20:35:17Z</time>
      </trkpt>
      <trkpt lat="43.66893" lon="3.9604">
        <ele>54</ele>
        <time>2020-11-04T20:35:16Z</time>
      </trkpt>
      <trkpt lat="43.66902" lon="3.96033">
        <ele>54</ele>
        <time>2020-11-04T20:35:14Z</time>
      </trkpt>
      <trkpt lat="43.66907" lon="3.96031">
        <ele>54</ele>
        <time>2020-11-04T20:35:13Z</time>
      </trkpt>
      <trkpt lat="43.66915" lon="3.96029">
        <ele>55</ele>
        <time>2020-11-04T20:35:11Z</time>
      </trkpt>
      <trkpt lat="43.6692" lon="3.9603">
        <ele>55</ele>
        <time>2020-11-04T20:35:10Z</time>
      </trkpt>
      <trkpt lat="43.66924" lon="3.96031">
        <ele>55</ele>
        <time>2020-11-04T20:35:09Z</time>
      </trkpt>
      <trkpt lat="43.66927" lon="3.96034">
        <ele>55</ele>
        <time>2020-11-04T20:35:08Z</time>
      </trkpt>
      <trkpt lat="43.66929" lon="3.96036">
        <ele>55</ele>
        <time>2020-11-04T20:35:07Z</time>
      </trkpt>
      <trkpt lat="43.66929" lon="3.96039">
        <ele>55</ele>
        <time>2020-11-04T20:35:06Z</time>
      </trkpt>
      <trkpt lat="43.66929" lon="3.96045">
        <ele>55</ele>
        <time>2020-11-04T20:35:04Z</time>
      </trkpt>
      <trkpt lat="43.66928" lon="3.96049">
        <ele>55</ele>
        <time>2020-11-04T20:35:03Z</time>
      </trkpt>
      <trkpt lat="43.66927" lon="3.96053">
        <ele>55</ele>
        <time>2020-11-04T20:35:02Z</time>
      </trkpt>
      <trkpt lat="43.66926" lon="3.96066">
        <ele>55</ele>
        <time>2020-11-04T20:35:00Z</time>
      </trkpt>
      <trkpt lat="43.66927" lon="3.96072">
        <ele>55</ele>
        <time>2020-11-04T20:34:59Z</time>
      </trkpt>
      <trkpt lat="43.66928" lon="3.96078">
        <ele>55</ele>
        <time>2020-11-04T20:34:58Z</time>
      </trkpt>
      <trkpt lat="43.6693" lon="3.96083">
        <ele>55</ele>
        <time>2020-11-04T20:34:57Z</time>
      </trkpt>
      <trkpt lat="43.66935" lon="3.96088">
        <ele>55</ele>
        <time>2020-11-04T20:34:55Z</time>
      </trkpt>
      <trkpt lat="43.66938" lon="3.96086">
        <ele>56</ele>
        <time>2020-11-04T20:34:54Z</time>
      </trkpt>
      <trkpt lat="43.66942" lon="3.96083">
        <ele>56</ele>
        <time>2020-11-04T20:34:53Z</time>
      </trkpt>
      <trkpt lat="43.66961" lon="3.96078">
        <ele>56</ele>
        <time>2020-11-04T20:34:50Z</time>
      </trkpt>
      <trkpt lat="43.66988" lon="3.96098">
        <ele>57</ele>
        <time>2020-11-04T20:34:46Z</time>
      </trkpt>
      <trkpt lat="43.67002" lon="3.96113">
        <ele>57</ele>
        <time>2020-11-04T20:34:44Z</time>
      </trkpt>
      <trkpt lat="43.6701" lon="3.96121">
        <ele>58</ele>
        <time>2020-11-04T20:34:43Z</time>
      </trkpt>
      <trkpt lat="43.67017" lon="3.96126">
        <ele>58</ele>
        <time>2020-11-04T20:34:42Z</time>
      </trkpt>
      <trkpt lat="43.67034" lon="3.96132">
        <ele>59</ele>
        <time>2020-11-04T20:34:40Z</time>
      </trkpt>
      <trkpt lat="43.67042" lon="3.96131">
        <ele>59</ele>
        <time>2020-11-04T20:34:39Z</time>
      </trkpt>
      <trkpt lat="43.67057" lon="3.96124">
        <ele>59</ele>
        <time>2020-11-04T20:34:37Z</time>
      </trkpt>
      <trkpt lat="43.67063" lon="3.96118">
        <ele>60</ele>
        <time>2020-11-04T20:34:36Z</time>
      </trkpt>
      <trkpt lat="43.67069" lon="3.96111">
        <ele>60</ele>
        <time>2020-11-04T20:34:35Z</time>
      </trkpt>
      <trkpt lat="43.67073" lon="3.96104">
        <ele>60</ele>
        <time>2020-11-04T20:34:34Z</time>
      </trkpt>
      <trkpt lat="43.67077" lon="3.96097">
        <ele>60</ele>
        <time>2020-11-04T20:34:33Z</time>
      </trkpt>
      <trkpt lat="43.6708" lon="3.96091">
        <ele>60</ele>
        <time>2020-11-04T20:34:32Z</time>
      </trkpt>
      <trkpt lat="43.67087" lon="3.96081">
        <ele>60</ele>
        <time>2020-11-04T20:34:30Z</time>
      </trkpt>
      <trkpt lat="43.67091" lon="3.96077">
        <ele>59</ele>
        <time>2020-11-04T20:34:29Z</time>
      </trkpt>
      <trkpt lat="43.67096" lon="3.96075">
        <ele>59</ele>
        <time>2020-11-04T20:34:28Z</time>
      </trkpt>
      <trkpt lat="43.671" lon="3.96075">
        <ele>59</ele>
        <time>2020-11-04T20:34:27Z</time>
      </trkpt>
      <trkpt lat="43.67106" lon="3.9608">
        <ele>59</ele>
        <time>2020-11-04T20:34:25Z</time>
      </trkpt>
      <trkpt lat="43.67112" lon="3.96087">
        <ele>58</ele>
        <time>2020-11-04T20:34:23Z</time>
      </trkpt>
      <trkpt lat="43.67129" lon="3.96115">
        <ele>58</ele>
        <time>2020-11-04T20:34:18Z</time>
      </trkpt>
      <trkpt lat="43.67147" lon="3.96137">
        <ele>59</ele>
        <time>2020-11-04T20:34:14Z</time>
      </trkpt>
      <trkpt lat="43.67153" lon="3.96138">
        <ele>60</ele>
        <time>2020-11-04T20:34:13Z</time>
      </trkpt>
      <trkpt lat="43.67166" lon="3.96138">
        <ele>60</ele>
        <time>2020-11-04T20:34:11Z</time>
      </trkpt>
      <trkpt lat="43.67184" lon="3.96139">
        <ele>61</ele>
        <time>2020-11-04T20:34:08Z</time>
      </trkpt>
      <trkpt lat="43.6721" lon="3.96166">
        <ele>62</ele>
        <time>2020-11-04T20:34:03Z</time>
      </trkpt>
      <trkpt lat="43.67213" lon="3.96173">
        <ele>62</ele>
        <time>2020-11-04T20:34:02Z</time>
      </trkpt>
      <trkpt lat="43.67217" lon="3.96179">
        <ele>62</ele>
        <time>2020-11-04T20:34:01Z</time>
      </trkpt>
      <trkpt lat="43.67221" lon="3.96185">
        <ele>62</ele>
        <time>2020-11-04T20:34:00Z</time>
      </trkpt>
      <trkpt lat="43.67225" lon="3.96191">
        <ele>62</ele>
        <time>2020-11-04T20:33:59Z</time>
      </trkpt>
      <trkpt lat="43.67228" lon="3.96196">
        <ele>62</ele>
        <time>2020-11-04T20:33:58Z</time>
      </trkpt>
      <trkpt lat="43.67237" lon="3.96203">
        <ele>62</ele>
        <time>2020-11-04T20:33:56Z</time>
      </trkpt>
      <trkpt lat="43.67249" lon="3.96203">
        <ele>62</ele>
        <time>2020-11-04T20:33:54Z</time>
      </trkpt>
      <trkpt lat="43.67255" lon="3.96203">
        <ele>62</ele>
        <time>2020-11-04T20:33:53Z</time>
      </trkpt>
      <trkpt lat="43.67322" lon="3.96251">
        <ele>63</ele>
        <time>2020-11-04T20:33:41Z</time>
      </trkpt>
      <trkpt lat="43.67326" lon="3.96258">
        <ele>63</ele>
        <time>2020-11-04T20:33:40Z</time>
      </trkpt>
      <trkpt lat="43.67336" lon="3.96281">
        <ele>63</ele>
        <time>2020-11-04T20:33:37Z</time>
      </trkpt>
      <trkpt lat="43.67339" lon="3.96289">
        <ele>63</ele>
        <time>2020-11-04T20:33:36Z</time>
      </trkpt>
      <trkpt lat="43.67341" lon="3.96298">
        <ele>64</ele>
        <time>2020-11-04T20:33:35Z</time>
      </trkpt>
      <trkpt lat="43.67342" lon="3.96306">
        <ele>63</ele>
        <time>2020-11-04T20:33:34Z</time>
      </trkpt>
      <trkpt lat="43.67342" lon="3.96313">
        <ele>63</ele>
        <time>2020-11-04T20:33:33Z</time>
      </trkpt>
      <trkpt lat="43.67342" lon="3.96321">
        <ele>63</ele>
        <time>2020-11-04T20:33:32Z</time>
      </trkpt>
      <trkpt lat="43.67341" lon="3.96346">
        <ele>63</ele>
        <time>2020-11-04T20:33:29Z</time>
      </trkpt>
      <trkpt lat="43.67344" lon="3.96371">
        <ele>62</ele>
        <time>2020-11-04T20:33:26Z</time>
      </trkpt>
      <trkpt lat="43.67346" lon="3.96379">
        <ele>62</ele>
        <time>2020-11-04T20:33:25Z</time>
      </trkpt>
      <trkpt lat="43.67348" lon="3.96385">
        <ele>62</ele>
        <time>2020-11-04T20:33:24Z</time>
      </trkpt>
      <trkpt lat="43.67356" lon="3.96395">
        <ele>62</ele>
        <time>2020-11-04T20:33:22Z</time>
      </trkpt>
      <trkpt lat="43.6736" lon="3.96399">
        <ele>61</ele>
        <time>2020-11-04T20:33:21Z</time>
      </trkpt>
      <trkpt lat="43.67363" lon="3.96403">
        <ele>61</ele>
        <time>2020-11-04T20:33:20Z</time>
      </trkpt>
      <trkpt lat="43.67365" lon="3.96409">
        <ele>61</ele>
        <time>2020-11-04T20:33:19Z</time>
      </trkpt>
      <trkpt lat="43.67369" lon="3.96423">
        <ele>61</ele>
        <time>2020-11-04T20:33:17Z</time>
      </trkpt>
      <trkpt lat="43.67381" lon="3.96445">
        <ele>60</ele>
        <time>2020-11-04T20:33:14Z</time>
      </trkpt>
      <trkpt lat="43.67386" lon="3.96462">
        <ele>60</ele>
        <time>2020-11-04T20:33:12Z</time>
      </trkpt>
      <trkpt lat="43.67397" lon="3.96487">
        <ele>60</ele>
        <time>2020-11-04T20:33:09Z</time>
      </trkpt>
      <trkpt lat="43.67402" lon="3.96493">
        <ele>60</ele>
        <time>2020-11-04T20:33:08Z</time>
      </trkpt>
      <trkpt lat="43.67409" lon="3.96506">
        <ele>60</ele>
        <time>2020-11-04T20:33:06Z</time>
      </trkpt>
      <trkpt lat="43.67411" lon="3.96523">
        <ele>60</ele>
        <time>2020-11-04T20:33:04Z</time>
      </trkpt>
      <trkpt lat="43.67406" lon="3.96539">
        <ele>60</ele>
        <time>2020-11-04T20:33:02Z</time>
      </trkpt>
      <trkpt lat="43.67399" lon="3.96552">
        <ele>60</ele>
        <time>2020-11-04T20:33:00Z</time>
      </trkpt>
      <trkpt lat="43.6738" lon="3.96584">
        <ele>60</ele>
        <time>2020-11-04T20:32:55Z</time>
      </trkpt>
      <trkpt lat="43.67379" lon="3.96593">
        <ele>60</ele>
        <time>2020-11-04T20:32:54Z</time>
      </trkpt>
      <trkpt lat="43.67379" lon="3.96601">
        <ele>59</ele>
        <time>2020-11-04T20:32:53Z</time>
      </trkpt>
      <trkpt lat="43.67378" lon="3.96616">
        <ele>59</ele>
        <time>2020-11-04T20:32:51Z</time>
      </trkpt>
      <trkpt lat="43.67375" lon="3.96623">
        <ele>59</ele>
        <time>2020-11-04T20:32:50Z</time>
      </trkpt>
      <trkpt lat="43.67373" lon="3.96629">
        <ele>59</ele>
        <time>2020-11-04T20:32:49Z</time>
      </trkpt>
      <trkpt lat="43.6737" lon="3.96635">
        <ele>59</ele>
        <time>2020-11-04T20:32:48Z</time>
      </trkpt>
      <trkpt lat="43.67365" lon="3.96653">
        <ele>58</ele>
        <time>2020-11-04T20:32:45Z</time>
      </trkpt>
      <trkpt lat="43.67365" lon="3.9666">
        <ele>58</ele>
        <time>2020-11-04T20:32:44Z</time>
      </trkpt>
      <trkpt lat="43.67369" lon="3.96674">
        <ele>58</ele>
        <time>2020-11-04T20:32:42Z</time>
      </trkpt>
      <trkpt lat="43.67371" lon="3.96681">
        <ele>58</ele>
        <time>2020-11-04T20:32:41Z</time>
      </trkpt>
      <trkpt lat="43.67374" lon="3.96695">
        <ele>58</ele>
        <time>2020-11-04T20:32:39Z</time>
      </trkpt>
      <trkpt lat="43.67375" lon="3.96702">
        <ele>58</ele>
        <time>2020-11-04T20:32:38Z</time>
      </trkpt>
      <trkpt lat="43.67377" lon="3.96708">
        <ele>58</ele>
        <time>2020-11-04T20:32:37Z</time>
      </trkpt>
      <trkpt lat="43.67379" lon="3.96713">
        <ele>58</ele>
        <time>2020-11-04T20:32:36Z</time>
      </trkpt>
      <trkpt lat="43.67382" lon="3.96715">
        <ele>58</ele>
        <time>2020-11-04T20:32:35Z</time>
      </trkpt>
      <trkpt lat="43.67385" lon="3.96715">
        <ele>58</ele>
        <time>2020-11-04T20:32:34Z</time>
      </trkpt>
      <trkpt lat="43.67388" lon="3.96715">
        <ele>58</ele>
        <time>2020-11-04T20:32:33Z</time>
      </trkpt>
      <trkpt lat="43.67392" lon="3.96717">
        <ele>58</ele>
        <time>2020-11-04T20:32:32Z</time>
      </trkpt>
      <trkpt lat="43.67395" lon="3.96721">
        <ele>58</ele>
        <time>2020-11-04T20:32:31Z</time>
      </trkpt>
      <trkpt lat="43.67398" lon="3.96727">
        <ele>58</ele>
        <time>2020-11-04T20:32:30Z</time>
      </trkpt>
      <trkpt lat="43.674" lon="3.96753">
        <ele>58</ele>
        <time>2020-11-04T20:32:27Z</time>
      </trkpt>
      <trkpt lat="43.67405" lon="3.96782">
        <ele>58</ele>
        <time>2020-11-04T20:32:24Z</time>
      </trkpt>
      <trkpt lat="43.67408" lon="3.96792">
        <ele>58</ele>
        <time>2020-11-04T20:32:23Z</time>
      </trkpt>
      <trkpt lat="43.67414" lon="3.96803">
        <ele>58</ele>
        <time>2020-11-04T20:32:22Z</time>
      </trkpt>
      <trkpt lat="43.67419" lon="3.96817">
        <ele>59</ele>
        <time>2020-11-04T20:32:20Z</time>
      </trkpt>
      <trkpt lat="43.67423" lon="3.96822">
        <ele>59</ele>
        <time>2020-11-04T20:32:19Z</time>
      </trkpt>
      <trkpt lat="43.67431" lon="3.96833">
        <ele>59</ele>
        <time>2020-11-04T20:32:17Z</time>
      </trkpt>
      <trkpt lat="43.67435" lon="3.9684">
        <ele>59</ele>
        <time>2020-11-04T20:32:16Z</time>
      </trkpt>
      <trkpt lat="43.67438" lon="3.96846">
        <ele>59</ele>
        <time>2020-11-04T20:32:15Z</time>
      </trkpt>
      <trkpt lat="43.67442" lon="3.96852">
        <ele>59</ele>
        <time>2020-11-04T20:32:14Z</time>
      </trkpt>
      <trkpt lat="43.67446" lon="3.96859">
        <ele>59</ele>
        <time>2020-11-04T20:32:13Z</time>
      </trkpt>
      <trkpt lat="43.6745" lon="3.96865">
        <ele>59</ele>
        <time>2020-11-04T20:32:12Z</time>
      </trkpt>
      <trkpt lat="43.67454" lon="3.9687">
        <ele>59</ele>
        <time>2020-11-04T20:32:11Z</time>
      </trkpt>
      <trkpt lat="43.67459" lon="3.96875">
        <ele>59</ele>
        <time>2020-11-04T20:32:10Z</time>
      </trkpt>
      <trkpt lat="43.67464" lon="3.9688">
        <ele>59</ele>
        <time>2020-11-04T20:32:09Z</time>
      </trkpt>
      <trkpt lat="43.67475" lon="3.96891">
        <ele>59</ele>
        <time>2020-11-04T20:32:07Z</time>
      </trkpt>
      <trkpt lat="43.6748" lon="3.96896">
        <ele>59</ele>
        <time>2020-11-04T20:32:06Z</time>
      </trkpt>
      <trkpt lat="43.67493" lon="3.96911">
        <ele>58</ele>
        <time>2020-11-04T20:32:03Z</time>
      </trkpt>
      <trkpt lat="43.67498" lon="3.96915">
        <ele>58</ele>
        <time>2020-11-04T20:32:02Z</time>
      </trkpt>
      <trkpt lat="43.67503" lon="3.96918">
        <ele>58</ele>
        <time>2020-11-04T20:32:01Z</time>
      </trkpt>
      <trkpt lat="43.67508" lon="3.96921">
        <ele>58</ele>
        <time>2020-11-04T20:32:00Z</time>
      </trkpt>
      <trkpt lat="43.67512" lon="3.96924">
        <ele>58</ele>
        <time>2020-11-04T20:31:59Z</time>
      </trkpt>
      <trkpt lat="43.67516" lon="3.96925">
        <ele>58</ele>
        <time>2020-11-04T20:31:58Z</time>
      </trkpt>
      <trkpt lat="43.67523" lon="3.96926">
        <ele>57</ele>
        <time>2020-11-04T20:31:55Z</time>
      </trkpt>
      <trkpt lat="43.67535" lon="3.9693">
        <ele>56</ele>
        <time>2020-11-04T20:31:50Z</time>
      </trkpt>
      <trkpt lat="43.67542" lon="3.96933">
        <ele>55</ele>
        <time>2020-11-04T20:31:47Z</time>
      </trkpt>
      <trkpt lat="43.67545" lon="3.96934">
        <ele>55</ele>
        <time>2020-11-04T20:31:46Z</time>
      </trkpt>
      <trkpt lat="43.67574" lon="3.96962">
        <ele>54</ele>
        <time>2020-11-04T20:31:37Z</time>
      </trkpt>
      <trkpt lat="43.67576" lon="3.96967">
        <ele>54</ele>
        <time>2020-11-04T20:31:36Z</time>
      </trkpt>
      <trkpt lat="43.67578" lon="3.96972">
        <ele>54</ele>
        <time>2020-11-04T20:31:35Z</time>
      </trkpt>
      <trkpt lat="43.67585" lon="3.96977">
        <ele>54</ele>
        <time>2020-11-04T20:31:33Z</time>
      </trkpt>
      <trkpt lat="43.67588" lon="3.9698">
        <ele>54</ele>
        <time>2020-11-04T20:31:32Z</time>
      </trkpt>
      <trkpt lat="43.67599" lon="3.96987">
        <ele>53</ele>
        <time>2020-11-04T20:31:29Z</time>
      </trkpt>
      <trkpt lat="43.67607" lon="3.96994">
        <ele>53</ele>
        <time>2020-11-04T20:31:27Z</time>
      </trkpt>
      <trkpt lat="43.67621" lon="3.97012">
        <ele>52</ele>
        <time>2020-11-04T20:31:23Z</time>
      </trkpt>
      <trkpt lat="43.67626" lon="3.97016">
        <ele>52</ele>
        <time>2020-11-04T20:31:22Z</time>
      </trkpt>
      <trkpt lat="43.67631" lon="3.97019">
        <ele>52</ele>
        <time>2020-11-04T20:31:21Z</time>
      </trkpt>
      <trkpt lat="43.67634" lon="3.97022">
        <ele>52</ele>
        <time>2020-11-04T20:31:20Z</time>
      </trkpt>
      <trkpt lat="43.67636" lon="3.97027">
        <ele>52</ele>
        <time>2020-11-04T20:31:19Z</time>
      </trkpt>
      <trkpt lat="43.67641" lon="3.97037">
        <ele>52</ele>
        <time>2020-11-04T20:31:17Z</time>
      </trkpt>
      <trkpt lat="43.67649" lon="3.97043">
        <ele>51</ele>
        <time>2020-11-04T20:31:15Z</time>
      </trkpt>
      <trkpt lat="43.67654" lon="3.97045">
        <ele>51</ele>
        <time>2020-11-04T20:31:14Z</time>
      </trkpt>
      <trkpt lat="43.67659" lon="3.97049">
        <ele>51</ele>
        <time>2020-11-04T20:31:13Z</time>
      </trkpt>
      <trkpt lat="43.67662" lon="3.97054">
        <ele>51</ele>
        <time>2020-11-04T20:31:12Z</time>
      </trkpt>
      <trkpt lat="43.67664" lon="3.9706">
        <ele>50</ele>
        <time>2020-11-04T20:31:11Z</time>
      </trkpt>
      <trkpt lat="43.67667" lon="3.97065">
        <ele>50</ele>
        <time>2020-11-04T20:31:10Z</time>
      </trkpt>
      <trkpt lat="43.6767" lon="3.9707">
        <ele>50</ele>
        <time>2020-11-04T20:31:09Z</time>
      </trkpt>
      <trkpt lat="43.67674" lon="3.97074">
        <ele>49</ele>
        <time>2020-11-04T20:31:08Z</time>
      </trkpt>
      <trkpt lat="43.67678" lon="3.97077">
        <ele>49</ele>
        <time>2020-11-04T20:31:07Z</time>
      </trkpt>
      <trkpt lat="43.67681" lon="3.9708">
        <ele>49</ele>
        <time>2020-11-04T20:31:06Z</time>
      </trkpt>
      <trkpt lat="43.67692" lon="3.97088">
        <ele>48</ele>
        <time>2020-11-04T20:31:03Z</time>
      </trkpt>
      <trkpt lat="43.67695" lon="3.97091">
        <ele>47</ele>
        <time>2020-11-04T20:31:02Z</time>
      </trkpt>
      <trkpt lat="43.67698" lon="3.97093">
        <ele>47</ele>
        <time>2020-11-04T20:31:01Z</time>
      </trkpt>
      <trkpt lat="43.67706" lon="3.97101">
        <ele>46</ele>
        <time>2020-11-04T20:30:58Z</time>
      </trkpt>
      <trkpt lat="43.67711" lon="3.97108">
        <ele>46</ele>
        <time>2020-11-04T20:30:56Z</time>
      </trkpt>
      <trkpt lat="43.67718" lon="3.97113">
        <ele>45</ele>
        <time>2020-11-04T20:30:54Z</time>
      </trkpt>
      <trkpt lat="43.67725" lon="3.97122">
        <ele>45</ele>
        <time>2020-11-04T20:30:52Z</time>
      </trkpt>
      <trkpt lat="43.67744" lon="3.97142">
        <ele>45</ele>
        <time>2020-11-04T20:30:48Z</time>
      </trkpt>
      <trkpt lat="43.67759" lon="3.97165">
        <ele>45</ele>
        <time>2020-11-04T20:30:44Z</time>
      </trkpt>
      <trkpt lat="43.67762" lon="3.97171">
        <ele>45</ele>
        <time>2020-11-04T20:30:43Z</time>
      </trkpt>
      <trkpt lat="43.67765" lon="3.97176">
        <ele>45</ele>
        <time>2020-11-04T20:30:42Z</time>
      </trkpt>
      <trkpt lat="43.67771" lon="3.97183">
        <ele>45</ele>
        <time>2020-11-04T20:30:40Z</time>
      </trkpt>
      <trkpt lat="43.6778" lon="3.97187">
        <ele>46</ele>
        <time>2020-11-04T20:30:38Z</time>
      </trkpt>
      <trkpt lat="43.67786" lon="3.97187">
        <ele>46</ele>
        <time>2020-11-04T20:30:37Z</time>
      </trkpt>
      <trkpt lat="43.6779" lon="3.97187">
        <ele>46</ele>
        <time>2020-11-04T20:30:36Z</time>
      </trkpt>
      <trkpt lat="43.67805" lon="3.97194">
        <ele>46</ele>
        <time>2020-11-04T20:30:33Z</time>
      </trkpt>
      <trkpt lat="43.67821" lon="3.97196">
        <ele>47</ele>
        <time>2020-11-04T20:30:30Z</time>
      </trkpt>
      <trkpt lat="43.67832" lon="3.97203">
        <ele>47</ele>
        <time>2020-11-04T20:30:28Z</time>
      </trkpt>
      <trkpt lat="43.67836" lon="3.97209">
        <ele>47</ele>
        <time>2020-11-04T20:30:27Z</time>
      </trkpt>
      <trkpt lat="43.67852" lon="3.97234">
        <ele>48</ele>
        <time>2020-11-04T20:30:23Z</time>
      </trkpt>
      <trkpt lat="43.67854" lon="3.97241">
        <ele>48</ele>
        <time>2020-11-04T20:30:22Z</time>
      </trkpt>
      <trkpt lat="43.67857" lon="3.97247">
        <ele>48</ele>
        <time>2020-11-04T20:30:21Z</time>
      </trkpt>
      <trkpt lat="43.67864" lon="3.97262">
        <ele>48</ele>
        <time>2020-11-04T20:30:18Z</time>
      </trkpt>
      <trkpt lat="43.67869" lon="3.97277">
        <ele>48</ele>
        <time>2020-11-04T20:30:15Z</time>
      </trkpt>
      <trkpt lat="43.67873" lon="3.97305">
        <ele>48</ele>
        <time>2020-11-04T20:30:11Z</time>
      </trkpt>
      <trkpt lat="43.67878" lon="3.97336">
        <ele>48</ele>
        <time>2020-11-04T20:30:07Z</time>
      </trkpt>
      <trkpt lat="43.67879" lon="3.97344">
        <ele>49</ele>
        <time>2020-11-04T20:30:06Z</time>
      </trkpt>
      <trkpt lat="43.67881" lon="3.97359">
        <ele>49</ele>
        <time>2020-11-04T20:30:04Z</time>
      </trkpt>
      <trkpt lat="43.67882" lon="3.97366">
        <ele>49</ele>
        <time>2020-11-04T20:30:03Z</time>
      </trkpt>
      <trkpt lat="43.67887" lon="3.97396">
        <ele>48</ele>
        <time>2020-11-04T20:29:58Z</time>
      </trkpt>
      <trkpt lat="43.67887" lon="3.97402">
        <ele>48</ele>
        <time>2020-11-04T20:29:57Z</time>
      </trkpt>
      <trkpt lat="43.67889" lon="3.97408">
        <ele>48</ele>
        <time>2020-11-04T20:29:56Z</time>
      </trkpt>
      <trkpt lat="43.6789" lon="3.97413">
        <ele>48</ele>
        <time>2020-11-04T20:29:55Z</time>
      </trkpt>
      <trkpt lat="43.6789" lon="3.97418">
        <ele>48</ele>
        <time>2020-11-04T20:29:54Z</time>
      </trkpt>
      <trkpt lat="43.67891" lon="3.97422">
        <ele>48</ele>
        <time>2020-11-04T20:29:53Z</time>
      </trkpt>
      <trkpt lat="43.67891" lon="3.97426">
        <ele>48</ele>
        <time>2020-11-04T20:29:52Z</time>
      </trkpt>
      <trkpt lat="43.67892" lon="3.97429">
        <ele>47</ele>
        <time>2020-11-04T20:29:51Z</time>
      </trkpt>
      <trkpt lat="43.67893" lon="3.97431">
        <ele>47</ele>
        <time>2020-11-04T20:29:50Z</time>
      </trkpt>
      <trkpt lat="43.67895" lon="3.97433">
        <ele>47</ele>
        <time>2020-11-04T20:29:49Z</time>
      </trkpt>
      <trkpt lat="43.67898" lon="3.97435">
        <ele>47</ele>
        <time>2020-11-04T20:29:48Z</time>
      </trkpt>
      <trkpt lat="43.67902" lon="3.97438">
        <ele>47</ele>
        <time>2020-11-04T20:29:47Z</time>
      </trkpt>
      <trkpt lat="43.67909" lon="3.97444">
        <ele>47</ele>
        <time>2020-11-04T20:29:45Z</time>
      </trkpt>
      <trkpt lat="43.67912" lon="3.97447">
        <ele>47</ele>
        <time>2020-11-04T20:29:44Z</time>
      </trkpt>
      <trkpt lat="43.67917" lon="3.97449">
        <ele>47</ele>
        <time>2020-11-04T20:29:43Z</time>
      </trkpt>
      <trkpt lat="43.67952" lon="3.97469">
        <ele>46</ele>
        <time>2020-11-04T20:29:36Z</time>
      </trkpt>
      <trkpt lat="43.67964" lon="3.97471">
        <ele>46</ele>
        <time>2020-11-04T20:29:34Z</time>
      </trkpt>
      <trkpt lat="43.67971" lon="3.97473">
        <ele>46</ele>
        <time>2020-11-04T20:29:33Z</time>
      </trkpt>
      <trkpt lat="43.67986" lon="3.97478">
        <ele>46</ele>
        <time>2020-11-04T20:29:31Z</time>
      </trkpt>
      <trkpt lat="43.68002" lon="3.97487">
        <ele>46</ele>
        <time>2020-11-04T20:29:29Z</time>
      </trkpt>
      <trkpt lat="43.68053" lon="3.97534">
        <ele>47</ele>
        <time>2020-11-04T20:29:21Z</time>
      </trkpt>
      <trkpt lat="43.68075" lon="3.9756">
        <ele>47</ele>
        <time>2020-11-04T20:29:17Z</time>
      </trkpt>
      <trkpt lat="43.68082" lon="3.97567">
        <ele>47</ele>
        <time>2020-11-04T20:29:16Z</time>
      </trkpt>
      <trkpt lat="43.68113" lon="3.97589">
        <ele>47</ele>
        <time>2020-11-04T20:29:12Z</time>
      </trkpt>
      <trkpt lat="43.68121" lon="3.97593">
        <ele>48</ele>
        <time>2020-11-04T20:29:11Z</time>
      </trkpt>
      <trkpt lat="43.68128" lon="3.97597">
        <ele>48</ele>
        <time>2020-11-04T20:29:10Z</time>
      </trkpt>
      <trkpt lat="43.68136" lon="3.976">
        <ele>48</ele>
        <time>2020-11-04T20:29:09Z</time>
      </trkpt>
      <trkpt lat="43.6815" lon="3.97598">
        <ele>48</ele>
        <time>2020-11-04T20:29:07Z</time>
      </trkpt>
      <trkpt lat="43.68157" lon="3.97594">
        <ele>48</ele>
        <time>2020-11-04T20:29:06Z</time>
      </trkpt>
      <trkpt lat="43.68163" lon="3.97588">
        <ele>49</ele>
        <time>2020-11-04T20:29:05Z</time>
      </trkpt>
      <trkpt lat="43.68172" lon="3.97579">
        <ele>49</ele>
        <time>2020-11-04T20:29:03Z</time>
      </trkpt>
      <trkpt lat="43.68175" lon="3.97581">
        <ele>50</ele>
        <time>2020-11-04T20:29:02Z</time>
      </trkpt>
      <trkpt lat="43.6818" lon="3.97592">
        <ele>51</ele>
        <time>2020-11-04T20:29:00Z</time>
      </trkpt>
      <trkpt lat="43.6818" lon="3.9761">
        <ele>52</ele>
        <time>2020-11-04T20:28:58Z</time>
      </trkpt>
      <trkpt lat="43.68179" lon="3.97618">
        <ele>52</ele>
        <time>2020-11-04T20:28:57Z</time>
      </trkpt>
      <trkpt lat="43.68182" lon="3.97626">
        <ele>53</ele>
        <time>2020-11-04T20:28:56Z</time>
      </trkpt>
      <trkpt lat="43.68186" lon="3.97635">
        <ele>53</ele>
        <time>2020-11-04T20:28:55Z</time>
      </trkpt>
      <trkpt lat="43.68198" lon="3.97657">
        <ele>54</ele>
        <time>2020-11-04T20:28:53Z</time>
      </trkpt>
      <trkpt lat="43.68204" lon="3.97666">
        <ele>54</ele>
        <time>2020-11-04T20:28:52Z</time>
      </trkpt>
      <trkpt lat="43.68217" lon="3.97686">
        <ele>55</ele>
        <time>2020-11-04T20:28:50Z</time>
      </trkpt>
      <trkpt lat="43.68221" lon="3.97695">
        <ele>55</ele>
        <time>2020-11-04T20:28:49Z</time>
      </trkpt>
      <trkpt lat="43.68232" lon="3.97726">
        <ele>56</ele>
        <time>2020-11-04T20:28:46Z</time>
      </trkpt>
      <trkpt lat="43.68234" lon="3.97738">
        <ele>57</ele>
        <time>2020-11-04T20:28:45Z</time>
      </trkpt>
      <trkpt lat="43.68235" lon="3.97853">
        <ele>61</ele>
        <time>2020-11-04T20:28:36Z</time>
      </trkpt>
      <trkpt lat="43.68231" lon="3.97866">
        <ele>61</ele>
        <time>2020-11-04T20:28:35Z</time>
      </trkpt>
      <trkpt lat="43.68226" lon="3.97878">
        <ele>62</ele>
        <time>2020-11-04T20:28:34Z</time>
      </trkpt>
      <trkpt lat="43.68211" lon="3.97921">
        <ele>64</ele>
        <time>2020-11-04T20:28:30Z</time>
      </trkpt>
      <trkpt lat="43.68207" lon="3.97932">
        <ele>65</ele>
        <time>2020-11-04T20:28:29Z</time>
      </trkpt>
      <trkpt lat="43.68202" lon="3.97942">
        <ele>65</ele>
        <time>2020-11-04T20:28:28Z</time>
      </trkpt>
      <trkpt lat="43.68198" lon="3.97951">
        <ele>66</ele>
        <time>2020-11-04T20:28:27Z</time>
      </trkpt>
      <trkpt lat="43.68193" lon="3.97961">
        <ele>66</ele>
        <time>2020-11-04T20:28:26Z</time>
      </trkpt>
      <trkpt lat="43.68182" lon="3.97978">
        <ele>67</ele>
        <time>2020-11-04T20:28:24Z</time>
      </trkpt>
      <trkpt lat="43.68175" lon="3.97986">
        <ele>68</ele>
        <time>2020-11-04T20:28:23Z</time>
      </trkpt>
      <trkpt lat="43.68169" lon="3.97995">
        <ele>68</ele>
        <time>2020-11-04T20:28:22Z</time>
      </trkpt>
      <trkpt lat="43.68163" lon="3.98003">
        <ele>68</ele>
        <time>2020-11-04T20:28:21Z</time>
      </trkpt>
      <trkpt lat="43.68158" lon="3.98011">
        <ele>69</ele>
        <time>2020-11-04T20:28:20Z</time>
      </trkpt>
      <trkpt lat="43.68152" lon="3.98019">
        <ele>69</ele>
        <time>2020-11-04T20:28:19Z</time>
      </trkpt>
      <trkpt lat="43.68147" lon="3.98026">
        <ele>69</ele>
        <time>2020-11-04T20:28:18Z</time>
      </trkpt>
      <trkpt lat="43.68142" lon="3.98032">
        <ele>69</ele>
        <time>2020-11-04T20:28:17Z</time>
      </trkpt>
      <trkpt lat="43.68138" lon="3.98038">
        <ele>70</ele>
        <time>2020-11-04T20:28:16Z</time>
      </trkpt>
      <trkpt lat="43.6813" lon="3.9805">
        <ele>70</ele>
        <time>2020-11-04T20:28:14Z</time>
      </trkpt>
      <trkpt lat="43.68127" lon="3.98056">
        <ele>70</ele>
        <time>2020-11-04T20:28:13Z</time>
      </trkpt>
      <trkpt lat="43.68123" lon="3.98062">
        <ele>70</ele>
        <time>2020-11-04T20:28:12Z</time>
      </trkpt>
      <trkpt lat="43.68119" lon="3.98067">
        <ele>70</ele>
        <time>2020-11-04T20:28:11Z</time>
      </trkpt>
      <trkpt lat="43.68116" lon="3.98072">
        <ele>70</ele>
        <time>2020-11-04T20:28:10Z</time>
      </trkpt>
      <trkpt lat="43.68113" lon="3.98078">
        <ele>70</ele>
        <time>2020-11-04T20:28:09Z</time>
      </trkpt>
      <trkpt lat="43.6811" lon="3.98082">
        <ele>70</ele>
        <time>2020-11-04T20:28:08Z</time>
      </trkpt>
      <trkpt lat="43.68106" lon="3.98087">
        <ele>70</ele>
        <time>2020-11-04T20:28:07Z</time>
      </trkpt>
      <trkpt lat="43.68103" lon="3.98091">
        <ele>70</ele>
        <time>2020-11-04T20:28:06Z</time>
      </trkpt>
      <trkpt lat="43.68099" lon="3.98105">
        <ele>70</ele>
        <time>2020-11-04T20:28:03Z</time>
      </trkpt>
      <trkpt lat="43.68104" lon="3.98116">
        <ele>69</ele>
        <time>2020-11-04T20:28:01Z</time>
      </trkpt>
      <trkpt lat="43.68112" lon="3.98125">
        <ele>69</ele>
        <time>2020-11-04T20:27:59Z</time>
      </trkpt>
      <trkpt lat="43.68116" lon="3.9813">
        <ele>69</ele>
        <time>2020-11-04T20:27:58Z</time>
      </trkpt>
      <trkpt lat="43.68123" lon="3.98139">
        <ele>68</ele>
        <time>2020-11-04T20:27:56Z</time>
      </trkpt>
      <trkpt lat="43.68127" lon="3.98144">
        <ele>68</ele>
        <time>2020-11-04T20:27:55Z</time>
      </trkpt>
      <trkpt lat="43.6813" lon="3.98148">
        <ele>68</ele>
        <time>2020-11-04T20:27:54Z</time>
      </trkpt>
      <trkpt lat="43.68133" lon="3.98151">
        <ele>68</ele>
        <time>2020-11-04T20:27:53Z</time>
      </trkpt>
      <trkpt lat="43.68136" lon="3.98153">
        <ele>68</ele>
        <time>2020-11-04T20:27:52Z</time>
      </trkpt>
      <trkpt lat="43.68141" lon="3.98159">
        <ele>67</ele>
        <time>2020-11-04T20:27:50Z</time>
      </trkpt>
      <trkpt lat="43.68148" lon="3.98165">
        <ele>67</ele>
        <time>2020-11-04T20:27:48Z</time>
      </trkpt>
      <trkpt lat="43.68151" lon="3.98167">
        <ele>67</ele>
        <time>2020-11-04T20:27:47Z</time>
      </trkpt>
      <trkpt lat="43.68174" lon="3.98202">
        <ele>66</ele>
        <time>2020-11-04T20:27:39Z</time>
      </trkpt>
      <trkpt lat="43.68178" lon="3.98203">
        <ele>66</ele>
        <time>2020-11-04T20:27:38Z</time>
      </trkpt>
      <trkpt lat="43.68183" lon="3.98204">
        <ele>66</ele>
        <time>2020-11-04T20:27:37Z</time>
      </trkpt>
      <trkpt lat="43.68187" lon="3.98204">
        <ele>65</ele>
        <time>2020-11-04T20:27:36Z</time>
      </trkpt>
      <trkpt lat="43.68191" lon="3.98205">
        <ele>65</ele>
        <time>2020-11-04T20:27:35Z</time>
      </trkpt>
      <trkpt lat="43.68197" lon="3.98208">
        <ele>65</ele>
        <time>2020-11-04T20:27:33Z</time>
      </trkpt>
      <trkpt lat="43.68204" lon="3.98211">
        <ele>65</ele>
        <time>2020-11-04T20:27:31Z</time>
      </trkpt>
      <trkpt lat="43.68208" lon="3.98211">
        <ele>65</ele>
        <time>2020-11-04T20:27:30Z</time>
      </trkpt>
      <trkpt lat="43.68212" lon="3.98213">
        <ele>64</ele>
        <time>2020-11-04T20:27:29Z</time>
      </trkpt>
      <trkpt lat="43.68219" lon="3.98216">
        <ele>64</ele>
        <time>2020-11-04T20:27:27Z</time>
      </trkpt>
      <trkpt lat="43.68224" lon="3.98217">
        <ele>64</ele>
        <time>2020-11-04T20:27:26Z</time>
      </trkpt>
      <trkpt lat="43.68228" lon="3.98218">
        <ele>64</ele>
        <time>2020-11-04T20:27:25Z</time>
      </trkpt>
      <trkpt lat="43.68232" lon="3.98218">
        <ele>64</ele>
        <time>2020-11-04T20:27:24Z</time>
      </trkpt>
      <trkpt lat="43.68251" lon="3.98224">
        <ele>63</ele>
        <time>2020-11-04T20:27:19Z</time>
      </trkpt>
      <trkpt lat="43.6826" lon="3.98228">
        <ele>63</ele>
        <time>2020-11-04T20:27:17Z</time>
      </trkpt>
      <trkpt lat="43.68274" lon="3.98232">
        <ele>62</ele>
        <time>2020-11-04T20:27:14Z</time>
      </trkpt>
      <trkpt lat="43.68286" lon="3.98236">
        <ele>62</ele>
        <time>2020-11-04T20:27:11Z</time>
      </trkpt>
      <trkpt lat="43.68291" lon="3.98237">
        <ele>61</ele>
        <time>2020-11-04T20:27:10Z</time>
      </trkpt>
      <trkpt lat="43.68294" lon="3.98238">
        <ele>61</ele>
        <time>2020-11-04T20:27:09Z</time>
      </trkpt>
      <trkpt lat="43.68298" lon="3.98239">
        <ele>61</ele>
        <time>2020-11-04T20:27:08Z</time>
      </trkpt>
      <trkpt lat="43.68301" lon="3.9824">
        <ele>61</ele>
        <time>2020-11-04T20:27:07Z</time>
      </trkpt>
      <trkpt lat="43.68303" lon="3.9824">
        <ele>61</ele>
        <time>2020-11-04T20:27:06Z</time>
      </trkpt>
      <trkpt lat="43.68306" lon="3.9824">
        <ele>61</ele>
        <time>2020-11-04T20:27:05Z</time>
      </trkpt>
      <trkpt lat="43.6831" lon="3.9824">
        <ele>60</ele>
        <time>2020-11-04T20:27:03Z</time>
      </trkpt>
      <trkpt lat="43.68313" lon="3.9824">
        <ele>60</ele>
        <time>2020-11-04T20:27:02Z</time>
      </trkpt>
      <trkpt lat="43.6832" lon="3.98241">
        <ele>60</ele>
        <time>2020-11-04T20:27:00Z</time>
      </trkpt>
      <trkpt lat="43.68324" lon="3.98241">
        <ele>60</ele>
        <time>2020-11-04T20:26:59Z</time>
      </trkpt>
      <trkpt lat="43.68327" lon="3.98241">
        <ele>60</ele>
        <time>2020-11-04T20:26:58Z</time>
      </trkpt>
      <trkpt lat="43.68331" lon="3.98242">
        <ele>60</ele>
        <time>2020-11-04T20:26:57Z</time>
      </trkpt>
      <trkpt lat="43.68346" lon="3.98245">
        <ele>59</ele>
        <time>2020-11-04T20:26:52Z</time>
      </trkpt>
      <trkpt lat="43.68358" lon="3.98253">
        <ele>59</ele>
        <time>2020-11-04T20:26:47Z</time>
      </trkpt>
      <trkpt lat="43.68361" lon="3.98254">
        <ele>59</ele>
        <time>2020-11-04T20:26:46Z</time>
      </trkpt>
      <trkpt lat="43.68364" lon="3.98255">
        <ele>59</ele>
        <time>2020-11-04T20:26:45Z</time>
      </trkpt>
      <trkpt lat="43.68366" lon="3.98256">
        <ele>59</ele>
        <time>2020-11-04T20:26:44Z</time>
      </trkpt>
      <trkpt lat="43.68369" lon="3.98257">
        <ele>59</ele>
        <time>2020-11-04T20:26:43Z</time>
      </trkpt>
      <trkpt lat="43.68371" lon="3.98259">
        <ele>59</ele>
        <time>2020-11-04T20:26:42Z</time>
      </trkpt>
      <trkpt lat="43.68373" lon="3.9826">
        <ele>59</ele>
        <time>2020-11-04T20:26:41Z</time>
      </trkpt>
      <trkpt lat="43.68375" lon="3.98262">
        <ele>59</ele>
        <time>2020-11-04T20:26:40Z</time>
      </trkpt>
      <trkpt lat="43.68378" lon="3.98264">
        <ele>59</ele>
        <time>2020-11-04T20:26:38Z</time>
      </trkpt>
      <trkpt lat="43.6838" lon="3.98265">
        <ele>59</ele>
        <time>2020-11-04T20:26:37Z</time>
      </trkpt>
      <trkpt lat="43.6839" lon="3.98269">
        <ele>59</ele>
        <time>2020-11-04T20:26:34Z</time>
      </trkpt>
      <trkpt lat="43.68415" lon="3.98266">
        <ele>59</ele>
        <time>2020-11-04T20:26:28Z</time>
      </trkpt>
      <trkpt lat="43.68426" lon="3.98253">
        <ele>59</ele>
        <time>2020-11-04T20:26:25Z</time>
      </trkpt>
      <trkpt lat="43.68436" lon="3.98234">
        <ele>59</ele>
        <time>2020-11-04T20:26:22Z</time>
      </trkpt>
      <trkpt lat="43.68445" lon="3.98221">
        <ele>59</ele>
        <time>2020-11-04T20:26:20Z</time>
      </trkpt>
      <trkpt lat="43.68459" lon="3.98201">
        <ele>59</ele>
        <time>2020-11-04T20:26:17Z</time>
      </trkpt>
      <trkpt lat="43.68463" lon="3.98195">
        <ele>59</ele>
        <time>2020-11-04T20:26:16Z</time>
      </trkpt>
      <trkpt lat="43.68486" lon="3.98171">
        <ele>59</ele>
        <time>2020-11-04T20:26:12Z</time>
      </trkpt>
      <trkpt lat="43.68505" lon="3.98159">
        <ele>59</ele>
        <time>2020-11-04T20:26:09Z</time>
      </trkpt>
      <trkpt lat="43.68553" lon="3.9815">
        <ele>59</ele>
        <time>2020-11-04T20:26:03Z</time>
      </trkpt>
      <trkpt lat="43.6857" lon="3.98151">
        <ele>59</ele>
        <time>2020-11-04T20:26:01Z</time>
      </trkpt>
      <trkpt lat="43.68585" lon="3.98152">
        <ele>59</ele>
        <time>2020-11-04T20:25:59Z</time>
      </trkpt>
      <trkpt lat="43.68594" lon="3.98153">
        <ele>59</ele>
        <time>2020-11-04T20:25:58Z</time>
      </trkpt>
      <trkpt lat="43.68624" lon="3.98161">
        <ele>59</ele>
        <time>2020-11-04T20:25:54Z</time>
      </trkpt>
      <trkpt lat="43.68632" lon="3.98164">
        <ele>59</ele>
        <time>2020-11-04T20:25:53Z</time>
      </trkpt>
      <trkpt lat="43.68639" lon="3.98166">
        <ele>59</ele>
        <time>2020-11-04T20:25:52Z</time>
      </trkpt>
      <trkpt lat="43.68697" lon="3.98181">
        <ele>59</ele>
        <time>2020-11-04T20:25:43Z</time>
      </trkpt>
      <trkpt lat="43.68704" lon="3.98184">
        <ele>59</ele>
        <time>2020-11-04T20:25:42Z</time>
      </trkpt>
      <trkpt lat="43.68755" lon="3.98191">
        <ele>59</ele>
        <time>2020-11-04T20:25:35Z</time>
      </trkpt>
      <trkpt lat="43.68763" lon="3.98191">
        <ele>59</ele>
        <time>2020-11-04T20:25:34Z</time>
      </trkpt>
      <trkpt lat="43.68771" lon="3.98191">
        <ele>59</ele>
        <time>2020-11-04T20:25:33Z</time>
      </trkpt>
      <trkpt lat="43.68778" lon="3.98191">
        <ele>59</ele>
        <time>2020-11-04T20:25:32Z</time>
      </trkpt>
      <trkpt lat="43.68821" lon="3.98184">
        <ele>59</ele>
        <time>2020-11-04T20:25:26Z</time>
      </trkpt>
      <trkpt lat="43.68835" lon="3.98177">
        <ele>59</ele>
        <time>2020-11-04T20:25:24Z</time>
      </trkpt>
      <trkpt lat="43.68862" lon="3.98165">
        <ele>59</ele>
        <time>2020-11-04T20:25:20Z</time>
      </trkpt>
      <trkpt lat="43.68876" lon="3.98162">
        <ele>59</ele>
        <time>2020-11-04T20:25:18Z</time>
      </trkpt>
      <trkpt lat="43.68883" lon="3.98162">
        <ele>59</ele>
        <time>2020-11-04T20:25:17Z</time>
      </trkpt>
      <trkpt lat="43.68896" lon="3.98164">
        <ele>59</ele>
        <time>2020-11-04T20:25:15Z</time>
      </trkpt>
      <trkpt lat="43.68902" lon="3.98168">
        <ele>59</ele>
        <time>2020-11-04T20:25:14Z</time>
      </trkpt>
      <trkpt lat="43.68912" lon="3.9818">
        <ele>59</ele>
        <time>2020-11-04T20:25:12Z</time>
      </trkpt>
      <trkpt lat="43.68918" lon="3.98197">
        <ele>59</ele>
        <time>2020-11-04T20:25:10Z</time>
      </trkpt>
      <trkpt lat="43.68924" lon="3.98236">
        <ele>59</ele>
        <time>2020-11-04T20:25:06Z</time>
      </trkpt>
      <trkpt lat="43.68923" lon="3.98266">
        <ele>59</ele>
        <time>2020-11-04T20:25:03Z</time>
      </trkpt>
      <trkpt lat="43.68917" lon="3.98302">
        <ele>59</ele>
        <time>2020-11-04T20:24:59Z</time>
      </trkpt>
      <trkpt lat="43.68912" lon="3.98319">
        <ele>59</ele>
        <time>2020-11-04T20:24:57Z</time>
      </trkpt>
      <trkpt lat="43.68894" lon="3.98393">
        <ele>58</ele>
        <time>2020-11-04T20:24:48Z</time>
      </trkpt>
      <trkpt lat="43.68879" lon="3.98469">
        <ele>57</ele>
        <time>2020-11-04T20:24:39Z</time>
      </trkpt>
      <trkpt lat="43.68877" lon="3.98484">
        <ele>57</ele>
        <time>2020-11-04T20:24:37Z</time>
      </trkpt>
      <trkpt lat="43.68877" lon="3.98492">
        <ele>57</ele>
        <time>2020-11-04T20:24:36Z</time>
      </trkpt>
      <trkpt lat="43.68878" lon="3.98499">
        <ele>57</ele>
        <time>2020-11-04T20:24:35Z</time>
      </trkpt>
      <trkpt lat="43.68884" lon="3.9851">
        <ele>56</ele>
        <time>2020-11-04T20:24:33Z</time>
      </trkpt>
      <trkpt lat="43.68888" lon="3.98514">
        <ele>56</ele>
        <time>2020-11-04T20:24:32Z</time>
      </trkpt>
      <trkpt lat="43.68901" lon="3.98531">
        <ele>56</ele>
        <time>2020-11-04T20:24:29Z</time>
      </trkpt>
      <trkpt lat="43.68907" lon="3.98537">
        <ele>56</ele>
        <time>2020-11-04T20:24:28Z</time>
      </trkpt>
      <trkpt lat="43.68916" lon="3.98548">
        <ele>56</ele>
        <time>2020-11-04T20:24:26Z</time>
      </trkpt>
      <trkpt lat="43.6892" lon="3.98555">
        <ele>56</ele>
        <time>2020-11-04T20:24:25Z</time>
      </trkpt>
      <trkpt lat="43.68924" lon="3.98561">
        <ele>56</ele>
        <time>2020-11-04T20:24:24Z</time>
      </trkpt>
      <trkpt lat="43.6893" lon="3.9857">
        <ele>56</ele>
        <time>2020-11-04T20:24:22Z</time>
      </trkpt>
      <trkpt lat="43.68943" lon="3.98581">
        <ele>57</ele>
        <time>2020-11-04T20:24:19Z</time>
      </trkpt>
      <trkpt lat="43.68948" lon="3.98583">
        <ele>57</ele>
        <time>2020-11-04T20:24:18Z</time>
      </trkpt>
      <trkpt lat="43.68953" lon="3.98586">
        <ele>57</ele>
        <time>2020-11-04T20:24:17Z</time>
      </trkpt>
      <trkpt lat="43.68955" lon="3.98591">
        <ele>58</ele>
        <time>2020-11-04T20:24:16Z</time>
      </trkpt>
      <trkpt lat="43.68956" lon="3.98597">
        <ele>58</ele>
        <time>2020-11-04T20:24:15Z</time>
      </trkpt>
      <trkpt lat="43.68956" lon="3.98606">
        <ele>58</ele>
        <time>2020-11-04T20:24:14Z</time>
      </trkpt>
      <trkpt lat="43.68957" lon="3.98626">
        <ele>59</ele>
        <time>2020-11-04T20:24:12Z</time>
      </trkpt>
      <trkpt lat="43.68973" lon="3.98665">
        <ele>61</ele>
        <time>2020-11-04T20:24:08Z</time>
      </trkpt>
      <trkpt lat="43.68986" lon="3.98681">
        <ele>62</ele>
        <time>2020-11-04T20:24:06Z</time>
      </trkpt>
      <trkpt lat="43.68993" lon="3.98688">
        <ele>62</ele>
        <time>2020-11-04T20:24:05Z</time>
      </trkpt>
      <trkpt lat="43.69" lon="3.98696">
        <ele>63</ele>
        <time>2020-11-04T20:24:04Z</time>
      </trkpt>
      <trkpt lat="43.69012" lon="3.98711">
        <ele>64</ele>
        <time>2020-11-04T20:24:02Z</time>
      </trkpt>
      <trkpt lat="43.69018" lon="3.98719">
        <ele>64</ele>
        <time>2020-11-04T20:24:01Z</time>
      </trkpt>
      <trkpt lat="43.69024" lon="3.98727">
        <ele>64</ele>
        <time>2020-11-04T20:24:00Z</time>
      </trkpt>
      <trkpt lat="43.6903" lon="3.98734">
        <ele>65</ele>
        <time>2020-11-04T20:23:59Z</time>
      </trkpt>
      <trkpt lat="43.69036" lon="3.98741">
        <ele>65</ele>
        <time>2020-11-04T20:23:58Z</time>
      </trkpt>
      <trkpt lat="43.69041" lon="3.98747">
        <ele>65</ele>
        <time>2020-11-04T20:23:57Z</time>
      </trkpt>
      <trkpt lat="43.69046" lon="3.98753">
        <ele>65</ele>
        <time>2020-11-04T20:23:56Z</time>
      </trkpt>
      <trkpt lat="43.6905" lon="3.98759">
        <ele>66</ele>
        <time>2020-11-04T20:23:55Z</time>
      </trkpt>
      <trkpt lat="43.69057" lon="3.98771">
        <ele>66</ele>
        <time>2020-11-04T20:23:53Z</time>
      </trkpt>
      <trkpt lat="43.6906" lon="3.98778">
        <ele>66</ele>
        <time>2020-11-04T20:23:52Z</time>
      </trkpt>
      <trkpt lat="43.69064" lon="3.98794">
        <ele>67</ele>
        <time>2020-11-04T20:23:50Z</time>
      </trkpt>
      <trkpt lat="43.69064" lon="3.98803">
        <ele>67</ele>
        <time>2020-11-04T20:23:49Z</time>
      </trkpt>
      <trkpt lat="43.69064" lon="3.98812">
        <ele>67</ele>
        <time>2020-11-04T20:23:48Z</time>
      </trkpt>
      <trkpt lat="43.69063" lon="3.98819">
        <ele>67</ele>
        <time>2020-11-04T20:23:47Z</time>
      </trkpt>
      <trkpt lat="43.69061" lon="3.98826">
        <ele>68</ele>
        <time>2020-11-04T20:23:46Z</time>
      </trkpt>
      <trkpt lat="43.69059" lon="3.98832">
        <ele>68</ele>
        <time>2020-11-04T20:23:45Z</time>
      </trkpt>
      <trkpt lat="43.69051" lon="3.98852">
        <ele>68</ele>
        <time>2020-11-04T20:23:42Z</time>
      </trkpt>
      <trkpt lat="43.69049" lon="3.98858">
        <ele>68</ele>
        <time>2020-11-04T20:23:41Z</time>
      </trkpt>
      <trkpt lat="43.69046" lon="3.98865">
        <ele>67</ele>
        <time>2020-11-04T20:23:40Z</time>
      </trkpt>
      <trkpt lat="43.69042" lon="3.9887">
        <ele>67</ele>
        <time>2020-11-04T20:23:39Z</time>
      </trkpt>
      <trkpt lat="43.69039" lon="3.98875">
        <ele>67</ele>
        <time>2020-11-04T20:23:38Z</time>
      </trkpt>
      <trkpt lat="43.69036" lon="3.9888">
        <ele>67</ele>
        <time>2020-11-04T20:23:37Z</time>
      </trkpt>
      <trkpt lat="43.69033" lon="3.98885">
        <ele>67</ele>
        <time>2020-11-04T20:23:36Z</time>
      </trkpt>
      <trkpt lat="43.69029" lon="3.9889">
        <ele>67</ele>
        <time>2020-11-04T20:23:35Z</time>
      </trkpt>
      <trkpt lat="43.69026" lon="3.98895">
        <ele>66</ele>
        <time>2020-11-04T20:23:34Z</time>
      </trkpt>
      <trkpt lat="43.69023" lon="3.989">
        <ele>66</ele>
        <time>2020-11-04T20:23:33Z</time>
      </trkpt>
      <trkpt lat="43.69013" lon="3.98919">
        <ele>65</ele>
        <time>2020-11-04T20:23:29Z</time>
      </trkpt>
      <trkpt lat="43.69012" lon="3.98929">
        <ele>65</ele>
        <time>2020-11-04T20:23:27Z</time>
      </trkpt>
      <trkpt lat="43.69013" lon="3.98936">
        <ele>64</ele>
        <time>2020-11-04T20:23:26Z</time>
      </trkpt>
      <trkpt lat="43.69014" lon="3.98942">
        <ele>64</ele>
        <time>2020-11-04T20:23:25Z</time>
      </trkpt>
      <trkpt lat="43.69017" lon="3.98954">
        <ele>64</ele>
        <time>2020-11-04T20:23:23Z</time>
      </trkpt>
      <trkpt lat="43.69019" lon="3.98959">
        <ele>64</ele>
        <time>2020-11-04T20:23:22Z</time>
      </trkpt>
      <trkpt lat="43.69021" lon="3.98965">
        <ele>64</ele>
        <time>2020-11-04T20:23:21Z</time>
      </trkpt>
      <trkpt lat="43.69023" lon="3.9897">
        <ele>63</ele>
        <time>2020-11-04T20:23:20Z</time>
      </trkpt>
      <trkpt lat="43.69026" lon="3.98974">
        <ele>63</ele>
        <time>2020-11-04T20:23:19Z</time>
      </trkpt>
      <trkpt lat="43.6903" lon="3.98984">
        <ele>63</ele>
        <time>2020-11-04T20:23:17Z</time>
      </trkpt>
      <trkpt lat="43.69032" lon="3.9899">
        <ele>63</ele>
        <time>2020-11-04T20:23:16Z</time>
      </trkpt>
      <trkpt lat="43.69034" lon="3.98995">
        <ele>63</ele>
        <time>2020-11-04T20:23:15Z</time>
      </trkpt>
      <trkpt lat="43.69038" lon="3.99009">
        <ele>62</ele>
        <time>2020-11-04T20:23:12Z</time>
      </trkpt>
      <trkpt lat="43.69042" lon="3.99045">
        <ele>61</ele>
        <time>2020-11-04T20:23:06Z</time>
      </trkpt>
      <trkpt lat="43.69043" lon="3.99057">
        <ele>61</ele>
        <time>2020-11-04T20:23:04Z</time>
      </trkpt>
      <trkpt lat="43.69045" lon="3.99075">
        <ele>60</ele>
        <time>2020-11-04T20:23:01Z</time>
      </trkpt>
      <trkpt lat="43.69045" lon="3.99081">
        <ele>60</ele>
        <time>2020-11-04T20:23:00Z</time>
      </trkpt>
      <trkpt lat="43.69046" lon="3.99087">
        <ele>59</ele>
        <time>2020-11-04T20:22:59Z</time>
      </trkpt>
      <trkpt lat="43.69048" lon="3.991">
        <ele>59</ele>
        <time>2020-11-04T20:22:57Z</time>
      </trkpt>
      <trkpt lat="43.69049" lon="3.99106">
        <ele>59</ele>
        <time>2020-11-04T20:22:56Z</time>
      </trkpt>
      <trkpt lat="43.69051" lon="3.99111">
        <ele>59</ele>
        <time>2020-11-04T20:22:55Z</time>
      </trkpt>
      <trkpt lat="43.69053" lon="3.99116">
        <ele>58</ele>
        <time>2020-11-04T20:22:54Z</time>
      </trkpt>
      <trkpt lat="43.69058" lon="3.99127">
        <ele>58</ele>
        <time>2020-11-04T20:22:52Z</time>
      </trkpt>
      <trkpt lat="43.69061" lon="3.99133">
        <ele>58</ele>
        <time>2020-11-04T20:22:51Z</time>
      </trkpt>
      <trkpt lat="43.69063" lon="3.99136">
        <ele>57</ele>
        <time>2020-11-04T20:22:50Z</time>
      </trkpt>
      <trkpt lat="43.69074" lon="3.99148">
        <ele>57</ele>
        <time>2020-11-04T20:22:46Z</time>
      </trkpt>
      <trkpt lat="43.69078" lon="3.9915">
        <ele>57</ele>
        <time>2020-11-04T20:22:45Z</time>
      </trkpt>
      <trkpt lat="43.69091" lon="3.99162">
        <ele>56</ele>
        <time>2020-11-04T20:22:41Z</time>
      </trkpt>
      <trkpt lat="43.69095" lon="3.99165">
        <ele>56</ele>
        <time>2020-11-04T20:22:40Z</time>
      </trkpt>
      <trkpt lat="43.69099" lon="3.99169">
        <ele>56</ele>
        <time>2020-11-04T20:22:39Z</time>
      </trkpt>
      <trkpt lat="43.69104" lon="3.99176">
        <ele>56</ele>
        <time>2020-11-04T20:22:37Z</time>
      </trkpt>
      <trkpt lat="43.69108" lon="3.99181">
        <ele>56</ele>
        <time>2020-11-04T20:22:35Z</time>
      </trkpt>
      <trkpt lat="43.69109" lon="3.99183">
        <ele>56</ele>
        <time>2020-11-04T20:22:34Z</time>
      </trkpt>
      <trkpt lat="43.69111" lon="3.99187">
        <ele>56</ele>
        <time>2020-11-04T20:22:33Z</time>
      </trkpt>
      <trkpt lat="43.69113" lon="3.99192">
        <ele>56</ele>
        <time>2020-11-04T20:22:32Z</time>
      </trkpt>
      <trkpt lat="43.69115" lon="3.99197">
        <ele>56</ele>
        <time>2020-11-04T20:22:31Z</time>
      </trkpt>
      <trkpt lat="43.69117" lon="3.99203">
        <ele>56</ele>
        <time>2020-11-04T20:22:30Z</time>
      </trkpt>
      <trkpt lat="43.69121" lon="3.99213">
        <ele>56</ele>
        <time>2020-11-04T20:22:28Z</time>
      </trkpt>
      <trkpt lat="43.69123" lon="3.99225">
        <ele>56</ele>
        <time>2020-11-04T20:22:26Z</time>
      </trkpt>
      <trkpt lat="43.69125" lon="3.9923">
        <ele>56</ele>
        <time>2020-11-04T20:22:25Z</time>
      </trkpt>
      <trkpt lat="43.6913" lon="3.99238">
        <ele>57</ele>
        <time>2020-11-04T20:22:23Z</time>
      </trkpt>
      <trkpt lat="43.69137" lon="3.99256">
        <ele>58</ele>
        <time>2020-11-04T20:22:20Z</time>
      </trkpt>
      <trkpt lat="43.69139" lon="3.99261">
        <ele>58</ele>
        <time>2020-11-04T20:22:19Z</time>
      </trkpt>
      <trkpt lat="43.69141" lon="3.99267">
        <ele>58</ele>
        <time>2020-11-04T20:22:18Z</time>
      </trkpt>
      <trkpt lat="43.69147" lon="3.99276">
        <ele>58</ele>
        <time>2020-11-04T20:22:16Z</time>
      </trkpt>
      <trkpt lat="43.6915" lon="3.99297">
        <ele>59</ele>
        <time>2020-11-04T20:22:13Z</time>
      </trkpt>
      <trkpt lat="43.69152" lon="3.99322">
        <ele>59</ele>
        <time>2020-11-04T20:22:10Z</time>
      </trkpt>
      <trkpt lat="43.69151" lon="3.9933">
        <ele>59</ele>
        <time>2020-11-04T20:22:09Z</time>
      </trkpt>
      <trkpt lat="43.69151" lon="3.99345">
        <ele>60</ele>
        <time>2020-11-04T20:22:07Z</time>
      </trkpt>
      <trkpt lat="43.69152" lon="3.99351">
        <ele>60</ele>
        <time>2020-11-04T20:22:06Z</time>
      </trkpt>
      <trkpt lat="43.69154" lon="3.99357">
        <ele>60</ele>
        <time>2020-11-04T20:22:05Z</time>
      </trkpt>
      <trkpt lat="43.69158" lon="3.99391">
        <ele>61</ele>
        <time>2020-11-04T20:21:59Z</time>
      </trkpt>
      <trkpt lat="43.69159" lon="3.99398">
        <ele>61</ele>
        <time>2020-11-04T20:21:58Z</time>
      </trkpt>
      <trkpt lat="43.69161" lon="3.99404">
        <ele>61</ele>
        <time>2020-11-04T20:21:57Z</time>
      </trkpt>
      <trkpt lat="43.69162" lon="3.99409">
        <ele>61</ele>
        <time>2020-11-04T20:21:56Z</time>
      </trkpt>
      <trkpt lat="43.69164" lon="3.99413">
        <ele>61</ele>
        <time>2020-11-04T20:21:55Z</time>
      </trkpt>
      <trkpt lat="43.69167" lon="3.99417">
        <ele>61</ele>
        <time>2020-11-04T20:21:54Z</time>
      </trkpt>
      <trkpt lat="43.69171" lon="3.9942">
        <ele>61</ele>
        <time>2020-11-04T20:21:52Z</time>
      </trkpt>
      <trkpt lat="43.69182" lon="3.99427">
        <ele>60</ele>
        <time>2020-11-04T20:21:48Z</time>
      </trkpt>
      <trkpt lat="43.69185" lon="3.99429">
        <ele>60</ele>
        <time>2020-11-04T20:21:47Z</time>
      </trkpt>
      <trkpt lat="43.69187" lon="3.99432">
        <ele>60</ele>
        <time>2020-11-04T20:21:46Z</time>
      </trkpt>
      <trkpt lat="43.69188" lon="3.99434">
        <ele>60</ele>
        <time>2020-11-04T20:21:45Z</time>
      </trkpt>
      <trkpt lat="43.69193" lon="3.99448">
        <ele>59</ele>
        <time>2020-11-04T20:21:41Z</time>
      </trkpt>
      <trkpt lat="43.69192" lon="3.99457">
        <ele>59</ele>
        <time>2020-11-04T20:21:39Z</time>
      </trkpt>
      <trkpt lat="43.69187" lon="3.99474">
        <ele>59</ele>
        <time>2020-11-04T20:21:36Z</time>
      </trkpt>
      <trkpt lat="43.69179" lon="3.99487">
        <ele>59</ele>
        <time>2020-11-04T20:21:33Z</time>
      </trkpt>
      <trkpt lat="43.69176" lon="3.99491">
        <ele>59</ele>
        <time>2020-11-04T20:21:32Z</time>
      </trkpt>
      <trkpt lat="43.69173" lon="3.99495">
        <ele>59</ele>
        <time>2020-11-04T20:21:31Z</time>
      </trkpt>
      <trkpt lat="43.69171" lon="3.99498">
        <ele>59</ele>
        <time>2020-11-04T20:21:30Z</time>
      </trkpt>
      <trkpt lat="43.69169" lon="3.99502">
        <ele>59</ele>
        <time>2020-11-04T20:21:29Z</time>
      </trkpt>
      <trkpt lat="43.69163" lon="3.9951">
        <ele>58</ele>
        <time>2020-11-04T20:21:26Z</time>
      </trkpt>
      <trkpt lat="43.69157" lon="3.99519">
        <ele>58</ele>
        <time>2020-11-04T20:21:22Z</time>
      </trkpt>
      <trkpt lat="43.69155" lon="3.99521">
        <ele>57</ele>
        <time>2020-11-04T20:21:21Z</time>
      </trkpt>
      <trkpt lat="43.69153" lon="3.99525">
        <ele>57</ele>
        <time>2020-11-04T20:21:20Z</time>
      </trkpt>
      <trkpt lat="43.69151" lon="3.9953">
        <ele>57</ele>
        <time>2020-11-04T20:21:19Z</time>
      </trkpt>
      <trkpt lat="43.69149" lon="3.99534">
        <ele>57</ele>
        <time>2020-11-04T20:21:18Z</time>
      </trkpt>
      <trkpt lat="43.69145" lon="3.99551">
        <ele>56</ele>
        <time>2020-11-04T20:21:14Z</time>
      </trkpt>
      <trkpt lat="43.69145" lon="3.99556">
        <ele>56</ele>
        <time>2020-11-04T20:21:13Z</time>
      </trkpt>
      <trkpt lat="43.69145" lon="3.99561">
        <ele>56</ele>
        <time>2020-11-04T20:21:12Z</time>
      </trkpt>
      <trkpt lat="43.69151" lon="3.99572">
        <ele>55</ele>
        <time>2020-11-04T20:21:09Z</time>
      </trkpt>
      <trkpt lat="43.69158" lon="3.99577">
        <ele>55</ele>
        <time>2020-11-04T20:21:07Z</time>
      </trkpt>
      <trkpt lat="43.69171" lon="3.99583">
        <ele>54</ele>
        <time>2020-11-04T20:21:04Z</time>
      </trkpt>
      <trkpt lat="43.69179" lon="3.99589">
        <ele>54</ele>
        <time>2020-11-04T20:21:02Z</time>
      </trkpt>
      <trkpt lat="43.69183" lon="3.99592">
        <ele>54</ele>
        <time>2020-11-04T20:21:01Z</time>
      </trkpt>
      <trkpt lat="43.69188" lon="3.99595">
        <ele>53</ele>
        <time>2020-11-04T20:21:00Z</time>
      </trkpt>
      <trkpt lat="43.69225" lon="3.99617">
        <ele>53</ele>
        <time>2020-11-04T20:20:52Z</time>
      </trkpt>
      <trkpt lat="43.6923" lon="3.9962">
        <ele>53</ele>
        <time>2020-11-04T20:20:51Z</time>
      </trkpt>
      <trkpt lat="43.69243" lon="3.99628">
        <ele>53</ele>
        <time>2020-11-04T20:20:48Z</time>
      </trkpt>
      <trkpt lat="43.69252" lon="3.99633">
        <ele>53</ele>
        <time>2020-11-04T20:20:46Z</time>
      </trkpt>
      <trkpt lat="43.69256" lon="3.99635">
        <ele>53</ele>
        <time>2020-11-04T20:20:45Z</time>
      </trkpt>
      <trkpt lat="43.69261" lon="3.99637">
        <ele>53</ele>
        <time>2020-11-04T20:20:44Z</time>
      </trkpt>
      <trkpt lat="43.69274" lon="3.99638">
        <ele>53</ele>
        <time>2020-11-04T20:20:40Z</time>
      </trkpt>
      <trkpt lat="43.69277" lon="3.99633">
        <ele>53</ele>
        <time>2020-11-04T20:20:39Z</time>
      </trkpt>
      <trkpt lat="43.6928" lon="3.99627">
        <ele>53</ele>
        <time>2020-11-04T20:20:38Z</time>
      </trkpt>
      <trkpt lat="43.69289" lon="3.99617">
        <ele>53</ele>
        <time>2020-11-04T20:20:36Z</time>
      </trkpt>
      <trkpt lat="43.69294" lon="3.99614">
        <ele>53</ele>
        <time>2020-11-04T20:20:35Z</time>
      </trkpt>
      <trkpt lat="43.69299" lon="3.99611">
        <ele>53</ele>
        <time>2020-11-04T20:20:34Z</time>
      </trkpt>
      <trkpt lat="43.69305" lon="3.9961">
        <ele>53</ele>
        <time>2020-11-04T20:20:33Z</time>
      </trkpt>
      <trkpt lat="43.69322" lon="3.99608">
        <ele>53</ele>
        <time>2020-11-04T20:20:30Z</time>
      </trkpt>
      <trkpt lat="43.69327" lon="3.99607">
        <ele>53</ele>
        <time>2020-11-04T20:20:29Z</time>
      </trkpt>
      <trkpt lat="43.69332" lon="3.99607">
        <ele>53</ele>
        <time>2020-11-04T20:20:28Z</time>
      </trkpt>
      <trkpt lat="43.69336" lon="3.99608">
        <ele>53</ele>
        <time>2020-11-04T20:20:27Z</time>
      </trkpt>
      <trkpt lat="43.69341" lon="3.99611">
        <ele>53</ele>
        <time>2020-11-04T20:20:26Z</time>
      </trkpt>
      <trkpt lat="43.69351" lon="3.9962">
        <ele>53</ele>
        <time>2020-11-04T20:20:24Z</time>
      </trkpt>
      <trkpt lat="43.69375" lon="3.99643">
        <ele>53</ele>
        <time>2020-11-04T20:20:20Z</time>
      </trkpt>
      <trkpt lat="43.69386" lon="3.99656">
        <ele>53</ele>
        <time>2020-11-04T20:20:18Z</time>
      </trkpt>
      <trkpt lat="43.69395" lon="3.9967">
        <ele>54</ele>
        <time>2020-11-04T20:20:16Z</time>
      </trkpt>
      <trkpt lat="43.694" lon="3.99677">
        <ele>54</ele>
        <time>2020-11-04T20:20:15Z</time>
      </trkpt>
      <trkpt lat="43.6942" lon="3.99692">
        <ele>54</ele>
        <time>2020-11-04T20:20:12Z</time>
      </trkpt>
      <trkpt lat="43.69427" lon="3.99697">
        <ele>54</ele>
        <time>2020-11-04T20:20:11Z</time>
      </trkpt>
      <trkpt lat="43.69441" lon="3.99707">
        <ele>54</ele>
        <time>2020-11-04T20:20:09Z</time>
      </trkpt>
      <trkpt lat="43.69448" lon="3.99713">
        <ele>54</ele>
        <time>2020-11-04T20:20:08Z</time>
      </trkpt>
      <trkpt lat="43.69455" lon="3.99719">
        <ele>54</ele>
        <time>2020-11-04T20:20:07Z</time>
      </trkpt>
      <trkpt lat="43.69462" lon="3.99725">
        <ele>54</ele>
        <time>2020-11-04T20:20:06Z</time>
      </trkpt>
      <trkpt lat="43.69469" lon="3.99729">
        <ele>54</ele>
        <time>2020-11-04T20:20:05Z</time>
      </trkpt>
      <trkpt lat="43.69483" lon="3.99739">
        <ele>54</ele>
        <time>2020-11-04T20:20:03Z</time>
      </trkpt>
      <trkpt lat="43.69489" lon="3.99742">
        <ele>54</ele>
        <time>2020-11-04T20:20:02Z</time>
      </trkpt>
      <trkpt lat="43.69501" lon="3.99748">
        <ele>54</ele>
        <time>2020-11-04T20:20:00Z</time>
      </trkpt>
      <trkpt lat="43.69531" lon="3.99765">
        <ele>54</ele>
        <time>2020-11-04T20:19:55Z</time>
      </trkpt>
      <trkpt lat="43.69564" lon="3.99788">
        <ele>53</ele>
        <time>2020-11-04T20:19:49Z</time>
      </trkpt>
      <trkpt lat="43.6957" lon="3.9979">
        <ele>53</ele>
        <time>2020-11-04T20:19:48Z</time>
      </trkpt>
      <trkpt lat="43.69576" lon="3.99791">
        <ele>53</ele>
        <time>2020-11-04T20:19:47Z</time>
      </trkpt>
      <trkpt lat="43.69594" lon="3.99797">
        <ele>53</ele>
        <time>2020-11-04T20:19:44Z</time>
      </trkpt>
      <trkpt lat="43.69607" lon="3.998">
        <ele>53</ele>
        <time>2020-11-04T20:19:42Z</time>
      </trkpt>
      <trkpt lat="43.6962" lon="3.99804">
        <ele>53</ele>
        <time>2020-11-04T20:19:40Z</time>
      </trkpt>
      <trkpt lat="43.69647" lon="3.99807">
        <ele>52</ele>
        <time>2020-11-04T20:19:36Z</time>
      </trkpt>
      <trkpt lat="43.69654" lon="3.99805">
        <ele>52</ele>
        <time>2020-11-04T20:19:35Z</time>
      </trkpt>
      <trkpt lat="43.69661" lon="3.99803">
        <ele>52</ele>
        <time>2020-11-04T20:19:34Z</time>
      </trkpt>
      <trkpt lat="43.69668" lon="3.99801">
        <ele>52</ele>
        <time>2020-11-04T20:19:33Z</time>
      </trkpt>
      <trkpt lat="43.69674" lon="3.998">
        <ele>52</ele>
        <time>2020-11-04T20:19:32Z</time>
      </trkpt>
      <trkpt lat="43.69679" lon="3.998">
        <ele>52</ele>
        <time>2020-11-04T20:19:31Z</time>
      </trkpt>
      <trkpt lat="43.69688" lon="3.99801">
        <ele>51</ele>
        <time>2020-11-04T20:19:29Z</time>
      </trkpt>
      <trkpt lat="43.69699" lon="3.99802">
        <ele>51</ele>
        <time>2020-11-04T20:19:27Z</time>
      </trkpt>
      <trkpt lat="43.69704" lon="3.99803">
        <ele>51</ele>
        <time>2020-11-04T20:19:26Z</time>
      </trkpt>
      <trkpt lat="43.69716" lon="3.99803">
        <ele>51</ele>
        <time>2020-11-04T20:19:24Z</time>
      </trkpt>
      <trkpt lat="43.69722" lon="3.99804">
        <ele>51</ele>
        <time>2020-11-04T20:19:23Z</time>
      </trkpt>
      <trkpt lat="43.69728" lon="3.99805">
        <ele>51</ele>
        <time>2020-11-04T20:19:22Z</time>
      </trkpt>
      <trkpt lat="43.69734" lon="3.99807">
        <ele>50</ele>
        <time>2020-11-04T20:19:21Z</time>
      </trkpt>
      <trkpt lat="43.6974" lon="3.99809">
        <ele>50</ele>
        <time>2020-11-04T20:19:20Z</time>
      </trkpt>
      <trkpt lat="43.69753" lon="3.99815">
        <ele>50</ele>
        <time>2020-11-04T20:19:18Z</time>
      </trkpt>
      <trkpt lat="43.6976" lon="3.99818">
        <ele>50</ele>
        <time>2020-11-04T20:19:17Z</time>
      </trkpt>
      <trkpt lat="43.69773" lon="3.99825">
        <ele>49</ele>
        <time>2020-11-04T20:19:15Z</time>
      </trkpt>
      <trkpt lat="43.69779" lon="3.99829">
        <ele>49</ele>
        <time>2020-11-04T20:19:14Z</time>
      </trkpt>
      <trkpt lat="43.69795" lon="3.99853">
        <ele>49</ele>
        <time>2020-11-04T20:19:10Z</time>
      </trkpt>
      <trkpt lat="43.69828" lon="3.99885">
        <ele>48</ele>
        <time>2020-11-04T20:19:04Z</time>
      </trkpt>
      <trkpt lat="43.69836" lon="3.99888">
        <ele>48</ele>
        <time>2020-11-04T20:19:03Z</time>
      </trkpt>
      <trkpt lat="43.69843" lon="3.9989">
        <ele>48</ele>
        <time>2020-11-04T20:19:02Z</time>
      </trkpt>
      <trkpt lat="43.69858" lon="3.99893">
        <ele>48</ele>
        <time>2020-11-04T20:19:00Z</time>
      </trkpt>
      <trkpt lat="43.69891" lon="3.99901">
        <ele>48</ele>
        <time>2020-11-04T20:18:55Z</time>
      </trkpt>
      <trkpt lat="43.69898" lon="3.99901">
        <ele>48</ele>
        <time>2020-11-04T20:18:54Z</time>
      </trkpt>
      <trkpt lat="43.69904" lon="3.99902">
        <ele>48</ele>
        <time>2020-11-04T20:18:53Z</time>
      </trkpt>
      <trkpt lat="43.69911" lon="3.99904">
        <ele>48</ele>
        <time>2020-11-04T20:18:52Z</time>
      </trkpt>
      <trkpt lat="43.69918" lon="3.99905">
        <ele>48</ele>
        <time>2020-11-04T20:18:51Z</time>
      </trkpt>
      <trkpt lat="43.69933" lon="3.99909">
        <ele>49</ele>
        <time>2020-11-04T20:18:49Z</time>
      </trkpt>
      <trkpt lat="43.69951" lon="3.99915">
        <ele>49</ele>
        <time>2020-11-04T20:18:46Z</time>
      </trkpt>
      <trkpt lat="43.69964" lon="3.99919">
        <ele>49</ele>
        <time>2020-11-04T20:18:44Z</time>
      </trkpt>
      <trkpt lat="43.6997" lon="3.99921">
        <ele>49</ele>
        <time>2020-11-04T20:18:43Z</time>
      </trkpt>
      <trkpt lat="43.69975" lon="3.99922">
        <ele>49</ele>
        <time>2020-11-04T20:18:42Z</time>
      </trkpt>
      <trkpt lat="43.6998" lon="3.99924">
        <ele>49</ele>
        <time>2020-11-04T20:18:41Z</time>
      </trkpt>
      <trkpt lat="43.69985" lon="3.99925">
        <ele>49</ele>
        <time>2020-11-04T20:18:40Z</time>
      </trkpt>
      <trkpt lat="43.6999" lon="3.99926">
        <ele>49</ele>
        <time>2020-11-04T20:18:39Z</time>
      </trkpt>
      <trkpt lat="43.70004" lon="3.9993">
        <ele>50</ele>
        <time>2020-11-04T20:18:36Z</time>
      </trkpt>
      <trkpt lat="43.70009" lon="3.99932">
        <ele>50</ele>
        <time>2020-11-04T20:18:35Z</time>
      </trkpt>
      <trkpt lat="43.70014" lon="3.99935">
        <ele>50</ele>
        <time>2020-11-04T20:18:34Z</time>
      </trkpt>
      <trkpt lat="43.70022" lon="3.99942">
        <ele>50</ele>
        <time>2020-11-04T20:18:32Z</time>
      </trkpt>
      <trkpt lat="43.70026" lon="3.99947">
        <ele>51</ele>
        <time>2020-11-04T20:18:31Z</time>
      </trkpt>
      <trkpt lat="43.7003" lon="3.99952">
        <ele>51</ele>
        <time>2020-11-04T20:18:30Z</time>
      </trkpt>
      <trkpt lat="43.70033" lon="3.99955">
        <ele>51</ele>
        <time>2020-11-04T20:18:29Z</time>
      </trkpt>
      <trkpt lat="43.70036" lon="3.99958">
        <ele>51</ele>
        <time>2020-11-04T20:18:28Z</time>
      </trkpt>
      <trkpt lat="43.70039" lon="3.9996">
        <ele>51</ele>
        <time>2020-11-04T20:18:27Z</time>
      </trkpt>
      <trkpt lat="43.70045" lon="3.99963">
        <ele>51</ele>
        <time>2020-11-04T20:18:25Z</time>
      </trkpt>
      <trkpt lat="43.70049" lon="3.99965">
        <ele>51</ele>
        <time>2020-11-04T20:18:24Z</time>
      </trkpt>
      <trkpt lat="43.70052" lon="3.99966">
        <ele>51</ele>
        <time>2020-11-04T20:18:23Z</time>
      </trkpt>
      <trkpt lat="43.70056" lon="3.99967">
        <ele>51</ele>
        <time>2020-11-04T20:18:22Z</time>
      </trkpt>
      <trkpt lat="43.70063" lon="3.99967">
        <ele>51</ele>
        <time>2020-11-04T20:18:20Z</time>
      </trkpt>
      <trkpt lat="43.70069" lon="3.99967">
        <ele>51</ele>
        <time>2020-11-04T20:18:18Z</time>
      </trkpt>
      <trkpt lat="43.70078" lon="3.99971">
        <ele>51</ele>
        <time>2020-11-04T20:18:15Z</time>
      </trkpt>
      <trkpt lat="43.70081" lon="3.99971">
        <ele>51</ele>
        <time>2020-11-04T20:18:14Z</time>
      </trkpt>
      <trkpt lat="43.70085" lon="3.99971">
        <ele>51</ele>
        <time>2020-11-04T20:18:13Z</time>
      </trkpt>
      <trkpt lat="43.70088" lon="3.99971">
        <ele>51</ele>
        <time>2020-11-04T20:18:12Z</time>
      </trkpt>
      <trkpt lat="43.70093" lon="3.99972">
        <ele>51</ele>
        <time>2020-11-04T20:18:10Z</time>
      </trkpt>
      <trkpt lat="43.70095" lon="3.99972">
        <ele>51</ele>
        <time>2020-11-04T20:18:09Z</time>
      </trkpt>
      <trkpt lat="43.70098" lon="3.99973">
        <ele>51</ele>
        <time>2020-11-04T20:18:08Z</time>
      </trkpt>
      <trkpt lat="43.701" lon="3.99974">
        <ele>50</ele>
        <time>2020-11-04T20:18:07Z</time>
      </trkpt>
      <trkpt lat="43.70104" lon="3.99975">
        <ele>50</ele>
        <time>2020-11-04T20:18:05Z</time>
      </trkpt>
      <trkpt lat="43.7011" lon="3.99978">
        <ele>50</ele>
        <time>2020-11-04T20:18:03Z</time>
      </trkpt>
      <trkpt lat="43.70118" lon="3.99982">
        <ele>50</ele>
        <time>2020-11-04T20:18:01Z</time>
      </trkpt>
      <trkpt lat="43.70121" lon="3.99985">
        <ele>50</ele>
        <time>2020-11-04T20:18:00Z</time>
      </trkpt>
      <trkpt lat="43.70133" lon="3.99994">
        <ele>50</ele>
        <time>2020-11-04T20:17:57Z</time>
      </trkpt>
      <trkpt lat="43.70144" lon="4.00005">
        <ele>49</ele>
        <time>2020-11-04T20:17:54Z</time>
      </trkpt>
      <trkpt lat="43.70152" lon="4.00012">
        <ele>49</ele>
        <time>2020-11-04T20:17:52Z</time>
      </trkpt>
      <trkpt lat="43.70156" lon="4.00016">
        <ele>49</ele>
        <time>2020-11-04T20:17:51Z</time>
      </trkpt>
      <trkpt lat="43.70159" lon="4.00019">
        <ele>49</ele>
        <time>2020-11-04T20:17:50Z</time>
      </trkpt>
      <trkpt lat="43.70162" lon="4.00025">
        <ele>49</ele>
        <time>2020-11-04T20:17:48Z</time>
      </trkpt>
      <trkpt lat="43.70163" lon="4.00028">
        <ele>49</ele>
        <time>2020-11-04T20:17:47Z</time>
      </trkpt>
      <trkpt lat="43.70168" lon="4.0003">
        <ele>49</ele>
        <time>2020-11-04T20:17:45Z</time>
      </trkpt>
      <trkpt lat="43.7017" lon="4.0003">
        <ele>49</ele>
        <time>2020-11-04T20:17:44Z</time>
      </trkpt>
      <trkpt lat="43.70176" lon="4.00032">
        <ele>49</ele>
        <time>2020-11-04T20:17:42Z</time>
      </trkpt>
      <trkpt lat="43.7018" lon="4.00034">
        <ele>49</ele>
        <time>2020-11-04T20:17:41Z</time>
      </trkpt>
      <trkpt lat="43.70184" lon="4.00038">
        <ele>49</ele>
        <time>2020-11-04T20:17:40Z</time>
      </trkpt>
      <trkpt lat="43.70193" lon="4.00048">
        <ele>49</ele>
        <time>2020-11-04T20:17:38Z</time>
      </trkpt>
      <trkpt lat="43.70199" lon="4.00054">
        <ele>49</ele>
        <time>2020-11-04T20:17:37Z</time>
      </trkpt>
      <trkpt lat="43.70215" lon="4.00071">
        <ele>49</ele>
        <time>2020-11-04T20:17:34Z</time>
      </trkpt>
      <trkpt lat="43.70231" lon="4.00087">
        <ele>49</ele>
        <time>2020-11-04T20:17:31Z</time>
      </trkpt>
      <trkpt lat="43.70237" lon="4.00092">
        <ele>49</ele>
        <time>2020-11-04T20:17:30Z</time>
      </trkpt>
      <trkpt lat="43.70242" lon="4.00097">
        <ele>48</ele>
        <time>2020-11-04T20:17:29Z</time>
      </trkpt>
      <trkpt lat="43.70247" lon="4.00102">
        <ele>48</ele>
        <time>2020-11-04T20:17:28Z</time>
      </trkpt>
      <trkpt lat="43.70257" lon="4.0011">
        <ele>48</ele>
        <time>2020-11-04T20:17:26Z</time>
      </trkpt>
      <trkpt lat="43.70285" lon="4.00131">
        <ele>48</ele>
        <time>2020-11-04T20:17:20Z</time>
      </trkpt>
      <trkpt lat="43.7029" lon="4.00135">
        <ele>48</ele>
        <time>2020-11-04T20:17:19Z</time>
      </trkpt>
      <trkpt lat="43.70294" lon="4.00139">
        <ele>48</ele>
        <time>2020-11-04T20:17:18Z</time>
      </trkpt>
      <trkpt lat="43.70298" lon="4.00141">
        <ele>48</ele>
        <time>2020-11-04T20:17:17Z</time>
      </trkpt>
      <trkpt lat="43.70307" lon="4.00147">
        <ele>48</ele>
        <time>2020-11-04T20:17:15Z</time>
      </trkpt>
      <trkpt lat="43.70311" lon="4.0015">
        <ele>48</ele>
        <time>2020-11-04T20:17:14Z</time>
      </trkpt>
      <trkpt lat="43.70316" lon="4.00153">
        <ele>47</ele>
        <time>2020-11-04T20:17:13Z</time>
      </trkpt>
      <trkpt lat="43.70325" lon="4.0016">
        <ele>47</ele>
        <time>2020-11-04T20:17:11Z</time>
      </trkpt>
      <trkpt lat="43.70356" lon="4.00187">
        <ele>46</ele>
        <time>2020-11-04T20:17:04Z</time>
      </trkpt>
      <trkpt lat="43.7037" lon="4.00199">
        <ele>46</ele>
        <time>2020-11-04T20:17:01Z</time>
      </trkpt>
      <trkpt lat="43.70374" lon="4.00203">
        <ele>46</ele>
        <time>2020-11-04T20:17:00Z</time>
      </trkpt>
      <trkpt lat="43.70396" lon="4.00227">
        <ele>46</ele>
        <time>2020-11-04T20:16:55Z</time>
      </trkpt>
      <trkpt lat="43.70401" lon="4.00232">
        <ele>46</ele>
        <time>2020-11-04T20:16:54Z</time>
      </trkpt>
      <trkpt lat="43.70425" lon="4.00254">
        <ele>47</ele>
        <time>2020-11-04T20:16:49Z</time>
      </trkpt>
      <trkpt lat="43.70455" lon="4.00275">
        <ele>48</ele>
        <time>2020-11-04T20:16:44Z</time>
      </trkpt>
      <trkpt lat="43.70461" lon="4.00278">
        <ele>49</ele>
        <time>2020-11-04T20:16:43Z</time>
      </trkpt>
      <trkpt lat="43.70473" lon="4.00286">
        <ele>49</ele>
        <time>2020-11-04T20:16:41Z</time>
      </trkpt>
      <trkpt lat="43.70483" lon="4.00297">
        <ele>50</ele>
        <time>2020-11-04T20:16:39Z</time>
      </trkpt>
      <trkpt lat="43.70488" lon="4.00304">
        <ele>50</ele>
        <time>2020-11-04T20:16:38Z</time>
      </trkpt>
      <trkpt lat="43.70494" lon="4.00317">
        <ele>51</ele>
        <time>2020-11-04T20:16:36Z</time>
      </trkpt>
      <trkpt lat="43.70491" lon="4.00331">
        <ele>51</ele>
        <time>2020-11-04T20:16:34Z</time>
      </trkpt>
      <trkpt lat="43.70489" lon="4.00339">
        <ele>51</ele>
        <time>2020-11-04T20:16:33Z</time>
      </trkpt>
      <trkpt lat="43.70484" lon="4.00355">
        <ele>52</ele>
        <time>2020-11-04T20:16:31Z</time>
      </trkpt>
      <trkpt lat="43.70482" lon="4.00363">
        <ele>52</ele>
        <time>2020-11-04T20:16:30Z</time>
      </trkpt>
      <trkpt lat="43.7048" lon="4.00372">
        <ele>52</ele>
        <time>2020-11-04T20:16:29Z</time>
      </trkpt>
      <trkpt lat="43.70477" lon="4.00379">
        <ele>52</ele>
        <time>2020-11-04T20:16:28Z</time>
      </trkpt>
      <trkpt lat="43.70469" lon="4.004">
        <ele>52</ele>
        <time>2020-11-04T20:16:25Z</time>
      </trkpt>
      <trkpt lat="43.70466" lon="4.00407">
        <ele>52</ele>
        <time>2020-11-04T20:16:24Z</time>
      </trkpt>
      <trkpt lat="43.70447" lon="4.00457">
        <ele>51</ele>
        <time>2020-11-04T20:16:17Z</time>
      </trkpt>
      <trkpt lat="43.70444" lon="4.00464">
        <ele>51</ele>
        <time>2020-11-04T20:16:16Z</time>
      </trkpt>
      <trkpt lat="43.70433" lon="4.00502">
        <ele>51</ele>
        <time>2020-11-04T20:16:11Z</time>
      </trkpt>
      <trkpt lat="43.70431" lon="4.0051">
        <ele>51</ele>
        <time>2020-11-04T20:16:10Z</time>
      </trkpt>
      <trkpt lat="43.70428" lon="4.00518">
        <ele>51</ele>
        <time>2020-11-04T20:16:09Z</time>
      </trkpt>
      <trkpt lat="43.70423" lon="4.00532">
        <ele>51</ele>
        <time>2020-11-04T20:16:07Z</time>
      </trkpt>
      <trkpt lat="43.7042" lon="4.00539">
        <ele>51</ele>
        <time>2020-11-04T20:16:06Z</time>
      </trkpt>
      <trkpt lat="43.70416" lon="4.00545">
        <ele>51</ele>
        <time>2020-11-04T20:16:05Z</time>
      </trkpt>
      <trkpt lat="43.70409" lon="4.00555">
        <ele>51</ele>
        <time>2020-11-04T20:16:03Z</time>
      </trkpt>
      <trkpt lat="43.70405" lon="4.00559">
        <ele>51</ele>
        <time>2020-11-04T20:16:02Z</time>
      </trkpt>
      <trkpt lat="43.70398" lon="4.00574">
        <ele>51</ele>
        <time>2020-11-04T20:15:59Z</time>
      </trkpt>
      <trkpt lat="43.7041" lon="4.00604">
        <ele>50</ele>
        <time>2020-11-04T20:15:54Z</time>
      </trkpt>
      <trkpt lat="43.70414" lon="4.0061">
        <ele>50</ele>
        <time>2020-11-04T20:15:53Z</time>
      </trkpt>
      <trkpt lat="43.70417" lon="4.00616">
        <ele>50</ele>
        <time>2020-11-04T20:15:52Z</time>
      </trkpt>
      <trkpt lat="43.70425" lon="4.0064">
        <ele>50</ele>
        <time>2020-11-04T20:15:48Z</time>
      </trkpt>
      <trkpt lat="43.70428" lon="4.00645">
        <ele>50</ele>
        <time>2020-11-04T20:15:47Z</time>
      </trkpt>
      <trkpt lat="43.70433" lon="4.00656">
        <ele>50</ele>
        <time>2020-11-04T20:15:45Z</time>
      </trkpt>
      <trkpt lat="43.70435" lon="4.00661">
        <ele>50</ele>
        <time>2020-11-04T20:15:44Z</time>
      </trkpt>
      <trkpt lat="43.70438" lon="4.00666">
        <ele>50</ele>
        <time>2020-11-04T20:15:43Z</time>
      </trkpt>
      <trkpt lat="43.7044" lon="4.0067">
        <ele>50</ele>
        <time>2020-11-04T20:15:42Z</time>
      </trkpt>
      <trkpt lat="43.70443" lon="4.00674">
        <ele>50</ele>
        <time>2020-11-04T20:15:41Z</time>
      </trkpt>
      <trkpt lat="43.70446" lon="4.00677">
        <ele>50</ele>
        <time>2020-11-04T20:15:40Z</time>
      </trkpt>
      <trkpt lat="43.70449" lon="4.00679">
        <ele>50</ele>
        <time>2020-11-04T20:15:39Z</time>
      </trkpt>
      <trkpt lat="43.70451" lon="4.00681">
        <ele>50</ele>
        <time>2020-11-04T20:15:38Z</time>
      </trkpt>
      <trkpt lat="43.70452" lon="4.00684">
        <ele>50</ele>
        <time>2020-11-04T20:15:37Z</time>
      </trkpt>
      <trkpt lat="43.70454" lon="4.00686">
        <ele>50</ele>
        <time>2020-11-04T20:15:36Z</time>
      </trkpt>
      <trkpt lat="43.70458" lon="4.00693">
        <ele>50</ele>
        <time>2020-11-04T20:15:33Z</time>
      </trkpt>
      <trkpt lat="43.70459" lon="4.00695">
        <ele>50</ele>
        <time>2020-11-04T20:15:32Z</time>
      </trkpt>
      <trkpt lat="43.70462" lon="4.00699">
        <ele>50</ele>
        <time>2020-11-04T20:15:31Z</time>
      </trkpt>
      <trkpt lat="43.70462" lon="4.00704">
        <ele>50</ele>
        <time>2020-11-04T20:15:30Z</time>
      </trkpt>
      <trkpt lat="43.70461" lon="4.00717">
        <ele>50</ele>
        <time>2020-11-04T20:15:28Z</time>
      </trkpt>
      <trkpt lat="43.70463" lon="4.00737">
        <ele>50</ele>
        <time>2020-11-04T20:15:25Z</time>
      </trkpt>
      <trkpt lat="43.70463" lon="4.00761">
        <ele>50</ele>
        <time>2020-11-04T20:15:21Z</time>
      </trkpt>
      <trkpt lat="43.70457" lon="4.00775">
        <ele>50</ele>
        <time>2020-11-04T20:15:19Z</time>
      </trkpt>
      <trkpt lat="43.70454" lon="4.00781">
        <ele>50</ele>
        <time>2020-11-04T20:15:18Z</time>
      </trkpt>
      <trkpt lat="43.70451" lon="4.00789">
        <ele>50</ele>
        <time>2020-11-04T20:15:17Z</time>
      </trkpt>
      <trkpt lat="43.70449" lon="4.00797">
        <ele>50</ele>
        <time>2020-11-04T20:15:16Z</time>
      </trkpt>
      <trkpt lat="43.70447" lon="4.00805">
        <ele>50</ele>
        <time>2020-11-04T20:15:15Z</time>
      </trkpt>
      <trkpt lat="43.70446" lon="4.00812">
        <ele>50</ele>
        <time>2020-11-04T20:15:14Z</time>
      </trkpt>
      <trkpt lat="43.70444" lon="4.00838">
        <ele>49</ele>
        <time>2020-11-04T20:15:10Z</time>
      </trkpt>
      <trkpt lat="43.70445" lon="4.00845">
        <ele>49</ele>
        <time>2020-11-04T20:15:09Z</time>
      </trkpt>
      <trkpt lat="43.70447" lon="4.00852">
        <ele>49</ele>
        <time>2020-11-04T20:15:08Z</time>
      </trkpt>
      <trkpt lat="43.70457" lon="4.0088">
        <ele>49</ele>
        <time>2020-11-04T20:15:04Z</time>
      </trkpt>
      <trkpt lat="43.7046" lon="4.00886">
        <ele>49</ele>
        <time>2020-11-04T20:15:03Z</time>
      </trkpt>
      <trkpt lat="43.70463" lon="4.00892">
        <ele>49</ele>
        <time>2020-11-04T20:15:02Z</time>
      </trkpt>
      <trkpt lat="43.70466" lon="4.00899">
        <ele>48</ele>
        <time>2020-11-04T20:15:01Z</time>
      </trkpt>
      <trkpt lat="43.70469" lon="4.00905">
        <ele>48</ele>
        <time>2020-11-04T20:15:00Z</time>
      </trkpt>
      <trkpt lat="43.70471" lon="4.00911">
        <ele>48</ele>
        <time>2020-11-04T20:14:59Z</time>
      </trkpt>
      <trkpt lat="43.70473" lon="4.00918">
        <ele>48</ele>
        <time>2020-11-04T20:14:58Z</time>
      </trkpt>
      <trkpt lat="43.70475" lon="4.00925">
        <ele>48</ele>
        <time>2020-11-04T20:14:57Z</time>
      </trkpt>
      <trkpt lat="43.70477" lon="4.0094">
        <ele>48</ele>
        <time>2020-11-04T20:14:55Z</time>
      </trkpt>
      <trkpt lat="43.70477" lon="4.00947">
        <ele>48</ele>
        <time>2020-11-04T20:14:54Z</time>
      </trkpt>
      <trkpt lat="43.70478" lon="4.00953">
        <ele>47</ele>
        <time>2020-11-04T20:14:53Z</time>
      </trkpt>
      <trkpt lat="43.70476" lon="4.0097">
        <ele>47</ele>
        <time>2020-11-04T20:14:50Z</time>
      </trkpt>
      <trkpt lat="43.7047" lon="4.00996">
        <ele>47</ele>
        <time>2020-11-04T20:14:46Z</time>
      </trkpt>
      <trkpt lat="43.70469" lon="4.01003">
        <ele>47</ele>
        <time>2020-11-04T20:14:45Z</time>
      </trkpt>
      <trkpt lat="43.70469" lon="4.01009">
        <ele>47</ele>
        <time>2020-11-04T20:14:44Z</time>
      </trkpt>
      <trkpt lat="43.70473" lon="4.01021">
        <ele>47</ele>
        <time>2020-11-04T20:14:42Z</time>
      </trkpt>
      <trkpt lat="43.70484" lon="4.01031">
        <ele>48</ele>
        <time>2020-11-04T20:14:39Z</time>
      </trkpt>
      <trkpt lat="43.70498" lon="4.0103">
        <ele>48</ele>
        <time>2020-11-04T20:14:36Z</time>
      </trkpt>
      <trkpt lat="43.70521" lon="4.01033">
        <ele>48</ele>
        <time>2020-11-04T20:14:32Z</time>
      </trkpt>
      <trkpt lat="43.70527" lon="4.01033">
        <ele>48</ele>
        <time>2020-11-04T20:14:31Z</time>
      </trkpt>
      <trkpt lat="43.70533" lon="4.01031">
        <ele>48</ele>
        <time>2020-11-04T20:14:30Z</time>
      </trkpt>
      <trkpt lat="43.70549" lon="4.01033">
        <ele>48</ele>
        <time>2020-11-04T20:14:27Z</time>
      </trkpt>
      <trkpt lat="43.70553" lon="4.01037">
        <ele>48</ele>
        <time>2020-11-04T20:14:26Z</time>
      </trkpt>
      <trkpt lat="43.70557" lon="4.01043">
        <ele>48</ele>
        <time>2020-11-04T20:14:25Z</time>
      </trkpt>
      <trkpt lat="43.7056" lon="4.01049">
        <ele>48</ele>
        <time>2020-11-04T20:14:24Z</time>
      </trkpt>
      <trkpt lat="43.70567" lon="4.0106">
        <ele>47</ele>
        <time>2020-11-04T20:14:22Z</time>
      </trkpt>
      <trkpt lat="43.70578" lon="4.01065">
        <ele>47</ele>
        <time>2020-11-04T20:14:20Z</time>
      </trkpt>
      <trkpt lat="43.70584" lon="4.01068">
        <ele>47</ele>
        <time>2020-11-04T20:14:19Z</time>
      </trkpt>
      <trkpt lat="43.70589" lon="4.0107">
        <ele>47</ele>
        <time>2020-11-04T20:14:18Z</time>
      </trkpt>
      <trkpt lat="43.70602" lon="4.01085">
        <ele>47</ele>
        <time>2020-11-04T20:14:15Z</time>
      </trkpt>
      <trkpt lat="43.70606" lon="4.01091">
        <ele>47</ele>
        <time>2020-11-04T20:14:14Z</time>
      </trkpt>
      <trkpt lat="43.70617" lon="4.01109">
        <ele>47</ele>
        <time>2020-11-04T20:14:11Z</time>
      </trkpt>
      <trkpt lat="43.7062" lon="4.01116">
        <ele>47</ele>
        <time>2020-11-04T20:14:10Z</time>
      </trkpt>
      <trkpt lat="43.70621" lon="4.01124">
        <ele>47</ele>
        <time>2020-11-04T20:14:09Z</time>
      </trkpt>
      <trkpt lat="43.70622" lon="4.01132">
        <ele>47</ele>
        <time>2020-11-04T20:14:08Z</time>
      </trkpt>
      <trkpt lat="43.70623" lon="4.01139">
        <ele>47</ele>
        <time>2020-11-04T20:14:07Z</time>
      </trkpt>
      <trkpt lat="43.70623" lon="4.0116">
        <ele>46</ele>
        <time>2020-11-04T20:14:04Z</time>
      </trkpt>
      <trkpt lat="43.70622" lon="4.01167">
        <ele>46</ele>
        <time>2020-11-04T20:14:03Z</time>
      </trkpt>
      <trkpt lat="43.70621" lon="4.01173">
        <ele>46</ele>
        <time>2020-11-04T20:14:02Z</time>
      </trkpt>
      <trkpt lat="43.70623" lon="4.01196">
        <ele>45</ele>
        <time>2020-11-04T20:13:58Z</time>
      </trkpt>
      <trkpt lat="43.70625" lon="4.01202">
        <ele>45</ele>
        <time>2020-11-04T20:13:57Z</time>
      </trkpt>
      <trkpt lat="43.70626" lon="4.01208">
        <ele>45</ele>
        <time>2020-11-04T20:13:56Z</time>
      </trkpt>
      <trkpt lat="43.70628" lon="4.01213">
        <ele>45</ele>
        <time>2020-11-04T20:13:55Z</time>
      </trkpt>
      <trkpt lat="43.70634" lon="4.01225">
        <ele>45</ele>
        <time>2020-11-04T20:13:52Z</time>
      </trkpt>
      <trkpt lat="43.70636" lon="4.01228">
        <ele>44</ele>
        <time>2020-11-04T20:13:51Z</time>
      </trkpt>
      <trkpt lat="43.70637" lon="4.01231">
        <ele>44</ele>
        <time>2020-11-04T20:13:50Z</time>
      </trkpt>
      <trkpt lat="43.7064" lon="4.01235">
        <ele>44</ele>
        <time>2020-11-04T20:13:49Z</time>
      </trkpt>
      <trkpt lat="43.70642" lon="4.0124">
        <ele>44</ele>
        <time>2020-11-04T20:13:48Z</time>
      </trkpt>
      <trkpt lat="43.70645" lon="4.01245">
        <ele>44</ele>
        <time>2020-11-04T20:13:47Z</time>
      </trkpt>
      <trkpt lat="43.70653" lon="4.01255">
        <ele>44</ele>
        <time>2020-11-04T20:13:45Z</time>
      </trkpt>
      <trkpt lat="43.70657" lon="4.01259">
        <ele>44</ele>
        <time>2020-11-04T20:13:44Z</time>
      </trkpt>
      <trkpt lat="43.70662" lon="4.01262">
        <ele>43</ele>
        <time>2020-11-04T20:13:43Z</time>
      </trkpt>
      <trkpt lat="43.7068" lon="4.01275">
        <ele>43</ele>
        <time>2020-11-04T20:13:39Z</time>
      </trkpt>
      <trkpt lat="43.70684" lon="4.01279">
        <ele>43</ele>
        <time>2020-11-04T20:13:38Z</time>
      </trkpt>
      <trkpt lat="43.70691" lon="4.01284">
        <ele>43</ele>
        <time>2020-11-04T20:13:36Z</time>
      </trkpt>
      <trkpt lat="43.70694" lon="4.01286">
        <ele>43</ele>
        <time>2020-11-04T20:13:35Z</time>
      </trkpt>
      <trkpt lat="43.70698" lon="4.01287">
        <ele>43</ele>
        <time>2020-11-04T20:13:34Z</time>
      </trkpt>
      <trkpt lat="43.70702" lon="4.01288">
        <ele>43</ele>
        <time>2020-11-04T20:13:33Z</time>
      </trkpt>
      <trkpt lat="43.70705" lon="4.01289">
        <ele>43</ele>
        <time>2020-11-04T20:13:32Z</time>
      </trkpt>
      <trkpt lat="43.70714" lon="4.01288">
        <ele>43</ele>
        <time>2020-11-04T20:13:29Z</time>
      </trkpt>
      <trkpt lat="43.70717" lon="4.01287">
        <ele>43</ele>
        <time>2020-11-04T20:13:28Z</time>
      </trkpt>
      <trkpt lat="43.7072" lon="4.01286">
        <ele>43</ele>
        <time>2020-11-04T20:13:27Z</time>
      </trkpt>
      <trkpt lat="43.70723" lon="4.01288">
        <ele>43</ele>
        <time>2020-11-04T20:13:26Z</time>
      </trkpt>
      <trkpt lat="43.70724" lon="4.01291">
        <ele>43</ele>
        <time>2020-11-04T20:13:25Z</time>
      </trkpt>
      <trkpt lat="43.70726" lon="4.01294">
        <ele>43</ele>
        <time>2020-11-04T20:13:24Z</time>
      </trkpt>
      <trkpt lat="43.70727" lon="4.01304">
        <ele>43</ele>
        <time>2020-11-04T20:13:22Z</time>
      </trkpt>
      <trkpt lat="43.70727" lon="4.01315">
        <ele>43</ele>
        <time>2020-11-04T20:13:20Z</time>
      </trkpt>
      <trkpt lat="43.70727" lon="4.0132">
        <ele>43</ele>
        <time>2020-11-04T20:13:19Z</time>
      </trkpt>
      <trkpt lat="43.70727" lon="4.01325">
        <ele>43</ele>
        <time>2020-11-04T20:13:18Z</time>
      </trkpt>
      <trkpt lat="43.70727" lon="4.01329">
        <ele>43</ele>
        <time>2020-11-04T20:13:17Z</time>
      </trkpt>
      <trkpt lat="43.70727" lon="4.01338">
        <ele>43</ele>
        <time>2020-11-04T20:13:14Z</time>
      </trkpt>
      <trkpt lat="43.70726" lon="4.01341">
        <ele>43</ele>
        <time>2020-11-04T20:13:13Z</time>
      </trkpt>
      <trkpt lat="43.70727" lon="4.01343">
        <ele>43</ele>
        <time>2020-11-04T20:13:12Z</time>
      </trkpt>
      <trkpt lat="43.70726" lon="4.01346">
        <ele>43</ele>
        <time>2020-11-04T20:13:11Z</time>
      </trkpt>
      <trkpt lat="43.70726" lon="4.01349">
        <ele>43</ele>
        <time>2020-11-04T20:13:10Z</time>
      </trkpt>
      <trkpt lat="43.70725" lon="4.01356">
        <ele>43</ele>
        <time>2020-11-04T20:13:08Z</time>
      </trkpt>
      <trkpt lat="43.70725" lon="4.0136">
        <ele>43</ele>
        <time>2020-11-04T20:13:07Z</time>
      </trkpt>
      <trkpt lat="43.70725" lon="4.01363">
        <ele>43</ele>
        <time>2020-11-04T20:13:06Z</time>
      </trkpt>
      <trkpt lat="43.70724" lon="4.01365">
        <ele>43</ele>
        <time>2020-11-04T20:13:05Z</time>
      </trkpt>
      <trkpt lat="43.70724" lon="4.01369">
        <ele>43</ele>
        <time>2020-11-04T20:13:04Z</time>
      </trkpt>
      <trkpt lat="43.70723" lon="4.01373">
        <ele>43</ele>
        <time>2020-11-04T20:13:03Z</time>
      </trkpt>
      <trkpt lat="43.70721" lon="4.01378">
        <ele>44</ele>
        <time>2020-11-04T20:13:02Z</time>
      </trkpt>
      <trkpt lat="43.70719" lon="4.01382">
        <ele>44</ele>
        <time>2020-11-04T20:13:01Z</time>
      </trkpt>
      <trkpt lat="43.70718" lon="4.01387">
        <ele>44</ele>
        <time>2020-11-04T20:13:00Z</time>
      </trkpt>
      <trkpt lat="43.70716" lon="4.01395">
        <ele>44</ele>
        <time>2020-11-04T20:12:58Z</time>
      </trkpt>
      <trkpt lat="43.7071" lon="4.014">
        <ele>44</ele>
        <time>2020-11-04T20:12:56Z</time>
      </trkpt>
      <trkpt lat="43.70706" lon="4.01401">
        <ele>44</ele>
        <time>2020-11-04T20:12:55Z</time>
      </trkpt>
      <trkpt lat="43.70699" lon="4.014">
        <ele>44</ele>
        <time>2020-11-04T20:12:53Z</time>
      </trkpt>
      <trkpt lat="43.70696" lon="4.014">
        <ele>44</ele>
        <time>2020-11-04T20:12:52Z</time>
      </trkpt>
      <trkpt lat="43.70693" lon="4.01401">
        <ele>45</ele>
        <time>2020-11-04T20:12:51Z</time>
      </trkpt>
      <trkpt lat="43.70689" lon="4.01402">
        <ele>45</ele>
        <time>2020-11-04T20:12:50Z</time>
      </trkpt>
      <trkpt lat="43.70687" lon="4.01402">
        <ele>45</ele>
        <time>2020-11-04T20:12:49Z</time>
      </trkpt>
      <trkpt lat="43.70685" lon="4.01403">
        <ele>45</ele>
        <time>2020-11-04T20:12:48Z</time>
      </trkpt>
      <trkpt lat="43.70683" lon="4.01407">
        <ele>45</ele>
        <time>2020-11-04T20:12:46Z</time>
      </trkpt>
      <trkpt lat="43.70684" lon="4.01409">
        <ele>45</ele>
        <time>2020-11-04T20:12:45Z</time>
      </trkpt>
      <trkpt lat="43.70686" lon="4.0141">
        <ele>46</ele>
        <time>2020-11-04T20:12:44Z</time>
      </trkpt>
      <trkpt lat="43.70689" lon="4.01411">
        <ele>46</ele>
        <time>2020-11-04T20:12:43Z</time>
      </trkpt>
      <trkpt lat="43.70693" lon="4.01411">
        <ele>46</ele>
        <time>2020-11-04T20:12:42Z</time>
      </trkpt>
      <trkpt lat="43.70699" lon="4.01411">
        <ele>46</ele>
        <time>2020-11-04T20:12:41Z</time>
      </trkpt>
      <trkpt lat="43.70778" lon="4.01413">
        <ele>47</ele>
        <time>2020-11-04T20:12:29Z</time>
      </trkpt>
      <trkpt lat="43.70785" lon="4.01414">
        <ele>47</ele>
        <time>2020-11-04T20:12:28Z</time>
      </trkpt>
      <trkpt lat="43.70791" lon="4.01414">
        <ele>47</ele>
        <time>2020-11-04T20:12:27Z</time>
      </trkpt>
      <trkpt lat="43.70798" lon="4.01414">
        <ele>46</ele>
        <time>2020-11-04T20:12:26Z</time>
      </trkpt>
      <trkpt lat="43.70812" lon="4.01412">
        <ele>46</ele>
        <time>2020-11-04T20:12:24Z</time>
      </trkpt>
      <trkpt lat="43.70819" lon="4.01411">
        <ele>46</ele>
        <time>2020-11-04T20:12:23Z</time>
      </trkpt>
      <trkpt lat="43.70826" lon="4.0141">
        <ele>46</ele>
        <time>2020-11-04T20:12:22Z</time>
      </trkpt>
      <trkpt lat="43.70895" lon="4.01393">
        <ele>47</ele>
        <time>2020-11-04T20:12:12Z</time>
      </trkpt>
      <trkpt lat="43.70903" lon="4.0139">
        <ele>47</ele>
        <time>2020-11-04T20:12:11Z</time>
      </trkpt>
      <trkpt lat="43.7091" lon="4.0139">
        <ele>47</ele>
        <time>2020-11-04T20:12:10Z</time>
      </trkpt>
      <trkpt lat="43.70917" lon="4.0139">
        <ele>47</ele>
        <time>2020-11-04T20:12:09Z</time>
      </trkpt>
      <trkpt lat="43.70953" lon="4.01382">
        <ele>48</ele>
        <time>2020-11-04T20:12:03Z</time>
      </trkpt>
      <trkpt lat="43.70985" lon="4.01374">
        <ele>48</ele>
        <time>2020-11-04T20:11:58Z</time>
      </trkpt>
      <trkpt lat="43.70991" lon="4.01373">
        <ele>48</ele>
        <time>2020-11-04T20:11:57Z</time>
      </trkpt>
      <trkpt lat="43.71019" lon="4.0137">
        <ele>49</ele>
        <time>2020-11-04T20:11:52Z</time>
      </trkpt>
      <trkpt lat="43.71025" lon="4.01371">
        <ele>49</ele>
        <time>2020-11-04T20:11:51Z</time>
      </trkpt>
      <trkpt lat="43.71044" lon="4.01373">
        <ele>49</ele>
        <time>2020-11-04T20:11:48Z</time>
      </trkpt>
      <trkpt lat="43.7105" lon="4.01374">
        <ele>49</ele>
        <time>2020-11-04T20:11:47Z</time>
      </trkpt>
      <trkpt lat="43.71057" lon="4.01375">
        <ele>49</ele>
        <time>2020-11-04T20:11:46Z</time>
      </trkpt>
      <trkpt lat="43.71071" lon="4.01374">
        <ele>50</ele>
        <time>2020-11-04T20:11:44Z</time>
      </trkpt>
      <trkpt lat="43.71085" lon="4.01373">
        <ele>50</ele>
        <time>2020-11-04T20:11:42Z</time>
      </trkpt>
      <trkpt lat="43.71125" lon="4.01358">
        <ele>50</ele>
        <time>2020-11-04T20:11:36Z</time>
      </trkpt>
      <trkpt lat="43.71211" lon="4.01308">
        <ele>52</ele>
        <time>2020-11-04T20:11:22Z</time>
      </trkpt>
      <trkpt lat="43.71231" lon="4.013">
        <ele>52</ele>
        <time>2020-11-04T20:11:19Z</time>
      </trkpt>
      <trkpt lat="43.71244" lon="4.01299">
        <ele>53</ele>
        <time>2020-11-04T20:11:17Z</time>
      </trkpt>
      <trkpt lat="43.71269" lon="4.01306">
        <ele>53</ele>
        <time>2020-11-04T20:11:13Z</time>
      </trkpt>
      <trkpt lat="43.71275" lon="4.01308">
        <ele>53</ele>
        <time>2020-11-04T20:11:12Z</time>
      </trkpt>
      <trkpt lat="43.71312" lon="4.01324">
        <ele>54</ele>
        <time>2020-11-04T20:11:06Z</time>
      </trkpt>
      <trkpt lat="43.71318" lon="4.01327">
        <ele>54</ele>
        <time>2020-11-04T20:11:05Z</time>
      </trkpt>
      <trkpt lat="43.71323" lon="4.01329">
        <ele>54</ele>
        <time>2020-11-04T20:11:04Z</time>
      </trkpt>
      <trkpt lat="43.71334" lon="4.01334">
        <ele>54</ele>
        <time>2020-11-04T20:11:02Z</time>
      </trkpt>
      <trkpt lat="43.71349" lon="4.01341">
        <ele>54</ele>
        <time>2020-11-04T20:10:59Z</time>
      </trkpt>
      <trkpt lat="43.71364" lon="4.01351">
        <ele>55</ele>
        <time>2020-11-04T20:10:56Z</time>
      </trkpt>
      <trkpt lat="43.71378" lon="4.01362">
        <ele>55</ele>
        <time>2020-11-04T20:10:53Z</time>
      </trkpt>
      <trkpt lat="43.71394" lon="4.01384">
        <ele>56</ele>
        <time>2020-11-04T20:10:49Z</time>
      </trkpt>
      <trkpt lat="43.71398" lon="4.01389">
        <ele>56</ele>
        <time>2020-11-04T20:10:48Z</time>
      </trkpt>
      <trkpt lat="43.71413" lon="4.01401">
        <ele>57</ele>
        <time>2020-11-04T20:10:45Z</time>
      </trkpt>
      <trkpt lat="43.71469" lon="4.01414">
        <ele>60</ele>
        <time>2020-11-04T20:10:36Z</time>
      </trkpt>
      <trkpt lat="43.71486" lon="4.01425">
        <ele>61</ele>
        <time>2020-11-04T20:10:33Z</time>
      </trkpt>
      <trkpt lat="43.71491" lon="4.01428">
        <ele>61</ele>
        <time>2020-11-04T20:10:32Z</time>
      </trkpt>
      <trkpt lat="43.71502" lon="4.01436">
        <ele>62</ele>
        <time>2020-11-04T20:10:30Z</time>
      </trkpt>
      <trkpt lat="43.71508" lon="4.01439">
        <ele>62</ele>
        <time>2020-11-04T20:10:29Z</time>
      </trkpt>
      <trkpt lat="43.71543" lon="4.01461">
        <ele>63</ele>
        <time>2020-11-04T20:10:23Z</time>
      </trkpt>
      <trkpt lat="43.71554" lon="4.01469">
        <ele>64</ele>
        <time>2020-11-04T20:10:21Z</time>
      </trkpt>
      <trkpt lat="43.7156" lon="4.01472">
        <ele>64</ele>
        <time>2020-11-04T20:10:20Z</time>
      </trkpt>
      <trkpt lat="43.71565" lon="4.01476">
        <ele>64</ele>
        <time>2020-11-04T20:10:19Z</time>
      </trkpt>
      <trkpt lat="43.7157" lon="4.01479">
        <ele>64</ele>
        <time>2020-11-04T20:10:18Z</time>
      </trkpt>
      <trkpt lat="43.71586" lon="4.01487">
        <ele>65</ele>
        <time>2020-11-04T20:10:15Z</time>
      </trkpt>
      <trkpt lat="43.71603" lon="4.01496">
        <ele>65</ele>
        <time>2020-11-04T20:10:12Z</time>
      </trkpt>
      <trkpt lat="43.71619" lon="4.01506">
        <ele>66</ele>
        <time>2020-11-04T20:10:09Z</time>
      </trkpt>
      <trkpt lat="43.71624" lon="4.01508">
        <ele>66</ele>
        <time>2020-11-04T20:10:08Z</time>
      </trkpt>
      <trkpt lat="43.71657" lon="4.01518">
        <ele>66</ele>
        <time>2020-11-04T20:10:01Z</time>
      </trkpt>
      <trkpt lat="43.71661" lon="4.01518">
        <ele>66</ele>
        <time>2020-11-04T20:10:00Z</time>
      </trkpt>
      <trkpt lat="43.71664" lon="4.01518">
        <ele>66</ele>
        <time>2020-11-04T20:09:59Z</time>
      </trkpt>
      <trkpt lat="43.71667" lon="4.01518">
        <ele>66</ele>
        <time>2020-11-04T20:09:58Z</time>
      </trkpt>
      <trkpt lat="43.7167" lon="4.01518">
        <ele>69</ele>
        <time>2020-11-04T20:09:05Z</time>
      </trkpt>
      <trkpt lat="43.71673" lon="4.01518">
        <ele>69</ele>
        <time>2020-11-04T20:09:04Z</time>
      </trkpt>
      <trkpt lat="43.71675" lon="4.01519">
        <ele>70</ele>
        <time>2020-11-04T20:09:03Z</time>
      </trkpt>
      <trkpt lat="43.71678" lon="4.01519">
        <ele>70</ele>
        <time>2020-11-04T20:09:02Z</time>
      </trkpt>
      <trkpt lat="43.71688" lon="4.01519">
        <ele>71</ele>
        <time>2020-11-04T20:09:00Z</time>
      </trkpt>
      <trkpt lat="43.71706" lon="4.01521">
        <ele>72</ele>
        <time>2020-11-04T20:08:57Z</time>
      </trkpt>
      <trkpt lat="43.71719" lon="4.01523">
        <ele>72</ele>
        <time>2020-11-04T20:08:55Z</time>
      </trkpt>
      <trkpt lat="43.71726" lon="4.01525">
        <ele>72</ele>
        <time>2020-11-04T20:08:54Z</time>
      </trkpt>
      <trkpt lat="43.71739" lon="4.01533">
        <ele>73</ele>
        <time>2020-11-04T20:08:52Z</time>
      </trkpt>
      <trkpt lat="43.71745" lon="4.01537">
        <ele>73</ele>
        <time>2020-11-04T20:08:51Z</time>
      </trkpt>
      <trkpt lat="43.71763" lon="4.0155">
        <ele>74</ele>
        <time>2020-11-04T20:08:48Z</time>
      </trkpt>
      <trkpt lat="43.718" lon="4.01577">
        <ele>76</ele>
        <time>2020-11-04T20:08:42Z</time>
      </trkpt>
      <trkpt lat="43.71806" lon="4.01582">
        <ele>76</ele>
        <time>2020-11-04T20:08:41Z</time>
      </trkpt>
      <trkpt lat="43.71818" lon="4.0159">
        <ele>77</ele>
        <time>2020-11-04T20:08:39Z</time>
      </trkpt>
      <trkpt lat="43.71823" lon="4.01595">
        <ele>77</ele>
        <time>2020-11-04T20:08:38Z</time>
      </trkpt>
      <trkpt lat="43.71829" lon="4.01599">
        <ele>77</ele>
        <time>2020-11-04T20:08:37Z</time>
      </trkpt>
      <trkpt lat="43.7184" lon="4.01608">
        <ele>78</ele>
        <time>2020-11-04T20:08:35Z</time>
      </trkpt>
      <trkpt lat="43.71868" lon="4.01634">
        <ele>80</ele>
        <time>2020-11-04T20:08:30Z</time>
      </trkpt>
      <trkpt lat="43.71886" lon="4.01651">
        <ele>81</ele>
        <time>2020-11-04T20:08:27Z</time>
      </trkpt>
      <trkpt lat="43.71891" lon="4.01656">
        <ele>81</ele>
        <time>2020-11-04T20:08:26Z</time>
      </trkpt>
      <trkpt lat="43.71909" lon="4.01669">
        <ele>82</ele>
        <time>2020-11-04T20:08:23Z</time>
      </trkpt>
      <trkpt lat="43.71927" lon="4.0168">
        <ele>83</ele>
        <time>2020-11-04T20:08:20Z</time>
      </trkpt>
      <trkpt lat="43.71951" lon="4.0169">
        <ele>84</ele>
        <time>2020-11-04T20:08:16Z</time>
      </trkpt>
      <trkpt lat="43.71957" lon="4.01692">
        <ele>84</ele>
        <time>2020-11-04T20:08:15Z</time>
      </trkpt>
      <trkpt lat="43.71963" lon="4.01694">
        <ele>85</ele>
        <time>2020-11-04T20:08:14Z</time>
      </trkpt>
      <trkpt lat="43.71968" lon="4.01695">
        <ele>85</ele>
        <time>2020-11-04T20:08:13Z</time>
      </trkpt>
      <trkpt lat="43.71974" lon="4.01695">
        <ele>85</ele>
        <time>2020-11-04T20:08:12Z</time>
      </trkpt>
      <trkpt lat="43.71979" lon="4.01696">
        <ele>85</ele>
        <time>2020-11-04T20:08:11Z</time>
      </trkpt>
      <trkpt lat="43.71983" lon="4.01697">
        <ele>85</ele>
        <time>2020-11-04T20:08:10Z</time>
      </trkpt>
      <trkpt lat="43.71988" lon="4.01698">
        <ele>86</ele>
        <time>2020-11-04T20:08:09Z</time>
      </trkpt>
      <trkpt lat="43.71993" lon="4.01701">
        <ele>86</ele>
        <time>2020-11-04T20:08:08Z</time>
      </trkpt>
      <trkpt lat="43.71997" lon="4.01705">
        <ele>86</ele>
        <time>2020-11-04T20:08:07Z</time>
      </trkpt>
      <trkpt lat="43.72001" lon="4.01709">
        <ele>86</ele>
        <time>2020-11-04T20:08:06Z</time>
      </trkpt>
      <trkpt lat="43.72008" lon="4.01715">
        <ele>87</ele>
        <time>2020-11-04T20:08:04Z</time>
      </trkpt>
      <trkpt lat="43.72011" lon="4.0172">
        <ele>87</ele>
        <time>2020-11-04T20:08:03Z</time>
      </trkpt>
      <trkpt lat="43.72014" lon="4.01725">
        <ele>87</ele>
        <time>2020-11-04T20:08:02Z</time>
      </trkpt>
      <trkpt lat="43.72022" lon="4.01763">
        <ele>87</ele>
        <time>2020-11-04T20:07:57Z</time>
      </trkpt>
      <trkpt lat="43.72023" lon="4.01771">
        <ele>87</ele>
        <time>2020-11-04T20:07:56Z</time>
      </trkpt>
      <trkpt lat="43.72025" lon="4.01778">
        <ele>87</ele>
        <time>2020-11-04T20:07:55Z</time>
      </trkpt>
      <trkpt lat="43.72027" lon="4.01785">
        <ele>87</ele>
        <time>2020-11-04T20:07:54Z</time>
      </trkpt>
      <trkpt lat="43.72029" lon="4.01791">
        <ele>87</ele>
        <time>2020-11-04T20:07:53Z</time>
      </trkpt>
      <trkpt lat="43.72031" lon="4.01802">
        <ele>87</ele>
        <time>2020-11-04T20:07:51Z</time>
      </trkpt>
      <trkpt lat="43.72034" lon="4.01813">
        <ele>87</ele>
        <time>2020-11-04T20:07:49Z</time>
      </trkpt>
      <trkpt lat="43.72041" lon="4.01833">
        <ele>87</ele>
        <time>2020-11-04T20:07:45Z</time>
      </trkpt>
      <trkpt lat="43.72056" lon="4.0185">
        <ele>87</ele>
        <time>2020-11-04T20:07:41Z</time>
      </trkpt>
      <trkpt lat="43.72067" lon="4.0186">
        <ele>87</ele>
        <time>2020-11-04T20:07:38Z</time>
      </trkpt>
      <trkpt lat="43.72094" lon="4.01885">
        <ele>86</ele>
        <time>2020-11-04T20:07:31Z</time>
      </trkpt>
      <trkpt lat="43.72098" lon="4.01888">
        <ele>86</ele>
        <time>2020-11-04T20:07:30Z</time>
      </trkpt>
      <trkpt lat="43.72105" lon="4.01896">
        <ele>85</ele>
        <time>2020-11-04T20:07:28Z</time>
      </trkpt>
      <trkpt lat="43.72108" lon="4.01899">
        <ele>85</ele>
        <time>2020-11-04T20:07:27Z</time>
      </trkpt>
      <trkpt lat="43.72111" lon="4.01903">
        <ele>85</ele>
        <time>2020-11-04T20:07:26Z</time>
      </trkpt>
      <trkpt lat="43.72114" lon="4.01906">
        <ele>85</ele>
        <time>2020-11-04T20:07:25Z</time>
      </trkpt>
      <trkpt lat="43.72121" lon="4.01912">
        <ele>84</ele>
        <time>2020-11-04T20:07:23Z</time>
      </trkpt>
      <trkpt lat="43.72132" lon="4.01925">
        <ele>84</ele>
        <time>2020-11-04T20:07:19Z</time>
      </trkpt>
      <trkpt lat="43.72135" lon="4.01928">
        <ele>83</ele>
        <time>2020-11-04T20:07:18Z</time>
      </trkpt>
      <trkpt lat="43.72161" lon="4.01953">
        <ele>82</ele>
        <time>2020-11-04T20:07:10Z</time>
      </trkpt>
      <trkpt lat="43.72172" lon="4.01962">
        <ele>81</ele>
        <time>2020-11-04T20:07:07Z</time>
      </trkpt>
      <trkpt lat="43.72186" lon="4.01973">
        <ele>81</ele>
        <time>2020-11-04T20:07:03Z</time>
      </trkpt>
      <trkpt lat="43.72189" lon="4.01977">
        <ele>81</ele>
        <time>2020-11-04T20:07:02Z</time>
      </trkpt>
      <trkpt lat="43.72212" lon="4.02022">
        <ele>79</ele>
        <time>2020-11-04T20:06:51Z</time>
      </trkpt>
      <trkpt lat="43.72243" lon="4.0209">
        <ele>78</ele>
        <time>2020-11-04T20:06:37Z</time>
      </trkpt>
      <trkpt lat="43.72252" lon="4.02109">
        <ele>78</ele>
        <time>2020-11-04T20:06:33Z</time>
      </trkpt>
      <trkpt lat="43.72255" lon="4.02119">
        <ele>78</ele>
        <time>2020-11-04T20:06:31Z</time>
      </trkpt>
      <trkpt lat="43.72257" lon="4.02123">
        <ele>78</ele>
        <time>2020-11-04T20:06:30Z</time>
      </trkpt>
      <trkpt lat="43.72266" lon="4.0214">
        <ele>78</ele>
        <time>2020-11-04T20:06:26Z</time>
      </trkpt>
      <trkpt lat="43.72269" lon="4.02146">
        <ele>78</ele>
        <time>2020-11-04T20:06:25Z</time>
      </trkpt>
      <trkpt lat="43.72271" lon="4.0215">
        <ele>78</ele>
        <time>2020-11-04T20:06:24Z</time>
      </trkpt>
      <trkpt lat="43.72273" lon="4.02154">
        <ele>78</ele>
        <time>2020-11-04T20:06:23Z</time>
      </trkpt>
      <trkpt lat="43.72276" lon="4.02159">
        <ele>78</ele>
        <time>2020-11-04T20:06:22Z</time>
      </trkpt>
      <trkpt lat="43.72277" lon="4.02163">
        <ele>77</ele>
        <time>2020-11-04T20:06:21Z</time>
      </trkpt>
      <trkpt lat="43.72279" lon="4.02167">
        <ele>77</ele>
        <time>2020-11-04T20:06:20Z</time>
      </trkpt>
      <trkpt lat="43.72282" lon="4.02175">
        <ele>77</ele>
        <time>2020-11-04T20:06:18Z</time>
      </trkpt>
      <trkpt lat="43.72284" lon="4.0218">
        <ele>77</ele>
        <time>2020-11-04T20:06:17Z</time>
      </trkpt>
      <trkpt lat="43.72286" lon="4.02184">
        <ele>77</ele>
        <time>2020-11-04T20:06:16Z</time>
      </trkpt>
      <trkpt lat="43.72288" lon="4.02187">
        <ele>77</ele>
        <time>2020-11-04T20:06:15Z</time>
      </trkpt>
      <trkpt lat="43.72289" lon="4.02191">
        <ele>77</ele>
        <time>2020-11-04T20:06:14Z</time>
      </trkpt>
      <trkpt lat="43.7229" lon="4.02194">
        <ele>77</ele>
        <time>2020-11-04T20:06:13Z</time>
      </trkpt>
      <trkpt lat="43.7229" lon="4.02194">
        <ele>77</ele>
        <time>2020-11-04T20:06:12Z</time>
      </trkpt>
      <trkpt lat="43.72295" lon="4.02206">
        <ele>77</ele>
        <time>2020-11-04T20:05:58Z</time>
      </trkpt>
      <trkpt lat="43.72296" lon="4.02207">
        <ele>77</ele>
        <time>2020-11-04T20:05:56Z</time>
      </trkpt>
      <trkpt lat="43.72296" lon="4.02207">
        <ele>77</ele>
        <time>2020-11-04T20:05:55Z</time>
      </trkpt>
      <trkpt lat="43.72302" lon="4.02207">
        <ele>77</ele>
        <time>2020-11-04T20:03:11Z</time>
      </trkpt>
      <trkpt lat="43.72303" lon="4.02207">
        <ele>77</ele>
        <time>2020-11-04T20:03:10Z</time>
      </trkpt>
      <trkpt lat="43.72305" lon="4.02204">
        <ele>77</ele>
        <time>2020-11-04T20:03:08Z</time>
      </trkpt>
      <trkpt lat="43.72307" lon="4.02202">
        <ele>77</ele>
        <time>2020-11-04T20:03:07Z</time>
      </trkpt>
      <trkpt lat="43.72309" lon="4.02196">
        <ele>77</ele>
        <time>2020-11-04T20:03:05Z</time>
      </trkpt>
      <trkpt lat="43.72318" lon="4.02182">
        <ele>78</ele>
        <time>2020-11-04T20:03:01Z</time>
      </trkpt>
      <trkpt lat="43.72328" lon="4.02167">
        <ele>78</ele>
        <time>2020-11-04T20:02:57Z</time>
      </trkpt>
      <trkpt lat="43.7233" lon="4.02162">
        <ele>78</ele>
        <time>2020-11-04T20:02:56Z</time>
      </trkpt>
      <trkpt lat="43.72344" lon="4.02137">
        <ele>78</ele>
        <time>2020-11-04T20:02:51Z</time>
      </trkpt>
      <trkpt lat="43.72364" lon="4.02105">
        <ele>78</ele>
        <time>2020-11-04T20:02:44Z</time>
      </trkpt>
      <trkpt lat="43.72369" lon="4.02095">
        <ele>78</ele>
        <time>2020-11-04T20:02:42Z</time>
      </trkpt>
      <trkpt lat="43.72375" lon="4.02086">
        <ele>78</ele>
        <time>2020-11-04T20:02:40Z</time>
      </trkpt>
      <trkpt lat="43.72388" lon="4.02068">
        <ele>78</ele>
        <time>2020-11-04T20:02:36Z</time>
      </trkpt>
      <trkpt lat="43.72394" lon="4.02058">
        <ele>78</ele>
        <time>2020-11-04T20:02:34Z</time>
      </trkpt>
      <trkpt lat="43.72397" lon="4.02053">
        <ele>78</ele>
        <time>2020-11-04T20:02:33Z</time>
      </trkpt>
      <trkpt lat="43.724" lon="4.02048">
        <ele>79</ele>
        <time>2020-11-04T20:02:32Z</time>
      </trkpt>
      <trkpt lat="43.72404" lon="4.02042">
        <ele>79</ele>
        <time>2020-11-04T20:02:31Z</time>
      </trkpt>
      <trkpt lat="43.72408" lon="4.02036">
        <ele>79</ele>
        <time>2020-11-04T20:02:30Z</time>
      </trkpt>
      <trkpt lat="43.72411" lon="4.0203">
        <ele>79</ele>
        <time>2020-11-04T20:02:24Z</time>
      </trkpt>
      <trkpt lat="43.72415" lon="4.02023">
        <ele>79</ele>
        <time>2020-11-04T20:02:23Z</time>
      </trkpt>
      <trkpt lat="43.72414" lon="4.02018">
        <ele>79</ele>
        <time>2020-11-04T20:02:21Z</time>
      </trkpt>
      <trkpt lat="43.72414" lon="4.02015">
        <ele>79</ele>
        <time>2020-11-04T20:02:20Z</time>
      </trkpt>
      <trkpt lat="43.72422" lon="4.02003">
        <ele>79</ele>
        <time>2020-11-04T20:02:16Z</time>
      </trkpt>
      <trkpt lat="43.72427" lon="4.01994">
        <ele>79</ele>
        <time>2020-11-04T20:02:14Z</time>
      </trkpt>
      <trkpt lat="43.72437" lon="4.01977">
        <ele>80</ele>
        <time>2020-11-04T20:02:10Z</time>
      </trkpt>
      <trkpt lat="43.72442" lon="4.01969">
        <ele>80</ele>
        <time>2020-11-04T20:02:08Z</time>
      </trkpt>
      <trkpt lat="43.72455" lon="4.01941">
        <ele>80</ele>
        <time>2020-11-04T20:02:03Z</time>
      </trkpt>
      <trkpt lat="43.72459" lon="4.01935">
        <ele>81</ele>
        <time>2020-11-04T20:02:02Z</time>
      </trkpt>
      <trkpt lat="43.72466" lon="4.01925">
        <ele>81</ele>
        <time>2020-11-04T20:02:00Z</time>
      </trkpt>
      <trkpt lat="43.7247" lon="4.01921">
        <ele>81</ele>
        <time>2020-11-04T20:01:59Z</time>
      </trkpt>
      <trkpt lat="43.72478" lon="4.01917">
        <ele>81</ele>
        <time>2020-11-04T20:01:57Z</time>
      </trkpt>
      <trkpt lat="43.72497" lon="4.01911">
        <ele>81</ele>
        <time>2020-11-04T20:01:52Z</time>
      </trkpt>
      <trkpt lat="43.72501" lon="4.01909">
        <ele>81</ele>
        <time>2020-11-04T20:01:51Z</time>
      </trkpt>
      <trkpt lat="43.72505" lon="4.01908">
        <ele>81</ele>
        <time>2020-11-04T20:01:50Z</time>
      </trkpt>
      <trkpt lat="43.72508" lon="4.01907">
        <ele>81</ele>
        <time>2020-11-04T20:01:49Z</time>
      </trkpt>
      <trkpt lat="43.72511" lon="4.01905">
        <ele>81</ele>
        <time>2020-11-04T20:01:48Z</time>
      </trkpt>
      <trkpt lat="43.72514" lon="4.01904">
        <ele>82</ele>
        <time>2020-11-04T20:01:47Z</time>
      </trkpt>
      <trkpt lat="43.72516" lon="4.01903">
        <ele>82</ele>
        <time>2020-11-04T20:01:46Z</time>
      </trkpt>
      <trkpt lat="43.7252" lon="4.01902">
        <ele>82</ele>
        <time>2020-11-04T20:01:44Z</time>
      </trkpt>
      <trkpt lat="43.72528" lon="4.01896">
        <ele>82</ele>
        <time>2020-11-04T20:01:37Z</time>
      </trkpt>
      <trkpt lat="43.72528" lon="4.01896">
        <ele>82</ele>
        <time>2020-11-04T20:01:36Z</time>
      </trkpt>
      <trkpt lat="43.72535" lon="4.01883">
        <ele>82</ele>
        <time>2020-11-04T20:01:24Z</time>
      </trkpt>
      <trkpt lat="43.72537" lon="4.0188">
        <ele>82</ele>
        <time>2020-11-04T20:01:22Z</time>
      </trkpt>
      <trkpt lat="43.7254" lon="4.01876">
        <ele>82</ele>
        <time>2020-11-04T20:01:20Z</time>
      </trkpt>
      <trkpt lat="43.72542" lon="4.01873">
        <ele>82</ele>
        <time>2020-11-04T20:01:19Z</time>
      </trkpt>
      <trkpt lat="43.72545" lon="4.01869">
        <ele>82</ele>
        <time>2020-11-04T20:01:17Z</time>
      </trkpt>
      <trkpt lat="43.72553" lon="4.0186">
        <ele>82</ele>
        <time>2020-11-04T20:01:13Z</time>
      </trkpt>
      <trkpt lat="43.72564" lon="4.01848">
        <ele>83</ele>
        <time>2020-11-04T20:01:09Z</time>
      </trkpt>
      <trkpt lat="43.72573" lon="4.01838">
        <ele>83</ele>
        <time>2020-11-04T20:01:06Z</time>
      </trkpt>
      <trkpt lat="43.726" lon="4.01805">
        <ele>84</ele>
        <time>2020-11-04T20:00:58Z</time>
      </trkpt>
      <trkpt lat="43.72604" lon="4.018">
        <ele>84</ele>
        <time>2020-11-04T20:00:57Z</time>
      </trkpt>
      <trkpt lat="43.72611" lon="4.01792">
        <ele>84</ele>
        <time>2020-11-04T20:00:55Z</time>
      </trkpt>
      <trkpt lat="43.72614" lon="4.01788">
        <ele>85</ele>
        <time>2020-11-04T20:00:54Z</time>
      </trkpt>
      <trkpt lat="43.72616" lon="4.01783">
        <ele>85</ele>
        <time>2020-11-04T20:00:53Z</time>
      </trkpt>
      <trkpt lat="43.72618" lon="4.01781">
        <ele>85</ele>
        <time>2020-11-04T20:00:52Z</time>
      </trkpt>
      <trkpt lat="43.72619" lon="4.01778">
        <ele>85</ele>
        <time>2020-11-04T20:00:51Z</time>
      </trkpt>
      <trkpt lat="43.72619" lon="4.01777">
        <ele>85</ele>
        <time>2020-11-04T20:00:50Z</time>
      </trkpt>
      <trkpt lat="43.72635" lon="4.01764">
        <ele>85</ele>
        <time>2020-11-04T20:00:44Z</time>
      </trkpt>
      <trkpt lat="43.7266" lon="4.01754">
        <ele>86</ele>
        <time>2020-11-04T20:00:36Z</time>
      </trkpt>
      <trkpt lat="43.72663" lon="4.01753">
        <ele>86</ele>
        <time>2020-11-04T20:00:35Z</time>
      </trkpt>
      <trkpt lat="43.72666" lon="4.01752">
        <ele>86</ele>
        <time>2020-11-04T20:00:34Z</time>
      </trkpt>
      <trkpt lat="43.72677" lon="4.01747">
        <ele>87</ele>
        <time>2020-11-04T20:00:31Z</time>
      </trkpt>
      <trkpt lat="43.7268" lon="4.01743">
        <ele>87</ele>
        <time>2020-11-04T20:00:30Z</time>
      </trkpt>
      <trkpt lat="43.72684" lon="4.01739">
        <ele>87</ele>
        <time>2020-11-04T20:00:29Z</time>
      </trkpt>
      <trkpt lat="43.72688" lon="4.01735">
        <ele>87</ele>
        <time>2020-11-04T20:00:28Z</time>
      </trkpt>
      <trkpt lat="43.72695" lon="4.01728">
        <ele>87</ele>
        <time>2020-11-04T20:00:26Z</time>
      </trkpt>
      <trkpt lat="43.72699" lon="4.01726">
        <ele>87</ele>
        <time>2020-11-04T20:00:25Z</time>
      </trkpt>
      <trkpt lat="43.72703" lon="4.01724">
        <ele>87</ele>
        <time>2020-11-04T20:00:24Z</time>
      </trkpt>
      <trkpt lat="43.72707" lon="4.01722">
        <ele>87</ele>
        <time>2020-11-04T20:00:23Z</time>
      </trkpt>
      <trkpt lat="43.7271" lon="4.01721">
        <ele>87</ele>
        <time>2020-11-04T20:00:22Z</time>
      </trkpt>
      <trkpt lat="43.72715" lon="4.01718">
        <ele>87</ele>
        <time>2020-11-04T20:00:20Z</time>
      </trkpt>
      <trkpt lat="43.72718" lon="4.01717">
        <ele>87</ele>
        <time>2020-11-04T20:00:19Z</time>
      </trkpt>
      <trkpt lat="43.72724" lon="4.01715">
        <ele>87</ele>
        <time>2020-11-04T20:00:17Z</time>
      </trkpt>
      <trkpt lat="43.72731" lon="4.01714">
        <ele>87</ele>
        <time>2020-11-04T20:00:14Z</time>
      </trkpt>
      <trkpt lat="43.72735" lon="4.01712">
        <ele>87</ele>
        <time>2020-11-04T20:00:12Z</time>
      </trkpt>
      <trkpt lat="43.7274" lon="4.0171">
        <ele>87</ele>
        <time>2020-11-04T20:00:09Z</time>
      </trkpt>
      <trkpt lat="43.72741" lon="4.01709">
        <ele>87</ele>
        <time>2020-11-04T20:00:08Z</time>
      </trkpt>
      <trkpt lat="43.72749" lon="4.01703">
        <ele>87</ele>
        <time>2020-11-04T20:00:03Z</time>
      </trkpt>
      <trkpt lat="43.72761" lon="4.01694">
        <ele>86</ele>
        <time>2020-11-04T19:59:52Z</time>
      </trkpt>
      <trkpt lat="43.72762" lon="4.01693">
        <ele>86</ele>
        <time>2020-11-04T19:59:51Z</time>
      </trkpt>
      <trkpt lat="43.72768" lon="4.01691">
        <ele>86</ele>
        <time>2020-11-04T19:59:46Z</time>
      </trkpt>
      <trkpt lat="43.72771" lon="4.01691">
        <ele>86</ele>
        <time>2020-11-04T19:59:43Z</time>
      </trkpt>
      <trkpt lat="43.72772" lon="4.01691">
        <ele>86</ele>
        <time>2020-11-04T19:59:42Z</time>
      </trkpt>
      <trkpt lat="43.72774" lon="4.01689">
        <ele>86</ele>
        <time>2020-11-04T19:59:40Z</time>
      </trkpt>
      <trkpt lat="43.72776" lon="4.01689">
        <ele>86</ele>
        <time>2020-11-04T19:59:39Z</time>
      </trkpt>
      <trkpt lat="43.72778" lon="4.01688">
        <ele>85</ele>
        <time>2020-11-04T19:59:36Z</time>
      </trkpt>
      <trkpt lat="43.72785" lon="4.01686">
        <ele>85</ele>
        <time>2020-11-04T19:59:32Z</time>
      </trkpt>
      <trkpt lat="43.72788" lon="4.01684">
        <ele>85</ele>
        <time>2020-11-04T19:59:30Z</time>
      </trkpt>
      <trkpt lat="43.7279" lon="4.01682">
        <ele>84</ele>
        <time>2020-11-04T19:59:29Z</time>
      </trkpt>
      <trkpt lat="43.72795" lon="4.01677">
        <ele>84</ele>
        <time>2020-11-04T19:59:24Z</time>
      </trkpt>
      <trkpt lat="43.72798" lon="4.01674">
        <ele>84</ele>
        <time>2020-11-04T19:59:22Z</time>
      </trkpt>
      <trkpt lat="43.72806" lon="4.01667">
        <ele>83</ele>
        <time>2020-11-04T19:59:17Z</time>
      </trkpt>
      <trkpt lat="43.72811" lon="4.01662">
        <ele>83</ele>
        <time>2020-11-04T19:59:14Z</time>
      </trkpt>
      <trkpt lat="43.72816" lon="4.01656">
        <ele>82</ele>
        <time>2020-11-04T19:59:11Z</time>
      </trkpt>
      <trkpt lat="43.72818" lon="4.01654">
        <ele>82</ele>
        <time>2020-11-04T19:59:10Z</time>
      </trkpt>
      <trkpt lat="43.72819" lon="4.01652">
        <ele>82</ele>
        <time>2020-11-04T19:59:09Z</time>
      </trkpt>
      <trkpt lat="43.72822" lon="4.01649">
        <ele>82</ele>
        <time>2020-11-04T19:59:07Z</time>
      </trkpt>
      <trkpt lat="43.72824" lon="4.01647">
        <ele>82</ele>
        <time>2020-11-04T19:59:06Z</time>
      </trkpt>
      <trkpt lat="43.72826" lon="4.01646">
        <ele>81</ele>
        <time>2020-11-04T19:59:05Z</time>
      </trkpt>
      <trkpt lat="43.7283" lon="4.01642">
        <ele>81</ele>
        <time>2020-11-04T19:59:03Z</time>
      </trkpt>
      <trkpt lat="43.72835" lon="4.01637">
        <ele>81</ele>
        <time>2020-11-04T19:59:01Z</time>
      </trkpt>
      <trkpt lat="43.72838" lon="4.01633">
        <ele>81</ele>
        <time>2020-11-04T19:59:00Z</time>
      </trkpt>
      <trkpt lat="43.72843" lon="4.01628">
        <ele>81</ele>
        <time>2020-11-04T19:58:57Z</time>
      </trkpt>
      <trkpt lat="43.72851" lon="4.01617">
        <ele>81</ele>
        <time>2020-11-04T19:58:51Z</time>
      </trkpt>
      <trkpt lat="43.72853" lon="4.01613">
        <ele>81</ele>
        <time>2020-11-04T19:58:50Z</time>
      </trkpt>
      <trkpt lat="43.72855" lon="4.01609">
        <ele>81</ele>
        <time>2020-11-04T19:58:49Z</time>
      </trkpt>
      <trkpt lat="43.72857" lon="4.01605">
        <ele>81</ele>
        <time>2020-11-04T19:58:48Z</time>
      </trkpt>
      <trkpt lat="43.72859" lon="4.01601">
        <ele>80</ele>
        <time>2020-11-04T19:58:30Z</time>
      </trkpt>
      <trkpt lat="43.72861" lon="4.01597">
        <ele>80</ele>
        <time>2020-11-04T19:58:29Z</time>
      </trkpt>
      <trkpt lat="43.72863" lon="4.01593">
        <ele>80</ele>
        <time>2020-11-04T19:58:26Z</time>
      </trkpt>
      <trkpt lat="43.72865" lon="4.01588">
        <ele>80</ele>
        <time>2020-11-04T19:58:25Z</time>
      </trkpt>
      <trkpt lat="43.72866" lon="4.01587">
        <ele>80</ele>
        <time>2020-11-04T19:58:24Z</time>
      </trkpt>
      <trkpt lat="43.72866" lon="4.01586">
        <ele>80</ele>
        <time>2020-11-04T19:58:23Z</time>
      </trkpt>
      <trkpt lat="43.72872" lon="4.01581">
        <ele>79</ele>
        <time>2020-11-04T19:58:18Z</time>
      </trkpt>
      <trkpt lat="43.72873" lon="4.01579">
        <ele>79</ele>
        <time>2020-11-04T19:58:17Z</time>
      </trkpt>
      <trkpt lat="43.72874" lon="4.01579">
        <ele>79</ele>
        <time>2020-11-04T19:58:16Z</time>
      </trkpt>
      <trkpt lat="43.72875" lon="4.01577">
        <ele>79</ele>
        <time>2020-11-04T19:58:15Z</time>
      </trkpt>
      <trkpt lat="43.72876" lon="4.01575">
        <ele>79</ele>
        <time>2020-11-04T19:58:14Z</time>
      </trkpt>
      <trkpt lat="43.72877" lon="4.01572">
        <ele>79</ele>
        <time>2020-11-04T19:58:12Z</time>
      </trkpt>
      <trkpt lat="43.7288" lon="4.01569">
        <ele>79</ele>
        <time>2020-11-04T19:58:10Z</time>
      </trkpt>
      <trkpt lat="43.72881" lon="4.01566">
        <ele>79</ele>
        <time>2020-11-04T19:58:09Z</time>
      </trkpt>
      <trkpt lat="43.72902" lon="4.01541">
        <ele>78</ele>
        <time>2020-11-04T19:57:58Z</time>
      </trkpt>
      <trkpt lat="43.72906" lon="4.01533">
        <ele>78</ele>
        <time>2020-11-04T19:57:55Z</time>
      </trkpt>
      <trkpt lat="43.72908" lon="4.01531">
        <ele>78</ele>
        <time>2020-11-04T19:57:54Z</time>
      </trkpt>
      <trkpt lat="43.72912" lon="4.0152">
        <ele>77</ele>
        <time>2020-11-04T19:57:49Z</time>
      </trkpt>
      <trkpt lat="43.72915" lon="4.01513">
        <ele>77</ele>
        <time>2020-11-04T19:57:46Z</time>
      </trkpt>
      <trkpt lat="43.72923" lon="4.01499">
        <ele>77</ele>
        <time>2020-11-04T19:57:41Z</time>
      </trkpt>
      <trkpt lat="43.72925" lon="4.01496">
        <ele>77</ele>
        <time>2020-11-04T19:57:40Z</time>
      </trkpt>
      <trkpt lat="43.72937" lon="4.01473">
        <ele>77</ele>
        <time>2020-11-04T19:57:32Z</time>
      </trkpt>
      <trkpt lat="43.72939" lon="4.0147">
        <ele>77</ele>
        <time>2020-11-04T19:57:31Z</time>
      </trkpt>
      <trkpt lat="43.7294" lon="4.01468">
        <ele>77</ele>
        <time>2020-11-04T19:57:30Z</time>
      </trkpt>
      <trkpt lat="43.72945" lon="4.0146">
        <ele>76</ele>
        <time>2020-11-04T19:57:27Z</time>
      </trkpt>
      <trkpt lat="43.72946" lon="4.01458">
        <ele>76</ele>
        <time>2020-11-04T19:57:26Z</time>
      </trkpt>
      <trkpt lat="43.72949" lon="4.01451">
        <ele>76</ele>
        <time>2020-11-04T19:57:23Z</time>
      </trkpt>
      <trkpt lat="43.7295" lon="4.01449">
        <ele>76</ele>
        <time>2020-11-04T19:57:22Z</time>
      </trkpt>
      <trkpt lat="43.72953" lon="4.01444">
        <ele>76</ele>
        <time>2020-11-04T19:57:19Z</time>
      </trkpt>
      <trkpt lat="43.72957" lon="4.01439">
        <ele>76</ele>
        <time>2020-11-04T19:57:16Z</time>
      </trkpt>
      <trkpt lat="43.72959" lon="4.01434">
        <ele>76</ele>
        <time>2020-11-04T19:57:14Z</time>
      </trkpt>
      <trkpt lat="43.7296" lon="4.01431">
        <ele>76</ele>
        <time>2020-11-04T19:57:13Z</time>
      </trkpt>
      <trkpt lat="43.72962" lon="4.01426">
        <ele>76</ele>
        <time>2020-11-04T19:57:11Z</time>
      </trkpt>
      <trkpt lat="43.72965" lon="4.01421">
        <ele>76</ele>
        <time>2020-11-04T19:57:09Z</time>
      </trkpt>
      <trkpt lat="43.72966" lon="4.01417">
        <ele>76</ele>
        <time>2020-11-04T19:57:08Z</time>
      </trkpt>
      <trkpt lat="43.72968" lon="4.01414">
        <ele>76</ele>
        <time>2020-11-04T19:57:07Z</time>
      </trkpt>
      <trkpt lat="43.72969" lon="4.01411">
        <ele>76</ele>
        <time>2020-11-04T19:57:06Z</time>
      </trkpt>
      <trkpt lat="43.7297" lon="4.01409">
        <ele>76</ele>
        <time>2020-11-04T19:57:05Z</time>
      </trkpt>
      <trkpt lat="43.72973" lon="4.01404">
        <ele>75</ele>
        <time>2020-11-04T19:57:02Z</time>
      </trkpt>
      <trkpt lat="43.72976" lon="4.01398">
        <ele>75</ele>
        <time>2020-11-04T19:57:00Z</time>
      </trkpt>
      <trkpt lat="43.72977" lon="4.01395">
        <ele>75</ele>
        <time>2020-11-04T19:56:59Z</time>
      </trkpt>
      <trkpt lat="43.7298" lon="4.01391">
        <ele>75</ele>
        <time>2020-11-04T19:56:57Z</time>
      </trkpt>
      <trkpt lat="43.72981" lon="4.01389">
        <ele>75</ele>
        <time>2020-11-04T19:56:56Z</time>
      </trkpt>
      <trkpt lat="43.72984" lon="4.01384">
        <ele>75</ele>
        <time>2020-11-04T19:56:53Z</time>
      </trkpt>
      <trkpt lat="43.72986" lon="4.01379">
        <ele>75</ele>
        <time>2020-11-04T19:56:50Z</time>
      </trkpt>
      <trkpt lat="43.72987" lon="4.01376">
        <ele>75</ele>
        <time>2020-11-04T19:56:49Z</time>
      </trkpt>
      <trkpt lat="43.72988" lon="4.01375">
        <ele>75</ele>
        <time>2020-11-04T19:56:48Z</time>
      </trkpt>
      <trkpt lat="43.72989" lon="4.01373">
        <ele>74</ele>
        <time>2020-11-04T19:56:47Z</time>
      </trkpt>
      <trkpt lat="43.72991" lon="4.01368">
        <ele>74</ele>
        <time>2020-11-04T19:56:43Z</time>
      </trkpt>
      <trkpt lat="43.72993" lon="4.01363">
        <ele>74</ele>
        <time>2020-11-04T19:56:41Z</time>
      </trkpt>
      <trkpt lat="43.72996" lon="4.01358">
        <ele>74</ele>
        <time>2020-11-04T19:56:39Z</time>
      </trkpt>
      <trkpt lat="43.72999" lon="4.01355">
        <ele>74</ele>
        <time>2020-11-04T19:56:38Z</time>
      </trkpt>
      <trkpt lat="43.73" lon="4.01353">
        <ele>74</ele>
        <time>2020-11-04T19:56:37Z</time>
      </trkpt>
      <trkpt lat="43.73003" lon="4.01348">
        <ele>74</ele>
        <time>2020-11-04T19:56:34Z</time>
      </trkpt>
      <trkpt lat="43.73005" lon="4.01347">
        <ele>74</ele>
        <time>2020-11-04T19:56:33Z</time>
      </trkpt>
      <trkpt lat="43.73006" lon="4.01345">
        <ele>74</ele>
        <time>2020-11-04T19:56:32Z</time>
      </trkpt>
      <trkpt lat="43.73007" lon="4.01344">
        <ele>74</ele>
        <time>2020-11-04T19:56:31Z</time>
      </trkpt>
      <trkpt lat="43.73009" lon="4.01342">
        <ele>74</ele>
        <time>2020-11-04T19:56:29Z</time>
      </trkpt>
      <trkpt lat="43.7301" lon="4.01336">
        <ele>74</ele>
        <time>2020-11-04T19:56:26Z</time>
      </trkpt>
      <trkpt lat="43.7301" lon="4.01334">
        <ele>74</ele>
        <time>2020-11-04T19:56:25Z</time>
      </trkpt>
      <trkpt lat="43.73011" lon="4.01332">
        <ele>74</ele>
        <time>2020-11-04T19:56:24Z</time>
      </trkpt>
      <trkpt lat="43.73013" lon="4.0133">
        <ele>74</ele>
        <time>2020-11-04T19:56:23Z</time>
      </trkpt>
      <trkpt lat="43.73014" lon="4.01329">
        <ele>74</ele>
        <time>2020-11-04T19:56:22Z</time>
      </trkpt>
      <trkpt lat="43.73014" lon="4.01329">
        <ele>74</ele>
        <time>2020-11-04T19:56:21Z</time>
      </trkpt>
      <trkpt lat="43.73018" lon="4.01319">
        <ele>73</ele>
        <time>2020-11-04T19:55:45Z</time>
      </trkpt>
      <trkpt lat="43.73021" lon="4.01315">
        <ele>73</ele>
        <time>2020-11-04T19:55:41Z</time>
      </trkpt>
      <trkpt lat="43.73023" lon="4.01311">
        <ele>73</ele>
        <time>2020-11-04T19:55:39Z</time>
      </trkpt>
      <trkpt lat="43.73025" lon="4.01309">
        <ele>73</ele>
        <time>2020-11-04T19:55:38Z</time>
      </trkpt>
      <trkpt lat="43.73027" lon="4.01306">
        <ele>73</ele>
        <time>2020-11-04T19:55:36Z</time>
      </trkpt>
      <trkpt lat="43.7303" lon="4.01303">
        <ele>73</ele>
        <time>2020-11-04T19:55:34Z</time>
      </trkpt>
      <trkpt lat="43.73041" lon="4.01313">
        <ele>62</ele>
        <time>2020-11-04T17:19:38Z</time>
      </trkpt>
      <trkpt lat="43.73045" lon="4.01317">
        <ele>62</ele>
        <time>2020-11-04T17:19:39Z</time>
      </trkpt>
      <trkpt lat="43.73049" lon="4.01322">
        <ele>62</ele>
        <time>2020-11-04T17:19:40Z</time>
      </trkpt>
      <trkpt lat="43.73064" lon="4.01343">
        <ele>62</ele>
        <time>2020-11-04T17:19:44Z</time>
      </trkpt>
      <trkpt lat="43.73071" lon="4.01353">
        <ele>62</ele>
        <time>2020-11-04T17:19:46Z</time>
      </trkpt>
      <trkpt lat="43.73076" lon="4.01358">
        <ele>62</ele>
        <time>2020-11-04T17:19:47Z</time>
      </trkpt>
      <trkpt lat="43.7308" lon="4.01364">
        <ele>62</ele>
        <time>2020-11-04T17:19:48Z</time>
      </trkpt>
      <trkpt lat="43.73111" lon="4.01405">
        <ele>63</ele>
        <time>2020-11-04T17:19:56Z</time>
      </trkpt>
      <trkpt lat="43.7313" lon="4.01431">
        <ele>63</ele>
        <time>2020-11-04T17:20:01Z</time>
      </trkpt>
      <trkpt lat="43.73134" lon="4.01435">
        <ele>63</ele>
        <time>2020-11-04T17:20:02Z</time>
      </trkpt>
      <trkpt lat="43.73141" lon="4.01445">
        <ele>64</ele>
        <time>2020-11-04T17:20:04Z</time>
      </trkpt>
      <trkpt lat="43.73143" lon="4.01449">
        <ele>64</ele>
        <time>2020-11-04T17:20:05Z</time>
      </trkpt>
      <trkpt lat="43.73148" lon="4.01456">
        <ele>64</ele>
        <time>2020-11-04T17:20:07Z</time>
      </trkpt>
      <trkpt lat="43.73149" lon="4.01459">
        <ele>64</ele>
        <time>2020-11-04T17:20:08Z</time>
      </trkpt>
      <trkpt lat="43.73151" lon="4.01462">
        <ele>65</ele>
        <time>2020-11-04T17:20:09Z</time>
      </trkpt>
      <trkpt lat="43.73151" lon="4.01467">
        <ele>65</ele>
        <time>2020-11-04T17:20:10Z</time>
      </trkpt>
      <trkpt lat="43.73151" lon="4.01473">
        <ele>65</ele>
        <time>2020-11-04T17:20:11Z</time>
      </trkpt>
      <trkpt lat="43.73152" lon="4.01479">
        <ele>65</ele>
        <time>2020-11-04T17:20:12Z</time>
      </trkpt>
      <trkpt lat="43.73153" lon="4.01486">
        <ele>65</ele>
        <time>2020-11-04T17:20:13Z</time>
      </trkpt>
      <trkpt lat="43.73156" lon="4.01492">
        <ele>65</ele>
        <time>2020-11-04T17:20:14Z</time>
      </trkpt>
      <trkpt lat="43.73159" lon="4.01498">
        <ele>65</ele>
        <time>2020-11-04T17:20:15Z</time>
      </trkpt>
      <trkpt lat="43.73168" lon="4.01517">
        <ele>66</ele>
        <time>2020-11-04T17:20:18Z</time>
      </trkpt>
      <trkpt lat="43.73173" lon="4.0153">
        <ele>66</ele>
        <time>2020-11-04T17:20:20Z</time>
      </trkpt>
      <trkpt lat="43.73175" lon="4.01536">
        <ele>66</ele>
        <time>2020-11-04T17:20:21Z</time>
      </trkpt>
      <trkpt lat="43.73181" lon="4.01548">
        <ele>66</ele>
        <time>2020-11-04T17:20:23Z</time>
      </trkpt>
      <trkpt lat="43.7323" lon="4.01621">
        <ele>67</ele>
        <time>2020-11-04T17:20:37Z</time>
      </trkpt>
      <trkpt lat="43.73254" lon="4.01658">
        <ele>67</ele>
        <time>2020-11-04T17:20:44Z</time>
      </trkpt>
      <trkpt lat="43.73257" lon="4.01664">
        <ele>67</ele>
        <time>2020-11-04T17:20:45Z</time>
      </trkpt>
      <trkpt lat="43.73261" lon="4.0167">
        <ele>67</ele>
        <time>2020-11-04T17:20:46Z</time>
      </trkpt>
      <trkpt lat="43.73264" lon="4.01676">
        <ele>67</ele>
        <time>2020-11-04T17:20:47Z</time>
      </trkpt>
      <trkpt lat="43.73272" lon="4.01688">
        <ele>67</ele>
        <time>2020-11-04T17:20:49Z</time>
      </trkpt>
      <trkpt lat="43.73275" lon="4.01694">
        <ele>66</ele>
        <time>2020-11-04T17:20:50Z</time>
      </trkpt>
      <trkpt lat="43.73279" lon="4.01701">
        <ele>66</ele>
        <time>2020-11-04T17:20:51Z</time>
      </trkpt>
      <trkpt lat="43.73288" lon="4.01713">
        <ele>66</ele>
        <time>2020-11-04T17:20:53Z</time>
      </trkpt>
      <trkpt lat="43.73292" lon="4.01719">
        <ele>66</ele>
        <time>2020-11-04T17:20:54Z</time>
      </trkpt>
      <trkpt lat="43.73296" lon="4.01725">
        <ele>65</ele>
        <time>2020-11-04T17:20:55Z</time>
      </trkpt>
      <trkpt lat="43.7336" lon="4.01798">
        <ele>62</ele>
        <time>2020-11-04T17:21:09Z</time>
      </trkpt>
      <trkpt lat="43.73381" lon="4.01816">
        <ele>62</ele>
        <time>2020-11-04T17:21:13Z</time>
      </trkpt>
      <trkpt lat="43.73406" lon="4.01838">
        <ele>61</ele>
        <time>2020-11-04T17:21:18Z</time>
      </trkpt>
      <trkpt lat="43.73438" lon="4.0188">
        <ele>60</ele>
        <time>2020-11-04T17:21:25Z</time>
      </trkpt>
      <trkpt lat="43.735" lon="4.01963">
        <ele>59</ele>
        <time>2020-11-04T17:21:39Z</time>
      </trkpt>
      <trkpt lat="43.73566" lon="4.02049">
        <ele>57</ele>
        <time>2020-11-04T17:21:54Z</time>
      </trkpt>
      <trkpt lat="43.7357" lon="4.02055">
        <ele>57</ele>
        <time>2020-11-04T17:21:55Z</time>
      </trkpt>
      <trkpt lat="43.73575" lon="4.02061">
        <ele>57</ele>
        <time>2020-11-04T17:21:56Z</time>
      </trkpt>
      <trkpt lat="43.73579" lon="4.02067">
        <ele>57</ele>
        <time>2020-11-04T17:21:57Z</time>
      </trkpt>
      <trkpt lat="43.73625" lon="4.0213">
        <ele>56</ele>
        <time>2020-11-04T17:22:07Z</time>
      </trkpt>
      <trkpt lat="43.7363" lon="4.02137">
        <ele>56</ele>
        <time>2020-11-04T17:22:08Z</time>
      </trkpt>
      <trkpt lat="43.73643" lon="4.02157">
        <ele>56</ele>
        <time>2020-11-04T17:22:11Z</time>
      </trkpt>
      <trkpt lat="43.73658" lon="4.02175">
        <ele>56</ele>
        <time>2020-11-04T17:22:14Z</time>
      </trkpt>
      <trkpt lat="43.73686" lon="4.02199">
        <ele>55</ele>
        <time>2020-11-04T17:22:19Z</time>
      </trkpt>
      <trkpt lat="43.73691" lon="4.02203">
        <ele>55</ele>
        <time>2020-11-04T17:22:20Z</time>
      </trkpt>
      <trkpt lat="43.73697" lon="4.02206">
        <ele>55</ele>
        <time>2020-11-04T17:22:21Z</time>
      </trkpt>
      <trkpt lat="43.73703" lon="4.0221">
        <ele>55</ele>
        <time>2020-11-04T17:22:22Z</time>
      </trkpt>
      <trkpt lat="43.7372" lon="4.0222">
        <ele>54</ele>
        <time>2020-11-04T17:22:25Z</time>
      </trkpt>
      <trkpt lat="43.73784" lon="4.02277">
        <ele>52</ele>
        <time>2020-11-04T17:22:37Z</time>
      </trkpt>
      <trkpt lat="43.73815" lon="4.02318">
        <ele>51</ele>
        <time>2020-11-04T17:22:44Z</time>
      </trkpt>
      <trkpt lat="43.7382" lon="4.02325">
        <ele>51</ele>
        <time>2020-11-04T17:22:45Z</time>
      </trkpt>
      <trkpt lat="43.73825" lon="4.02331">
        <ele>51</ele>
        <time>2020-11-04T17:22:46Z</time>
      </trkpt>
      <trkpt lat="43.7383" lon="4.02338">
        <ele>51</ele>
        <time>2020-11-04T17:22:47Z</time>
      </trkpt>
      <trkpt lat="43.73834" lon="4.02344">
        <ele>51</ele>
        <time>2020-11-04T17:22:48Z</time>
      </trkpt>
      <trkpt lat="43.73901" lon="4.02433">
        <ele>49</ele>
        <time>2020-11-04T17:23:02Z</time>
      </trkpt>
      <trkpt lat="43.7392" lon="4.02456">
        <ele>49</ele>
        <time>2020-11-04T17:23:06Z</time>
      </trkpt>
      <trkpt lat="43.73923" lon="4.0246">
        <ele>49</ele>
        <time>2020-11-04T17:23:07Z</time>
      </trkpt>
      <trkpt lat="43.73927" lon="4.02468">
        <ele>48</ele>
        <time>2020-11-04T17:23:09Z</time>
      </trkpt>
      <trkpt lat="43.73926" lon="4.02477">
        <ele>48</ele>
        <time>2020-11-04T17:23:12Z</time>
      </trkpt>
      <trkpt lat="43.73921" lon="4.02477">
        <ele>48</ele>
        <time>2020-11-04T17:23:13Z</time>
      </trkpt>
      <trkpt lat="43.73916" lon="4.02477">
        <ele>47</ele>
        <time>2020-11-04T17:23:14Z</time>
      </trkpt>
      <trkpt lat="43.73911" lon="4.02475">
        <ele>47</ele>
        <time>2020-11-04T17:23:15Z</time>
      </trkpt>
      <trkpt lat="43.73897" lon="4.0247">
        <ele>47</ele>
        <time>2020-11-04T17:23:18Z</time>
      </trkpt>
      <trkpt lat="43.73891" lon="4.02468">
        <ele>47</ele>
        <time>2020-11-04T17:23:19Z</time>
      </trkpt>
      <trkpt lat="43.73886" lon="4.02465">
        <ele>47</ele>
        <time>2020-11-04T17:23:20Z</time>
      </trkpt>
      <trkpt lat="43.73881" lon="4.02462">
        <ele>47</ele>
        <time>2020-11-04T17:23:21Z</time>
      </trkpt>
      <trkpt lat="43.73875" lon="4.02461">
        <ele>47</ele>
        <time>2020-11-04T17:23:22Z</time>
      </trkpt>
      <trkpt lat="43.73869" lon="4.02459">
        <ele>47</ele>
        <time>2020-11-04T17:23:23Z</time>
      </trkpt>
      <trkpt lat="43.73863" lon="4.02457">
        <ele>47</ele>
        <time>2020-11-04T17:23:24Z</time>
      </trkpt>
      <trkpt lat="43.73821" lon="4.02452">
        <ele>46</ele>
        <time>2020-11-04T17:23:31Z</time>
      </trkpt>
      <trkpt lat="43.73747" lon="4.02447">
        <ele>47</ele>
        <time>2020-11-04T17:23:44Z</time>
      </trkpt>
      <trkpt lat="43.73736" lon="4.02444">
        <ele>47</ele>
        <time>2020-11-04T17:23:46Z</time>
      </trkpt>
      <trkpt lat="43.73731" lon="4.02442">
        <ele>47</ele>
        <time>2020-11-04T17:23:47Z</time>
      </trkpt>
      <trkpt lat="43.73725" lon="4.0244">
        <ele>47</ele>
        <time>2020-11-04T17:23:48Z</time>
      </trkpt>
      <trkpt lat="43.73719" lon="4.02437">
        <ele>47</ele>
        <time>2020-11-04T17:23:49Z</time>
      </trkpt>
      <trkpt lat="43.73714" lon="4.02435">
        <ele>47</ele>
        <time>2020-11-04T17:23:50Z</time>
      </trkpt>
      <trkpt lat="43.73708" lon="4.02433">
        <ele>47</ele>
        <time>2020-11-04T17:23:51Z</time>
      </trkpt>
      <trkpt lat="43.73631" lon="4.02451">
        <ele>48</ele>
        <time>2020-11-04T17:24:05Z</time>
      </trkpt>
      <trkpt lat="43.73553" lon="4.02477">
        <ele>50</ele>
        <time>2020-11-04T17:24:20Z</time>
      </trkpt>
      <trkpt lat="43.73518" lon="4.02491">
        <ele>51</ele>
        <time>2020-11-04T17:24:27Z</time>
      </trkpt>
      <trkpt lat="43.73505" lon="4.02496">
        <ele>51</ele>
        <time>2020-11-04T17:24:30Z</time>
      </trkpt>
      <trkpt lat="43.735" lon="4.02498">
        <ele>52</ele>
        <time>2020-11-04T17:24:31Z</time>
      </trkpt>
      <trkpt lat="43.73495" lon="4.025">
        <ele>52</ele>
        <time>2020-11-04T17:24:32Z</time>
      </trkpt>
      <trkpt lat="43.7349" lon="4.02501">
        <ele>52</ele>
        <time>2020-11-04T17:24:33Z</time>
      </trkpt>
      <trkpt lat="43.73461" lon="4.02513">
        <ele>52</ele>
        <time>2020-11-04T17:24:39Z</time>
      </trkpt>
      <trkpt lat="43.73428" lon="4.02525">
        <ele>53</ele>
        <time>2020-11-04T17:24:46Z</time>
      </trkpt>
      <trkpt lat="43.73423" lon="4.02527">
        <ele>53</ele>
        <time>2020-11-04T17:24:47Z</time>
      </trkpt>
      <trkpt lat="43.7339" lon="4.0253">
        <ele>53</ele>
        <time>2020-11-04T17:24:54Z</time>
      </trkpt>
      <trkpt lat="43.73367" lon="4.02528">
        <ele>54</ele>
        <time>2020-11-04T17:24:59Z</time>
      </trkpt>
      <trkpt lat="43.7336" lon="4.02526">
        <ele>54</ele>
        <time>2020-11-04T17:25:01Z</time>
      </trkpt>
      <trkpt lat="43.73355" lon="4.02525">
        <ele>54</ele>
        <time>2020-11-04T17:25:03Z</time>
      </trkpt>
      <trkpt lat="43.73352" lon="4.02524">
        <ele>55</ele>
        <time>2020-11-04T17:25:04Z</time>
      </trkpt>
      <trkpt lat="43.7335" lon="4.02525">
        <ele>55</ele>
        <time>2020-11-04T17:25:05Z</time>
      </trkpt>
      <trkpt lat="43.73349" lon="4.02532">
        <ele>55</ele>
        <time>2020-11-04T17:25:07Z</time>
      </trkpt>
      <trkpt lat="43.7335" lon="4.02536">
        <ele>55</ele>
        <time>2020-11-04T17:25:08Z</time>
      </trkpt>
      <trkpt lat="43.73351" lon="4.02542">
        <ele>55</ele>
        <time>2020-11-04T17:25:09Z</time>
      </trkpt>
      <trkpt lat="43.73353" lon="4.02547">
        <ele>55</ele>
        <time>2020-11-04T17:25:10Z</time>
      </trkpt>
      <trkpt lat="43.73354" lon="4.02554">
        <ele>55</ele>
        <time>2020-11-04T17:25:11Z</time>
      </trkpt>
      <trkpt lat="43.73356" lon="4.02561">
        <ele>55</ele>
        <time>2020-11-04T17:25:12Z</time>
      </trkpt>
      <trkpt lat="43.73358" lon="4.02568">
        <ele>55</ele>
        <time>2020-11-04T17:25:13Z</time>
      </trkpt>
      <trkpt lat="43.7336" lon="4.02576">
        <ele>55</ele>
        <time>2020-11-04T17:25:14Z</time>
      </trkpt>
      <trkpt lat="43.73362" lon="4.02584">
        <ele>55</ele>
        <time>2020-11-04T17:25:15Z</time>
      </trkpt>
      <trkpt lat="43.73364" lon="4.02591">
        <ele>55</ele>
        <time>2020-11-04T17:25:16Z</time>
      </trkpt>
      <trkpt lat="43.73367" lon="4.02599">
        <ele>55</ele>
        <time>2020-11-04T17:25:17Z</time>
      </trkpt>
      <trkpt lat="43.73369" lon="4.02607">
        <ele>55</ele>
        <time>2020-11-04T17:25:18Z</time>
      </trkpt>
      <trkpt lat="43.73371" lon="4.02615">
        <ele>55</ele>
        <time>2020-11-04T17:25:19Z</time>
      </trkpt>
      <trkpt lat="43.73391" lon="4.02687">
        <ele>55</ele>
        <time>2020-11-04T17:25:28Z</time>
      </trkpt>
      <trkpt lat="43.73397" lon="4.02711">
        <ele>54</ele>
        <time>2020-11-04T17:25:31Z</time>
      </trkpt>
      <trkpt lat="43.73399" lon="4.02719">
        <ele>54</ele>
        <time>2020-11-04T17:25:32Z</time>
      </trkpt>
      <trkpt lat="43.73438" lon="4.02815">
        <ele>53</ele>
        <time>2020-11-04T17:25:45Z</time>
      </trkpt>
      <trkpt lat="43.73443" lon="4.02822">
        <ele>53</ele>
        <time>2020-11-04T17:25:46Z</time>
      </trkpt>
      <trkpt lat="43.73459" lon="4.02842">
        <ele>53</ele>
        <time>2020-11-04T17:25:49Z</time>
      </trkpt>
      <trkpt lat="43.73464" lon="4.0285">
        <ele>53</ele>
        <time>2020-11-04T17:25:50Z</time>
      </trkpt>
      <trkpt lat="43.73471" lon="4.02857">
        <ele>53</ele>
        <time>2020-11-04T17:25:51Z</time>
      </trkpt>
      <trkpt lat="43.73482" lon="4.02871">
        <ele>53</ele>
        <time>2020-11-04T17:25:53Z</time>
      </trkpt>
      <trkpt lat="43.73488" lon="4.02878">
        <ele>53</ele>
        <time>2020-11-04T17:25:54Z</time>
      </trkpt>
      <trkpt lat="43.73499" lon="4.0289">
        <ele>53</ele>
        <time>2020-11-04T17:25:56Z</time>
      </trkpt>
      <trkpt lat="43.7352" lon="4.02911">
        <ele>53</ele>
        <time>2020-11-04T17:26:00Z</time>
      </trkpt>
      <trkpt lat="43.7354" lon="4.02933">
        <ele>53</ele>
        <time>2020-11-04T17:26:04Z</time>
      </trkpt>
      <trkpt lat="43.73565" lon="4.02959">
        <ele>52</ele>
        <time>2020-11-04T17:26:09Z</time>
      </trkpt>
      <trkpt lat="43.73577" lon="4.02973">
        <ele>52</ele>
        <time>2020-11-04T17:26:12Z</time>
      </trkpt>
      <trkpt lat="43.73581" lon="4.02977">
        <ele>52</ele>
        <time>2020-11-04T17:26:13Z</time>
      </trkpt>
      <trkpt lat="43.73585" lon="4.02982">
        <ele>51</ele>
        <time>2020-11-04T17:26:14Z</time>
      </trkpt>
      <trkpt lat="43.73589" lon="4.02986">
        <ele>51</ele>
        <time>2020-11-04T17:26:15Z</time>
      </trkpt>
      <trkpt lat="43.73593" lon="4.02991">
        <ele>51</ele>
        <time>2020-11-04T17:26:16Z</time>
      </trkpt>
      <trkpt lat="43.73598" lon="4.02996">
        <ele>51</ele>
        <time>2020-11-04T17:26:17Z</time>
      </trkpt>
      <trkpt lat="43.73602" lon="4.03002">
        <ele>51</ele>
        <time>2020-11-04T17:26:18Z</time>
      </trkpt>
      <trkpt lat="43.73607" lon="4.03007">
        <ele>51</ele>
        <time>2020-11-04T17:26:19Z</time>
      </trkpt>
      <trkpt lat="43.73613" lon="4.03013">
        <ele>51</ele>
        <time>2020-11-04T17:26:20Z</time>
      </trkpt>
      <trkpt lat="43.73618" lon="4.03019">
        <ele>51</ele>
        <time>2020-11-04T17:26:21Z</time>
      </trkpt>
      <trkpt lat="43.73623" lon="4.03025">
        <ele>51</ele>
        <time>2020-11-04T17:26:22Z</time>
      </trkpt>
      <trkpt lat="43.7365" lon="4.03055">
        <ele>51</ele>
        <time>2020-11-04T17:26:27Z</time>
      </trkpt>
      <trkpt lat="43.7366" lon="4.03066">
        <ele>51</ele>
        <time>2020-11-04T17:26:29Z</time>
      </trkpt>
      <trkpt lat="43.737" lon="4.03142">
        <ele>50</ele>
        <time>2020-11-04T17:26:41Z</time>
      </trkpt>
      <trkpt lat="43.73706" lon="4.03157">
        <ele>50</ele>
        <time>2020-11-04T17:26:43Z</time>
      </trkpt>
      <trkpt lat="43.73738" lon="4.03216">
        <ele>50</ele>
        <time>2020-11-04T17:26:52Z</time>
      </trkpt>
      <trkpt lat="43.73742" lon="4.03222">
        <ele>50</ele>
        <time>2020-11-04T17:26:53Z</time>
      </trkpt>
      <trkpt lat="43.73777" lon="4.03273">
        <ele>50</ele>
        <time>2020-11-04T17:27:02Z</time>
      </trkpt>
      <trkpt lat="43.73781" lon="4.03278">
        <ele>50</ele>
        <time>2020-11-04T17:27:03Z</time>
      </trkpt>
      <trkpt lat="43.73784" lon="4.03284">
        <ele>50</ele>
        <time>2020-11-04T17:27:04Z</time>
      </trkpt>
      <trkpt lat="43.73799" lon="4.03313">
        <ele>49</ele>
        <time>2020-11-04T17:27:09Z</time>
      </trkpt>
      <trkpt lat="43.73817" lon="4.03357">
        <ele>49</ele>
        <time>2020-11-04T17:27:16Z</time>
      </trkpt>
      <trkpt lat="43.73819" lon="4.03364">
        <ele>49</ele>
        <time>2020-11-04T17:27:17Z</time>
      </trkpt>
      <trkpt lat="43.73821" lon="4.03371">
        <ele>49</ele>
        <time>2020-11-04T17:27:18Z</time>
      </trkpt>
      <trkpt lat="43.73824" lon="4.03378">
        <ele>49</ele>
        <time>2020-11-04T17:27:19Z</time>
      </trkpt>
      <trkpt lat="43.73837" lon="4.03422">
        <ele>49</ele>
        <time>2020-11-04T17:27:25Z</time>
      </trkpt>
      <trkpt lat="43.73846" lon="4.03452">
        <ele>49</ele>
        <time>2020-11-04T17:27:29Z</time>
      </trkpt>
      <trkpt lat="43.73849" lon="4.0346">
        <ele>49</ele>
        <time>2020-11-04T17:27:30Z</time>
      </trkpt>
      <trkpt lat="43.73852" lon="4.03469">
        <ele>48</ele>
        <time>2020-11-04T17:27:31Z</time>
      </trkpt>
      <trkpt lat="43.73857" lon="4.03485">
        <ele>48</ele>
        <time>2020-11-04T17:27:33Z</time>
      </trkpt>
      <trkpt lat="43.73891" lon="4.03602">
        <ele>46</ele>
        <time>2020-11-04T17:27:47Z</time>
      </trkpt>
      <trkpt lat="43.73898" lon="4.03626">
        <ele>46</ele>
        <time>2020-11-04T17:27:50Z</time>
      </trkpt>
      <trkpt lat="43.73918" lon="4.03691">
        <ele>45</ele>
        <time>2020-11-04T17:27:58Z</time>
      </trkpt>
      <trkpt lat="43.73925" lon="4.03714">
        <ele>45</ele>
        <time>2020-11-04T17:28:01Z</time>
      </trkpt>
      <trkpt lat="43.73945" lon="4.03778">
        <ele>45</ele>
        <time>2020-11-04T17:28:09Z</time>
      </trkpt>
      <trkpt lat="43.73948" lon="4.03786">
        <ele>45</ele>
        <time>2020-11-04T17:28:10Z</time>
      </trkpt>
      <trkpt lat="43.73987" lon="4.03896">
        <ele>44</ele>
        <time>2020-11-04T17:28:24Z</time>
      </trkpt>
      <trkpt lat="43.74029" lon="4.03969">
        <ele>44</ele>
        <time>2020-11-04T17:28:35Z</time>
      </trkpt>
      <trkpt lat="43.74078" lon="4.0405">
        <ele>46</ele>
        <time>2020-11-04T17:28:49Z</time>
      </trkpt>
      <trkpt lat="43.74123" lon="4.04125">
        <ele>48</ele>
        <time>2020-11-04T17:29:02Z</time>
      </trkpt>
      <trkpt lat="43.74126" lon="4.04132">
        <ele>48</ele>
        <time>2020-11-04T17:29:03Z</time>
      </trkpt>
      <trkpt lat="43.7415" lon="4.04167">
        <ele>48</ele>
        <time>2020-11-04T17:29:09Z</time>
      </trkpt>
      <trkpt lat="43.74154" lon="4.04173">
        <ele>48</ele>
        <time>2020-11-04T17:29:10Z</time>
      </trkpt>
      <trkpt lat="43.74205" lon="4.04261">
        <ele>47</ele>
        <time>2020-11-04T17:29:24Z</time>
      </trkpt>
      <trkpt lat="43.7423" lon="4.04306">
        <ele>47</ele>
        <time>2020-11-04T17:29:31Z</time>
      </trkpt>
      <trkpt lat="43.74233" lon="4.04312">
        <ele>47</ele>
        <time>2020-11-04T17:29:32Z</time>
      </trkpt>
      <trkpt lat="43.74236" lon="4.04318">
        <ele>47</ele>
        <time>2020-11-04T17:29:33Z</time>
      </trkpt>
      <trkpt lat="43.74261" lon="4.04366">
        <ele>46</ele>
        <time>2020-11-04T17:29:41Z</time>
      </trkpt>
      <trkpt lat="43.74264" lon="4.04371">
        <ele>46</ele>
        <time>2020-11-04T17:29:42Z</time>
      </trkpt>
      <trkpt lat="43.74302" lon="4.04447">
        <ele>48</ele>
        <time>2020-11-04T17:29:56Z</time>
      </trkpt>
      <trkpt lat="43.74314" lon="4.04481">
        <ele>49</ele>
        <time>2020-11-04T17:30:02Z</time>
      </trkpt>
      <trkpt lat="43.74333" lon="4.04574">
        <ele>47</ele>
        <time>2020-11-04T17:30:16Z</time>
      </trkpt>
      <trkpt lat="43.7434" lon="4.04603">
        <ele>47</ele>
        <time>2020-11-04T17:30:21Z</time>
      </trkpt>
      <trkpt lat="43.74342" lon="4.04609">
        <ele>47</ele>
        <time>2020-11-04T17:30:22Z</time>
      </trkpt>
      <trkpt lat="43.74344" lon="4.04616">
        <ele>47</ele>
        <time>2020-11-04T17:30:23Z</time>
      </trkpt>
      <trkpt lat="43.74347" lon="4.04628">
        <ele>46</ele>
        <time>2020-11-04T17:30:25Z</time>
      </trkpt>
      <trkpt lat="43.74348" lon="4.04634">
        <ele>46</ele>
        <time>2020-11-04T17:30:26Z</time>
      </trkpt>
      <trkpt lat="43.7435" lon="4.0464">
        <ele>46</ele>
        <time>2020-11-04T17:30:27Z</time>
      </trkpt>
      <trkpt lat="43.74355" lon="4.04657">
        <ele>46</ele>
        <time>2020-11-04T17:30:30Z</time>
      </trkpt>
      <trkpt lat="43.74357" lon="4.04663">
        <ele>46</ele>
        <time>2020-11-04T17:30:31Z</time>
      </trkpt>
      <trkpt lat="43.74364" lon="4.0468">
        <ele>46</ele>
        <time>2020-11-04T17:30:34Z</time>
      </trkpt>
      <trkpt lat="43.74368" lon="4.04691">
        <ele>46</ele>
        <time>2020-11-04T17:30:36Z</time>
      </trkpt>
      <trkpt lat="43.74376" lon="4.04705">
        <ele>46</ele>
        <time>2020-11-04T17:30:39Z</time>
      </trkpt>
      <trkpt lat="43.74379" lon="4.04709">
        <ele>46</ele>
        <time>2020-11-04T17:30:40Z</time>
      </trkpt>
      <trkpt lat="43.74391" lon="4.04724">
        <ele>46</ele>
        <time>2020-11-04T17:30:44Z</time>
      </trkpt>
      <trkpt lat="43.74407" lon="4.04745">
        <ele>46</ele>
        <time>2020-11-04T17:30:49Z</time>
      </trkpt>
      <trkpt lat="43.74413" lon="4.04754">
        <ele>46</ele>
        <time>2020-11-04T17:30:51Z</time>
      </trkpt>
      <trkpt lat="43.7442" lon="4.04762">
        <ele>46</ele>
        <time>2020-11-04T17:30:53Z</time>
      </trkpt>
      <trkpt lat="43.74423" lon="4.04767">
        <ele>46</ele>
        <time>2020-11-04T17:30:54Z</time>
      </trkpt>
      <trkpt lat="43.74427" lon="4.04771">
        <ele>46</ele>
        <time>2020-11-04T17:30:55Z</time>
      </trkpt>
      <trkpt lat="43.7443" lon="4.04776">
        <ele>46</ele>
        <time>2020-11-04T17:30:56Z</time>
      </trkpt>
      <trkpt lat="43.74443" lon="4.04794">
        <ele>47</ele>
        <time>2020-11-04T17:31:00Z</time>
      </trkpt>
      <trkpt lat="43.74451" lon="4.04808">
        <ele>47</ele>
        <time>2020-11-04T17:31:03Z</time>
      </trkpt>
      <trkpt lat="43.74472" lon="4.04838">
        <ele>48</ele>
        <time>2020-11-04T17:31:10Z</time>
      </trkpt>
      <trkpt lat="43.74475" lon="4.0484">
        <ele>48</ele>
        <time>2020-11-04T17:31:11Z</time>
      </trkpt>
      <trkpt lat="43.74479" lon="4.0484">
        <ele>48</ele>
        <time>2020-11-04T17:31:12Z</time>
      </trkpt>
      <trkpt lat="43.74483" lon="4.04839">
        <ele>48</ele>
        <time>2020-11-04T17:31:13Z</time>
      </trkpt>
      <trkpt lat="43.74487" lon="4.04837">
        <ele>48</ele>
        <time>2020-11-04T17:31:14Z</time>
      </trkpt>
      <trkpt lat="43.74491" lon="4.04836">
        <ele>49</ele>
        <time>2020-11-04T17:31:15Z</time>
      </trkpt>
      <trkpt lat="43.74495" lon="4.04834">
        <ele>49</ele>
        <time>2020-11-04T17:31:16Z</time>
      </trkpt>
      <trkpt lat="43.745" lon="4.04832">
        <ele>49</ele>
        <time>2020-11-04T17:31:17Z</time>
      </trkpt>
      <trkpt lat="43.74505" lon="4.0483">
        <ele>49</ele>
        <time>2020-11-04T17:31:18Z</time>
      </trkpt>
      <trkpt lat="43.74519" lon="4.04823">
        <ele>48</ele>
        <time>2020-11-04T17:31:21Z</time>
      </trkpt>
      <trkpt lat="43.74523" lon="4.04821">
        <ele>48</ele>
        <time>2020-11-04T17:31:22Z</time>
      </trkpt>
      <trkpt lat="43.74528" lon="4.04818">
        <ele>48</ele>
        <time>2020-11-04T17:31:23Z</time>
      </trkpt>
      <trkpt lat="43.74534" lon="4.04815">
        <ele>48</ele>
        <time>2020-11-04T17:31:24Z</time>
      </trkpt>
      <trkpt lat="43.74558" lon="4.04803">
        <ele>47</ele>
        <time>2020-11-04T17:31:29Z</time>
      </trkpt>
      <trkpt lat="43.74628" lon="4.04761">
        <ele>45</ele>
        <time>2020-11-04T17:31:43Z</time>
      </trkpt>
      <trkpt lat="43.74652" lon="4.04745">
        <ele>44</ele>
        <time>2020-11-04T17:31:48Z</time>
      </trkpt>
      <trkpt lat="43.74657" lon="4.04741">
        <ele>44</ele>
        <time>2020-11-04T17:31:49Z</time>
      </trkpt>
      <trkpt lat="43.74662" lon="4.04738">
        <ele>44</ele>
        <time>2020-11-04T17:31:50Z</time>
      </trkpt>
      <trkpt lat="43.74698" lon="4.04713">
        <ele>43</ele>
        <time>2020-11-04T17:31:57Z</time>
      </trkpt>
      <trkpt lat="43.74721" lon="4.04711">
        <ele>42</ele>
        <time>2020-11-04T17:32:01Z</time>
      </trkpt>
      <trkpt lat="43.74726" lon="4.04712">
        <ele>42</ele>
        <time>2020-11-04T17:32:02Z</time>
      </trkpt>
      <trkpt lat="43.74735" lon="4.04716">
        <ele>41</ele>
        <time>2020-11-04T17:32:04Z</time>
      </trkpt>
      <trkpt lat="43.7474" lon="4.04718">
        <ele>41</ele>
        <time>2020-11-04T17:32:05Z</time>
      </trkpt>
      <trkpt lat="43.74745" lon="4.04719">
        <ele>41</ele>
        <time>2020-11-04T17:32:06Z</time>
      </trkpt>
      <trkpt lat="43.7475" lon="4.04721">
        <ele>41</ele>
        <time>2020-11-04T17:32:07Z</time>
      </trkpt>
      <trkpt lat="43.74765" lon="4.04723">
        <ele>40</ele>
        <time>2020-11-04T17:32:10Z</time>
      </trkpt>
      <trkpt lat="43.74775" lon="4.04724">
        <ele>40</ele>
        <time>2020-11-04T17:32:12Z</time>
      </trkpt>
      <trkpt lat="43.7478" lon="4.04725">
        <ele>40</ele>
        <time>2020-11-04T17:32:13Z</time>
      </trkpt>
      <trkpt lat="43.74809" lon="4.04732">
        <ele>40</ele>
        <time>2020-11-04T17:32:19Z</time>
      </trkpt>
      <trkpt lat="43.74834" lon="4.04739">
        <ele>39</ele>
        <time>2020-11-04T17:32:24Z</time>
      </trkpt>
      <trkpt lat="43.74838" lon="4.0474">
        <ele>39</ele>
        <time>2020-11-04T17:32:25Z</time>
      </trkpt>
      <trkpt lat="43.74843" lon="4.04742">
        <ele>39</ele>
        <time>2020-11-04T17:32:26Z</time>
      </trkpt>
      <trkpt lat="43.74856" lon="4.04746">
        <ele>39</ele>
        <time>2020-11-04T17:32:29Z</time>
      </trkpt>
      <trkpt lat="43.7486" lon="4.04746">
        <ele>39</ele>
        <time>2020-11-04T17:32:30Z</time>
      </trkpt>
      <trkpt lat="43.74864" lon="4.04742">
        <ele>39</ele>
        <time>2020-11-04T17:32:32Z</time>
      </trkpt>
      <trkpt lat="43.74865" lon="4.04738">
        <ele>39</ele>
        <time>2020-11-04T17:32:33Z</time>
      </trkpt>
      <trkpt lat="43.74866" lon="4.04733">
        <ele>39</ele>
        <time>2020-11-04T17:32:34Z</time>
      </trkpt>
      <trkpt lat="43.74868" lon="4.04727">
        <ele>39</ele>
        <time>2020-11-04T17:32:35Z</time>
      </trkpt>
      <trkpt lat="43.74869" lon="4.04721">
        <ele>39</ele>
        <time>2020-11-04T17:32:36Z</time>
      </trkpt>
      <trkpt lat="43.7487" lon="4.04714">
        <ele>38</ele>
        <time>2020-11-04T17:32:37Z</time>
      </trkpt>
      <trkpt lat="43.74871" lon="4.04707">
        <ele>38</ele>
        <time>2020-11-04T17:32:38Z</time>
      </trkpt>
      <trkpt lat="43.74875" lon="4.04695">
        <ele>38</ele>
        <time>2020-11-04T17:32:40Z</time>
      </trkpt>
      <trkpt lat="43.74887" lon="4.04693">
        <ele>37</ele>
        <time>2020-11-04T17:32:43Z</time>
      </trkpt>
      <trkpt lat="43.74892" lon="4.04694">
        <ele>37</ele>
        <time>2020-11-04T17:32:44Z</time>
      </trkpt>
      <trkpt lat="43.74896" lon="4.04694">
        <ele>37</ele>
        <time>2020-11-04T17:32:45Z</time>
      </trkpt>
      <trkpt lat="43.74901" lon="4.04695">
        <ele>37</ele>
        <time>2020-11-04T17:32:46Z</time>
      </trkpt>
      <trkpt lat="43.74922" lon="4.047">
        <ele>37</ele>
        <time>2020-11-04T17:32:50Z</time>
      </trkpt>
      <trkpt lat="43.74927" lon="4.04701">
        <ele>37</ele>
        <time>2020-11-04T17:32:51Z</time>
      </trkpt>
      <trkpt lat="43.74946" lon="4.04708">
        <ele>37</ele>
        <time>2020-11-04T17:32:55Z</time>
      </trkpt>
      <trkpt lat="43.74959" lon="4.04713">
        <ele>37</ele>
        <time>2020-11-04T17:32:58Z</time>
      </trkpt>
      <trkpt lat="43.74963" lon="4.04715">
        <ele>37</ele>
        <time>2020-11-04T17:32:59Z</time>
      </trkpt>
      <trkpt lat="43.74968" lon="4.04717">
        <ele>37</ele>
        <time>2020-11-04T17:33:00Z</time>
      </trkpt>
      <trkpt lat="43.75033" lon="4.04737">
        <ele>37</ele>
        <time>2020-11-04T17:33:14Z</time>
      </trkpt>
      <trkpt lat="43.75098" lon="4.0476">
        <ele>38</ele>
        <time>2020-11-04T17:33:29Z</time>
      </trkpt>
      <trkpt lat="43.75155" lon="4.04795">
        <ele>40</ele>
        <time>2020-11-04T17:33:44Z</time>
      </trkpt>
      <trkpt lat="43.75165" lon="4.04803">
        <ele>40</ele>
        <time>2020-11-04T17:33:47Z</time>
      </trkpt>
      <trkpt lat="43.75175" lon="4.0481">
        <ele>40</ele>
        <time>2020-11-04T17:33:50Z</time>
      </trkpt>
      <trkpt lat="43.75212" lon="4.04832">
        <ele>42</ele>
        <time>2020-11-04T17:34:01Z</time>
      </trkpt>
      <trkpt lat="43.75215" lon="4.04834">
        <ele>42</ele>
        <time>2020-11-04T17:34:02Z</time>
      </trkpt>
      <trkpt lat="43.75218" lon="4.04836">
        <ele>43</ele>
        <time>2020-11-04T17:34:03Z</time>
      </trkpt>
      <trkpt lat="43.75221" lon="4.04838">
        <ele>43</ele>
        <time>2020-11-04T17:34:04Z</time>
      </trkpt>
      <trkpt lat="43.75224" lon="4.0484">
        <ele>43</ele>
        <time>2020-11-04T17:34:05Z</time>
      </trkpt>
      <trkpt lat="43.75228" lon="4.04842">
        <ele>43</ele>
        <time>2020-11-04T17:34:06Z</time>
      </trkpt>
      <trkpt lat="43.75233" lon="4.04846">
        <ele>44</ele>
        <time>2020-11-04T17:34:08Z</time>
      </trkpt>
      <trkpt lat="43.75241" lon="4.0485">
        <ele>44</ele>
        <time>2020-11-04T17:34:11Z</time>
      </trkpt>
      <trkpt lat="43.75246" lon="4.04852">
        <ele>45</ele>
        <time>2020-11-04T17:34:14Z</time>
      </trkpt>
      <trkpt lat="43.75247" lon="4.04852">
        <ele>45</ele>
        <time>2020-11-04T17:34:15Z</time>
      </trkpt>
      <trkpt lat="43.75248" lon="4.0483">
        <ele>46</ele>
        <time>2020-11-04T17:34:26Z</time>
      </trkpt>
      <trkpt lat="43.75248" lon="4.0483">
        <ele>46</ele>
        <time>2020-11-04T17:34:27Z</time>
      </trkpt>
      <trkpt lat="43.75249" lon="4.04826">
        <ele>46</ele>
        <time>2020-11-04T17:34:28Z</time>
      </trkpt>
      <trkpt lat="43.7525" lon="4.04821">
        <ele>46</ele>
        <time>2020-11-04T17:34:29Z</time>
      </trkpt>
      <trkpt lat="43.75251" lon="4.04817">
        <ele>46</ele>
        <time>2020-11-04T17:34:30Z</time>
      </trkpt>
      <trkpt lat="43.75254" lon="4.04808">
        <ele>46</ele>
        <time>2020-11-04T17:34:32Z</time>
      </trkpt>
      <trkpt lat="43.75258" lon="4.04798">
        <ele>45</ele>
        <time>2020-11-04T17:34:34Z</time>
      </trkpt>
      <trkpt lat="43.75261" lon="4.04787">
        <ele>45</ele>
        <time>2020-11-04T17:34:36Z</time>
      </trkpt>
      <trkpt lat="43.75273" lon="4.04749">
        <ele>44</ele>
        <time>2020-11-04T17:34:43Z</time>
      </trkpt>
      <trkpt lat="43.75275" lon="4.04743">
        <ele>44</ele>
        <time>2020-11-04T17:34:44Z</time>
      </trkpt>
      <trkpt lat="43.7528" lon="4.04725">
        <ele>44</ele>
        <time>2020-11-04T17:34:47Z</time>
      </trkpt>
      <trkpt lat="43.75282" lon="4.04719">
        <ele>44</ele>
        <time>2020-11-04T17:34:48Z</time>
      </trkpt>
      <trkpt lat="43.75287" lon="4.04707">
        <ele>43</ele>
        <time>2020-11-04T17:34:50Z</time>
      </trkpt>
      <trkpt lat="43.75293" lon="4.0469">
        <ele>43</ele>
        <time>2020-11-04T17:34:53Z</time>
      </trkpt>
      <trkpt lat="43.75295" lon="4.0466">
        <ele>42</ele>
        <time>2020-11-04T17:34:59Z</time>
      </trkpt>
      <trkpt lat="43.75294" lon="4.04657">
        <ele>42</ele>
        <time>2020-11-04T17:35:00Z</time>
      </trkpt>
      <trkpt lat="43.75292" lon="4.04652">
        <ele>41</ele>
        <time>2020-11-04T17:35:03Z</time>
      </trkpt>
      <trkpt lat="43.75291" lon="4.04651">
        <ele>41</ele>
        <time>2020-11-04T17:35:04Z</time>
      </trkpt>
      <trkpt lat="43.7529" lon="4.04657">
        <ele>40</ele>
        <time>2020-11-04T17:35:16Z</time>
      </trkpt>
      <trkpt lat="43.7529" lon="4.04657">
        <ele>40</ele>
        <time>2020-11-04T17:35:17Z</time>
      </trkpt>
      <trkpt lat="43.7529" lon="4.04659">
        <ele>40</ele>
        <time>2020-11-04T17:35:18Z</time>
      </trkpt>
      <trkpt lat="43.7529" lon="4.04664">
        <ele>40</ele>
        <time>2020-11-04T17:35:21Z</time>
      </trkpt>
      <trkpt lat="43.7529" lon="4.04667">
        <ele>40</ele>
        <time>2020-11-04T17:35:22Z</time>
      </trkpt>
      <trkpt lat="43.7529" lon="4.0467">
        <ele>40</ele>
        <time>2020-11-04T17:35:23Z</time>
      </trkpt>
      <trkpt lat="43.7529" lon="4.04673">
        <ele>41</ele>
        <time>2020-11-04T17:35:24Z</time>
      </trkpt>
      <trkpt lat="43.75288" lon="4.0468">
        <ele>41</ele>
        <time>2020-11-04T17:35:26Z</time>
      </trkpt>
      <trkpt lat="43.75287" lon="4.04687">
        <ele>41</ele>
        <time>2020-11-04T17:35:28Z</time>
      </trkpt>
      <trkpt lat="43.75286" lon="4.04695">
        <ele>41</ele>
        <time>2020-11-04T17:35:30Z</time>
      </trkpt>
      <trkpt lat="43.75285" lon="4.047">
        <ele>41</ele>
        <time>2020-11-04T17:35:31Z</time>
      </trkpt>
      <trkpt lat="43.75282" lon="4.04711">
        <ele>41</ele>
        <time>2020-11-04T17:35:34Z</time>
      </trkpt>
      <trkpt lat="43.7528" lon="4.04715">
        <ele>42</ele>
        <time>2020-11-04T17:35:35Z</time>
      </trkpt>
      <trkpt lat="43.75279" lon="4.04719">
        <ele>42</ele>
        <time>2020-11-04T17:35:36Z</time>
      </trkpt>
      <trkpt lat="43.75276" lon="4.04728">
        <ele>42</ele>
        <time>2020-11-04T17:35:38Z</time>
      </trkpt>
      <trkpt lat="43.75275" lon="4.04732">
        <ele>42</ele>
        <time>2020-11-04T17:35:39Z</time>
      </trkpt>
      <trkpt lat="43.75267" lon="4.04757">
        <ele>42</ele>
        <time>2020-11-04T17:35:45Z</time>
      </trkpt>
      <trkpt lat="43.75262" lon="4.04776">
        <ele>43</ele>
        <time>2020-11-04T17:35:49Z</time>
      </trkpt>
      <trkpt lat="43.75261" lon="4.04781">
        <ele>43</ele>
        <time>2020-11-04T17:35:50Z</time>
      </trkpt>
      <trkpt lat="43.75256" lon="4.04796">
        <ele>43</ele>
        <time>2020-11-04T17:35:53Z</time>
      </trkpt>
      <trkpt lat="43.75253" lon="4.04805">
        <ele>44</ele>
        <time>2020-11-04T17:35:55Z</time>
      </trkpt>
      <trkpt lat="43.75252" lon="4.04809">
        <ele>44</ele>
        <time>2020-11-04T17:35:56Z</time>
      </trkpt>
      <trkpt lat="43.75251" lon="4.04814">
        <ele>44</ele>
        <time>2020-11-04T17:35:57Z</time>
      </trkpt>
      <trkpt lat="43.7525" lon="4.04818">
        <ele>44</ele>
        <time>2020-11-04T17:35:58Z</time>
      </trkpt>
      <trkpt lat="43.75246" lon="4.04846">
        <ele>45</ele>
        <time>2020-11-04T17:36:04Z</time>
      </trkpt>
      <trkpt lat="43.75249" lon="4.04859">
        <ele>45</ele>
        <time>2020-11-04T17:36:07Z</time>
      </trkpt>
      <trkpt lat="43.75266" lon="4.04871">
        <ele>46</ele>
        <time>2020-11-04T17:36:12Z</time>
      </trkpt>
      <trkpt lat="43.75269" lon="4.04873">
        <ele>46</ele>
        <time>2020-11-04T17:36:13Z</time>
      </trkpt>
      <trkpt lat="43.75273" lon="4.04875">
        <ele>46</ele>
        <time>2020-11-04T17:36:14Z</time>
      </trkpt>
      <trkpt lat="43.75277" lon="4.04877">
        <ele>46</ele>
        <time>2020-11-04T17:36:15Z</time>
      </trkpt>
      <trkpt lat="43.75281" lon="4.04879">
        <ele>46</ele>
        <time>2020-11-04T17:36:16Z</time>
      </trkpt>
      <trkpt lat="43.75289" lon="4.04883">
        <ele>46</ele>
        <time>2020-11-04T17:36:18Z</time>
      </trkpt>
      <trkpt lat="43.75294" lon="4.04884">
        <ele>47</ele>
        <time>2020-11-04T17:36:19Z</time>
      </trkpt>
      <trkpt lat="43.75299" lon="4.04884">
        <ele>46</ele>
        <time>2020-11-04T17:36:20Z</time>
      </trkpt>
      <trkpt lat="43.75308" lon="4.04884">
        <ele>46</ele>
        <time>2020-11-04T17:36:22Z</time>
      </trkpt>
      <trkpt lat="43.75328" lon="4.04883">
        <ele>46</ele>
        <time>2020-11-04T17:36:26Z</time>
      </trkpt>
      <trkpt lat="43.75353" lon="4.04883">
        <ele>46</ele>
        <time>2020-11-04T17:36:31Z</time>
      </trkpt>
      <trkpt lat="43.75363" lon="4.04882">
        <ele>46</ele>
        <time>2020-11-04T17:36:33Z</time>
      </trkpt>
      <trkpt lat="43.75378" lon="4.0488">
        <ele>46</ele>
        <time>2020-11-04T17:36:36Z</time>
      </trkpt>
      <trkpt lat="43.75384" lon="4.04879">
        <ele>45</ele>
        <time>2020-11-04T17:36:37Z</time>
      </trkpt>
      <trkpt lat="43.75404" lon="4.04874">
        <ele>45</ele>
        <time>2020-11-04T17:36:41Z</time>
      </trkpt>
      <trkpt lat="43.7541" lon="4.04872">
        <ele>45</ele>
        <time>2020-11-04T17:36:42Z</time>
      </trkpt>
      <trkpt lat="43.75421" lon="4.04869">
        <ele>45</ele>
        <time>2020-11-04T17:36:44Z</time>
      </trkpt>
      <trkpt lat="43.75431" lon="4.04865">
        <ele>44</ele>
        <time>2020-11-04T17:36:46Z</time>
      </trkpt>
      <trkpt lat="43.75468" lon="4.04867">
        <ele>44</ele>
        <time>2020-11-04T17:36:53Z</time>
      </trkpt>
      <trkpt lat="43.75472" lon="4.0487">
        <ele>44</ele>
        <time>2020-11-04T17:36:54Z</time>
      </trkpt>
      <trkpt lat="43.75477" lon="4.04874">
        <ele>44</ele>
        <time>2020-11-04T17:36:55Z</time>
      </trkpt>
      <trkpt lat="43.75481" lon="4.04878">
        <ele>44</ele>
        <time>2020-11-04T17:36:56Z</time>
      </trkpt>
      <trkpt lat="43.75499" lon="4.04891">
        <ele>43</ele>
        <time>2020-11-04T17:37:00Z</time>
      </trkpt>
      <trkpt lat="43.75504" lon="4.04891">
        <ele>43</ele>
        <time>2020-11-04T17:37:01Z</time>
      </trkpt>
      <trkpt lat="43.7552" lon="4.04889">
        <ele>43</ele>
        <time>2020-11-04T17:37:04Z</time>
      </trkpt>
      <trkpt lat="43.75525" lon="4.04888">
        <ele>43</ele>
        <time>2020-11-04T17:37:05Z</time>
      </trkpt>
      <trkpt lat="43.75531" lon="4.04886">
        <ele>43</ele>
        <time>2020-11-04T17:37:06Z</time>
      </trkpt>
      <trkpt lat="43.75536" lon="4.04885">
        <ele>43</ele>
        <time>2020-11-04T17:37:07Z</time>
      </trkpt>
      <trkpt lat="43.75551" lon="4.04884">
        <ele>43</ele>
        <time>2020-11-04T17:37:10Z</time>
      </trkpt>
      <trkpt lat="43.75557" lon="4.04886">
        <ele>42</ele>
        <time>2020-11-04T17:37:11Z</time>
      </trkpt>
      <trkpt lat="43.7557" lon="4.04892">
        <ele>42</ele>
        <time>2020-11-04T17:37:14Z</time>
      </trkpt>
      <trkpt lat="43.75574" lon="4.04897">
        <ele>42</ele>
        <time>2020-11-04T17:37:15Z</time>
      </trkpt>
      <trkpt lat="43.75603" lon="4.04956">
        <ele>40</ele>
        <time>2020-11-04T17:37:25Z</time>
      </trkpt>
      <trkpt lat="43.75641" lon="4.05031">
        <ele>39</ele>
        <time>2020-11-04T17:37:37Z</time>
      </trkpt>
      <trkpt lat="43.75644" lon="4.05037">
        <ele>39</ele>
        <time>2020-11-04T17:37:38Z</time>
      </trkpt>
      <trkpt lat="43.75647" lon="4.05043">
        <ele>39</ele>
        <time>2020-11-04T17:37:39Z</time>
      </trkpt>
      <trkpt lat="43.75663" lon="4.05074">
        <ele>39</ele>
        <time>2020-11-04T17:37:44Z</time>
      </trkpt>
      <trkpt lat="43.75666" lon="4.05081">
        <ele>39</ele>
        <time>2020-11-04T17:37:45Z</time>
      </trkpt>
      <trkpt lat="43.757" lon="4.05158">
        <ele>38</ele>
        <time>2020-11-04T17:37:57Z</time>
      </trkpt>
      <trkpt lat="43.75706" lon="4.05168">
        <ele>37</ele>
        <time>2020-11-04T17:37:59Z</time>
      </trkpt>
      <trkpt lat="43.75712" lon="4.05175">
        <ele>37</ele>
        <time>2020-11-04T17:38:01Z</time>
      </trkpt>
      <trkpt lat="43.75716" lon="4.0518">
        <ele>37</ele>
        <time>2020-11-04T17:38:02Z</time>
      </trkpt>
      <trkpt lat="43.7572" lon="4.05185">
        <ele>37</ele>
        <time>2020-11-04T17:38:03Z</time>
      </trkpt>
      <trkpt lat="43.75725" lon="4.0519">
        <ele>37</ele>
        <time>2020-11-04T17:38:04Z</time>
      </trkpt>
      <trkpt lat="43.75735" lon="4.05201">
        <ele>37</ele>
        <time>2020-11-04T17:38:06Z</time>
      </trkpt>
      <trkpt lat="43.75739" lon="4.05206">
        <ele>36</ele>
        <time>2020-11-04T17:38:07Z</time>
      </trkpt>
      <trkpt lat="43.75743" lon="4.05211">
        <ele>36</ele>
        <time>2020-11-04T17:38:08Z</time>
      </trkpt>
      <trkpt lat="43.75748" lon="4.05217">
        <ele>36</ele>
        <time>2020-11-04T17:38:09Z</time>
      </trkpt>
      <trkpt lat="43.75752" lon="4.05222">
        <ele>36</ele>
        <time>2020-11-04T17:38:10Z</time>
      </trkpt>
      <trkpt lat="43.75757" lon="4.05228">
        <ele>36</ele>
        <time>2020-11-04T17:38:11Z</time>
      </trkpt>
      <trkpt lat="43.75761" lon="4.05234">
        <ele>36</ele>
        <time>2020-11-04T17:38:12Z</time>
      </trkpt>
      <trkpt lat="43.75766" lon="4.0524">
        <ele>35</ele>
        <time>2020-11-04T17:38:13Z</time>
      </trkpt>
      <trkpt lat="43.75784" lon="4.05266">
        <ele>35</ele>
        <time>2020-11-04T17:38:17Z</time>
      </trkpt>
      <trkpt lat="43.75793" lon="4.05279">
        <ele>34</ele>
        <time>2020-11-04T17:38:19Z</time>
      </trkpt>
      <trkpt lat="43.75797" lon="4.05285">
        <ele>34</ele>
        <time>2020-11-04T17:38:20Z</time>
      </trkpt>
      <trkpt lat="43.75804" lon="4.05295">
        <ele>34</ele>
        <time>2020-11-04T17:38:22Z</time>
      </trkpt>
      <trkpt lat="43.75808" lon="4.053">
        <ele>34</ele>
        <time>2020-11-04T17:38:23Z</time>
      </trkpt>
      <trkpt lat="43.75812" lon="4.05304">
        <ele>33</ele>
        <time>2020-11-04T17:38:24Z</time>
      </trkpt>
      <trkpt lat="43.75816" lon="4.05309">
        <ele>33</ele>
        <time>2020-11-04T17:38:25Z</time>
      </trkpt>
      <trkpt lat="43.7583" lon="4.05326">
        <ele>33</ele>
        <time>2020-11-04T17:38:28Z</time>
      </trkpt>
      <trkpt lat="43.75835" lon="4.05332">
        <ele>33</ele>
        <time>2020-11-04T17:38:29Z</time>
      </trkpt>
      <trkpt lat="43.7588" lon="4.05382">
        <ele>32</ele>
        <time>2020-11-04T17:38:39Z</time>
      </trkpt>
      <trkpt lat="43.75894" lon="4.05398">
        <ele>31</ele>
        <time>2020-11-04T17:38:42Z</time>
      </trkpt>
      <trkpt lat="43.75899" lon="4.05403">
        <ele>31</ele>
        <time>2020-11-04T17:38:43Z</time>
      </trkpt>
      <trkpt lat="43.75904" lon="4.05409">
        <ele>31</ele>
        <time>2020-11-04T17:38:44Z</time>
      </trkpt>
      <trkpt lat="43.75961" lon="4.05474">
        <ele>30</ele>
        <time>2020-11-04T17:38:56Z</time>
      </trkpt>
      <trkpt lat="43.75965" lon="4.0548">
        <ele>30</ele>
        <time>2020-11-04T17:38:57Z</time>
      </trkpt>
      <trkpt lat="43.75969" lon="4.05485">
        <ele>30</ele>
        <time>2020-11-04T17:38:58Z</time>
      </trkpt>
      <trkpt lat="43.75974" lon="4.05492">
        <ele>30</ele>
        <time>2020-11-04T17:38:59Z</time>
      </trkpt>
      <trkpt lat="43.75983" lon="4.05503">
        <ele>30</ele>
        <time>2020-11-04T17:39:01Z</time>
      </trkpt>
      <trkpt lat="43.76008" lon="4.05538">
        <ele>30</ele>
        <time>2020-11-04T17:39:07Z</time>
      </trkpt>
      <trkpt lat="43.76038" lon="4.05579">
        <ele>30</ele>
        <time>2020-11-04T17:39:15Z</time>
      </trkpt>
      <trkpt lat="43.76059" lon="4.05604">
        <ele>30</ele>
        <time>2020-11-04T17:39:20Z</time>
      </trkpt>
      <trkpt lat="43.76064" lon="4.05608">
        <ele>30</ele>
        <time>2020-11-04T17:39:21Z</time>
      </trkpt>
      <trkpt lat="43.76068" lon="4.05612">
        <ele>30</ele>
        <time>2020-11-04T17:39:22Z</time>
      </trkpt>
      <trkpt lat="43.76078" lon="4.05621">
        <ele>30</ele>
        <time>2020-11-04T17:39:24Z</time>
      </trkpt>
      <trkpt lat="43.76097" lon="4.05637">
        <ele>30</ele>
        <time>2020-11-04T17:39:28Z</time>
      </trkpt>
      <trkpt lat="43.76102" lon="4.0564">
        <ele>30</ele>
        <time>2020-11-04T17:39:29Z</time>
      </trkpt>
      <trkpt lat="43.76107" lon="4.05643">
        <ele>31</ele>
        <time>2020-11-04T17:39:30Z</time>
      </trkpt>
      <trkpt lat="43.76111" lon="4.05645">
        <ele>31</ele>
        <time>2020-11-04T17:39:31Z</time>
      </trkpt>
      <trkpt lat="43.76122" lon="4.05651">
        <ele>31</ele>
        <time>2020-11-04T17:39:34Z</time>
      </trkpt>
      <trkpt lat="43.76127" lon="4.05654">
        <ele>31</ele>
        <time>2020-11-04T17:39:35Z</time>
      </trkpt>
      <trkpt lat="43.76141" lon="4.05658">
        <ele>31</ele>
        <time>2020-11-04T17:39:38Z</time>
      </trkpt>
      <trkpt lat="43.76145" lon="4.0566">
        <ele>31</ele>
        <time>2020-11-04T17:39:39Z</time>
      </trkpt>
      <trkpt lat="43.76151" lon="4.05662">
        <ele>31</ele>
        <time>2020-11-04T17:39:40Z</time>
      </trkpt>
      <trkpt lat="43.76162" lon="4.05664">
        <ele>31</ele>
        <time>2020-11-04T17:39:42Z</time>
      </trkpt>
      <trkpt lat="43.76177" lon="4.05665">
        <ele>31</ele>
        <time>2020-11-04T17:39:45Z</time>
      </trkpt>
      <trkpt lat="43.76198" lon="4.05668">
        <ele>31</ele>
        <time>2020-11-04T17:39:49Z</time>
      </trkpt>
      <trkpt lat="43.76212" lon="4.05669">
        <ele>31</ele>
        <time>2020-11-04T17:39:52Z</time>
      </trkpt>
      <trkpt lat="43.76216" lon="4.05668">
        <ele>31</ele>
        <time>2020-11-04T17:39:53Z</time>
      </trkpt>
      <trkpt lat="43.7622" lon="4.05666">
        <ele>31</ele>
        <time>2020-11-04T17:39:54Z</time>
      </trkpt>
      <trkpt lat="43.76228" lon="4.05661">
        <ele>31</ele>
        <time>2020-11-04T17:39:56Z</time>
      </trkpt>
      <trkpt lat="43.76232" lon="4.05658">
        <ele>31</ele>
        <time>2020-11-04T17:39:57Z</time>
      </trkpt>
      <trkpt lat="43.76237" lon="4.05656">
        <ele>31</ele>
        <time>2020-11-04T17:39:58Z</time>
      </trkpt>
      <trkpt lat="43.76241" lon="4.05653">
        <ele>31</ele>
        <time>2020-11-04T17:39:59Z</time>
      </trkpt>
      <trkpt lat="43.76249" lon="4.05649">
        <ele>31</ele>
        <time>2020-11-04T17:40:01Z</time>
      </trkpt>
      <trkpt lat="43.76254" lon="4.05646">
        <ele>31</ele>
        <time>2020-11-04T17:40:02Z</time>
      </trkpt>
      <trkpt lat="43.76275" lon="4.05633">
        <ele>32</ele>
        <time>2020-11-04T17:40:07Z</time>
      </trkpt>
      <trkpt lat="43.76282" lon="4.0563">
        <ele>32</ele>
        <time>2020-11-04T17:40:09Z</time>
      </trkpt>
      <trkpt lat="43.76286" lon="4.05628">
        <ele>33</ele>
        <time>2020-11-04T17:40:10Z</time>
      </trkpt>
      <trkpt lat="43.76289" lon="4.05626">
        <ele>33</ele>
        <time>2020-11-04T17:40:11Z</time>
      </trkpt>
      <trkpt lat="43.76297" lon="4.05624">
        <ele>33</ele>
        <time>2020-11-04T17:40:13Z</time>
      </trkpt>
      <trkpt lat="43.763" lon="4.05623">
        <ele>34</ele>
        <time>2020-11-04T17:40:14Z</time>
      </trkpt>
      <trkpt lat="43.76304" lon="4.05621">
        <ele>34</ele>
        <time>2020-11-04T17:40:15Z</time>
      </trkpt>
      <trkpt lat="43.7631" lon="4.05619">
        <ele>34</ele>
        <time>2020-11-04T17:40:17Z</time>
      </trkpt>
      <trkpt lat="43.76317" lon="4.05616">
        <ele>34</ele>
        <time>2020-11-04T17:40:20Z</time>
      </trkpt>
      <trkpt lat="43.76319" lon="4.05615">
        <ele>35</ele>
        <time>2020-11-04T17:40:21Z</time>
      </trkpt>
      <trkpt lat="43.76322" lon="4.05614">
        <ele>35</ele>
        <time>2020-11-04T17:40:22Z</time>
      </trkpt>
      <trkpt lat="43.76324" lon="4.05613">
        <ele>35</ele>
        <time>2020-11-04T17:40:23Z</time>
      </trkpt>
      <trkpt lat="43.76327" lon="4.05611">
        <ele>35</ele>
        <time>2020-11-04T17:40:24Z</time>
      </trkpt>
      <trkpt lat="43.76331" lon="4.0561">
        <ele>35</ele>
        <time>2020-11-04T17:40:25Z</time>
      </trkpt>
      <trkpt lat="43.76334" lon="4.05609">
        <ele>35</ele>
        <time>2020-11-04T17:40:26Z</time>
      </trkpt>
      <trkpt lat="43.76343" lon="4.05603">
        <ele>35</ele>
        <time>2020-11-04T17:40:29Z</time>
      </trkpt>
      <trkpt lat="43.76345" lon="4.05601">
        <ele>35</ele>
        <time>2020-11-04T17:40:30Z</time>
      </trkpt>
      <trkpt lat="43.76347" lon="4.056">
        <ele>36</ele>
        <time>2020-11-04T17:40:31Z</time>
      </trkpt>
      <trkpt lat="43.76352" lon="4.05596">
        <ele>36</ele>
        <time>2020-11-04T17:40:33Z</time>
      </trkpt>
      <trkpt lat="43.76355" lon="4.05593">
        <ele>36</ele>
        <time>2020-11-04T17:40:35Z</time>
      </trkpt>
      <trkpt lat="43.7636" lon="4.0559">
        <ele>36</ele>
        <time>2020-11-04T17:40:40Z</time>
      </trkpt>
      <trkpt lat="43.76361" lon="4.05583">
        <ele>37</ele>
        <time>2020-11-04T17:40:44Z</time>
      </trkpt>
      <trkpt lat="43.7636" lon="4.05579">
        <ele>37</ele>
        <time>2020-11-04T17:40:45Z</time>
      </trkpt>
      <trkpt lat="43.76359" lon="4.05575">
        <ele>37</ele>
        <time>2020-11-04T17:40:46Z</time>
      </trkpt>
      <trkpt lat="43.76359" lon="4.0557">
        <ele>37</ele>
        <time>2020-11-04T17:40:47Z</time>
      </trkpt>
      <trkpt lat="43.76358" lon="4.05565">
        <ele>37</ele>
        <time>2020-11-04T17:40:48Z</time>
      </trkpt>
      <trkpt lat="43.76358" lon="4.0556">
        <ele>38</ele>
        <time>2020-11-04T17:40:49Z</time>
      </trkpt>
      <trkpt lat="43.76357" lon="4.05554">
        <ele>38</ele>
        <time>2020-11-04T17:40:50Z</time>
      </trkpt>
      <trkpt lat="43.76355" lon="4.05549">
        <ele>38</ele>
        <time>2020-11-04T17:40:51Z</time>
      </trkpt>
      <trkpt lat="43.76354" lon="4.05543">
        <ele>38</ele>
        <time>2020-11-04T17:40:52Z</time>
      </trkpt>
      <trkpt lat="43.76352" lon="4.05537">
        <ele>38</ele>
        <time>2020-11-04T17:40:53Z</time>
      </trkpt>
      <trkpt lat="43.76351" lon="4.05514">
        <ele>38</ele>
        <time>2020-11-04T17:40:57Z</time>
      </trkpt>
      <trkpt lat="43.76353" lon="4.05509">
        <ele>38</ele>
        <time>2020-11-04T17:40:58Z</time>
      </trkpt>
      <trkpt lat="43.76355" lon="4.05504">
        <ele>39</ele>
        <time>2020-11-04T17:40:59Z</time>
      </trkpt>
      <trkpt lat="43.76357" lon="4.05499">
        <ele>39</ele>
        <time>2020-11-04T17:41:00Z</time>
      </trkpt>
      <trkpt lat="43.7636" lon="4.05495">
        <ele>39</ele>
        <time>2020-11-04T17:41:01Z</time>
      </trkpt>
      <trkpt lat="43.76364" lon="4.0549">
        <ele>39</ele>
        <time>2020-11-04T17:41:02Z</time>
      </trkpt>
      <trkpt lat="43.76368" lon="4.05484">
        <ele>39</ele>
        <time>2020-11-04T17:41:03Z</time>
      </trkpt>
      <trkpt lat="43.7637" lon="4.05477">
        <ele>38</ele>
        <time>2020-11-04T17:41:04Z</time>
      </trkpt>
      <trkpt lat="43.76371" lon="4.05469">
        <ele>38</ele>
        <time>2020-11-04T17:41:05Z</time>
      </trkpt>
      <trkpt lat="43.7637" lon="4.05452">
        <ele>38</ele>
        <time>2020-11-04T17:41:07Z</time>
      </trkpt>
      <trkpt lat="43.7637" lon="4.05444">
        <ele>38</ele>
        <time>2020-11-04T17:41:08Z</time>
      </trkpt>
      <trkpt lat="43.7637" lon="4.05435">
        <ele>38</ele>
        <time>2020-11-04T17:41:09Z</time>
      </trkpt>
      <trkpt lat="43.7637" lon="4.05426">
        <ele>37</ele>
        <time>2020-11-04T17:41:10Z</time>
      </trkpt>
      <trkpt lat="43.76372" lon="4.05412">
        <ele>37</ele>
        <time>2020-11-04T17:41:12Z</time>
      </trkpt>
      <trkpt lat="43.76372" lon="4.05406">
        <ele>37</ele>
        <time>2020-11-04T17:41:13Z</time>
      </trkpt>
      <trkpt lat="43.76371" lon="4.05392">
        <ele>36</ele>
        <time>2020-11-04T17:41:15Z</time>
      </trkpt>
      <trkpt lat="43.76369" lon="4.05384">
        <ele>36</ele>
        <time>2020-11-04T17:41:16Z</time>
      </trkpt>
      <trkpt lat="43.76363" lon="4.0537">
        <ele>36</ele>
        <time>2020-11-04T17:41:18Z</time>
      </trkpt>
      <trkpt lat="43.76348" lon="4.05324">
        <ele>35</ele>
        <time>2020-11-04T17:41:25Z</time>
      </trkpt>
      <trkpt lat="43.76349" lon="4.05317">
        <ele>35</ele>
        <time>2020-11-04T17:41:26Z</time>
      </trkpt>
      <trkpt lat="43.76352" lon="4.05303">
        <ele>35</ele>
        <time>2020-11-04T17:41:28Z</time>
      </trkpt>
      <trkpt lat="43.76357" lon="4.05254">
        <ele>35</ele>
        <time>2020-11-04T17:41:35Z</time>
      </trkpt>
      <trkpt lat="43.76354" lon="4.05241">
        <ele>36</ele>
        <time>2020-11-04T17:41:37Z</time>
      </trkpt>
      <trkpt lat="43.76351" lon="4.05229">
        <ele>36</ele>
        <time>2020-11-04T17:41:39Z</time>
      </trkpt>
      <trkpt lat="43.7635" lon="4.05224">
        <ele>36</ele>
        <time>2020-11-04T17:41:40Z</time>
      </trkpt>
      <trkpt lat="43.76348" lon="4.05218">
        <ele>37</ele>
        <time>2020-11-04T17:41:41Z</time>
      </trkpt>
      <trkpt lat="43.76347" lon="4.05213">
        <ele>37</ele>
        <time>2020-11-04T17:41:42Z</time>
      </trkpt>
      <trkpt lat="43.76343" lon="4.05202">
        <ele>37</ele>
        <time>2020-11-04T17:41:44Z</time>
      </trkpt>
      <trkpt lat="43.76341" lon="4.05197">
        <ele>37</ele>
        <time>2020-11-04T17:41:45Z</time>
      </trkpt>
      <trkpt lat="43.7634" lon="4.05192">
        <ele>38</ele>
        <time>2020-11-04T17:41:46Z</time>
      </trkpt>
      <trkpt lat="43.76338" lon="4.05188">
        <ele>38</ele>
        <time>2020-11-04T17:41:47Z</time>
      </trkpt>
      <trkpt lat="43.76324" lon="4.0517">
        <ele>39</ele>
        <time>2020-11-04T17:41:52Z</time>
      </trkpt>
      <trkpt lat="43.76321" lon="4.05165">
        <ele>39</ele>
        <time>2020-11-04T17:41:53Z</time>
      </trkpt>
      <trkpt lat="43.76317" lon="4.05157">
        <ele>40</ele>
        <time>2020-11-04T17:41:55Z</time>
      </trkpt>
      <trkpt lat="43.76314" lon="4.05153">
        <ele>40</ele>
        <time>2020-11-04T17:41:56Z</time>
      </trkpt>
      <trkpt lat="43.7631" lon="4.05149">
        <ele>40</ele>
        <time>2020-11-04T17:41:57Z</time>
      </trkpt>
      <trkpt lat="43.76307" lon="4.05145">
        <ele>41</ele>
        <time>2020-11-04T17:41:58Z</time>
      </trkpt>
      <trkpt lat="43.76304" lon="4.05141">
        <ele>41</ele>
        <time>2020-11-04T17:41:59Z</time>
      </trkpt>
      <trkpt lat="43.76297" lon="4.05133">
        <ele>41</ele>
        <time>2020-11-04T17:42:01Z</time>
      </trkpt>
      <trkpt lat="43.76294" lon="4.05129">
        <ele>41</ele>
        <time>2020-11-04T17:42:02Z</time>
      </trkpt>
      <trkpt lat="43.76291" lon="4.05124">
        <ele>41</ele>
        <time>2020-11-04T17:42:03Z</time>
      </trkpt>
      <trkpt lat="43.76284" lon="4.05115">
        <ele>42</ele>
        <time>2020-11-04T17:42:05Z</time>
      </trkpt>
      <trkpt lat="43.76274" lon="4.05104">
        <ele>42</ele>
        <time>2020-11-04T17:42:08Z</time>
      </trkpt>
      <trkpt lat="43.76272" lon="4.05098">
        <ele>42</ele>
        <time>2020-11-04T17:42:09Z</time>
      </trkpt>
      <trkpt lat="43.76269" lon="4.05092">
        <ele>42</ele>
        <time>2020-11-04T17:42:10Z</time>
      </trkpt>
      <trkpt lat="43.76266" lon="4.05086">
        <ele>42</ele>
        <time>2020-11-04T17:42:11Z</time>
      </trkpt>
      <trkpt lat="43.76257" lon="4.05067">
        <ele>43</ele>
        <time>2020-11-04T17:42:14Z</time>
      </trkpt>
      <trkpt lat="43.76251" lon="4.05055">
        <ele>43</ele>
        <time>2020-11-04T17:42:16Z</time>
      </trkpt>
      <trkpt lat="43.76216" lon="4.04994">
        <ele>42</ele>
        <time>2020-11-04T17:42:26Z</time>
      </trkpt>
      <trkpt lat="43.7621" lon="4.04982">
        <ele>42</ele>
        <time>2020-11-04T17:42:28Z</time>
      </trkpt>
      <trkpt lat="43.76207" lon="4.04976">
        <ele>42</ele>
        <time>2020-11-04T17:42:29Z</time>
      </trkpt>
      <trkpt lat="43.76204" lon="4.0497">
        <ele>42</ele>
        <time>2020-11-04T17:42:30Z</time>
      </trkpt>
      <trkpt lat="43.762" lon="4.04963">
        <ele>42</ele>
        <time>2020-11-04T17:42:31Z</time>
      </trkpt>
      <trkpt lat="43.76197" lon="4.04956">
        <ele>42</ele>
        <time>2020-11-04T17:42:32Z</time>
      </trkpt>
      <trkpt lat="43.76188" lon="4.0494">
        <ele>41</ele>
        <time>2020-11-04T17:42:34Z</time>
      </trkpt>
      <trkpt lat="43.76185" lon="4.04932">
        <ele>41</ele>
        <time>2020-11-04T17:42:35Z</time>
      </trkpt>
      <trkpt lat="43.76171" lon="4.04899">
        <ele>41</ele>
        <time>2020-11-04T17:42:39Z</time>
      </trkpt>
      <trkpt lat="43.76164" lon="4.04882">
        <ele>41</ele>
        <time>2020-11-04T17:42:41Z</time>
      </trkpt>
      <trkpt lat="43.7616" lon="4.04873">
        <ele>41</ele>
        <time>2020-11-04T17:42:42Z</time>
      </trkpt>
      <trkpt lat="43.7615" lon="4.04845">
        <ele>40</ele>
        <time>2020-11-04T17:42:45Z</time>
      </trkpt>
      <trkpt lat="43.76146" lon="4.04836">
        <ele>40</ele>
        <time>2020-11-04T17:42:46Z</time>
      </trkpt>
      <trkpt lat="43.76142" lon="4.04826">
        <ele>40</ele>
        <time>2020-11-04T17:42:47Z</time>
      </trkpt>
      <trkpt lat="43.76137" lon="4.04817">
        <ele>39</ele>
        <time>2020-11-04T17:42:48Z</time>
      </trkpt>
      <trkpt lat="43.76133" lon="4.04807">
        <ele>39</ele>
        <time>2020-11-04T17:42:49Z</time>
      </trkpt>
      <trkpt lat="43.76128" lon="4.04797">
        <ele>39</ele>
        <time>2020-11-04T17:42:50Z</time>
      </trkpt>
      <trkpt lat="43.76124" lon="4.04787">
        <ele>38</ele>
        <time>2020-11-04T17:42:51Z</time>
      </trkpt>
      <trkpt lat="43.76114" lon="4.04767">
        <ele>38</ele>
        <time>2020-11-04T17:42:53Z</time>
      </trkpt>
      <trkpt lat="43.7611" lon="4.04757">
        <ele>38</ele>
        <time>2020-11-04T17:42:54Z</time>
      </trkpt>
      <trkpt lat="43.76106" lon="4.04747">
        <ele>38</ele>
        <time>2020-11-04T17:42:55Z</time>
      </trkpt>
      <trkpt lat="43.76092" lon="4.04704">
        <ele>37</ele>
        <time>2020-11-04T17:42:59Z</time>
      </trkpt>
      <trkpt lat="43.76088" lon="4.04684">
        <ele>37</ele>
        <time>2020-11-04T17:43:01Z</time>
      </trkpt>
      <trkpt lat="43.76079" lon="4.04646">
        <ele>36</ele>
        <time>2020-11-04T17:43:05Z</time>
      </trkpt>
      <trkpt lat="43.76078" lon="4.04637">
        <ele>36</ele>
        <time>2020-11-04T17:43:06Z</time>
      </trkpt>
      <trkpt lat="43.76076" lon="4.04628">
        <ele>36</ele>
        <time>2020-11-04T17:43:07Z</time>
      </trkpt>
      <trkpt lat="43.76074" lon="4.04618">
        <ele>35</ele>
        <time>2020-11-04T17:43:08Z</time>
      </trkpt>
      <trkpt lat="43.76069" lon="4.04598">
        <ele>35</ele>
        <time>2020-11-04T17:43:10Z</time>
      </trkpt>
      <trkpt lat="43.76056" lon="4.04549">
        <ele>34</ele>
        <time>2020-11-04T17:43:15Z</time>
      </trkpt>
      <trkpt lat="43.76053" lon="4.04541">
        <ele>34</ele>
        <time>2020-11-04T17:43:16Z</time>
      </trkpt>
      <trkpt lat="43.76051" lon="4.04534">
        <ele>34</ele>
        <time>2020-11-04T17:43:17Z</time>
      </trkpt>
      <trkpt lat="43.7605" lon="4.04526">
        <ele>34</ele>
        <time>2020-11-04T17:43:18Z</time>
      </trkpt>
      <trkpt lat="43.7605" lon="4.04518">
        <ele>34</ele>
        <time>2020-11-04T17:43:19Z</time>
      </trkpt>
      <trkpt lat="43.76051" lon="4.0451">
        <ele>34</ele>
        <time>2020-11-04T17:43:20Z</time>
      </trkpt>
      <trkpt lat="43.76055" lon="4.04497">
        <ele>33</ele>
        <time>2020-11-04T17:43:22Z</time>
      </trkpt>
      <trkpt lat="43.76063" lon="4.04489">
        <ele>33</ele>
        <time>2020-11-04T17:43:24Z</time>
      </trkpt>
      <trkpt lat="43.76072" lon="4.04479">
        <ele>32</ele>
        <time>2020-11-04T17:43:27Z</time>
      </trkpt>
      <trkpt lat="43.76076" lon="4.04477">
        <ele>32</ele>
        <time>2020-11-04T17:43:28Z</time>
      </trkpt>
      <trkpt lat="43.7608" lon="4.04476">
        <ele>32</ele>
        <time>2020-11-04T17:43:29Z</time>
      </trkpt>
      <trkpt lat="43.76085" lon="4.04475">
        <ele>31</ele>
        <time>2020-11-04T17:43:30Z</time>
      </trkpt>
      <trkpt lat="43.7609" lon="4.04473">
        <ele>31</ele>
        <time>2020-11-04T17:43:31Z</time>
      </trkpt>
      <trkpt lat="43.76094" lon="4.04472">
        <ele>31</ele>
        <time>2020-11-04T17:43:32Z</time>
      </trkpt>
      <trkpt lat="43.76103" lon="4.04468">
        <ele>30</ele>
        <time>2020-11-04T17:43:34Z</time>
      </trkpt>
      <trkpt lat="43.76107" lon="4.04468">
        <ele>30</ele>
        <time>2020-11-04T17:43:35Z</time>
      </trkpt>
      <trkpt lat="43.76111" lon="4.04466">
        <ele>30</ele>
        <time>2020-11-04T17:43:36Z</time>
      </trkpt>
      <trkpt lat="43.76113" lon="4.04465">
        <ele>29</ele>
        <time>2020-11-04T17:43:37Z</time>
      </trkpt>
      <trkpt lat="43.76114" lon="4.04465">
        <ele>29</ele>
        <time>2020-11-04T17:43:38Z</time>
      </trkpt>
      <trkpt lat="43.76122" lon="4.04446">
        <ele>27</ele>
        <time>2020-11-04T17:43:44Z</time>
      </trkpt>
      <trkpt lat="43.76122" lon="4.04446">
        <ele>27</ele>
        <time>2020-11-04T17:43:45Z</time>
      </trkpt>
      <trkpt lat="43.76124" lon="4.04442">
        <ele>27</ele>
        <time>2020-11-04T17:43:46Z</time>
      </trkpt>
      <trkpt lat="43.76128" lon="4.04422">
        <ele>27</ele>
        <time>2020-11-04T17:43:51Z</time>
      </trkpt>
      <trkpt lat="43.7613" lon="4.04418">
        <ele>26</ele>
        <time>2020-11-04T17:43:52Z</time>
      </trkpt>
      <trkpt lat="43.76132" lon="4.04414">
        <ele>26</ele>
        <time>2020-11-04T17:43:53Z</time>
      </trkpt>
      <trkpt lat="43.76134" lon="4.04408">
        <ele>26</ele>
        <time>2020-11-04T17:43:54Z</time>
      </trkpt>
      <trkpt lat="43.76136" lon="4.04403">
        <ele>26</ele>
        <time>2020-11-04T17:43:55Z</time>
      </trkpt>
      <trkpt lat="43.76138" lon="4.04398">
        <ele>26</ele>
        <time>2020-11-04T17:43:56Z</time>
      </trkpt>
      <trkpt lat="43.76145" lon="4.04389">
        <ele>26</ele>
        <time>2020-11-04T17:43:58Z</time>
      </trkpt>
      <trkpt lat="43.76147" lon="4.04384">
        <ele>26</ele>
        <time>2020-11-04T17:43:59Z</time>
      </trkpt>
      <trkpt lat="43.76151" lon="4.04373">
        <ele>25</ele>
        <time>2020-11-04T17:44:01Z</time>
      </trkpt>
      <trkpt lat="43.76153" lon="4.04369">
        <ele>25</ele>
        <time>2020-11-04T17:44:02Z</time>
      </trkpt>
      <trkpt lat="43.76155" lon="4.04364">
        <ele>25</ele>
        <time>2020-11-04T17:44:03Z</time>
      </trkpt>
      <trkpt lat="43.7616" lon="4.04353">
        <ele>25</ele>
        <time>2020-11-04T17:44:05Z</time>
      </trkpt>
      <trkpt lat="43.76161" lon="4.04347">
        <ele>25</ele>
        <time>2020-11-04T17:44:06Z</time>
      </trkpt>
      <trkpt lat="43.76159" lon="4.04336">
        <ele>24</ele>
        <time>2020-11-04T17:44:08Z</time>
      </trkpt>
      <trkpt lat="43.76155" lon="4.04327">
        <ele>24</ele>
        <time>2020-11-04T17:44:10Z</time>
      </trkpt>
      <trkpt lat="43.76152" lon="4.04322">
        <ele>24</ele>
        <time>2020-11-04T17:44:11Z</time>
      </trkpt>
      <trkpt lat="43.7615" lon="4.04318">
        <ele>24</ele>
        <time>2020-11-04T17:44:12Z</time>
      </trkpt>
      <trkpt lat="43.76148" lon="4.04314">
        <ele>24</ele>
        <time>2020-11-04T17:44:13Z</time>
      </trkpt>
      <trkpt lat="43.76136" lon="4.04303">
        <ele>24</ele>
        <time>2020-11-04T17:44:16Z</time>
      </trkpt>
      <trkpt lat="43.76123" lon="4.04294">
        <ele>24</ele>
        <time>2020-11-04T17:44:20Z</time>
      </trkpt>
      <trkpt lat="43.76121" lon="4.04291">
        <ele>24</ele>
        <time>2020-11-04T17:44:21Z</time>
      </trkpt>
      <trkpt lat="43.76118" lon="4.04288">
        <ele>24</ele>
        <time>2020-11-04T17:44:24Z</time>
      </trkpt>
      <trkpt lat="43.76117" lon="4.04288">
        <ele>23</ele>
        <time>2020-11-04T17:44:25Z</time>
      </trkpt>
      <trkpt lat="43.76111" lon="4.04272">
        <ele>23</ele>
        <time>2020-11-04T17:46:37Z</time>
      </trkpt>
      <trkpt lat="43.76111" lon="4.04272">
        <ele>23</ele>
        <time>2020-11-04T17:46:38Z</time>
      </trkpt>
      <trkpt lat="43.76111" lon="4.04272">
        <ele>23</ele>
        <time>2020-11-04T17:46:39Z</time>
      </trkpt>
      <trkpt lat="43.76114" lon="4.04272">
        <ele>23</ele>
        <time>2020-11-04T17:46:42Z</time>
      </trkpt>
      <trkpt lat="43.76114" lon="4.04271">
        <ele>23</ele>
        <time>2020-11-04T17:46:43Z</time>
      </trkpt>
      <trkpt lat="43.76115" lon="4.04271">
        <ele>23</ele>
        <time>2020-11-04T17:46:44Z</time>
      </trkpt>
      <trkpt lat="43.76116" lon="4.0427">
        <ele>23</ele>
        <time>2020-11-04T17:46:45Z</time>
      </trkpt>
      <trkpt lat="43.76117" lon="4.04269">
        <ele>23</ele>
        <time>2020-11-04T17:46:47Z</time>
      </trkpt>
      <trkpt lat="43.76118" lon="4.04269">
        <ele>23</ele>
        <time>2020-11-04T17:46:48Z</time>
      </trkpt>
      <trkpt lat="43.76119" lon="4.04268">
        <ele>24</ele>
        <time>2020-11-04T17:46:49Z</time>
      </trkpt>
      <trkpt lat="43.7612" lon="4.04267">
        <ele>24</ele>
        <time>2020-11-04T17:46:50Z</time>
      </trkpt>
      <trkpt lat="43.76122" lon="4.04266">
        <ele>24</ele>
        <time>2020-11-04T17:46:51Z</time>
      </trkpt>
      <trkpt lat="43.76124" lon="4.04261">
        <ele>24</ele>
        <time>2020-11-04T17:46:53Z</time>
      </trkpt>
      <trkpt lat="43.76124" lon="4.04259">
        <ele>24</ele>
        <time>2020-11-04T17:46:54Z</time>
      </trkpt>
      <trkpt lat="43.76123" lon="4.04256">
        <ele>24</ele>
        <time>2020-11-04T17:46:55Z</time>
      </trkpt>
      <trkpt lat="43.76119" lon="4.0425">
        <ele>24</ele>
        <time>2020-11-04T17:46:57Z</time>
      </trkpt>
      <trkpt lat="43.76117" lon="4.04246">
        <ele>24</ele>
        <time>2020-11-04T17:46:58Z</time>
      </trkpt>
      <trkpt lat="43.76116" lon="4.04243">
        <ele>24</ele>
        <time>2020-11-04T17:46:59Z</time>
      </trkpt>
      <trkpt lat="43.76115" lon="4.04239">
        <ele>24</ele>
        <time>2020-11-04T17:47:00Z</time>
      </trkpt>
      <trkpt lat="43.76115" lon="4.04232">
        <ele>24</ele>
        <time>2020-11-04T17:47:02Z</time>
      </trkpt>
      <trkpt lat="43.76117" lon="4.04228">
        <ele>24</ele>
        <time>2020-11-04T17:47:04Z</time>
      </trkpt>
      <trkpt lat="43.76118" lon="4.04227">
        <ele>24</ele>
        <time>2020-11-04T17:47:05Z</time>
      </trkpt>
      <trkpt lat="43.76121" lon="4.04223">
        <ele>25</ele>
        <time>2020-11-04T17:47:07Z</time>
      </trkpt>
      <trkpt lat="43.76123" lon="4.04222">
        <ele>25</ele>
        <time>2020-11-04T17:47:08Z</time>
      </trkpt>
      <trkpt lat="43.76125" lon="4.0422">
        <ele>25</ele>
        <time>2020-11-04T17:47:09Z</time>
      </trkpt>
      <trkpt lat="43.76127" lon="4.04218">
        <ele>25</ele>
        <time>2020-11-04T17:47:10Z</time>
      </trkpt>
      <trkpt lat="43.76132" lon="4.0421">
        <ele>26</ele>
        <time>2020-11-04T17:47:13Z</time>
      </trkpt>
      <trkpt lat="43.76132" lon="4.04208">
        <ele>26</ele>
        <time>2020-11-04T17:47:14Z</time>
      </trkpt>
      <trkpt lat="43.76135" lon="4.04202">
        <ele>27</ele>
        <time>2020-11-04T17:47:18Z</time>
      </trkpt>
      <trkpt lat="43.76135" lon="4.04199">
        <ele>27</ele>
        <time>2020-11-04T17:47:19Z</time>
      </trkpt>
      <trkpt lat="43.76137" lon="4.04196">
        <ele>27</ele>
        <time>2020-11-04T17:47:21Z</time>
      </trkpt>
      <trkpt lat="43.76143" lon="4.04195">
        <ele>28</ele>
        <time>2020-11-04T17:47:23Z</time>
      </trkpt>
      <trkpt lat="43.76147" lon="4.04195">
        <ele>30</ele>
        <time>2020-11-04T17:47:35Z</time>
      </trkpt>
      <trkpt lat="43.7615" lon="4.04196">
        <ele>30</ele>
        <time>2020-11-04T17:47:36Z</time>
      </trkpt>
      <trkpt lat="43.76154" lon="4.04196">
        <ele>30</ele>
        <time>2020-11-04T17:47:37Z</time>
      </trkpt>
      <trkpt lat="43.76157" lon="4.04197">
        <ele>30</ele>
        <time>2020-11-04T17:47:56Z</time>
      </trkpt>
      <trkpt lat="43.76161" lon="4.04197">
        <ele>30</ele>
        <time>2020-11-04T17:47:57Z</time>
      </trkpt>
      <trkpt lat="43.76164" lon="4.04198">
        <ele>31</ele>
        <time>2020-11-04T17:47:58Z</time>
      </trkpt>
      <trkpt lat="43.76177" lon="4.04193">
        <ele>31</ele>
        <time>2020-11-04T17:48:03Z</time>
      </trkpt>
      <trkpt lat="43.76178" lon="4.04192">
        <ele>31</ele>
        <time>2020-11-04T17:48:04Z</time>
      </trkpt>
      <trkpt lat="43.76178" lon="4.04191">
        <ele>31</ele>
        <time>2020-11-04T17:48:05Z</time>
      </trkpt>
      <trkpt lat="43.76178" lon="4.0419">
        <ele>31</ele>
        <time>2020-11-04T17:48:06Z</time>
      </trkpt>
      <trkpt lat="43.76178" lon="4.04188">
        <ele>31</ele>
        <time>2020-11-04T17:48:07Z</time>
      </trkpt>
      <trkpt lat="43.76179" lon="4.04184">
        <ele>31</ele>
        <time>2020-11-04T17:48:08Z</time>
      </trkpt>
      <trkpt lat="43.7618" lon="4.04183">
        <ele>31</ele>
        <time>2020-11-04T17:48:09Z</time>
      </trkpt>
      <trkpt lat="43.76181" lon="4.04181">
        <ele>31</ele>
        <time>2020-11-04T17:48:10Z</time>
      </trkpt>
      <trkpt lat="43.76181" lon="4.0418">
        <ele>31</ele>
        <time>2020-11-04T17:48:11Z</time>
      </trkpt>
      <trkpt lat="43.76182" lon="4.04179">
        <ele>31</ele>
        <time>2020-11-04T17:48:12Z</time>
      </trkpt>
      <trkpt lat="43.76183" lon="4.04177">
        <ele>32</ele>
        <time>2020-11-04T17:48:13Z</time>
      </trkpt>
      <trkpt lat="43.76184" lon="4.04176">
        <ele>32</ele>
        <time>2020-11-04T17:48:16Z</time>
      </trkpt>
      <trkpt lat="43.76185" lon="4.04174">
        <ele>32</ele>
        <time>2020-11-04T17:48:17Z</time>
      </trkpt>
      <trkpt lat="43.76186" lon="4.04173">
        <ele>32</ele>
        <time>2020-11-04T17:48:18Z</time>
      </trkpt>
      <trkpt lat="43.76186" lon="4.04172">
        <ele>32</ele>
        <time>2020-11-04T17:48:19Z</time>
      </trkpt>
      <trkpt lat="43.76188" lon="4.04168">
        <ele>32</ele>
        <time>2020-11-04T17:48:20Z</time>
      </trkpt>
      <trkpt lat="43.76192" lon="4.04163">
        <ele>32</ele>
        <time>2020-11-04T17:48:22Z</time>
      </trkpt>
      <trkpt lat="43.76198" lon="4.0416">
        <ele>33</ele>
        <time>2020-11-04T17:48:25Z</time>
      </trkpt>
      <trkpt lat="43.76199" lon="4.04158">
        <ele>33</ele>
        <time>2020-11-04T17:48:26Z</time>
      </trkpt>
      <trkpt lat="43.76199" lon="4.04158">
        <ele>33</ele>
        <time>2020-11-04T17:48:27Z</time>
      </trkpt>
      <trkpt lat="43.762" lon="4.04155">
        <ele>33</ele>
        <time>2020-11-04T17:48:28Z</time>
      </trkpt>
      <trkpt lat="43.76202" lon="4.04151">
        <ele>33</ele>
        <time>2020-11-04T17:48:29Z</time>
      </trkpt>
      <trkpt lat="43.76204" lon="4.04148">
        <ele>33</ele>
        <time>2020-11-04T17:48:30Z</time>
      </trkpt>
      <trkpt lat="43.76208" lon="4.04141">
        <ele>34</ele>
        <time>2020-11-04T17:48:32Z</time>
      </trkpt>
      <trkpt lat="43.76217" lon="4.04141">
        <ele>34</ele>
        <time>2020-11-04T17:48:37Z</time>
      </trkpt>
      <trkpt lat="43.76221" lon="4.04132">
        <ele>33</ele>
        <time>2020-11-04T17:48:42Z</time>
      </trkpt>
      <trkpt lat="43.7622" lon="4.0413">
        <ele>33</ele>
        <time>2020-11-04T17:48:43Z</time>
      </trkpt>
      <trkpt lat="43.76219" lon="4.04128">
        <ele>33</ele>
        <time>2020-11-04T17:48:44Z</time>
      </trkpt>
      <trkpt lat="43.76219" lon="4.04126">
        <ele>33</ele>
        <time>2020-11-04T17:48:45Z</time>
      </trkpt>
      <trkpt lat="43.76218" lon="4.04122">
        <ele>33</ele>
        <time>2020-11-04T17:48:47Z</time>
      </trkpt>
      <trkpt lat="43.76217" lon="4.04119">
        <ele>33</ele>
        <time>2020-11-04T17:48:48Z</time>
      </trkpt>
      <trkpt lat="43.76215" lon="4.04116">
        <ele>33</ele>
        <time>2020-11-04T17:48:50Z</time>
      </trkpt>
      <trkpt lat="43.76214" lon="4.04115">
        <ele>33</ele>
        <time>2020-11-04T17:48:51Z</time>
      </trkpt>
      <trkpt lat="43.76213" lon="4.04113">
        <ele>33</ele>
        <time>2020-11-04T17:48:52Z</time>
      </trkpt>
      <trkpt lat="43.76212" lon="4.04111">
        <ele>33</ele>
        <time>2020-11-04T17:48:53Z</time>
      </trkpt>
      <trkpt lat="43.7621" lon="4.04108">
        <ele>33</ele>
        <time>2020-11-04T17:48:55Z</time>
      </trkpt>
      <trkpt lat="43.76208" lon="4.04103">
        <ele>33</ele>
        <time>2020-11-04T17:48:57Z</time>
      </trkpt>
      <trkpt lat="43.76207" lon="4.04101">
        <ele>33</ele>
        <time>2020-11-04T17:48:58Z</time>
      </trkpt>
      <trkpt lat="43.76205" lon="4.04098">
        <ele>33</ele>
        <time>2020-11-04T17:49:00Z</time>
      </trkpt>
      <trkpt lat="43.76204" lon="4.04095">
        <ele>33</ele>
        <time>2020-11-04T17:49:02Z</time>
      </trkpt>
      <trkpt lat="43.76203" lon="4.04092">
        <ele>33</ele>
        <time>2020-11-04T17:49:04Z</time>
      </trkpt>
      <trkpt lat="43.76205" lon="4.04089">
        <ele>33</ele>
        <time>2020-11-04T17:49:05Z</time>
      </trkpt>
      <trkpt lat="43.7621" lon="4.04081">
        <ele>32</ele>
        <time>2020-11-04T17:49:08Z</time>
      </trkpt>
      <trkpt lat="43.76214" lon="4.04078">
        <ele>32</ele>
        <time>2020-11-04T17:49:09Z</time>
      </trkpt>
      <trkpt lat="43.76217" lon="4.04075">
        <ele>32</ele>
        <time>2020-11-04T17:49:10Z</time>
      </trkpt>
      <trkpt lat="43.7622" lon="4.04073">
        <ele>32</ele>
        <time>2020-11-04T17:49:11Z</time>
      </trkpt>
      <trkpt lat="43.76227" lon="4.04064">
        <ele>32</ele>
        <time>2020-11-04T17:49:14Z</time>
      </trkpt>
      <trkpt lat="43.76232" lon="4.04059">
        <ele>31</ele>
        <time>2020-11-04T17:49:16Z</time>
      </trkpt>
      <trkpt lat="43.76233" lon="4.04057">
        <ele>31</ele>
        <time>2020-11-04T17:49:17Z</time>
      </trkpt>
      <trkpt lat="43.76235" lon="4.04056">
        <ele>31</ele>
        <time>2020-11-04T17:49:18Z</time>
      </trkpt>
      <trkpt lat="43.76236" lon="4.04055">
        <ele>31</ele>
        <time>2020-11-04T17:49:19Z</time>
      </trkpt>
      <trkpt lat="43.76239" lon="4.04052">
        <ele>30</ele>
        <time>2020-11-04T17:49:21Z</time>
      </trkpt>
      <trkpt lat="43.76239" lon="4.04052">
        <ele>30</ele>
        <time>2020-11-04T17:49:22Z</time>
      </trkpt>
      <trkpt lat="43.76241" lon="4.04049">
        <ele>30</ele>
        <time>2020-11-04T17:49:23Z</time>
      </trkpt>
      <trkpt lat="43.76244" lon="4.04046">
        <ele>30</ele>
        <time>2020-11-04T17:49:24Z</time>
      </trkpt>
      <trkpt lat="43.76246" lon="4.04042">
        <ele>30</ele>
        <time>2020-11-04T17:49:25Z</time>
      </trkpt>
      <trkpt lat="43.76249" lon="4.04039">
        <ele>30</ele>
        <time>2020-11-04T17:49:26Z</time>
      </trkpt>
      <trkpt lat="43.76253" lon="4.04036">
        <ele>29</ele>
        <time>2020-11-04T17:49:27Z</time>
      </trkpt>
      <trkpt lat="43.76257" lon="4.04033">
        <ele>29</ele>
        <time>2020-11-04T17:49:28Z</time>
      </trkpt>
      <trkpt lat="43.76262" lon="4.0403">
        <ele>29</ele>
        <time>2020-11-04T17:49:29Z</time>
      </trkpt>
      <trkpt lat="43.76267" lon="4.04027">
        <ele>29</ele>
        <time>2020-11-04T17:49:30Z</time>
      </trkpt>
      <trkpt lat="43.7628" lon="4.04019">
        <ele>28</ele>
        <time>2020-11-04T17:49:33Z</time>
      </trkpt>
      <trkpt lat="43.76284" lon="4.04017">
        <ele>28</ele>
        <time>2020-11-04T17:49:34Z</time>
      </trkpt>
      <trkpt lat="43.76288" lon="4.04014">
        <ele>28</ele>
        <time>2020-11-04T17:49:35Z</time>
      </trkpt>
      <trkpt lat="43.76295" lon="4.04004">
        <ele>28</ele>
        <time>2020-11-04T17:49:38Z</time>
      </trkpt>
      <trkpt lat="43.76293" lon="4.0399">
        <ele>28</ele>
        <time>2020-11-04T17:49:42Z</time>
      </trkpt>
      <trkpt lat="43.76292" lon="4.03982">
        <ele>28</ele>
        <time>2020-11-04T17:49:44Z</time>
      </trkpt>
      <trkpt lat="43.76291" lon="4.03977">
        <ele>28</ele>
        <time>2020-11-04T17:49:45Z</time>
      </trkpt>
      <trkpt lat="43.7629" lon="4.03972">
        <ele>28</ele>
        <time>2020-11-04T17:49:46Z</time>
      </trkpt>
      <trkpt lat="43.7629" lon="4.03968">
        <ele>28</ele>
        <time>2020-11-04T17:49:47Z</time>
      </trkpt>
      <trkpt lat="43.76289" lon="4.03963">
        <ele>28</ele>
        <time>2020-11-04T17:49:48Z</time>
      </trkpt>
      <trkpt lat="43.76285" lon="4.03936">
        <ele>28</ele>
        <time>2020-11-04T17:49:54Z</time>
      </trkpt>
      <trkpt lat="43.76285" lon="4.03932">
        <ele>28</ele>
        <time>2020-11-04T17:49:55Z</time>
      </trkpt>
      <trkpt lat="43.76284" lon="4.03928">
        <ele>27</ele>
        <time>2020-11-04T17:49:56Z</time>
      </trkpt>
      <trkpt lat="43.76283" lon="4.03924">
        <ele>27</ele>
        <time>2020-11-04T17:49:57Z</time>
      </trkpt>
      <trkpt lat="43.76282" lon="4.03919">
        <ele>28</ele>
        <time>2020-11-04T17:49:58Z</time>
      </trkpt>
      <trkpt lat="43.76281" lon="4.03909">
        <ele>28</ele>
        <time>2020-11-04T17:50:00Z</time>
      </trkpt>
      <trkpt lat="43.76259" lon="4.03843">
        <ele>29</ele>
        <time>2020-11-04T17:50:14Z</time>
      </trkpt>
      <trkpt lat="43.76245" lon="4.03795">
        <ele>30</ele>
        <time>2020-11-04T17:50:24Z</time>
      </trkpt>
      <trkpt lat="43.76238" lon="4.03775">
        <ele>30</ele>
        <time>2020-11-04T17:50:28Z</time>
      </trkpt>
      <trkpt lat="43.76234" lon="4.03764">
        <ele>30</ele>
        <time>2020-11-04T17:50:30Z</time>
      </trkpt>
      <trkpt lat="43.76225" lon="4.03738">
        <ele>31</ele>
        <time>2020-11-04T17:50:35Z</time>
      </trkpt>
      <trkpt lat="43.76221" lon="4.03721">
        <ele>31</ele>
        <time>2020-11-04T17:50:38Z</time>
      </trkpt>
      <trkpt lat="43.76218" lon="4.03705">
        <ele>31</ele>
        <time>2020-11-04T17:50:41Z</time>
      </trkpt>
      <trkpt lat="43.76218" lon="4.037">
        <ele>31</ele>
        <time>2020-11-04T17:50:42Z</time>
      </trkpt>
      <trkpt lat="43.76216" lon="4.03691">
        <ele>32</ele>
        <time>2020-11-04T17:50:44Z</time>
      </trkpt>
      <trkpt lat="43.76215" lon="4.03686">
        <ele>32</ele>
        <time>2020-11-04T17:50:45Z</time>
      </trkpt>
      <trkpt lat="43.76212" lon="4.03677">
        <ele>32</ele>
        <time>2020-11-04T17:50:47Z</time>
      </trkpt>
      <trkpt lat="43.76211" lon="4.03672">
        <ele>32</ele>
        <time>2020-11-04T17:50:48Z</time>
      </trkpt>
      <trkpt lat="43.76205" lon="4.03654">
        <ele>32</ele>
        <time>2020-11-04T17:50:52Z</time>
      </trkpt>
      <trkpt lat="43.76203" lon="4.03644">
        <ele>33</ele>
        <time>2020-11-04T17:50:54Z</time>
      </trkpt>
      <trkpt lat="43.76197" lon="4.03624">
        <ele>33</ele>
        <time>2020-11-04T17:50:58Z</time>
      </trkpt>
      <trkpt lat="43.76194" lon="4.03619">
        <ele>33</ele>
        <time>2020-11-04T17:50:59Z</time>
      </trkpt>
      <trkpt lat="43.76192" lon="4.03614">
        <ele>33</ele>
        <time>2020-11-04T17:51:00Z</time>
      </trkpt>
      <trkpt lat="43.7619" lon="4.03609">
        <ele>33</ele>
        <time>2020-11-04T17:51:01Z</time>
      </trkpt>
      <trkpt lat="43.76162" lon="4.03538">
        <ele>35</ele>
        <time>2020-11-04T17:51:14Z</time>
      </trkpt>
      <trkpt lat="43.76166" lon="4.03488">
        <ele>35</ele>
        <time>2020-11-04T17:51:23Z</time>
      </trkpt>
      <trkpt lat="43.76183" lon="4.03457">
        <ele>36</ele>
        <time>2020-11-04T17:51:30Z</time>
      </trkpt>
      <trkpt lat="43.76189" lon="4.03444">
        <ele>37</ele>
        <time>2020-11-04T17:51:33Z</time>
      </trkpt>
      <trkpt lat="43.76192" lon="4.03437">
        <ele>37</ele>
        <time>2020-11-04T17:51:35Z</time>
      </trkpt>
      <trkpt lat="43.76193" lon="4.03435">
        <ele>37</ele>
        <time>2020-11-04T17:51:36Z</time>
      </trkpt>
      <trkpt lat="43.76193" lon="4.03433">
        <ele>37</ele>
        <time>2020-11-04T17:51:37Z</time>
      </trkpt>
      <trkpt lat="43.76194" lon="4.03429">
        <ele>37</ele>
        <time>2020-11-04T17:51:39Z</time>
      </trkpt>
      <trkpt lat="43.76195" lon="4.03426">
        <ele>37</ele>
        <time>2020-11-04T17:51:41Z</time>
      </trkpt>
      <trkpt lat="43.76194" lon="4.03424">
        <ele>37</ele>
        <time>2020-11-04T17:51:42Z</time>
      </trkpt>
      <trkpt lat="43.76194" lon="4.03424">
        <ele>37</ele>
        <time>2020-11-04T17:51:43Z</time>
      </trkpt>
      <trkpt lat="43.76194" lon="4.03427">
        <ele>37</ele>
        <time>2020-11-04T17:51:44Z</time>
      </trkpt>
      <trkpt lat="43.76194" lon="4.03427">
        <ele>37</ele>
        <time>2020-11-04T17:51:45Z</time>
      </trkpt>
      <trkpt lat="43.76194" lon="4.03429">
        <ele>37</ele>
        <time>2020-11-04T17:51:46Z</time>
      </trkpt>
      <trkpt lat="43.76193" lon="4.03432">
        <ele>37</ele>
        <time>2020-11-04T17:51:47Z</time>
      </trkpt>
      <trkpt lat="43.76191" lon="4.03437">
        <ele>37</ele>
        <time>2020-11-04T17:51:49Z</time>
      </trkpt>
      <trkpt lat="43.76191" lon="4.0344">
        <ele>37</ele>
        <time>2020-11-04T17:51:50Z</time>
      </trkpt>
      <trkpt lat="43.7619" lon="4.03442">
        <ele>37</ele>
        <time>2020-11-04T17:51:51Z</time>
      </trkpt>
      <trkpt lat="43.76188" lon="4.03445">
        <ele>37</ele>
        <time>2020-11-04T17:51:52Z</time>
      </trkpt>
      <trkpt lat="43.76186" lon="4.03452">
        <ele>37</ele>
        <time>2020-11-04T17:51:53Z</time>
      </trkpt>
      <trkpt lat="43.76184" lon="4.03457">
        <ele>37</ele>
        <time>2020-11-04T17:52:29Z</time>
      </trkpt>
      <trkpt lat="43.76182" lon="4.03462">
        <ele>37</ele>
        <time>2020-11-04T17:52:30Z</time>
      </trkpt>
      <trkpt lat="43.7618" lon="4.03467">
        <ele>37</ele>
        <time>2020-11-04T17:52:31Z</time>
      </trkpt>
      <trkpt lat="43.76179" lon="4.0347">
        <ele>37</ele>
        <time>2020-11-04T17:52:32Z</time>
      </trkpt>
      <trkpt lat="43.76177" lon="4.03473">
        <ele>37</ele>
        <time>2020-11-04T17:52:33Z</time>
      </trkpt>
      <trkpt lat="43.76175" lon="4.03476">
        <ele>37</ele>
        <time>2020-11-04T17:52:34Z</time>
      </trkpt>
      <trkpt lat="43.76173" lon="4.03479">
        <ele>37</ele>
        <time>2020-11-04T17:52:35Z</time>
      </trkpt>
      <trkpt lat="43.76171" lon="4.03483">
        <ele>37</ele>
        <time>2020-11-04T17:52:36Z</time>
      </trkpt>
      <trkpt lat="43.76169" lon="4.03487">
        <ele>37</ele>
        <time>2020-11-04T17:52:37Z</time>
      </trkpt>
      <trkpt lat="43.76167" lon="4.03492">
        <ele>37</ele>
        <time>2020-11-04T17:52:38Z</time>
      </trkpt>
      <trkpt lat="43.76164" lon="4.03496">
        <ele>37</ele>
        <time>2020-11-04T17:52:39Z</time>
      </trkpt>
      <trkpt lat="43.76157" lon="4.03502">
        <ele>37</ele>
        <time>2020-11-04T17:52:41Z</time>
      </trkpt>
      <trkpt lat="43.76149" lon="4.03505">
        <ele>37</ele>
        <time>2020-11-04T17:52:43Z</time>
      </trkpt>
      <trkpt lat="43.76144" lon="4.03506">
        <ele>37</ele>
        <time>2020-11-04T17:52:44Z</time>
      </trkpt>
      <trkpt lat="43.7614" lon="4.03507">
        <ele>36</ele>
        <time>2020-11-04T17:52:45Z</time>
      </trkpt>
      <trkpt lat="43.76136" lon="4.03508">
        <ele>36</ele>
        <time>2020-11-04T17:52:46Z</time>
      </trkpt>
      <trkpt lat="43.76129" lon="4.03513">
        <ele>36</ele>
        <time>2020-11-04T17:52:48Z</time>
      </trkpt>
      <trkpt lat="43.76118" lon="4.0352">
        <ele>35</ele>
        <time>2020-11-04T17:52:51Z</time>
      </trkpt>
      <trkpt lat="43.76113" lon="4.03522">
        <ele>35</ele>
        <time>2020-11-04T17:52:52Z</time>
      </trkpt>
      <trkpt lat="43.76109" lon="4.03525">
        <ele>35</ele>
        <time>2020-11-04T17:52:53Z</time>
      </trkpt>
      <trkpt lat="43.76104" lon="4.03528">
        <ele>35</ele>
        <time>2020-11-04T17:52:54Z</time>
      </trkpt>
      <trkpt lat="43.76099" lon="4.03531">
        <ele>35</ele>
        <time>2020-11-04T17:52:55Z</time>
      </trkpt>
      <trkpt lat="43.7607" lon="4.03551">
        <ele>34</ele>
        <time>2020-11-04T17:53:01Z</time>
      </trkpt>
      <trkpt lat="43.76065" lon="4.03553">
        <ele>34</ele>
        <time>2020-11-04T17:53:02Z</time>
      </trkpt>
      <trkpt lat="43.76061" lon="4.03555">
        <ele>34</ele>
        <time>2020-11-04T17:53:03Z</time>
      </trkpt>
      <trkpt lat="43.76057" lon="4.03558">
        <ele>33</ele>
        <time>2020-11-04T17:53:04Z</time>
      </trkpt>
      <trkpt lat="43.76052" lon="4.03561">
        <ele>33</ele>
        <time>2020-11-04T17:53:05Z</time>
      </trkpt>
      <trkpt lat="43.76047" lon="4.03564">
        <ele>33</ele>
        <time>2020-11-04T17:53:06Z</time>
      </trkpt>
      <trkpt lat="43.76016" lon="4.03585">
        <ele>33</ele>
        <time>2020-11-04T17:53:13Z</time>
      </trkpt>
      <trkpt lat="43.76013" lon="4.03588">
        <ele>33</ele>
        <time>2020-11-04T17:53:14Z</time>
      </trkpt>
      <trkpt lat="43.7601" lon="4.03589">
        <ele>33</ele>
        <time>2020-11-04T17:53:15Z</time>
      </trkpt>
      <trkpt lat="43.76006" lon="4.0359">
        <ele>33</ele>
        <time>2020-11-04T17:53:16Z</time>
      </trkpt>
      <trkpt lat="43.75998" lon="4.03593">
        <ele>33</ele>
        <time>2020-11-04T17:53:19Z</time>
      </trkpt>
      <trkpt lat="43.75993" lon="4.03597">
        <ele>34</ele>
        <time>2020-11-04T17:53:21Z</time>
      </trkpt>
      <trkpt lat="43.75991" lon="4.03599">
        <ele>34</ele>
        <time>2020-11-04T17:53:22Z</time>
      </trkpt>
      <trkpt lat="43.75988" lon="4.03601">
        <ele>34</ele>
        <time>2020-11-04T17:53:23Z</time>
      </trkpt>
      <trkpt lat="43.75983" lon="4.03607">
        <ele>35</ele>
        <time>2020-11-04T17:53:25Z</time>
      </trkpt>
      <trkpt lat="43.75976" lon="4.03612">
        <ele>35</ele>
        <time>2020-11-04T17:53:27Z</time>
      </trkpt>
      <trkpt lat="43.75969" lon="4.03618">
        <ele>35</ele>
        <time>2020-11-04T17:53:29Z</time>
      </trkpt>
      <trkpt lat="43.75966" lon="4.0362">
        <ele>35</ele>
        <time>2020-11-04T17:53:30Z</time>
      </trkpt>
      <trkpt lat="43.75963" lon="4.03623">
        <ele>36</ele>
        <time>2020-11-04T17:53:31Z</time>
      </trkpt>
      <trkpt lat="43.75959" lon="4.03626">
        <ele>36</ele>
        <time>2020-11-04T17:53:32Z</time>
      </trkpt>
      <trkpt lat="43.75955" lon="4.03629">
        <ele>36</ele>
        <time>2020-11-04T17:53:33Z</time>
      </trkpt>
      <trkpt lat="43.75947" lon="4.03636">
        <ele>36</ele>
        <time>2020-11-04T17:53:35Z</time>
      </trkpt>
      <trkpt lat="43.75944" lon="4.03641">
        <ele>36</ele>
        <time>2020-11-04T17:53:36Z</time>
      </trkpt>
      <trkpt lat="43.7594" lon="4.03647">
        <ele>36</ele>
        <time>2020-11-04T17:53:37Z</time>
      </trkpt>
      <trkpt lat="43.75936" lon="4.03654">
        <ele>36</ele>
        <time>2020-11-04T17:53:38Z</time>
      </trkpt>
      <trkpt lat="43.75931" lon="4.0366">
        <ele>36</ele>
        <time>2020-11-04T17:53:39Z</time>
      </trkpt>
      <trkpt lat="43.75925" lon="4.03665">
        <ele>36</ele>
        <time>2020-11-04T17:53:40Z</time>
      </trkpt>
      <trkpt lat="43.75919" lon="4.03668">
        <ele>36</ele>
        <time>2020-11-04T17:53:41Z</time>
      </trkpt>
      <trkpt lat="43.75912" lon="4.03668">
        <ele>35</ele>
        <time>2020-11-04T17:53:42Z</time>
      </trkpt>
      <trkpt lat="43.75908" lon="4.03666">
        <ele>35</ele>
        <time>2020-11-04T17:53:43Z</time>
      </trkpt>
      <trkpt lat="43.75905" lon="4.03664">
        <ele>35</ele>
        <time>2020-11-04T17:53:44Z</time>
      </trkpt>
      <trkpt lat="43.75903" lon="4.03663">
        <ele>35</ele>
        <time>2020-11-04T17:53:45Z</time>
      </trkpt>
      <trkpt lat="43.759" lon="4.03662">
        <ele>34</ele>
        <time>2020-11-04T17:53:47Z</time>
      </trkpt>
      <trkpt lat="43.75899" lon="4.0366">
        <ele>34</ele>
        <time>2020-11-04T17:53:48Z</time>
      </trkpt>
      <trkpt lat="43.75897" lon="4.03658">
        <ele>34</ele>
        <time>2020-11-04T17:53:49Z</time>
      </trkpt>
      <trkpt lat="43.75896" lon="4.03654">
        <ele>34</ele>
        <time>2020-11-04T17:53:50Z</time>
      </trkpt>
      <trkpt lat="43.75896" lon="4.03643">
        <ele>34</ele>
        <time>2020-11-04T17:53:53Z</time>
      </trkpt>
      <trkpt lat="43.75898" lon="4.03635">
        <ele>34</ele>
        <time>2020-11-04T17:53:55Z</time>
      </trkpt>
      <trkpt lat="43.75898" lon="4.0363">
        <ele>34</ele>
        <time>2020-11-04T17:53:56Z</time>
      </trkpt>
      <trkpt lat="43.75899" lon="4.03626">
        <ele>34</ele>
        <time>2020-11-04T17:53:57Z</time>
      </trkpt>
      <trkpt lat="43.75899" lon="4.03617">
        <ele>34</ele>
        <time>2020-11-04T17:53:59Z</time>
      </trkpt>
      <trkpt lat="43.75899" lon="4.03612">
        <ele>34</ele>
        <time>2020-11-04T17:54:00Z</time>
      </trkpt>
      <trkpt lat="43.75899" lon="4.03607">
        <ele>34</ele>
        <time>2020-11-04T17:54:01Z</time>
      </trkpt>
      <trkpt lat="43.759" lon="4.03602">
        <ele>34</ele>
        <time>2020-11-04T17:54:02Z</time>
      </trkpt>
      <trkpt lat="43.759" lon="4.03597">
        <ele>34</ele>
        <time>2020-11-04T17:54:03Z</time>
      </trkpt>
      <trkpt lat="43.75899" lon="4.03587">
        <ele>35</ele>
        <time>2020-11-04T17:54:05Z</time>
      </trkpt>
      <trkpt lat="43.75899" lon="4.03581">
        <ele>35</ele>
        <time>2020-11-04T17:54:06Z</time>
      </trkpt>
      <trkpt lat="43.75898" lon="4.03575">
        <ele>35</ele>
        <time>2020-11-04T17:54:07Z</time>
      </trkpt>
      <trkpt lat="43.75889" lon="4.03523">
        <ele>36</ele>
        <time>2020-11-04T17:54:17Z</time>
      </trkpt>
      <trkpt lat="43.75888" lon="4.03518">
        <ele>36</ele>
        <time>2020-11-04T17:54:18Z</time>
      </trkpt>
      <trkpt lat="43.75887" lon="4.03513">
        <ele>36</ele>
        <time>2020-11-04T17:54:19Z</time>
      </trkpt>
      <trkpt lat="43.75885" lon="4.03507">
        <ele>36</ele>
        <time>2020-11-04T17:54:20Z</time>
      </trkpt>
      <trkpt lat="43.75884" lon="4.03501">
        <ele>36</ele>
        <time>2020-11-04T17:54:21Z</time>
      </trkpt>
      <trkpt lat="43.75883" lon="4.03495">
        <ele>36</ele>
        <time>2020-11-04T17:54:22Z</time>
      </trkpt>
      <trkpt lat="43.75875" lon="4.03459">
        <ele>37</ele>
        <time>2020-11-04T17:54:28Z</time>
      </trkpt>
      <trkpt lat="43.75873" lon="4.03452">
        <ele>37</ele>
        <time>2020-11-04T17:54:29Z</time>
      </trkpt>
      <trkpt lat="43.75872" lon="4.03446">
        <ele>37</ele>
        <time>2020-11-04T17:54:30Z</time>
      </trkpt>
      <trkpt lat="43.7587" lon="4.0344">
        <ele>37</ele>
        <time>2020-11-04T17:54:31Z</time>
      </trkpt>
      <trkpt lat="43.75867" lon="4.03427">
        <ele>37</ele>
        <time>2020-11-04T17:54:33Z</time>
      </trkpt>
      <trkpt lat="43.75862" lon="4.03402">
        <ele>37</ele>
        <time>2020-11-04T17:54:37Z</time>
      </trkpt>
      <trkpt lat="43.75861" lon="4.03396">
        <ele>37</ele>
        <time>2020-11-04T17:54:38Z</time>
      </trkpt>
      <trkpt lat="43.7586" lon="4.0339">
        <ele>37</ele>
        <time>2020-11-04T17:54:39Z</time>
      </trkpt>
      <trkpt lat="43.75857" lon="4.03379">
        <ele>38</ele>
        <time>2020-11-04T17:54:41Z</time>
      </trkpt>
      <trkpt lat="43.75855" lon="4.03372">
        <ele>38</ele>
        <time>2020-11-04T17:54:43Z</time>
      </trkpt>
      <trkpt lat="43.7586" lon="4.03366">
        <ele>38</ele>
        <time>2020-11-04T17:54:45Z</time>
      </trkpt>
      <trkpt lat="43.75863" lon="4.03364">
        <ele>38</ele>
        <time>2020-11-04T17:54:46Z</time>
      </trkpt>
      <trkpt lat="43.75865" lon="4.03363">
        <ele>38</ele>
        <time>2020-11-04T17:54:47Z</time>
      </trkpt>
      <trkpt lat="43.75867" lon="4.03361">
        <ele>38</ele>
        <time>2020-11-04T17:54:48Z</time>
      </trkpt>
      <trkpt lat="43.75869" lon="4.03359">
        <ele>37</ele>
        <time>2020-11-04T17:56:24Z</time>
      </trkpt>
      <trkpt lat="43.75872" lon="4.03358">
        <ele>37</ele>
        <time>2020-11-04T17:56:25Z</time>
      </trkpt>
      <trkpt lat="43.75874" lon="4.03356">
        <ele>37</ele>
        <time>2020-11-04T17:56:26Z</time>
      </trkpt>
      <trkpt lat="43.75876" lon="4.03354">
        <ele>37</ele>
        <time>2020-11-04T17:56:27Z</time>
      </trkpt>
      <trkpt lat="43.75878" lon="4.03352">
        <ele>37</ele>
        <time>2020-11-04T17:56:28Z</time>
      </trkpt>
      <trkpt lat="43.75888" lon="4.03343">
        <ele>38</ele>
        <time>2020-11-04T17:56:32Z</time>
      </trkpt>
      <trkpt lat="43.75891" lon="4.03341">
        <ele>38</ele>
        <time>2020-11-04T17:56:33Z</time>
      </trkpt>
      <trkpt lat="43.75894" lon="4.03338">
        <ele>38</ele>
        <time>2020-11-04T17:56:34Z</time>
      </trkpt>
      <trkpt lat="43.75912" lon="4.03325">
        <ele>38</ele>
        <time>2020-11-04T17:56:40Z</time>
      </trkpt>
      <trkpt lat="43.75942" lon="4.03302">
        <ele>38</ele>
        <time>2020-11-04T17:56:49Z</time>
      </trkpt>
      <trkpt lat="43.75947" lon="4.033">
        <ele>38</ele>
        <time>2020-11-04T17:56:50Z</time>
      </trkpt>
      <trkpt lat="43.75951" lon="4.03297">
        <ele>38</ele>
        <time>2020-11-04T17:56:51Z</time>
      </trkpt>
      <trkpt lat="43.75955" lon="4.03295">
        <ele>38</ele>
        <time>2020-11-04T17:56:52Z</time>
      </trkpt>
      <trkpt lat="43.7596" lon="4.03291">
        <ele>38</ele>
        <time>2020-11-04T17:56:53Z</time>
      </trkpt>
      <trkpt lat="43.75968" lon="4.03283">
        <ele>38</ele>
        <time>2020-11-04T17:56:55Z</time>
      </trkpt>
      <trkpt lat="43.75973" lon="4.03279">
        <ele>38</ele>
        <time>2020-11-04T17:56:56Z</time>
      </trkpt>
      <trkpt lat="43.75977" lon="4.03275">
        <ele>38</ele>
        <time>2020-11-04T17:56:57Z</time>
      </trkpt>
      <trkpt lat="43.75994" lon="4.03259">
        <ele>38</ele>
        <time>2020-11-04T17:57:01Z</time>
      </trkpt>
      <trkpt lat="43.75997" lon="4.03255">
        <ele>37</ele>
        <time>2020-11-04T17:57:02Z</time>
      </trkpt>
      <trkpt lat="43.76003" lon="4.03247">
        <ele>37</ele>
        <time>2020-11-04T17:57:04Z</time>
      </trkpt>
      <trkpt lat="43.76011" lon="4.03236">
        <ele>37</ele>
        <time>2020-11-04T17:57:07Z</time>
      </trkpt>
      <trkpt lat="43.76016" lon="4.03229">
        <ele>38</ele>
        <time>2020-11-04T17:57:09Z</time>
      </trkpt>
      <trkpt lat="43.7602" lon="4.03225">
        <ele>38</ele>
        <time>2020-11-04T17:57:10Z</time>
      </trkpt>
      <trkpt lat="43.76029" lon="4.03212">
        <ele>38</ele>
        <time>2020-11-04T17:57:13Z</time>
      </trkpt>
      <trkpt lat="43.76033" lon="4.03207">
        <ele>38</ele>
        <time>2020-11-04T17:57:14Z</time>
      </trkpt>
      <trkpt lat="43.76036" lon="4.03203">
        <ele>38</ele>
        <time>2020-11-04T17:57:15Z</time>
      </trkpt>
      <trkpt lat="43.76044" lon="4.03188">
        <ele>38</ele>
        <time>2020-11-04T17:57:18Z</time>
      </trkpt>
      <trkpt lat="43.76051" lon="4.03175">
        <ele>38</ele>
        <time>2020-11-04T17:57:21Z</time>
      </trkpt>
      <trkpt lat="43.76058" lon="4.0316">
        <ele>39</ele>
        <time>2020-11-04T17:57:25Z</time>
      </trkpt>
      <trkpt lat="43.76059" lon="4.03157">
        <ele>39</ele>
        <time>2020-11-04T17:57:26Z</time>
      </trkpt>
      <trkpt lat="43.76061" lon="4.03154">
        <ele>39</ele>
        <time>2020-11-04T17:57:27Z</time>
      </trkpt>
      <trkpt lat="43.76062" lon="4.03152">
        <ele>39</ele>
        <time>2020-11-04T17:57:28Z</time>
      </trkpt>
      <trkpt lat="43.76066" lon="4.03148">
        <ele>39</ele>
        <time>2020-11-04T17:57:30Z</time>
      </trkpt>
      <trkpt lat="43.76068" lon="4.03146">
        <ele>40</ele>
        <time>2020-11-04T17:57:31Z</time>
      </trkpt>
      <trkpt lat="43.76069" lon="4.03144">
        <ele>40</ele>
        <time>2020-11-04T17:57:32Z</time>
      </trkpt>
      <trkpt lat="43.76071" lon="4.03141">
        <ele>40</ele>
        <time>2020-11-04T17:57:33Z</time>
      </trkpt>
      <trkpt lat="43.76072" lon="4.03138">
        <ele>40</ele>
        <time>2020-11-04T17:57:34Z</time>
      </trkpt>
      <trkpt lat="43.76074" lon="4.03135">
        <ele>40</ele>
        <time>2020-11-04T17:57:35Z</time>
      </trkpt>
      <trkpt lat="43.76077" lon="4.03125">
        <ele>41</ele>
        <time>2020-11-04T17:57:39Z</time>
      </trkpt>
      <trkpt lat="43.76076" lon="4.03121">
        <ele>41</ele>
        <time>2020-11-04T17:57:40Z</time>
      </trkpt>
      <trkpt lat="43.76073" lon="4.03111">
        <ele>42</ele>
        <time>2020-11-04T17:57:43Z</time>
      </trkpt>
      <trkpt lat="43.76071" lon="4.03109">
        <ele>42</ele>
        <time>2020-11-04T17:57:44Z</time>
      </trkpt>
      <trkpt lat="43.7607" lon="4.03107">
        <ele>42</ele>
        <time>2020-11-04T17:57:45Z</time>
      </trkpt>
      <trkpt lat="43.76068" lon="4.03104">
        <ele>42</ele>
        <time>2020-11-04T17:57:46Z</time>
      </trkpt>
      <trkpt lat="43.76066" lon="4.03102">
        <ele>42</ele>
        <time>2020-11-04T17:57:47Z</time>
      </trkpt>
      <trkpt lat="43.76064" lon="4.03099">
        <ele>42</ele>
        <time>2020-11-04T17:57:48Z</time>
      </trkpt>
      <trkpt lat="43.76057" lon="4.03089">
        <ele>43</ele>
        <time>2020-11-04T17:57:52Z</time>
      </trkpt>
      <trkpt lat="43.76053" lon="4.0308">
        <ele>43</ele>
        <time>2020-11-04T17:57:55Z</time>
      </trkpt>
      <trkpt lat="43.76051" lon="4.03077">
        <ele>43</ele>
        <time>2020-11-04T17:57:56Z</time>
      </trkpt>
      <trkpt lat="43.7605" lon="4.03073">
        <ele>43</ele>
        <time>2020-11-04T17:57:57Z</time>
      </trkpt>
      <trkpt lat="43.76048" lon="4.0307">
        <ele>43</ele>
        <time>2020-11-04T17:57:58Z</time>
      </trkpt>
      <trkpt lat="43.76045" lon="4.03067">
        <ele>43</ele>
        <time>2020-11-04T17:57:59Z</time>
      </trkpt>
      <trkpt lat="43.76034" lon="4.03049">
        <ele>43</ele>
        <time>2020-11-04T17:58:05Z</time>
      </trkpt>
      <trkpt lat="43.76031" lon="4.03043">
        <ele>43</ele>
        <time>2020-11-04T17:58:07Z</time>
      </trkpt>
      <trkpt lat="43.76032" lon="4.03039">
        <ele>43</ele>
        <time>2020-11-04T17:58:09Z</time>
      </trkpt>
      <trkpt lat="43.76035" lon="4.03035">
        <ele>43</ele>
        <time>2020-11-04T17:58:11Z</time>
      </trkpt>
      <trkpt lat="43.76038" lon="4.03028">
        <ele>43</ele>
        <time>2020-11-04T17:58:14Z</time>
      </trkpt>
      <trkpt lat="43.76039" lon="4.03025">
        <ele>44</ele>
        <time>2020-11-04T17:58:15Z</time>
      </trkpt>
      <trkpt lat="43.7604" lon="4.03023">
        <ele>44</ele>
        <time>2020-11-04T17:58:16Z</time>
      </trkpt>
      <trkpt lat="43.76038" lon="4.03007">
        <ele>44</ele>
        <time>2020-11-04T17:58:22Z</time>
      </trkpt>
      <trkpt lat="43.76038" lon="4.03007">
        <ele>44</ele>
        <time>2020-11-04T17:58:23Z</time>
      </trkpt>
      <trkpt lat="43.76038" lon="4.03004">
        <ele>44</ele>
        <time>2020-11-04T17:58:24Z</time>
      </trkpt>
      <trkpt lat="43.76037" lon="4.03001">
        <ele>44</ele>
        <time>2020-11-04T17:58:26Z</time>
      </trkpt>
      <trkpt lat="43.76037" lon="4.02999">
        <ele>44</ele>
        <time>2020-11-04T17:58:27Z</time>
      </trkpt>
      <trkpt lat="43.76035" lon="4.02995">
        <ele>45</ele>
        <time>2020-11-04T17:58:51Z</time>
      </trkpt>
      <trkpt lat="43.76035" lon="4.02995">
        <ele>45</ele>
        <time>2020-11-04T17:58:52Z</time>
      </trkpt>
      <trkpt lat="43.76035" lon="4.02992">
        <ele>45</ele>
        <time>2020-11-04T17:58:53Z</time>
      </trkpt>
      <trkpt lat="43.76034" lon="4.02979">
        <ele>45</ele>
        <time>2020-11-04T17:58:57Z</time>
      </trkpt>
      <trkpt lat="43.76034" lon="4.0297">
        <ele>45</ele>
        <time>2020-11-04T17:59:00Z</time>
      </trkpt>
      <trkpt lat="43.76032" lon="4.02955">
        <ele>45</ele>
        <time>2020-11-04T17:59:06Z</time>
      </trkpt>
      <trkpt lat="43.76031" lon="4.02952">
        <ele>46</ele>
        <time>2020-11-04T17:59:07Z</time>
      </trkpt>
      <trkpt lat="43.76031" lon="4.0295">
        <ele>46</ele>
        <time>2020-11-04T17:59:08Z</time>
      </trkpt>
      <trkpt lat="43.7603" lon="4.02949">
        <ele>46</ele>
        <time>2020-11-04T17:59:09Z</time>
      </trkpt>
      <trkpt lat="43.7603" lon="4.02946">
        <ele>46</ele>
        <time>2020-11-04T17:59:10Z</time>
      </trkpt>
      <trkpt lat="43.7603" lon="4.02944">
        <ele>46</ele>
        <time>2020-11-04T17:59:11Z</time>
      </trkpt>
      <trkpt lat="43.76029" lon="4.02941">
        <ele>46</ele>
        <time>2020-11-04T17:59:12Z</time>
      </trkpt>
      <trkpt lat="43.7603" lon="4.02939">
        <ele>46</ele>
        <time>2020-11-04T17:59:13Z</time>
      </trkpt>
      <trkpt lat="43.76034" lon="4.0293">
        <ele>46</ele>
        <time>2020-11-04T17:59:18Z</time>
      </trkpt>
      <trkpt lat="43.76043" lon="4.02926">
        <ele>47</ele>
        <time>2020-11-04T17:59:24Z</time>
      </trkpt>
      <trkpt lat="43.76045" lon="4.02926">
        <ele>47</ele>
        <time>2020-11-04T17:59:25Z</time>
      </trkpt>
      <trkpt lat="43.76048" lon="4.02924">
        <ele>47</ele>
        <time>2020-11-04T17:59:27Z</time>
      </trkpt>
      <trkpt lat="43.76049" lon="4.02921">
        <ele>47</ele>
        <time>2020-11-04T17:59:28Z</time>
      </trkpt>
      <trkpt lat="43.7605" lon="4.02919">
        <ele>47</ele>
        <time>2020-11-04T17:59:29Z</time>
      </trkpt>
      <trkpt lat="43.76047" lon="4.02917">
        <ele>47</ele>
        <time>2020-11-04T17:59:33Z</time>
      </trkpt>
      <trkpt lat="43.76055" lon="4.02922">
        <ele>48</ele>
        <time>2020-11-04T18:00:03Z</time>
      </trkpt>
      <trkpt lat="43.76055" lon="4.02922">
        <ele>48</ele>
        <time>2020-11-04T18:00:04Z</time>
      </trkpt>
      <trkpt lat="43.76055" lon="4.02922">
        <ele>48</ele>
        <time>2020-11-04T18:00:05Z</time>
      </trkpt>
      <trkpt lat="43.76049" lon="4.02923">
        <ele>47</ele>
        <time>2020-11-04T18:01:00Z</time>
      </trkpt>
      <trkpt lat="43.76049" lon="4.02923">
        <ele>47</ele>
        <time>2020-11-04T18:01:01Z</time>
      </trkpt>
      <trkpt lat="43.76047" lon="4.02924">
        <ele>47</ele>
        <time>2020-11-04T18:01:02Z</time>
      </trkpt>
      <trkpt lat="43.76038" lon="4.02927">
        <ele>47</ele>
        <time>2020-11-04T18:01:07Z</time>
      </trkpt>
      <trkpt lat="43.76032" lon="4.02929">
        <ele>47</ele>
        <time>2020-11-04T18:01:11Z</time>
      </trkpt>
      <trkpt lat="43.76031" lon="4.0293">
        <ele>47</ele>
        <time>2020-11-04T18:01:13Z</time>
      </trkpt>
      <trkpt lat="43.76031" lon="4.0293">
        <ele>47</ele>
        <time>2020-11-04T18:01:14Z</time>
      </trkpt>
      <trkpt lat="43.76029" lon="4.0293">
        <ele>47</ele>
        <time>2020-11-04T18:01:17Z</time>
      </trkpt>
      <trkpt lat="43.76023" lon="4.02932">
        <ele>48</ele>
        <time>2020-11-04T18:01:28Z</time>
      </trkpt>
      <trkpt lat="43.76023" lon="4.02932">
        <ele>48</ele>
        <time>2020-11-04T18:01:29Z</time>
      </trkpt>
      <trkpt lat="43.76022" lon="4.02932">
        <ele>48</ele>
        <time>2020-11-04T18:01:30Z</time>
      </trkpt>
      <trkpt lat="43.7602" lon="4.02932">
        <ele>48</ele>
        <time>2020-11-04T18:01:31Z</time>
      </trkpt>
      <trkpt lat="43.76019" lon="4.02933">
        <ele>47</ele>
        <time>2020-11-04T18:01:32Z</time>
      </trkpt>
      <trkpt lat="43.76017" lon="4.02933">
        <ele>47</ele>
        <time>2020-11-04T18:01:33Z</time>
      </trkpt>
      <trkpt lat="43.76016" lon="4.02934">
        <ele>47</ele>
        <time>2020-11-04T18:01:35Z</time>
      </trkpt>
      <trkpt lat="43.76014" lon="4.02935">
        <ele>47</ele>
        <time>2020-11-04T18:01:46Z</time>
      </trkpt>
      <trkpt lat="43.76014" lon="4.02935">
        <ele>47</ele>
        <time>2020-11-04T18:01:47Z</time>
      </trkpt>
      <trkpt lat="43.76013" lon="4.02936">
        <ele>47</ele>
        <time>2020-11-04T18:01:48Z</time>
      </trkpt>
      <trkpt lat="43.76011" lon="4.02937">
        <ele>47</ele>
        <time>2020-11-04T18:01:50Z</time>
      </trkpt>
      <trkpt lat="43.76007" lon="4.02937">
        <ele>47</ele>
        <time>2020-11-04T18:01:53Z</time>
      </trkpt>
      <trkpt lat="43.76006" lon="4.02937">
        <ele>47</ele>
        <time>2020-11-04T18:01:54Z</time>
      </trkpt>
      <trkpt lat="43.76004" lon="4.02938">
        <ele>47</ele>
        <time>2020-11-04T18:01:56Z</time>
      </trkpt>
      <trkpt lat="43.76003" lon="4.02938">
        <ele>47</ele>
        <time>2020-11-04T18:01:57Z</time>
      </trkpt>
      <trkpt lat="43.76" lon="4.02939">
        <ele>47</ele>
        <time>2020-11-04T18:02:00Z</time>
      </trkpt>
      <trkpt lat="43.75999" lon="4.0294">
        <ele>47</ele>
        <time>2020-11-04T18:02:01Z</time>
      </trkpt>
      <trkpt lat="43.75996" lon="4.02941">
        <ele>47</ele>
        <time>2020-11-04T18:02:04Z</time>
      </trkpt>
      <trkpt lat="43.75994" lon="4.02942">
        <ele>46</ele>
        <time>2020-11-04T18:02:06Z</time>
      </trkpt>
      <trkpt lat="43.75992" lon="4.02943">
        <ele>46</ele>
        <time>2020-11-04T18:02:07Z</time>
      </trkpt>
      <trkpt lat="43.75992" lon="4.02943">
        <ele>46</ele>
        <time>2020-11-04T18:02:08Z</time>
      </trkpt>
      <trkpt lat="43.75991" lon="4.02944">
        <ele>46</ele>
        <time>2020-11-04T18:02:09Z</time>
      </trkpt>
      <trkpt lat="43.75989" lon="4.02944">
        <ele>46</ele>
        <time>2020-11-04T18:02:10Z</time>
      </trkpt>
      <trkpt lat="43.75984" lon="4.02942">
        <ele>46</ele>
        <time>2020-11-04T18:02:14Z</time>
      </trkpt>
      <trkpt lat="43.75983" lon="4.02941">
        <ele>46</ele>
        <time>2020-11-04T18:02:15Z</time>
      </trkpt>
      <trkpt lat="43.75981" lon="4.02938">
        <ele>46</ele>
        <time>2020-11-04T18:02:17Z</time>
      </trkpt>
      <trkpt lat="43.75977" lon="4.02935">
        <ele>46</ele>
        <time>2020-11-04T18:02:21Z</time>
      </trkpt>
      <trkpt lat="43.75975" lon="4.02933">
        <ele>46</ele>
        <time>2020-11-04T18:02:23Z</time>
      </trkpt>
      <trkpt lat="43.75974" lon="4.0293">
        <ele>46</ele>
        <time>2020-11-04T18:02:24Z</time>
      </trkpt>
      <trkpt lat="43.75969" lon="4.02916">
        <ele>46</ele>
        <time>2020-11-04T18:02:29Z</time>
      </trkpt>
      <trkpt lat="43.75969" lon="4.02914">
        <ele>46</ele>
        <time>2020-11-04T18:02:30Z</time>
      </trkpt>
      <trkpt lat="43.75966" lon="4.02907">
        <ele>46</ele>
        <time>2020-11-04T18:02:33Z</time>
      </trkpt>
      <trkpt lat="43.75966" lon="4.02905">
        <ele>46</ele>
        <time>2020-11-04T18:02:34Z</time>
      </trkpt>
      <trkpt lat="43.75965" lon="4.02903">
        <ele>46</ele>
        <time>2020-11-04T18:02:37Z</time>
      </trkpt>
      <trkpt lat="43.75965" lon="4.02901">
        <ele>47</ele>
        <time>2020-11-04T18:02:47Z</time>
      </trkpt>
      <trkpt lat="43.75964" lon="4.02899">
        <ele>47</ele>
        <time>2020-11-04T18:02:48Z</time>
      </trkpt>
      <trkpt lat="43.75963" lon="4.02897">
        <ele>47</ele>
        <time>2020-11-04T18:02:49Z</time>
      </trkpt>
      <trkpt lat="43.75963" lon="4.02895">
        <ele>47</ele>
        <time>2020-11-04T18:02:50Z</time>
      </trkpt>
      <trkpt lat="43.75962" lon="4.02892">
        <ele>47</ele>
        <time>2020-11-04T18:02:51Z</time>
      </trkpt>
      <trkpt lat="43.75961" lon="4.02889">
        <ele>47</ele>
        <time>2020-11-04T18:02:52Z</time>
      </trkpt>
      <trkpt lat="43.75961" lon="4.02885">
        <ele>47</ele>
        <time>2020-11-04T18:02:53Z</time>
      </trkpt>
      <trkpt lat="43.75959" lon="4.0286">
        <ele>48</ele>
        <time>2020-11-04T18:03:00Z</time>
      </trkpt>
      <trkpt lat="43.75958" lon="4.02848">
        <ele>48</ele>
        <time>2020-11-04T18:03:03Z</time>
      </trkpt>
      <trkpt lat="43.75957" lon="4.02845">
        <ele>48</ele>
        <time>2020-11-04T18:03:04Z</time>
      </trkpt>
      <trkpt lat="43.75953" lon="4.02826">
        <ele>49</ele>
        <time>2020-11-04T18:03:09Z</time>
      </trkpt>
      <trkpt lat="43.75951" lon="4.02818">
        <ele>50</ele>
        <time>2020-11-04T18:03:12Z</time>
      </trkpt>
      <trkpt lat="43.7595" lon="4.02816">
        <ele>50</ele>
        <time>2020-11-04T18:03:13Z</time>
      </trkpt>
      <trkpt lat="43.7595" lon="4.02814">
        <ele>50</ele>
        <time>2020-11-04T18:03:14Z</time>
      </trkpt>
      <trkpt lat="43.75948" lon="4.02811">
        <ele>50</ele>
        <time>2020-11-04T18:03:15Z</time>
      </trkpt>
      <trkpt lat="43.75947" lon="4.02808">
        <ele>50</ele>
        <time>2020-11-04T18:03:16Z</time>
      </trkpt>
      <trkpt lat="43.75945" lon="4.02804">
        <ele>50</ele>
        <time>2020-11-04T18:03:17Z</time>
      </trkpt>
      <trkpt lat="43.75942" lon="4.02793">
        <ele>51</ele>
        <time>2020-11-04T18:03:20Z</time>
      </trkpt>
      <trkpt lat="43.75942" lon="4.02786">
        <ele>51</ele>
        <time>2020-11-04T18:03:22Z</time>
      </trkpt>
      <trkpt lat="43.75943" lon="4.02782">
        <ele>51</ele>
        <time>2020-11-04T18:03:23Z</time>
      </trkpt>
      <trkpt lat="43.75945" lon="4.02779">
        <ele>51</ele>
        <time>2020-11-04T18:03:24Z</time>
      </trkpt>
      <trkpt lat="43.75948" lon="4.02776">
        <ele>52</ele>
        <time>2020-11-04T18:03:25Z</time>
      </trkpt>
      <trkpt lat="43.75961" lon="4.02766">
        <ele>52</ele>
        <time>2020-11-04T18:03:29Z</time>
      </trkpt>
      <trkpt lat="43.75965" lon="4.02763">
        <ele>52</ele>
        <time>2020-11-04T18:03:30Z</time>
      </trkpt>
      <trkpt lat="43.75969" lon="4.02759">
        <ele>52</ele>
        <time>2020-11-04T18:03:31Z</time>
      </trkpt>
      <trkpt lat="43.75977" lon="4.02752">
        <ele>52</ele>
        <time>2020-11-04T18:03:33Z</time>
      </trkpt>
      <trkpt lat="43.7601" lon="4.02729">
        <ele>53</ele>
        <time>2020-11-04T18:03:41Z</time>
      </trkpt>
      <trkpt lat="43.76015" lon="4.02726">
        <ele>53</ele>
        <time>2020-11-04T18:03:42Z</time>
      </trkpt>
      <trkpt lat="43.76024" lon="4.02722">
        <ele>53</ele>
        <time>2020-11-04T18:03:44Z</time>
      </trkpt>
      <trkpt lat="43.7606" lon="4.02704">
        <ele>53</ele>
        <time>2020-11-04T18:03:52Z</time>
      </trkpt>
      <trkpt lat="43.76065" lon="4.027">
        <ele>53</ele>
        <time>2020-11-04T18:03:53Z</time>
      </trkpt>
      <trkpt lat="43.7607" lon="4.02697">
        <ele>53</ele>
        <time>2020-11-04T18:03:54Z</time>
      </trkpt>
      <trkpt lat="43.76075" lon="4.02693">
        <ele>53</ele>
        <time>2020-11-04T18:03:55Z</time>
      </trkpt>
      <trkpt lat="43.76095" lon="4.0268">
        <ele>52</ele>
        <time>2020-11-04T18:03:59Z</time>
      </trkpt>
      <trkpt lat="43.761" lon="4.02678">
        <ele>52</ele>
        <time>2020-11-04T18:04:00Z</time>
      </trkpt>
      <trkpt lat="43.76114" lon="4.02677">
        <ele>52</ele>
        <time>2020-11-04T18:04:03Z</time>
      </trkpt>
      <trkpt lat="43.76119" lon="4.02677">
        <ele>52</ele>
        <time>2020-11-04T18:04:04Z</time>
      </trkpt>
      <trkpt lat="43.76127" lon="4.02673">
        <ele>51</ele>
        <time>2020-11-04T18:04:06Z</time>
      </trkpt>
      <trkpt lat="43.76132" lon="4.0267">
        <ele>51</ele>
        <time>2020-11-04T18:04:07Z</time>
      </trkpt>
      <trkpt lat="43.76135" lon="4.02666">
        <ele>51</ele>
        <time>2020-11-04T18:04:08Z</time>
      </trkpt>
      <trkpt lat="43.7615" lon="4.02648">
        <ele>51</ele>
        <time>2020-11-04T18:04:12Z</time>
      </trkpt>
      <trkpt lat="43.76153" lon="4.02644">
        <ele>51</ele>
        <time>2020-11-04T18:04:13Z</time>
      </trkpt>
      <trkpt lat="43.76177" lon="4.02617">
        <ele>51</ele>
        <time>2020-11-04T18:04:19Z</time>
      </trkpt>
      <trkpt lat="43.76181" lon="4.02613">
        <ele>51</ele>
        <time>2020-11-04T18:04:20Z</time>
      </trkpt>
      <trkpt lat="43.76189" lon="4.02604">
        <ele>51</ele>
        <time>2020-11-04T18:04:22Z</time>
      </trkpt>
      <trkpt lat="43.76193" lon="4.02598">
        <ele>51</ele>
        <time>2020-11-04T18:04:23Z</time>
      </trkpt>
      <trkpt lat="43.76196" lon="4.02591">
        <ele>51</ele>
        <time>2020-11-04T18:04:24Z</time>
      </trkpt>
      <trkpt lat="43.76202" lon="4.02578">
        <ele>50</ele>
        <time>2020-11-04T18:04:26Z</time>
      </trkpt>
      <trkpt lat="43.76212" lon="4.02561">
        <ele>50</ele>
        <time>2020-11-04T18:04:29Z</time>
      </trkpt>
      <trkpt lat="43.7622" lon="4.0255">
        <ele>49</ele>
        <time>2020-11-04T18:04:31Z</time>
      </trkpt>
      <trkpt lat="43.76224" lon="4.02545">
        <ele>49</ele>
        <time>2020-11-04T18:04:32Z</time>
      </trkpt>
      <trkpt lat="43.7624" lon="4.02524">
        <ele>49</ele>
        <time>2020-11-04T18:04:36Z</time>
      </trkpt>
      <trkpt lat="43.76244" lon="4.02519">
        <ele>48</ele>
        <time>2020-11-04T18:04:37Z</time>
      </trkpt>
      <trkpt lat="43.76248" lon="4.02513">
        <ele>48</ele>
        <time>2020-11-04T18:04:38Z</time>
      </trkpt>
      <trkpt lat="43.76252" lon="4.02507">
        <ele>48</ele>
        <time>2020-11-04T18:04:39Z</time>
      </trkpt>
      <trkpt lat="43.76277" lon="4.02477">
        <ele>48</ele>
        <time>2020-11-04T18:04:45Z</time>
      </trkpt>
      <trkpt lat="43.76281" lon="4.02473">
        <ele>48</ele>
        <time>2020-11-04T18:04:46Z</time>
      </trkpt>
      <trkpt lat="43.76286" lon="4.0247">
        <ele>48</ele>
        <time>2020-11-04T18:04:47Z</time>
      </trkpt>
      <trkpt lat="43.76291" lon="4.02467">
        <ele>48</ele>
        <time>2020-11-04T18:04:48Z</time>
      </trkpt>
      <trkpt lat="43.76296" lon="4.02464">
        <ele>48</ele>
        <time>2020-11-04T18:04:49Z</time>
      </trkpt>
      <trkpt lat="43.76302" lon="4.02462">
        <ele>48</ele>
        <time>2020-11-04T18:04:50Z</time>
      </trkpt>
      <trkpt lat="43.76308" lon="4.02461">
        <ele>48</ele>
        <time>2020-11-04T18:04:51Z</time>
      </trkpt>
      <trkpt lat="43.76313" lon="4.02459">
        <ele>47</ele>
        <time>2020-11-04T18:04:52Z</time>
      </trkpt>
      <trkpt lat="43.7632" lon="4.02457">
        <ele>47</ele>
        <time>2020-11-04T18:04:53Z</time>
      </trkpt>
      <trkpt lat="43.76347" lon="4.02445">
        <ele>47</ele>
        <time>2020-11-04T18:04:58Z</time>
      </trkpt>
      <trkpt lat="43.76353" lon="4.02442">
        <ele>47</ele>
        <time>2020-11-04T18:04:59Z</time>
      </trkpt>
      <trkpt lat="43.76358" lon="4.02439">
        <ele>47</ele>
        <time>2020-11-04T18:05:00Z</time>
      </trkpt>
      <trkpt lat="43.76363" lon="4.02435">
        <ele>47</ele>
        <time>2020-11-04T18:05:01Z</time>
      </trkpt>
      <trkpt lat="43.76369" lon="4.02431">
        <ele>47</ele>
        <time>2020-11-04T18:05:02Z</time>
      </trkpt>
      <trkpt lat="43.76374" lon="4.02425">
        <ele>46</ele>
        <time>2020-11-04T18:05:03Z</time>
      </trkpt>
      <trkpt lat="43.76379" lon="4.02419">
        <ele>46</ele>
        <time>2020-11-04T18:05:04Z</time>
      </trkpt>
      <trkpt lat="43.76383" lon="4.02414">
        <ele>46</ele>
        <time>2020-11-04T18:05:05Z</time>
      </trkpt>
      <trkpt lat="43.76389" lon="4.02409">
        <ele>46</ele>
        <time>2020-11-04T18:05:06Z</time>
      </trkpt>
      <trkpt lat="43.76403" lon="4.02412">
        <ele>45</ele>
        <time>2020-11-04T18:05:09Z</time>
      </trkpt>
      <trkpt lat="43.76418" lon="4.02442">
        <ele>44</ele>
        <time>2020-11-04T18:05:14Z</time>
      </trkpt>
      <trkpt lat="43.76421" lon="4.02449">
        <ele>44</ele>
        <time>2020-11-04T18:05:15Z</time>
      </trkpt>
      <trkpt lat="43.76424" lon="4.02456">
        <ele>43</ele>
        <time>2020-11-04T18:05:16Z</time>
      </trkpt>
      <trkpt lat="43.7644" lon="4.0249">
        <ele>43</ele>
        <time>2020-11-04T18:05:21Z</time>
      </trkpt>
      <trkpt lat="43.76444" lon="4.02493">
        <ele>43</ele>
        <time>2020-11-04T18:05:22Z</time>
      </trkpt>
      <trkpt lat="43.76457" lon="4.02487">
        <ele>42</ele>
        <time>2020-11-04T18:05:24Z</time>
      </trkpt>
      <trkpt lat="43.76464" lon="4.02483">
        <ele>42</ele>
        <time>2020-11-04T18:05:25Z</time>
      </trkpt>
      <trkpt lat="43.7647" lon="4.02479">
        <ele>42</ele>
        <time>2020-11-04T18:05:26Z</time>
      </trkpt>
      <trkpt lat="43.76475" lon="4.02475">
        <ele>42</ele>
        <time>2020-11-04T18:05:27Z</time>
      </trkpt>
      <trkpt lat="43.76481" lon="4.0247">
        <ele>42</ele>
        <time>2020-11-04T18:05:28Z</time>
      </trkpt>
      <trkpt lat="43.76487" lon="4.02464">
        <ele>42</ele>
        <time>2020-11-04T18:05:29Z</time>
      </trkpt>
      <trkpt lat="43.76492" lon="4.02458">
        <ele>41</ele>
        <time>2020-11-04T18:05:30Z</time>
      </trkpt>
      <trkpt lat="43.76498" lon="4.02453">
        <ele>41</ele>
        <time>2020-11-04T18:05:31Z</time>
      </trkpt>
      <trkpt lat="43.76503" lon="4.02447">
        <ele>41</ele>
        <time>2020-11-04T18:05:32Z</time>
      </trkpt>
      <trkpt lat="43.76508" lon="4.02442">
        <ele>41</ele>
        <time>2020-11-04T18:05:33Z</time>
      </trkpt>
      <trkpt lat="43.76514" lon="4.02437">
        <ele>40</ele>
        <time>2020-11-04T18:05:34Z</time>
      </trkpt>
      <trkpt lat="43.7652" lon="4.02431">
        <ele>40</ele>
        <time>2020-11-04T18:05:35Z</time>
      </trkpt>
      <trkpt lat="43.76524" lon="4.02426">
        <ele>39</ele>
        <time>2020-11-04T18:05:36Z</time>
      </trkpt>
      <trkpt lat="43.76526" lon="4.02419">
        <ele>39</ele>
        <time>2020-11-04T18:05:37Z</time>
      </trkpt>
      <trkpt lat="43.76526" lon="4.02411">
        <ele>38</ele>
        <time>2020-11-04T18:05:38Z</time>
      </trkpt>
      <trkpt lat="43.76525" lon="4.02402">
        <ele>38</ele>
        <time>2020-11-04T18:05:39Z</time>
      </trkpt>
      <trkpt lat="43.76524" lon="4.02393">
        <ele>37</ele>
        <time>2020-11-04T18:05:40Z</time>
      </trkpt>
      <trkpt lat="43.76524" lon="4.02383">
        <ele>37</ele>
        <time>2020-11-04T18:05:41Z</time>
      </trkpt>
      <trkpt lat="43.76523" lon="4.02374">
        <ele>37</ele>
        <time>2020-11-04T18:05:42Z</time>
      </trkpt>
      <trkpt lat="43.76522" lon="4.02366">
        <ele>36</ele>
        <time>2020-11-04T18:05:43Z</time>
      </trkpt>
      <trkpt lat="43.76522" lon="4.0236">
        <ele>36</ele>
        <time>2020-11-04T18:05:44Z</time>
      </trkpt>
      <trkpt lat="43.76523" lon="4.02351">
        <ele>35</ele>
        <time>2020-11-04T18:05:46Z</time>
      </trkpt>
      <trkpt lat="43.76523" lon="4.02345">
        <ele>35</ele>
        <time>2020-11-04T18:05:47Z</time>
      </trkpt>
      <trkpt lat="43.76522" lon="4.02339">
        <ele>34</ele>
        <time>2020-11-04T18:05:48Z</time>
      </trkpt>
      <trkpt lat="43.76522" lon="4.02331">
        <ele>34</ele>
        <time>2020-11-04T18:05:49Z</time>
      </trkpt>
      <trkpt lat="43.76521" lon="4.02323">
        <ele>34</ele>
        <time>2020-11-04T18:05:50Z</time>
      </trkpt>
      <trkpt lat="43.76519" lon="4.02315">
        <ele>34</ele>
        <time>2020-11-04T18:05:51Z</time>
      </trkpt>
      <trkpt lat="43.76518" lon="4.02307">
        <ele>34</ele>
        <time>2020-11-04T18:05:52Z</time>
      </trkpt>
      <trkpt lat="43.76513" lon="4.02271">
        <ele>33</ele>
        <time>2020-11-04T18:05:56Z</time>
      </trkpt>
      <trkpt lat="43.7651" lon="4.02253">
        <ele>32</ele>
        <time>2020-11-04T18:05:58Z</time>
      </trkpt>
      <trkpt lat="43.76508" lon="4.02246">
        <ele>32</ele>
        <time>2020-11-04T18:05:59Z</time>
      </trkpt>
      <trkpt lat="43.76507" lon="4.02233">
        <ele>31</ele>
        <time>2020-11-04T18:06:01Z</time>
      </trkpt>
      <trkpt lat="43.76513" lon="4.02205">
        <ele>30</ele>
        <time>2020-11-04T18:06:05Z</time>
      </trkpt>
      <trkpt lat="43.76515" lon="4.02199">
        <ele>30</ele>
        <time>2020-11-04T18:06:06Z</time>
      </trkpt>
      <trkpt lat="43.76517" lon="4.02194">
        <ele>29</ele>
        <time>2020-11-04T18:06:07Z</time>
      </trkpt>
      <trkpt lat="43.7652" lon="4.02183">
        <ele>29</ele>
        <time>2020-11-04T18:06:09Z</time>
      </trkpt>
      <trkpt lat="43.76522" lon="4.02178">
        <ele>28</ele>
        <time>2020-11-04T18:06:10Z</time>
      </trkpt>
      <trkpt lat="43.76526" lon="4.02169">
        <ele>27</ele>
        <time>2020-11-04T18:06:12Z</time>
      </trkpt>
      <trkpt lat="43.76528" lon="4.02167">
        <ele>27</ele>
        <time>2020-11-04T18:06:13Z</time>
      </trkpt>
      <trkpt lat="43.76528" lon="4.02167">
        <ele>26</ele>
        <time>2020-11-04T18:06:14Z</time>
      </trkpt>
      <trkpt lat="43.76535" lon="4.02156">
        <ele>24</ele>
        <time>2020-11-04T18:06:20Z</time>
      </trkpt>
      <trkpt lat="43.76535" lon="4.02156">
        <ele>24</ele>
        <time>2020-11-04T18:06:21Z</time>
      </trkpt>
      <trkpt lat="43.76536" lon="4.02155">
        <ele>24</ele>
        <time>2020-11-04T18:06:22Z</time>
      </trkpt>
      <trkpt lat="43.76539" lon="4.02151">
        <ele>24</ele>
        <time>2020-11-04T18:06:24Z</time>
      </trkpt>
      <trkpt lat="43.76541" lon="4.02145">
        <ele>24</ele>
        <time>2020-11-04T18:06:27Z</time>
      </trkpt>
      <trkpt lat="43.76543" lon="4.02142">
        <ele>24</ele>
        <time>2020-11-04T18:06:29Z</time>
      </trkpt>
      <trkpt lat="43.76544" lon="4.02141">
        <ele>24</ele>
        <time>2020-11-04T18:06:30Z</time>
      </trkpt>
      <trkpt lat="43.76546" lon="4.02138">
        <ele>24</ele>
        <time>2020-11-04T18:06:31Z</time>
      </trkpt>
      <trkpt lat="43.76548" lon="4.02136">
        <ele>24</ele>
        <time>2020-11-04T18:06:32Z</time>
      </trkpt>
      <trkpt lat="43.76551" lon="4.02135">
        <ele>24</ele>
        <time>2020-11-04T18:06:33Z</time>
      </trkpt>
      <trkpt lat="43.76566" lon="4.02123">
        <ele>25</ele>
        <time>2020-11-04T18:06:40Z</time>
      </trkpt>
      <trkpt lat="43.76569" lon="4.02122">
        <ele>25</ele>
        <time>2020-11-04T18:06:41Z</time>
      </trkpt>
      <trkpt lat="43.76572" lon="4.02121">
        <ele>25</ele>
        <time>2020-11-04T18:06:42Z</time>
      </trkpt>
      <trkpt lat="43.76575" lon="4.02119">
        <ele>25</ele>
        <time>2020-11-04T18:06:43Z</time>
      </trkpt>
      <trkpt lat="43.76581" lon="4.02117">
        <ele>25</ele>
        <time>2020-11-04T18:06:45Z</time>
      </trkpt>
      <trkpt lat="43.76584" lon="4.02115">
        <ele>25</ele>
        <time>2020-11-04T18:06:46Z</time>
      </trkpt>
      <trkpt lat="43.76599" lon="4.02105">
        <ele>26</ele>
        <time>2020-11-04T18:06:52Z</time>
      </trkpt>
      <trkpt lat="43.76602" lon="4.02103">
        <ele>26</ele>
        <time>2020-11-04T18:06:53Z</time>
      </trkpt>
      <trkpt lat="43.76605" lon="4.02101">
        <ele>26</ele>
        <time>2020-11-04T18:06:54Z</time>
      </trkpt>
      <trkpt lat="43.76608" lon="4.02099">
        <ele>26</ele>
        <time>2020-11-04T18:06:55Z</time>
      </trkpt>
      <trkpt lat="43.76611" lon="4.02097">
        <ele>26</ele>
        <time>2020-11-04T18:06:56Z</time>
      </trkpt>
      <trkpt lat="43.76615" lon="4.02096">
        <ele>26</ele>
        <time>2020-11-04T18:06:57Z</time>
      </trkpt>
      <trkpt lat="43.76618" lon="4.02094">
        <ele>26</ele>
        <time>2020-11-04T18:06:58Z</time>
      </trkpt>
      <trkpt lat="43.76631" lon="4.02086">
        <ele>26</ele>
        <time>2020-11-04T18:07:02Z</time>
      </trkpt>
      <trkpt lat="43.76634" lon="4.02084">
        <ele>26</ele>
        <time>2020-11-04T18:07:03Z</time>
      </trkpt>
      <trkpt lat="43.76637" lon="4.02082">
        <ele>26</ele>
        <time>2020-11-04T18:07:04Z</time>
      </trkpt>
      <trkpt lat="43.7664" lon="4.0208">
        <ele>26</ele>
        <time>2020-11-04T18:07:05Z</time>
      </trkpt>
      <trkpt lat="43.76646" lon="4.02077">
        <ele>27</ele>
        <time>2020-11-04T18:07:07Z</time>
      </trkpt>
      <trkpt lat="43.76664" lon="4.02067">
        <ele>27</ele>
        <time>2020-11-04T18:07:13Z</time>
      </trkpt>
      <trkpt lat="43.7667" lon="4.02064">
        <ele>27</ele>
        <time>2020-11-04T18:07:15Z</time>
      </trkpt>
      <trkpt lat="43.76675" lon="4.0206">
        <ele>27</ele>
        <time>2020-11-04T18:07:17Z</time>
      </trkpt>
      <trkpt lat="43.76679" lon="4.02056">
        <ele>27</ele>
        <time>2020-11-04T18:07:19Z</time>
      </trkpt>
      <trkpt lat="43.76681" lon="4.02053">
        <ele>27</ele>
        <time>2020-11-04T18:07:20Z</time>
      </trkpt>
      <trkpt lat="43.76687" lon="4.02045">
        <ele>27</ele>
        <time>2020-11-04T18:07:23Z</time>
      </trkpt>
      <trkpt lat="43.76689" lon="4.02038">
        <ele>27</ele>
        <time>2020-11-04T18:07:26Z</time>
      </trkpt>
      <trkpt lat="43.76691" lon="4.02035">
        <ele>27</ele>
        <time>2020-11-04T18:07:27Z</time>
      </trkpt>
      <trkpt lat="43.76692" lon="4.02032">
        <ele>27</ele>
        <time>2020-11-04T18:07:28Z</time>
      </trkpt>
      <trkpt lat="43.76694" lon="4.02029">
        <ele>27</ele>
        <time>2020-11-04T18:07:29Z</time>
      </trkpt>
      <trkpt lat="43.76696" lon="4.02026">
        <ele>27</ele>
        <time>2020-11-04T18:07:30Z</time>
      </trkpt>
      <trkpt lat="43.76697" lon="4.02022">
        <ele>27</ele>
        <time>2020-11-04T18:07:31Z</time>
      </trkpt>
      <trkpt lat="43.76706" lon="4.02007">
        <ele>27</ele>
        <time>2020-11-04T18:07:36Z</time>
      </trkpt>
      <trkpt lat="43.76708" lon="4.02">
        <ele>27</ele>
        <time>2020-11-04T18:07:38Z</time>
      </trkpt>
      <trkpt lat="43.76711" lon="4.01992">
        <ele>27</ele>
        <time>2020-11-04T18:07:41Z</time>
      </trkpt>
      <trkpt lat="43.76713" lon="4.0199">
        <ele>27</ele>
        <time>2020-11-04T18:07:42Z</time>
      </trkpt>
      <trkpt lat="43.76715" lon="4.01989">
        <ele>27</ele>
        <time>2020-11-04T18:07:43Z</time>
      </trkpt>
      <trkpt lat="43.76715" lon="4.0199">
        <ele>27</ele>
        <time>2020-11-04T18:07:44Z</time>
      </trkpt>
      <trkpt lat="43.76714" lon="4.0198">
        <ele>27</ele>
        <time>2020-11-04T18:08:15Z</time>
      </trkpt>
      <trkpt lat="43.76714" lon="4.0198">
        <ele>27</ele>
        <time>2020-11-04T18:08:16Z</time>
      </trkpt>
      <trkpt lat="43.76715" lon="4.01975">
        <ele>27</ele>
        <time>2020-11-04T18:08:18Z</time>
      </trkpt>
      <trkpt lat="43.76715" lon="4.01967">
        <ele>27</ele>
        <time>2020-11-04T18:08:21Z</time>
      </trkpt>
      <trkpt lat="43.76714" lon="4.01952">
        <ele>27</ele>
        <time>2020-11-04T18:08:25Z</time>
      </trkpt>
      <trkpt lat="43.76713" lon="4.01943">
        <ele>27</ele>
        <time>2020-11-04T18:08:27Z</time>
      </trkpt>
      <trkpt lat="43.76713" lon="4.01937">
        <ele>27</ele>
        <time>2020-11-04T18:08:28Z</time>
      </trkpt>
      <trkpt lat="43.76711" lon="4.01926">
        <ele>27</ele>
        <time>2020-11-04T18:08:30Z</time>
      </trkpt>
      <trkpt lat="43.76708" lon="4.01908">
        <ele>27</ele>
        <time>2020-11-04T18:08:33Z</time>
      </trkpt>
      <trkpt lat="43.76701" lon="4.01863">
        <ele>27</ele>
        <time>2020-11-04T18:08:41Z</time>
      </trkpt>
      <trkpt lat="43.767" lon="4.01857">
        <ele>28</ele>
        <time>2020-11-04T18:08:42Z</time>
      </trkpt>
      <trkpt lat="43.767" lon="4.01851">
        <ele>28</ele>
        <time>2020-11-04T18:08:43Z</time>
      </trkpt>
      <trkpt lat="43.76701" lon="4.01824">
        <ele>27</ele>
        <time>2020-11-04T18:08:47Z</time>
      </trkpt>
      <trkpt lat="43.76703" lon="4.018">
        <ele>27</ele>
        <time>2020-11-04T18:08:51Z</time>
      </trkpt>
      <trkpt lat="43.76706" lon="4.01781">
        <ele>28</ele>
        <time>2020-11-04T18:08:54Z</time>
      </trkpt>
      <trkpt lat="43.76706" lon="4.01774">
        <ele>28</ele>
        <time>2020-11-04T18:08:55Z</time>
      </trkpt>
      <trkpt lat="43.76707" lon="4.01755">
        <ele>28</ele>
        <time>2020-11-04T18:08:58Z</time>
      </trkpt>
      <trkpt lat="43.76707" lon="4.01744">
        <ele>28</ele>
        <time>2020-11-04T18:09:00Z</time>
      </trkpt>
      <trkpt lat="43.76708" lon="4.01738">
        <ele>28</ele>
        <time>2020-11-04T18:09:01Z</time>
      </trkpt>
      <trkpt lat="43.76707" lon="4.01706">
        <ele>28</ele>
        <time>2020-11-04T18:09:06Z</time>
      </trkpt>
      <trkpt lat="43.76706" lon="4.01692">
        <ele>28</ele>
        <time>2020-11-04T18:09:08Z</time>
      </trkpt>
      <trkpt lat="43.76704" lon="4.01679">
        <ele>28</ele>
        <time>2020-11-04T18:09:10Z</time>
      </trkpt>
      <trkpt lat="43.76703" lon="4.01673">
        <ele>28</ele>
        <time>2020-11-04T18:09:11Z</time>
      </trkpt>
      <trkpt lat="43.76702" lon="4.01666">
        <ele>28</ele>
        <time>2020-11-04T18:09:12Z</time>
      </trkpt>
      <trkpt lat="43.767" lon="4.0166">
        <ele>28</ele>
        <time>2020-11-04T18:09:13Z</time>
      </trkpt>
      <trkpt lat="43.76699" lon="4.01646">
        <ele>28</ele>
        <time>2020-11-04T18:09:15Z</time>
      </trkpt>
      <trkpt lat="43.76698" lon="4.01639">
        <ele>28</ele>
        <time>2020-11-04T18:09:16Z</time>
      </trkpt>
      <trkpt lat="43.76696" lon="4.01596">
        <ele>29</ele>
        <time>2020-11-04T18:09:22Z</time>
      </trkpt>
      <trkpt lat="43.76693" lon="4.01582">
        <ele>29</ele>
        <time>2020-11-04T18:09:24Z</time>
      </trkpt>
      <trkpt lat="43.7669" lon="4.01569">
        <ele>29</ele>
        <time>2020-11-04T18:09:26Z</time>
      </trkpt>
      <trkpt lat="43.76688" lon="4.01563">
        <ele>29</ele>
        <time>2020-11-04T18:09:27Z</time>
      </trkpt>
      <trkpt lat="43.76685" lon="4.01551">
        <ele>29</ele>
        <time>2020-11-04T18:09:29Z</time>
      </trkpt>
      <trkpt lat="43.7668" lon="4.01524">
        <ele>29</ele>
        <time>2020-11-04T18:09:33Z</time>
      </trkpt>
      <trkpt lat="43.76679" lon="4.01518">
        <ele>29</ele>
        <time>2020-11-04T18:09:34Z</time>
      </trkpt>
      <trkpt lat="43.76678" lon="4.01511">
        <ele>29</ele>
        <time>2020-11-04T18:09:35Z</time>
      </trkpt>
      <trkpt lat="43.76676" lon="4.01504">
        <ele>29</ele>
        <time>2020-11-04T18:09:36Z</time>
      </trkpt>
      <trkpt lat="43.76675" lon="4.01491">
        <ele>30</ele>
        <time>2020-11-04T18:09:38Z</time>
      </trkpt>
      <trkpt lat="43.76673" lon="4.01484">
        <ele>30</ele>
        <time>2020-11-04T18:09:39Z</time>
      </trkpt>
      <trkpt lat="43.76671" lon="4.01471">
        <ele>30</ele>
        <time>2020-11-04T18:09:41Z</time>
      </trkpt>
      <trkpt lat="43.76669" lon="4.01454">
        <ele>30</ele>
        <time>2020-11-04T18:09:44Z</time>
      </trkpt>
      <trkpt lat="43.76669" lon="4.01448">
        <ele>30</ele>
        <time>2020-11-04T18:09:45Z</time>
      </trkpt>
      <trkpt lat="43.76668" lon="4.01443">
        <ele>30</ele>
        <time>2020-11-04T18:09:46Z</time>
      </trkpt>
      <trkpt lat="43.76669" lon="4.01433">
        <ele>30</ele>
        <time>2020-11-04T18:09:48Z</time>
      </trkpt>
      <trkpt lat="43.76671" lon="4.01427">
        <ele>30</ele>
        <time>2020-11-04T18:09:49Z</time>
      </trkpt>
      <trkpt lat="43.76678" lon="4.01411">
        <ele>30</ele>
        <time>2020-11-04T18:09:52Z</time>
      </trkpt>
      <trkpt lat="43.7668" lon="4.01406">
        <ele>30</ele>
        <time>2020-11-04T18:09:53Z</time>
      </trkpt>
      <trkpt lat="43.76704" lon="4.0136">
        <ele>30</ele>
        <time>2020-11-04T18:10:02Z</time>
      </trkpt>
      <trkpt lat="43.76708" lon="4.01358">
        <ele>30</ele>
        <time>2020-11-04T18:10:03Z</time>
      </trkpt>
      <trkpt lat="43.76717" lon="4.0136">
        <ele>30</ele>
        <time>2020-11-04T18:10:05Z</time>
      </trkpt>
      <trkpt lat="43.76726" lon="4.01363">
        <ele>30</ele>
        <time>2020-11-04T18:10:07Z</time>
      </trkpt>
      <trkpt lat="43.76744" lon="4.0133">
        <ele>30</ele>
        <time>2020-11-04T18:10:16Z</time>
      </trkpt>
      <trkpt lat="43.76746" lon="4.01317">
        <ele>30</ele>
        <time>2020-11-04T18:10:19Z</time>
      </trkpt>
      <trkpt lat="43.76747" lon="4.01313">
        <ele>30</ele>
        <time>2020-11-04T18:10:20Z</time>
      </trkpt>
      <trkpt lat="43.76748" lon="4.01305">
        <ele>30</ele>
        <time>2020-11-04T18:10:22Z</time>
      </trkpt>
      <trkpt lat="43.76748" lon="4.01301">
        <ele>29</ele>
        <time>2020-11-04T18:10:23Z</time>
      </trkpt>
      <trkpt lat="43.76748" lon="4.01297">
        <ele>29</ele>
        <time>2020-11-04T18:10:24Z</time>
      </trkpt>
      <trkpt lat="43.7675" lon="4.01293">
        <ele>29</ele>
        <time>2020-11-04T18:10:25Z</time>
      </trkpt>
      <trkpt lat="43.76753" lon="4.0129">
        <ele>29</ele>
        <time>2020-11-04T18:10:26Z</time>
      </trkpt>
      <trkpt lat="43.76757" lon="4.01287">
        <ele>29</ele>
        <time>2020-11-04T18:10:27Z</time>
      </trkpt>
      <trkpt lat="43.7676" lon="4.01284">
        <ele>29</ele>
        <time>2020-11-04T18:10:28Z</time>
      </trkpt>
      <trkpt lat="43.76769" lon="4.01274">
        <ele>29</ele>
        <time>2020-11-04T18:10:31Z</time>
      </trkpt>
      <trkpt lat="43.76786" lon="4.01261">
        <ele>30</ele>
        <time>2020-11-04T18:10:36Z</time>
      </trkpt>
      <trkpt lat="43.76789" lon="4.0126">
        <ele>30</ele>
        <time>2020-11-04T18:10:37Z</time>
      </trkpt>
      <trkpt lat="43.76792" lon="4.01262">
        <ele>30</ele>
        <time>2020-11-04T18:10:38Z</time>
      </trkpt>
      <trkpt lat="43.76793" lon="4.01265">
        <ele>30</ele>
        <time>2020-11-04T18:10:39Z</time>
      </trkpt>
      <trkpt lat="43.76795" lon="4.01268">
        <ele>30</ele>
        <time>2020-11-04T18:10:40Z</time>
      </trkpt>
      <trkpt lat="43.768" lon="4.01273">
        <ele>31</ele>
        <time>2020-11-04T18:10:42Z</time>
      </trkpt>
      <trkpt lat="43.76803" lon="4.01276">
        <ele>31</ele>
        <time>2020-11-04T18:10:43Z</time>
      </trkpt>
      <trkpt lat="43.76807" lon="4.0128">
        <ele>31</ele>
        <time>2020-11-04T18:10:45Z</time>
      </trkpt>
      <trkpt lat="43.76807" lon="4.01281">
        <ele>32</ele>
        <time>2020-11-04T18:10:46Z</time>
      </trkpt>
      <trkpt lat="43.76804" lon="4.01277">
        <ele>33</ele>
        <time>2020-11-04T18:10:59Z</time>
      </trkpt>
      <trkpt lat="43.76804" lon="4.01277">
        <ele>33</ele>
        <time>2020-11-04T18:11:00Z</time>
      </trkpt>
      <trkpt lat="43.76802" lon="4.01274">
        <ele>33</ele>
        <time>2020-11-04T18:11:01Z</time>
      </trkpt>
      <trkpt lat="43.76799" lon="4.01271">
        <ele>33</ele>
        <time>2020-11-04T18:11:02Z</time>
      </trkpt>
      <trkpt lat="43.76797" lon="4.01267">
        <ele>33</ele>
        <time>2020-11-04T18:11:03Z</time>
      </trkpt>
      <trkpt lat="43.76794" lon="4.0126">
        <ele>33</ele>
        <time>2020-11-04T18:11:05Z</time>
      </trkpt>
      <trkpt lat="43.76792" lon="4.01257">
        <ele>33</ele>
        <time>2020-11-04T18:11:06Z</time>
      </trkpt>
      <trkpt lat="43.76791" lon="4.01255">
        <ele>33</ele>
        <time>2020-11-04T18:11:07Z</time>
      </trkpt>
      <trkpt lat="43.7679" lon="4.01253">
        <ele>33</ele>
        <time>2020-11-04T18:11:08Z</time>
      </trkpt>
      <trkpt lat="43.7679" lon="4.01252">
        <ele>33</ele>
        <time>2020-11-04T18:11:09Z</time>
      </trkpt>
      <trkpt lat="43.7679" lon="4.0125">
        <ele>32</ele>
        <time>2020-11-04T18:11:10Z</time>
      </trkpt>
      <trkpt lat="43.76791" lon="4.01249">
        <ele>32</ele>
        <time>2020-11-04T18:11:11Z</time>
      </trkpt>
      <trkpt lat="43.76792" lon="4.01247">
        <ele>32</ele>
        <time>2020-11-04T18:11:12Z</time>
      </trkpt>
      <trkpt lat="43.76793" lon="4.01245">
        <ele>32</ele>
        <time>2020-11-04T18:11:13Z</time>
      </trkpt>
      <trkpt lat="43.76795" lon="4.01241">
        <ele>32</ele>
        <time>2020-11-04T18:11:14Z</time>
      </trkpt>
      <trkpt lat="43.76797" lon="4.01237">
        <ele>32</ele>
        <time>2020-11-04T18:11:15Z</time>
      </trkpt>
      <trkpt lat="43.768" lon="4.0123">
        <ele>32</ele>
        <time>2020-11-04T18:11:17Z</time>
      </trkpt>
      <trkpt lat="43.76805" lon="4.01218">
        <ele>31</ele>
        <time>2020-11-04T18:11:21Z</time>
      </trkpt>
      <trkpt lat="43.76806" lon="4.01214">
        <ele>31</ele>
        <time>2020-11-04T18:11:22Z</time>
      </trkpt>
      <trkpt lat="43.76807" lon="4.01211">
        <ele>31</ele>
        <time>2020-11-04T18:11:23Z</time>
      </trkpt>
      <trkpt lat="43.76808" lon="4.01204">
        <ele>30</ele>
        <time>2020-11-04T18:11:26Z</time>
      </trkpt>
      <trkpt lat="43.76808" lon="4.012">
        <ele>30</ele>
        <time>2020-11-04T18:11:28Z</time>
      </trkpt>
      <trkpt lat="43.76808" lon="4.01198">
        <ele>30</ele>
        <time>2020-11-04T18:11:29Z</time>
      </trkpt>
      <trkpt lat="43.76808" lon="4.01195">
        <ele>30</ele>
        <time>2020-11-04T18:11:30Z</time>
      </trkpt>
      <trkpt lat="43.76809" lon="4.01193">
        <ele>30</ele>
        <time>2020-11-04T18:11:31Z</time>
      </trkpt>
      <trkpt lat="43.76809" lon="4.01191">
        <ele>30</ele>
        <time>2020-11-04T18:11:32Z</time>
      </trkpt>
      <trkpt lat="43.76811" lon="4.01187">
        <ele>29</ele>
        <time>2020-11-04T18:11:34Z</time>
      </trkpt>
      <trkpt lat="43.76811" lon="4.01185">
        <ele>29</ele>
        <time>2020-11-04T18:11:35Z</time>
      </trkpt>
      <trkpt lat="43.76812" lon="4.01183">
        <ele>29</ele>
        <time>2020-11-04T18:11:36Z</time>
      </trkpt>
      <trkpt lat="43.76813" lon="4.01181">
        <ele>29</ele>
        <time>2020-11-04T18:11:37Z</time>
      </trkpt>
      <trkpt lat="43.76814" lon="4.0118">
        <ele>29</ele>
        <time>2020-11-04T18:11:38Z</time>
      </trkpt>
      <trkpt lat="43.76814" lon="4.01179">
        <ele>29</ele>
        <time>2020-11-04T18:11:39Z</time>
      </trkpt>
      <trkpt lat="43.76815" lon="4.01177">
        <ele>29</ele>
        <time>2020-11-04T18:11:40Z</time>
      </trkpt>
      <trkpt lat="43.76815" lon="4.01176">
        <ele>29</ele>
        <time>2020-11-04T18:11:41Z</time>
      </trkpt>
      <trkpt lat="43.76813" lon="4.01178">
        <ele>28</ele>
        <time>2020-11-04T18:12:38Z</time>
      </trkpt>
      <trkpt lat="43.76813" lon="4.01178">
        <ele>28</ele>
        <time>2020-11-04T18:12:39Z</time>
      </trkpt>
      <trkpt lat="43.76813" lon="4.01179">
        <ele>28</ele>
        <time>2020-11-04T18:12:40Z</time>
      </trkpt>
      <trkpt lat="43.76811" lon="4.01183">
        <ele>28</ele>
        <time>2020-11-04T18:12:43Z</time>
      </trkpt>
      <trkpt lat="43.76811" lon="4.01184">
        <ele>28</ele>
        <time>2020-11-04T18:12:44Z</time>
      </trkpt>
      <trkpt lat="43.7681" lon="4.01186">
        <ele>28</ele>
        <time>2020-11-04T18:12:46Z</time>
      </trkpt>
      <trkpt lat="43.76809" lon="4.0119">
        <ele>28</ele>
        <time>2020-11-04T18:12:48Z</time>
      </trkpt>
      <trkpt lat="43.76809" lon="4.01192">
        <ele>28</ele>
        <time>2020-11-04T18:12:49Z</time>
      </trkpt>
      <trkpt lat="43.76809" lon="4.01194">
        <ele>28</ele>
        <time>2020-11-04T18:12:50Z</time>
      </trkpt>
      <trkpt lat="43.76809" lon="4.01196">
        <ele>28</ele>
        <time>2020-11-04T18:12:51Z</time>
      </trkpt>
      <trkpt lat="43.76809" lon="4.01196">
        <ele>28</ele>
        <time>2020-11-04T18:12:52Z</time>
      </trkpt>
      <trkpt lat="43.76809" lon="4.012">
        <ele>28</ele>
        <time>2020-11-04T18:12:54Z</time>
      </trkpt>
      <trkpt lat="43.76809" lon="4.012">
        <ele>28</ele>
        <time>2020-11-04T18:12:55Z</time>
      </trkpt>
      <trkpt lat="43.76807" lon="4.01202">
        <ele>28</ele>
        <time>2020-11-04T18:12:57Z</time>
      </trkpt>
      <trkpt lat="43.76806" lon="4.01204">
        <ele>28</ele>
        <time>2020-11-04T18:12:58Z</time>
      </trkpt>
      <trkpt lat="43.76805" lon="4.01209">
        <ele>29</ele>
        <time>2020-11-04T18:13:01Z</time>
      </trkpt>
      <trkpt lat="43.76804" lon="4.01211">
        <ele>29</ele>
        <time>2020-11-04T18:13:03Z</time>
      </trkpt>
      <trkpt lat="43.76804" lon="4.01214">
        <ele>29</ele>
        <time>2020-11-04T18:13:04Z</time>
      </trkpt>
      <trkpt lat="43.76804" lon="4.01222">
        <ele>29</ele>
        <time>2020-11-04T18:13:08Z</time>
      </trkpt>
      <trkpt lat="43.76804" lon="4.01223">
        <ele>29</ele>
        <time>2020-11-04T18:13:09Z</time>
      </trkpt>
      <trkpt lat="43.76803" lon="4.01224">
        <ele>29</ele>
        <time>2020-11-04T18:13:10Z</time>
      </trkpt>
      <trkpt lat="43.76801" lon="4.01229">
        <ele>30</ele>
        <time>2020-11-04T18:13:13Z</time>
      </trkpt>
      <trkpt lat="43.76799" lon="4.01235">
        <ele>30</ele>
        <time>2020-11-04T18:13:16Z</time>
      </trkpt>
      <trkpt lat="43.76797" lon="4.01237">
        <ele>30</ele>
        <time>2020-11-04T18:13:17Z</time>
      </trkpt>
      <trkpt lat="43.76796" lon="4.0124">
        <ele>30</ele>
        <time>2020-11-04T18:13:18Z</time>
      </trkpt>
      <trkpt lat="43.7679" lon="4.01254">
        <ele>30</ele>
        <time>2020-11-04T18:13:24Z</time>
      </trkpt>
      <trkpt lat="43.76791" lon="4.01257">
        <ele>30</ele>
        <time>2020-11-04T18:13:26Z</time>
      </trkpt>
      <trkpt lat="43.76792" lon="4.01258">
        <ele>30</ele>
        <time>2020-11-04T18:13:27Z</time>
      </trkpt>
      <trkpt lat="43.76793" lon="4.0126">
        <ele>30</ele>
        <time>2020-11-04T18:13:28Z</time>
      </trkpt>
      <trkpt lat="43.76795" lon="4.01263">
        <ele>31</ele>
        <time>2020-11-04T18:13:29Z</time>
      </trkpt>
      <trkpt lat="43.76797" lon="4.01266">
        <ele>31</ele>
        <time>2020-11-04T18:13:30Z</time>
      </trkpt>
      <trkpt lat="43.76804" lon="4.01276">
        <ele>31</ele>
        <time>2020-11-04T18:13:33Z</time>
      </trkpt>
      <trkpt lat="43.76808" lon="4.0128">
        <ele>32</ele>
        <time>2020-11-04T18:13:35Z</time>
      </trkpt>
      <trkpt lat="43.76816" lon="4.01287">
        <ele>32</ele>
        <time>2020-11-04T18:13:40Z</time>
      </trkpt>
      <trkpt lat="43.76819" lon="4.01287">
        <ele>33</ele>
        <time>2020-11-04T18:13:42Z</time>
      </trkpt>
      <trkpt lat="43.76821" lon="4.01284">
        <ele>33</ele>
        <time>2020-11-04T18:13:43Z</time>
      </trkpt>
      <trkpt lat="43.76822" lon="4.01281">
        <ele>33</ele>
        <time>2020-11-04T18:13:44Z</time>
      </trkpt>
      <trkpt lat="43.76823" lon="4.01276">
        <ele>33</ele>
        <time>2020-11-04T18:13:45Z</time>
      </trkpt>
      <trkpt lat="43.76824" lon="4.01271">
        <ele>33</ele>
        <time>2020-11-04T18:13:46Z</time>
      </trkpt>
      <trkpt lat="43.76825" lon="4.01266">
        <ele>33</ele>
        <time>2020-11-04T18:13:47Z</time>
      </trkpt>
      <trkpt lat="43.76826" lon="4.0126">
        <ele>33</ele>
        <time>2020-11-04T18:13:48Z</time>
      </trkpt>
      <trkpt lat="43.76828" lon="4.01255">
        <ele>34</ele>
        <time>2020-11-04T18:13:49Z</time>
      </trkpt>
      <trkpt lat="43.76829" lon="4.01249">
        <ele>33</ele>
        <time>2020-11-04T18:13:50Z</time>
      </trkpt>
      <trkpt lat="43.76831" lon="4.01244">
        <ele>33</ele>
        <time>2020-11-04T18:13:51Z</time>
      </trkpt>
      <trkpt lat="43.7684" lon="4.01211">
        <ele>33</ele>
        <time>2020-11-04T18:13:57Z</time>
      </trkpt>
      <trkpt lat="43.76841" lon="4.01204">
        <ele>33</ele>
        <time>2020-11-04T18:13:58Z</time>
      </trkpt>
      <trkpt lat="43.76843" lon="4.01198">
        <ele>33</ele>
        <time>2020-11-04T18:13:59Z</time>
      </trkpt>
      <trkpt lat="43.76844" lon="4.01191">
        <ele>33</ele>
        <time>2020-11-04T18:14:00Z</time>
      </trkpt>
      <trkpt lat="43.76846" lon="4.01184">
        <ele>33</ele>
        <time>2020-11-04T18:14:01Z</time>
      </trkpt>
      <trkpt lat="43.76847" lon="4.01177">
        <ele>33</ele>
        <time>2020-11-04T18:14:02Z</time>
      </trkpt>
      <trkpt lat="43.76849" lon="4.0117">
        <ele>33</ele>
        <time>2020-11-04T18:14:03Z</time>
      </trkpt>
      <trkpt lat="43.76851" lon="4.01162">
        <ele>32</ele>
        <time>2020-11-04T18:14:04Z</time>
      </trkpt>
      <trkpt lat="43.76852" lon="4.01154">
        <ele>32</ele>
        <time>2020-11-04T18:14:05Z</time>
      </trkpt>
      <trkpt lat="43.76854" lon="4.01146">
        <ele>32</ele>
        <time>2020-11-04T18:14:06Z</time>
      </trkpt>
      <trkpt lat="43.7686" lon="4.01125">
        <ele>32</ele>
        <time>2020-11-04T18:14:09Z</time>
      </trkpt>
      <trkpt lat="43.76865" lon="4.01113">
        <ele>32</ele>
        <time>2020-11-04T18:14:11Z</time>
      </trkpt>
      <trkpt lat="43.76867" lon="4.01108">
        <ele>32</ele>
        <time>2020-11-04T18:14:12Z</time>
      </trkpt>
      <trkpt lat="43.7687" lon="4.01103">
        <ele>31</ele>
        <time>2020-11-04T18:14:13Z</time>
      </trkpt>
      <trkpt lat="43.76884" lon="4.01086">
        <ele>31</ele>
        <time>2020-11-04T18:14:17Z</time>
      </trkpt>
      <trkpt lat="43.76888" lon="4.01082">
        <ele>31</ele>
        <time>2020-11-04T18:14:18Z</time>
      </trkpt>
      <trkpt lat="43.76892" lon="4.01078">
        <ele>31</ele>
        <time>2020-11-04T18:14:19Z</time>
      </trkpt>
      <trkpt lat="43.76907" lon="4.01062">
        <ele>31</ele>
        <time>2020-11-04T18:14:23Z</time>
      </trkpt>
      <trkpt lat="43.76916" lon="4.01052">
        <ele>31</ele>
        <time>2020-11-04T18:14:26Z</time>
      </trkpt>
      <trkpt lat="43.76921" lon="4.01046">
        <ele>31</ele>
        <time>2020-11-04T18:14:28Z</time>
      </trkpt>
      <trkpt lat="43.76936" lon="4.01032">
        <ele>31</ele>
        <time>2020-11-04T18:14:34Z</time>
      </trkpt>
      <trkpt lat="43.76938" lon="4.01029">
        <ele>31</ele>
        <time>2020-11-04T18:14:35Z</time>
      </trkpt>
      <trkpt lat="43.76941" lon="4.01026">
        <ele>31</ele>
        <time>2020-11-04T18:14:36Z</time>
      </trkpt>
      <trkpt lat="43.76951" lon="4.01018">
        <ele>31</ele>
        <time>2020-11-04T18:14:39Z</time>
      </trkpt>
      <trkpt lat="43.76955" lon="4.01015">
        <ele>31</ele>
        <time>2020-11-04T18:14:40Z</time>
      </trkpt>
      <trkpt lat="43.76958" lon="4.01011">
        <ele>31</ele>
        <time>2020-11-04T18:14:41Z</time>
      </trkpt>
      <trkpt lat="43.76961" lon="4.01006">
        <ele>31</ele>
        <time>2020-11-04T18:14:42Z</time>
      </trkpt>
      <trkpt lat="43.76962" lon="4.01001">
        <ele>31</ele>
        <time>2020-11-04T18:14:43Z</time>
      </trkpt>
      <trkpt lat="43.76963" lon="4.00995">
        <ele>31</ele>
        <time>2020-11-04T18:14:44Z</time>
      </trkpt>
      <trkpt lat="43.76963" lon="4.00988">
        <ele>31</ele>
        <time>2020-11-04T18:14:45Z</time>
      </trkpt>
      <trkpt lat="43.76962" lon="4.0098">
        <ele>31</ele>
        <time>2020-11-04T18:14:46Z</time>
      </trkpt>
      <trkpt lat="43.76964" lon="4.00967">
        <ele>30</ele>
        <time>2020-11-04T18:14:48Z</time>
      </trkpt>
      <trkpt lat="43.76969" lon="4.00956">
        <ele>30</ele>
        <time>2020-11-04T18:14:51Z</time>
      </trkpt>
      <trkpt lat="43.76971" lon="4.00953">
        <ele>30</ele>
        <time>2020-11-04T18:14:52Z</time>
      </trkpt>
      <trkpt lat="43.76973" lon="4.0095">
        <ele>30</ele>
        <time>2020-11-04T18:14:53Z</time>
      </trkpt>
      <trkpt lat="43.76979" lon="4.00943">
        <ele>30</ele>
        <time>2020-11-04T18:14:55Z</time>
      </trkpt>
      <trkpt lat="43.76985" lon="4.00938">
        <ele>30</ele>
        <time>2020-11-04T18:14:57Z</time>
      </trkpt>
      <trkpt lat="43.76988" lon="4.00936">
        <ele>30</ele>
        <time>2020-11-04T18:14:58Z</time>
      </trkpt>
      <trkpt lat="43.76994" lon="4.00931">
        <ele>30</ele>
        <time>2020-11-04T18:15:00Z</time>
      </trkpt>
      <trkpt lat="43.77002" lon="4.00924">
        <ele>30</ele>
        <time>2020-11-04T18:15:02Z</time>
      </trkpt>
      <trkpt lat="43.77014" lon="4.00916">
        <ele>31</ele>
        <time>2020-11-04T18:15:05Z</time>
      </trkpt>
      <trkpt lat="43.77019" lon="4.00913">
        <ele>31</ele>
        <time>2020-11-04T18:15:06Z</time>
      </trkpt>
      <trkpt lat="43.77024" lon="4.0091">
        <ele>31</ele>
        <time>2020-11-04T18:15:07Z</time>
      </trkpt>
      <trkpt lat="43.77031" lon="4.00904">
        <ele>31</ele>
        <time>2020-11-04T18:15:09Z</time>
      </trkpt>
      <trkpt lat="43.77037" lon="4.00896">
        <ele>31</ele>
        <time>2020-11-04T18:15:11Z</time>
      </trkpt>
      <trkpt lat="43.77051" lon="4.00865">
        <ele>32</ele>
        <time>2020-11-04T18:15:18Z</time>
      </trkpt>
      <trkpt lat="43.77066" lon="4.00805">
        <ele>34</ele>
        <time>2020-11-04T18:15:32Z</time>
      </trkpt>
      <trkpt lat="43.77066" lon="4.00801">
        <ele>34</ele>
        <time>2020-11-04T18:15:33Z</time>
      </trkpt>
      <trkpt lat="43.77073" lon="4.00764">
        <ele>36</ele>
        <time>2020-11-04T18:15:41Z</time>
      </trkpt>
      <trkpt lat="43.77074" lon="4.0076">
        <ele>36</ele>
        <time>2020-11-04T18:15:42Z</time>
      </trkpt>
      <trkpt lat="43.77075" lon="4.00756">
        <ele>37</ele>
        <time>2020-11-04T18:15:43Z</time>
      </trkpt>
      <trkpt lat="43.77076" lon="4.00752">
        <ele>37</ele>
        <time>2020-11-04T18:15:44Z</time>
      </trkpt>
      <trkpt lat="43.77077" lon="4.00748">
        <ele>37</ele>
        <time>2020-11-04T18:15:45Z</time>
      </trkpt>
      <trkpt lat="43.77078" lon="4.00744">
        <ele>37</ele>
        <time>2020-11-04T18:15:46Z</time>
      </trkpt>
      <trkpt lat="43.7709" lon="4.00685">
        <ele>40</ele>
        <time>2020-11-04T18:16:00Z</time>
      </trkpt>
      <trkpt lat="43.77098" lon="4.00641">
        <ele>42</ele>
        <time>2020-11-04T18:16:11Z</time>
      </trkpt>
      <trkpt lat="43.77099" lon="4.00636">
        <ele>43</ele>
        <time>2020-11-04T18:16:12Z</time>
      </trkpt>
      <trkpt lat="43.77097" lon="4.00624">
        <ele>43</ele>
        <time>2020-11-04T18:16:15Z</time>
      </trkpt>
      <trkpt lat="43.77097" lon="4.0062">
        <ele>43</ele>
        <time>2020-11-04T18:16:16Z</time>
      </trkpt>
      <trkpt lat="43.77095" lon="4.00602">
        <ele>44</ele>
        <time>2020-11-04T18:16:21Z</time>
      </trkpt>
      <trkpt lat="43.77091" lon="4.00594">
        <ele>44</ele>
        <time>2020-11-04T18:16:23Z</time>
      </trkpt>
      <trkpt lat="43.77088" lon="4.00591">
        <ele>44</ele>
        <time>2020-11-04T18:16:24Z</time>
      </trkpt>
      <trkpt lat="43.77085" lon="4.00587">
        <ele>44</ele>
        <time>2020-11-04T18:16:25Z</time>
      </trkpt>
      <trkpt lat="43.77077" lon="4.00577">
        <ele>45</ele>
        <time>2020-11-04T18:16:28Z</time>
      </trkpt>
      <trkpt lat="43.77074" lon="4.00573">
        <ele>45</ele>
        <time>2020-11-04T18:16:29Z</time>
      </trkpt>
      <trkpt lat="43.77071" lon="4.00569">
        <ele>45</ele>
        <time>2020-11-04T18:16:30Z</time>
      </trkpt>
      <trkpt lat="43.77068" lon="4.00565">
        <ele>45</ele>
        <time>2020-11-04T18:16:31Z</time>
      </trkpt>
      <trkpt lat="43.77065" lon="4.0056">
        <ele>45</ele>
        <time>2020-11-04T18:16:32Z</time>
      </trkpt>
      <trkpt lat="43.77055" lon="4.00539">
        <ele>45</ele>
        <time>2020-11-04T18:16:36Z</time>
      </trkpt>
      <trkpt lat="43.77034" lon="4.00477">
        <ele>47</ele>
        <time>2020-11-04T18:16:47Z</time>
      </trkpt>
      <trkpt lat="43.77032" lon="4.00471">
        <ele>47</ele>
        <time>2020-11-04T18:16:48Z</time>
      </trkpt>
      <trkpt lat="43.77016" lon="4.00422">
        <ele>48</ele>
        <time>2020-11-04T18:16:57Z</time>
      </trkpt>
      <trkpt lat="43.77015" lon="4.00418">
        <ele>48</ele>
        <time>2020-11-04T18:16:58Z</time>
      </trkpt>
      <trkpt lat="43.77017" lon="4.00416">
        <ele>48</ele>
        <time>2020-11-04T18:16:59Z</time>
      </trkpt>
      <trkpt lat="43.77019" lon="4.00414">
        <ele>48</ele>
        <time>2020-11-04T18:17:00Z</time>
      </trkpt>
      <trkpt lat="43.77022" lon="4.00413">
        <ele>48</ele>
        <time>2020-11-04T18:17:01Z</time>
      </trkpt>
      <trkpt lat="43.77031" lon="4.00407">
        <ele>48</ele>
        <time>2020-11-04T18:17:05Z</time>
      </trkpt>
      <trkpt lat="43.77038" lon="4.00404">
        <ele>49</ele>
        <time>2020-11-04T18:17:11Z</time>
      </trkpt>
      <trkpt lat="43.77037" lon="4.00404">
        <ele>49</ele>
        <time>2020-11-04T18:17:13Z</time>
      </trkpt>
      <trkpt lat="43.77034" lon="4.00404">
        <ele>49</ele>
        <time>2020-11-04T18:17:14Z</time>
      </trkpt>
      <trkpt lat="43.77032" lon="4.00406">
        <ele>49</ele>
        <time>2020-11-04T18:17:15Z</time>
      </trkpt>
      <trkpt lat="43.77029" lon="4.00409">
        <ele>49</ele>
        <time>2020-11-04T18:17:16Z</time>
      </trkpt>
      <trkpt lat="43.77026" lon="4.00411">
        <ele>50</ele>
        <time>2020-11-04T18:17:17Z</time>
      </trkpt>
      <trkpt lat="43.77023" lon="4.00413">
        <ele>49</ele>
        <time>2020-11-04T18:17:18Z</time>
      </trkpt>
      <trkpt lat="43.7702" lon="4.00415">
        <ele>49</ele>
        <time>2020-11-04T18:17:19Z</time>
      </trkpt>
      <trkpt lat="43.7701" lon="4.00414">
        <ele>49</ele>
        <time>2020-11-04T18:17:22Z</time>
      </trkpt>
      <trkpt lat="43.77006" lon="4.00412">
        <ele>49</ele>
        <time>2020-11-04T18:17:23Z</time>
      </trkpt>
      <trkpt lat="43.77003" lon="4.0041">
        <ele>49</ele>
        <time>2020-11-04T18:17:24Z</time>
      </trkpt>
      <trkpt lat="43.76998" lon="4.00407">
        <ele>49</ele>
        <time>2020-11-04T18:17:25Z</time>
      </trkpt>
      <trkpt lat="43.76974" lon="4.0038">
        <ele>49</ele>
        <time>2020-11-04T18:17:32Z</time>
      </trkpt>
      <trkpt lat="43.76965" lon="4.00352">
        <ele>49</ele>
        <time>2020-11-04T18:17:37Z</time>
      </trkpt>
      <trkpt lat="43.76967" lon="4.00313">
        <ele>50</ele>
        <time>2020-11-04T18:17:43Z</time>
      </trkpt>
      <trkpt lat="43.76969" lon="4.00306">
        <ele>50</ele>
        <time>2020-11-04T18:17:44Z</time>
      </trkpt>
      <trkpt lat="43.76972" lon="4.003">
        <ele>50</ele>
        <time>2020-11-04T18:17:45Z</time>
      </trkpt>
      <trkpt lat="43.77002" lon="4.00219">
        <ele>52</ele>
        <time>2020-11-04T18:17:59Z</time>
      </trkpt>
      <trkpt lat="43.77003" lon="4.00213">
        <ele>52</ele>
        <time>2020-11-04T18:18:00Z</time>
      </trkpt>
      <trkpt lat="43.77009" lon="4.00209">
        <ele>52</ele>
        <time>2020-11-04T18:18:02Z</time>
      </trkpt>
      <trkpt lat="43.77013" lon="4.00211">
        <ele>52</ele>
        <time>2020-11-04T18:18:03Z</time>
      </trkpt>
      <trkpt lat="43.77017" lon="4.00215">
        <ele>52</ele>
        <time>2020-11-04T18:18:04Z</time>
      </trkpt>
      <trkpt lat="43.77021" lon="4.00219">
        <ele>52</ele>
        <time>2020-11-04T18:18:05Z</time>
      </trkpt>
      <trkpt lat="43.77027" lon="4.00221">
        <ele>52</ele>
        <time>2020-11-04T18:18:06Z</time>
      </trkpt>
      <trkpt lat="43.77033" lon="4.00224">
        <ele>52</ele>
        <time>2020-11-04T18:18:07Z</time>
      </trkpt>
      <trkpt lat="43.77039" lon="4.00227">
        <ele>52</ele>
        <time>2020-11-04T18:18:08Z</time>
      </trkpt>
      <trkpt lat="43.77046" lon="4.0023">
        <ele>52</ele>
        <time>2020-11-04T18:18:09Z</time>
      </trkpt>
      <trkpt lat="43.77053" lon="4.00233">
        <ele>52</ele>
        <time>2020-11-04T18:18:10Z</time>
      </trkpt>
      <trkpt lat="43.77061" lon="4.00238">
        <ele>51</ele>
        <time>2020-11-04T18:18:11Z</time>
      </trkpt>
      <trkpt lat="43.77089" lon="4.00254">
        <ele>50</ele>
        <time>2020-11-04T18:18:15Z</time>
      </trkpt>
      <trkpt lat="43.77101" lon="4.00259">
        <ele>49</ele>
        <time>2020-11-04T18:18:17Z</time>
      </trkpt>
      <trkpt lat="43.77107" lon="4.0026">
        <ele>49</ele>
        <time>2020-11-04T18:18:18Z</time>
      </trkpt>
      <trkpt lat="43.7712" lon="4.00257">
        <ele>48</ele>
        <time>2020-11-04T18:18:20Z</time>
      </trkpt>
      <trkpt lat="43.77128" lon="4.00254">
        <ele>47</ele>
        <time>2020-11-04T18:18:21Z</time>
      </trkpt>
      <trkpt lat="43.77135" lon="4.00249">
        <ele>47</ele>
        <time>2020-11-04T18:18:22Z</time>
      </trkpt>
      <trkpt lat="43.77173" lon="4.00227">
        <ele>44</ele>
        <time>2020-11-04T18:18:27Z</time>
      </trkpt>
      <trkpt lat="43.7718" lon="4.00224">
        <ele>44</ele>
        <time>2020-11-04T18:18:28Z</time>
      </trkpt>
      <trkpt lat="43.77203" lon="4.00221">
        <ele>43</ele>
        <time>2020-11-04T18:18:31Z</time>
      </trkpt>
      <trkpt lat="43.7721" lon="4.0022">
        <ele>42</ele>
        <time>2020-11-04T18:18:32Z</time>
      </trkpt>
      <trkpt lat="43.77217" lon="4.00216">
        <ele>42</ele>
        <time>2020-11-04T18:18:33Z</time>
      </trkpt>
      <trkpt lat="43.77225" lon="4.00203">
        <ele>41</ele>
        <time>2020-11-04T18:18:35Z</time>
      </trkpt>
      <trkpt lat="43.77234" lon="4.00181">
        <ele>40</ele>
        <time>2020-11-04T18:18:38Z</time>
      </trkpt>
      <trkpt lat="43.77243" lon="4.00161">
        <ele>39</ele>
        <time>2020-11-04T18:18:41Z</time>
      </trkpt>
      <trkpt lat="43.77261" lon="4.00145">
        <ele>39</ele>
        <time>2020-11-04T18:18:45Z</time>
      </trkpt>
      <trkpt lat="43.77267" lon="4.00144">
        <ele>39</ele>
        <time>2020-11-04T18:18:46Z</time>
      </trkpt>
      <trkpt lat="43.77272" lon="4.00143">
        <ele>39</ele>
        <time>2020-11-04T18:18:47Z</time>
      </trkpt>
      <trkpt lat="43.77278" lon="4.00142">
        <ele>39</ele>
        <time>2020-11-04T18:18:48Z</time>
      </trkpt>
      <trkpt lat="43.77288" lon="4.00142">
        <ele>39</ele>
        <time>2020-11-04T18:18:50Z</time>
      </trkpt>
      <trkpt lat="43.77293" lon="4.00142">
        <ele>40</ele>
        <time>2020-11-04T18:18:51Z</time>
      </trkpt>
      <trkpt lat="43.77299" lon="4.00141">
        <ele>40</ele>
        <time>2020-11-04T18:18:52Z</time>
      </trkpt>
      <trkpt lat="43.77305" lon="4.00141">
        <ele>40</ele>
        <time>2020-11-04T18:18:53Z</time>
      </trkpt>
      <trkpt lat="43.77316" lon="4.0014">
        <ele>40</ele>
        <time>2020-11-04T18:18:55Z</time>
      </trkpt>
      <trkpt lat="43.77332" lon="4.00137">
        <ele>40</ele>
        <time>2020-11-04T18:18:58Z</time>
      </trkpt>
      <trkpt lat="43.77343" lon="4.00131">
        <ele>40</ele>
        <time>2020-11-04T18:19:00Z</time>
      </trkpt>
      <trkpt lat="43.77417" lon="4.00093">
        <ele>40</ele>
        <time>2020-11-04T18:19:14Z</time>
      </trkpt>
      <trkpt lat="43.77451" lon="4.00066">
        <ele>41</ele>
        <time>2020-11-04T18:19:21Z</time>
      </trkpt>
      <trkpt lat="43.77484" lon="4.00035">
        <ele>42</ele>
        <time>2020-11-04T18:19:30Z</time>
      </trkpt>
      <trkpt lat="43.77487" lon="4.00031">
        <ele>42</ele>
        <time>2020-11-04T18:19:31Z</time>
      </trkpt>
      <trkpt lat="43.77491" lon="4.00026">
        <ele>42</ele>
        <time>2020-11-04T18:19:32Z</time>
      </trkpt>
      <trkpt lat="43.77497" lon="4.00014">
        <ele>42</ele>
        <time>2020-11-04T18:19:34Z</time>
      </trkpt>
      <trkpt lat="43.77501" lon="4.00009">
        <ele>42</ele>
        <time>2020-11-04T18:19:35Z</time>
      </trkpt>
      <trkpt lat="43.77504" lon="4.00003">
        <ele>42</ele>
        <time>2020-11-04T18:19:36Z</time>
      </trkpt>
      <trkpt lat="43.77508" lon="3.99997">
        <ele>43</ele>
        <time>2020-11-04T18:19:37Z</time>
      </trkpt>
      <trkpt lat="43.77512" lon="3.99992">
        <ele>43</ele>
        <time>2020-11-04T18:19:38Z</time>
      </trkpt>
      <trkpt lat="43.77538" lon="3.99965">
        <ele>43</ele>
        <time>2020-11-04T18:19:44Z</time>
      </trkpt>
      <trkpt lat="43.77542" lon="3.99961">
        <ele>43</ele>
        <time>2020-11-04T18:19:45Z</time>
      </trkpt>
      <trkpt lat="43.77546" lon="3.99957">
        <ele>43</ele>
        <time>2020-11-04T18:19:46Z</time>
      </trkpt>
      <trkpt lat="43.77551" lon="3.99953">
        <ele>43</ele>
        <time>2020-11-04T18:19:47Z</time>
      </trkpt>
      <trkpt lat="43.77555" lon="3.9995">
        <ele>43</ele>
        <time>2020-11-04T18:19:48Z</time>
      </trkpt>
      <trkpt lat="43.77559" lon="3.99946">
        <ele>43</ele>
        <time>2020-11-04T18:19:49Z</time>
      </trkpt>
      <trkpt lat="43.77619" lon="3.99892">
        <ele>43</ele>
        <time>2020-11-04T18:20:03Z</time>
      </trkpt>
      <trkpt lat="43.77638" lon="3.99878">
        <ele>44</ele>
        <time>2020-11-04T18:20:08Z</time>
      </trkpt>
      <trkpt lat="43.77646" lon="3.99874">
        <ele>44</ele>
        <time>2020-11-04T18:20:10Z</time>
      </trkpt>
      <trkpt lat="43.77657" lon="3.99871">
        <ele>44</ele>
        <time>2020-11-04T18:20:13Z</time>
      </trkpt>
      <trkpt lat="43.77669" lon="3.99871">
        <ele>44</ele>
        <time>2020-11-04T18:20:16Z</time>
      </trkpt>
      <trkpt lat="43.77678" lon="3.99871">
        <ele>44</ele>
        <time>2020-11-04T18:20:18Z</time>
      </trkpt>
      <trkpt lat="43.7769" lon="3.9987">
        <ele>45</ele>
        <time>2020-11-04T18:20:21Z</time>
      </trkpt>
      <trkpt lat="43.77694" lon="3.9987">
        <ele>44</ele>
        <time>2020-11-04T18:20:22Z</time>
      </trkpt>
      <trkpt lat="43.77699" lon="3.9987">
        <ele>44</ele>
        <time>2020-11-04T18:20:23Z</time>
      </trkpt>
      <trkpt lat="43.77704" lon="3.9987">
        <ele>44</ele>
        <time>2020-11-04T18:20:24Z</time>
      </trkpt>
      <trkpt lat="43.77712" lon="3.99869">
        <ele>44</ele>
        <time>2020-11-04T18:20:26Z</time>
      </trkpt>
      <trkpt lat="43.77716" lon="3.99869">
        <ele>44</ele>
        <time>2020-11-04T18:20:27Z</time>
      </trkpt>
      <trkpt lat="43.77721" lon="3.99869">
        <ele>44</ele>
        <time>2020-11-04T18:20:28Z</time>
      </trkpt>
      <trkpt lat="43.77729" lon="3.99868">
        <ele>44</ele>
        <time>2020-11-04T18:20:30Z</time>
      </trkpt>
      <trkpt lat="43.77734" lon="3.99867">
        <ele>44</ele>
        <time>2020-11-04T18:20:31Z</time>
      </trkpt>
      <trkpt lat="43.77739" lon="3.99866">
        <ele>44</ele>
        <time>2020-11-04T18:20:32Z</time>
      </trkpt>
      <trkpt lat="43.77748" lon="3.99864">
        <ele>44</ele>
        <time>2020-11-04T18:20:34Z</time>
      </trkpt>
      <trkpt lat="43.77762" lon="3.9986">
        <ele>44</ele>
        <time>2020-11-04T18:20:37Z</time>
      </trkpt>
      <trkpt lat="43.77768" lon="3.99859">
        <ele>44</ele>
        <time>2020-11-04T18:20:38Z</time>
      </trkpt>
      <trkpt lat="43.77773" lon="3.99858">
        <ele>44</ele>
        <time>2020-11-04T18:20:39Z</time>
      </trkpt>
      <trkpt lat="43.77783" lon="3.99856">
        <ele>44</ele>
        <time>2020-11-04T18:20:41Z</time>
      </trkpt>
      <trkpt lat="43.77789" lon="3.99855">
        <ele>44</ele>
        <time>2020-11-04T18:20:42Z</time>
      </trkpt>
      <trkpt lat="43.77794" lon="3.99855">
        <ele>44</ele>
        <time>2020-11-04T18:20:43Z</time>
      </trkpt>
      <trkpt lat="43.778" lon="3.99854">
        <ele>44</ele>
        <time>2020-11-04T18:20:44Z</time>
      </trkpt>
      <trkpt lat="43.77817" lon="3.99849">
        <ele>43</ele>
        <time>2020-11-04T18:20:47Z</time>
      </trkpt>
      <trkpt lat="43.77832" lon="3.99843">
        <ele>43</ele>
        <time>2020-11-04T18:20:50Z</time>
      </trkpt>
      <trkpt lat="43.77849" lon="3.99831">
        <ele>42</ele>
        <time>2020-11-04T18:20:54Z</time>
      </trkpt>
      <trkpt lat="43.77854" lon="3.99827">
        <ele>42</ele>
        <time>2020-11-04T18:20:55Z</time>
      </trkpt>
      <trkpt lat="43.77867" lon="3.99807">
        <ele>41</ele>
        <time>2020-11-04T18:20:59Z</time>
      </trkpt>
      <trkpt lat="43.7787" lon="3.99801">
        <ele>41</ele>
        <time>2020-11-04T18:21:00Z</time>
      </trkpt>
      <trkpt lat="43.77891" lon="3.99756">
        <ele>41</ele>
        <time>2020-11-04T18:21:08Z</time>
      </trkpt>
      <trkpt lat="43.77894" lon="3.9975">
        <ele>41</ele>
        <time>2020-11-04T18:21:09Z</time>
      </trkpt>
      <trkpt lat="43.77903" lon="3.99734">
        <ele>41</ele>
        <time>2020-11-04T18:21:12Z</time>
      </trkpt>
      <trkpt lat="43.7792" lon="3.99705">
        <ele>42</ele>
        <time>2020-11-04T18:21:17Z</time>
      </trkpt>
      <trkpt lat="43.77926" lon="3.99694">
        <ele>42</ele>
        <time>2020-11-04T18:21:19Z</time>
      </trkpt>
      <trkpt lat="43.77944" lon="3.99665">
        <ele>42</ele>
        <time>2020-11-04T18:21:25Z</time>
      </trkpt>
      <trkpt lat="43.77949" lon="3.99657">
        <ele>42</ele>
        <time>2020-11-04T18:21:27Z</time>
      </trkpt>
      <trkpt lat="43.77952" lon="3.99653">
        <ele>42</ele>
        <time>2020-11-04T18:21:28Z</time>
      </trkpt>
      <trkpt lat="43.77968" lon="3.99638">
        <ele>42</ele>
        <time>2020-11-04T18:21:33Z</time>
      </trkpt>
      <trkpt lat="43.77972" lon="3.99634">
        <ele>42</ele>
        <time>2020-11-04T18:21:34Z</time>
      </trkpt>
      <trkpt lat="43.77976" lon="3.99631">
        <ele>42</ele>
        <time>2020-11-04T18:21:35Z</time>
      </trkpt>
      <trkpt lat="43.77984" lon="3.99627">
        <ele>42</ele>
        <time>2020-11-04T18:21:37Z</time>
      </trkpt>
      <trkpt lat="43.78" lon="3.99614">
        <ele>42</ele>
        <time>2020-11-04T18:21:42Z</time>
      </trkpt>
      <trkpt lat="43.78004" lon="3.99606">
        <ele>42</ele>
        <time>2020-11-04T18:21:44Z</time>
      </trkpt>
      <trkpt lat="43.78007" lon="3.99596">
        <ele>42</ele>
        <time>2020-11-04T18:21:46Z</time>
      </trkpt>
      <trkpt lat="43.78008" lon="3.99591">
        <ele>42</ele>
        <time>2020-11-04T18:21:47Z</time>
      </trkpt>
      <trkpt lat="43.78013" lon="3.99576">
        <ele>42</ele>
        <time>2020-11-04T18:21:50Z</time>
      </trkpt>
      <trkpt lat="43.78015" lon="3.9957">
        <ele>42</ele>
        <time>2020-11-04T18:21:51Z</time>
      </trkpt>
      <trkpt lat="43.78018" lon="3.99554">
        <ele>42</ele>
        <time>2020-11-04T18:21:54Z</time>
      </trkpt>
      <trkpt lat="43.78022" lon="3.99537">
        <ele>42</ele>
        <time>2020-11-04T18:21:58Z</time>
      </trkpt>
      <trkpt lat="43.78024" lon="3.99534">
        <ele>42</ele>
        <time>2020-11-04T18:21:59Z</time>
      </trkpt>
      <trkpt lat="43.78026" lon="3.9953">
        <ele>42</ele>
        <time>2020-11-04T18:22:00Z</time>
      </trkpt>
      <trkpt lat="43.78027" lon="3.99526">
        <ele>42</ele>
        <time>2020-11-04T18:22:01Z</time>
      </trkpt>
      <trkpt lat="43.78029" lon="3.99523">
        <ele>42</ele>
        <time>2020-11-04T18:22:02Z</time>
      </trkpt>
      <trkpt lat="43.7803" lon="3.99519">
        <ele>42</ele>
        <time>2020-11-04T18:22:03Z</time>
      </trkpt>
      <trkpt lat="43.78032" lon="3.99515">
        <ele>42</ele>
        <time>2020-11-04T18:22:04Z</time>
      </trkpt>
      <trkpt lat="43.78037" lon="3.995">
        <ele>42</ele>
        <time>2020-11-04T18:22:08Z</time>
      </trkpt>
      <trkpt lat="43.78047" lon="3.99488">
        <ele>42</ele>
        <time>2020-11-04T18:22:12Z</time>
      </trkpt>
      <trkpt lat="43.78049" lon="3.99487">
        <ele>42</ele>
        <time>2020-11-04T18:22:13Z</time>
      </trkpt>
      <trkpt lat="43.78052" lon="3.99486">
        <ele>42</ele>
        <time>2020-11-04T18:22:14Z</time>
      </trkpt>
      <trkpt lat="43.78054" lon="3.99485">
        <ele>42</ele>
        <time>2020-11-04T18:22:15Z</time>
      </trkpt>
      <trkpt lat="43.78068" lon="3.99474">
        <ele>42</ele>
        <time>2020-11-04T18:22:20Z</time>
      </trkpt>
      <trkpt lat="43.78074" lon="3.99467">
        <ele>43</ele>
        <time>2020-11-04T18:22:23Z</time>
      </trkpt>
      <trkpt lat="43.78078" lon="3.99463">
        <ele>43</ele>
        <time>2020-11-04T18:22:25Z</time>
      </trkpt>
      <trkpt lat="43.78087" lon="3.99455">
        <ele>43</ele>
        <time>2020-11-04T18:22:29Z</time>
      </trkpt>
      <trkpt lat="43.78089" lon="3.99452">
        <ele>44</ele>
        <time>2020-11-04T18:22:30Z</time>
      </trkpt>
      <trkpt lat="43.78097" lon="3.99442">
        <ele>44</ele>
        <time>2020-11-04T18:22:33Z</time>
      </trkpt>
      <trkpt lat="43.78099" lon="3.99438">
        <ele>44</ele>
        <time>2020-11-04T18:22:34Z</time>
      </trkpt>
      <trkpt lat="43.781" lon="3.99436">
        <ele>44</ele>
        <time>2020-11-04T18:22:35Z</time>
      </trkpt>
      <trkpt lat="43.78105" lon="3.99423">
        <ele>45</ele>
        <time>2020-11-04T18:22:39Z</time>
      </trkpt>
      <trkpt lat="43.78106" lon="3.99419">
        <ele>45</ele>
        <time>2020-11-04T18:22:40Z</time>
      </trkpt>
      <trkpt lat="43.78114" lon="3.99403">
        <ele>46</ele>
        <time>2020-11-04T18:22:46Z</time>
      </trkpt>
      <trkpt lat="43.78116" lon="3.994">
        <ele>46</ele>
        <time>2020-11-04T18:22:47Z</time>
      </trkpt>
      <trkpt lat="43.78118" lon="3.99396">
        <ele>46</ele>
        <time>2020-11-04T18:22:48Z</time>
      </trkpt>
      <trkpt lat="43.78119" lon="3.99392">
        <ele>46</ele>
        <time>2020-11-04T18:22:49Z</time>
      </trkpt>
      <trkpt lat="43.78121" lon="3.99388">
        <ele>46</ele>
        <time>2020-11-04T18:22:50Z</time>
      </trkpt>
      <trkpt lat="43.78127" lon="3.99371">
        <ele>47</ele>
        <time>2020-11-04T18:22:54Z</time>
      </trkpt>
      <trkpt lat="43.78136" lon="3.99348">
        <ele>47</ele>
        <time>2020-11-04T18:23:00Z</time>
      </trkpt>
      <trkpt lat="43.78138" lon="3.99345">
        <ele>47</ele>
        <time>2020-11-04T18:23:01Z</time>
      </trkpt>
      <trkpt lat="43.78139" lon="3.99341">
        <ele>48</ele>
        <time>2020-11-04T18:23:02Z</time>
      </trkpt>
      <trkpt lat="43.78148" lon="3.99324">
        <ele>48</ele>
        <time>2020-11-04T18:23:07Z</time>
      </trkpt>
      <trkpt lat="43.7815" lon="3.9932">
        <ele>48</ele>
        <time>2020-11-04T18:23:08Z</time>
      </trkpt>
      <trkpt lat="43.78152" lon="3.99317">
        <ele>48</ele>
        <time>2020-11-04T18:23:09Z</time>
      </trkpt>
      <trkpt lat="43.78154" lon="3.99313">
        <ele>48</ele>
        <time>2020-11-04T18:23:10Z</time>
      </trkpt>
      <trkpt lat="43.78157" lon="3.9931">
        <ele>48</ele>
        <time>2020-11-04T18:23:11Z</time>
      </trkpt>
      <trkpt lat="43.78163" lon="3.99297">
        <ele>48</ele>
        <time>2020-11-04T18:23:14Z</time>
      </trkpt>
      <trkpt lat="43.78168" lon="3.99273">
        <ele>49</ele>
        <time>2020-11-04T18:23:19Z</time>
      </trkpt>
      <trkpt lat="43.7817" lon="3.99268">
        <ele>48</ele>
        <time>2020-11-04T18:23:20Z</time>
      </trkpt>
      <trkpt lat="43.78177" lon="3.99254">
        <ele>48</ele>
        <time>2020-11-04T18:23:23Z</time>
      </trkpt>
      <trkpt lat="43.7818" lon="3.9925">
        <ele>48</ele>
        <time>2020-11-04T18:23:24Z</time>
      </trkpt>
      <trkpt lat="43.78189" lon="3.99239">
        <ele>48</ele>
        <time>2020-11-04T18:23:27Z</time>
      </trkpt>
      <trkpt lat="43.78192" lon="3.99237">
        <ele>48</ele>
        <time>2020-11-04T18:23:28Z</time>
      </trkpt>
      <trkpt lat="43.78195" lon="3.99236">
        <ele>48</ele>
        <time>2020-11-04T18:23:29Z</time>
      </trkpt>
      <trkpt lat="43.78199" lon="3.99235">
        <ele>48</ele>
        <time>2020-11-04T18:23:30Z</time>
      </trkpt>
      <trkpt lat="43.78205" lon="3.99231">
        <ele>49</ele>
        <time>2020-11-04T18:23:32Z</time>
      </trkpt>
      <trkpt lat="43.78208" lon="3.9923">
        <ele>49</ele>
        <time>2020-11-04T18:23:33Z</time>
      </trkpt>
      <trkpt lat="43.78212" lon="3.99228">
        <ele>49</ele>
        <time>2020-11-04T18:23:34Z</time>
      </trkpt>
      <trkpt lat="43.7822" lon="3.99225">
        <ele>49</ele>
        <time>2020-11-04T18:23:36Z</time>
      </trkpt>
      <trkpt lat="43.78224" lon="3.99223">
        <ele>49</ele>
        <time>2020-11-04T18:23:37Z</time>
      </trkpt>
      <trkpt lat="43.78236" lon="3.99214">
        <ele>50</ele>
        <time>2020-11-04T18:23:40Z</time>
      </trkpt>
      <trkpt lat="43.78242" lon="3.99211">
        <ele>50</ele>
        <time>2020-11-04T18:23:42Z</time>
      </trkpt>
      <trkpt lat="43.78252" lon="3.9921">
        <ele>51</ele>
        <time>2020-11-04T18:23:45Z</time>
      </trkpt>
      <trkpt lat="43.78254" lon="3.9921">
        <ele>51</ele>
        <time>2020-11-04T18:23:46Z</time>
      </trkpt>
      <trkpt lat="43.78256" lon="3.99211">
        <ele>52</ele>
        <time>2020-11-04T18:23:47Z</time>
      </trkpt>
      <trkpt lat="43.78257" lon="3.99211">
        <ele>52</ele>
        <time>2020-11-04T18:23:48Z</time>
      </trkpt>
      <trkpt lat="43.7826" lon="3.99212">
        <ele>52</ele>
        <time>2020-11-04T18:23:51Z</time>
      </trkpt>
      <trkpt lat="43.78261" lon="3.9921">
        <ele>53</ele>
        <time>2020-11-04T18:23:52Z</time>
      </trkpt>
      <trkpt lat="43.78262" lon="3.99208">
        <ele>53</ele>
        <time>2020-11-04T18:23:53Z</time>
      </trkpt>
      <trkpt lat="43.78261" lon="3.99198">
        <ele>54</ele>
        <time>2020-11-04T18:23:59Z</time>
      </trkpt>
      <trkpt lat="43.78261" lon="3.99195">
        <ele>54</ele>
        <time>2020-11-04T18:24:00Z</time>
      </trkpt>
      <trkpt lat="43.78261" lon="3.99189">
        <ele>54</ele>
        <time>2020-11-04T18:24:02Z</time>
      </trkpt>
      <trkpt lat="43.78262" lon="3.99181">
        <ele>54</ele>
        <time>2020-11-04T18:24:04Z</time>
      </trkpt>
      <trkpt lat="43.78262" lon="3.99176">
        <ele>54</ele>
        <time>2020-11-04T18:24:05Z</time>
      </trkpt>
      <trkpt lat="43.78262" lon="3.99171">
        <ele>54</ele>
        <time>2020-11-04T18:24:06Z</time>
      </trkpt>
      <trkpt lat="43.78262" lon="3.99166">
        <ele>54</ele>
        <time>2020-11-04T18:24:07Z</time>
      </trkpt>
      <trkpt lat="43.78263" lon="3.9916">
        <ele>54</ele>
        <time>2020-11-04T18:24:08Z</time>
      </trkpt>
      <trkpt lat="43.78263" lon="3.99154">
        <ele>53</ele>
        <time>2020-11-04T18:24:09Z</time>
      </trkpt>
      <trkpt lat="43.78263" lon="3.99148">
        <ele>53</ele>
        <time>2020-11-04T18:24:10Z</time>
      </trkpt>
      <trkpt lat="43.78264" lon="3.99141">
        <ele>53</ele>
        <time>2020-11-04T18:24:11Z</time>
      </trkpt>
      <trkpt lat="43.78264" lon="3.99134">
        <ele>53</ele>
        <time>2020-11-04T18:24:12Z</time>
      </trkpt>
      <trkpt lat="43.78265" lon="3.99128">
        <ele>53</ele>
        <time>2020-11-04T18:24:13Z</time>
      </trkpt>
      <trkpt lat="43.78265" lon="3.99121">
        <ele>53</ele>
        <time>2020-11-04T18:24:14Z</time>
      </trkpt>
      <trkpt lat="43.78265" lon="3.99114">
        <ele>53</ele>
        <time>2020-11-04T18:24:15Z</time>
      </trkpt>
      <trkpt lat="43.78265" lon="3.99107">
        <ele>53</ele>
        <time>2020-11-04T18:24:16Z</time>
      </trkpt>
      <trkpt lat="43.78265" lon="3.99099">
        <ele>53</ele>
        <time>2020-11-04T18:24:17Z</time>
      </trkpt>
      <trkpt lat="43.78267" lon="3.99078">
        <ele>52</ele>
        <time>2020-11-04T18:24:20Z</time>
      </trkpt>
      <trkpt lat="43.78268" lon="3.9906">
        <ele>52</ele>
        <time>2020-11-04T18:24:23Z</time>
      </trkpt>
      <trkpt lat="43.7827" lon="3.99038">
        <ele>52</ele>
        <time>2020-11-04T18:24:27Z</time>
      </trkpt>
      <trkpt lat="43.78272" lon="3.99008">
        <ele>52</ele>
        <time>2020-11-04T18:24:33Z</time>
      </trkpt>
      <trkpt lat="43.78274" lon="3.98977">
        <ele>53</ele>
        <time>2020-11-04T18:24:39Z</time>
      </trkpt>
      <trkpt lat="43.78274" lon="3.98972">
        <ele>53</ele>
        <time>2020-11-04T18:24:40Z</time>
      </trkpt>
      <trkpt lat="43.78274" lon="3.98961">
        <ele>53</ele>
        <time>2020-11-04T18:24:42Z</time>
      </trkpt>
      <trkpt lat="43.78275" lon="3.98956">
        <ele>53</ele>
        <time>2020-11-04T18:24:43Z</time>
      </trkpt>
      <trkpt lat="43.78276" lon="3.98929">
        <ele>54</ele>
        <time>2020-11-04T18:24:48Z</time>
      </trkpt>
      <trkpt lat="43.78275" lon="3.98903">
        <ele>54</ele>
        <time>2020-11-04T18:24:53Z</time>
      </trkpt>
      <trkpt lat="43.78275" lon="3.98898">
        <ele>55</ele>
        <time>2020-11-04T18:24:54Z</time>
      </trkpt>
      <trkpt lat="43.78275" lon="3.98892">
        <ele>55</ele>
        <time>2020-11-04T18:24:55Z</time>
      </trkpt>
      <trkpt lat="43.78276" lon="3.98886">
        <ele>55</ele>
        <time>2020-11-04T18:24:56Z</time>
      </trkpt>
      <trkpt lat="43.78276" lon="3.98831">
        <ele>55</ele>
        <time>2020-11-04T18:25:05Z</time>
      </trkpt>
      <trkpt lat="43.78276" lon="3.98824">
        <ele>56</ele>
        <time>2020-11-04T18:25:06Z</time>
      </trkpt>
      <trkpt lat="43.78275" lon="3.98817">
        <ele>56</ele>
        <time>2020-11-04T18:25:07Z</time>
      </trkpt>
      <trkpt lat="43.78275" lon="3.98809">
        <ele>56</ele>
        <time>2020-11-04T18:25:08Z</time>
      </trkpt>
      <trkpt lat="43.78275" lon="3.98802">
        <ele>56</ele>
        <time>2020-11-04T18:25:09Z</time>
      </trkpt>
      <trkpt lat="43.78276" lon="3.98786">
        <ele>55</ele>
        <time>2020-11-04T18:25:11Z</time>
      </trkpt>
      <trkpt lat="43.78276" lon="3.98778">
        <ele>55</ele>
        <time>2020-11-04T18:25:12Z</time>
      </trkpt>
      <trkpt lat="43.78276" lon="3.98771">
        <ele>55</ele>
        <time>2020-11-04T18:25:13Z</time>
      </trkpt>
      <trkpt lat="43.78275" lon="3.98763">
        <ele>55</ele>
        <time>2020-11-04T18:25:14Z</time>
      </trkpt>
      <trkpt lat="43.78273" lon="3.98721">
        <ele>54</ele>
        <time>2020-11-04T18:25:19Z</time>
      </trkpt>
      <trkpt lat="43.78261" lon="3.98637">
        <ele>54</ele>
        <time>2020-11-04T18:25:29Z</time>
      </trkpt>
      <trkpt lat="43.78239" lon="3.98532">
        <ele>52</ele>
        <time>2020-11-04T18:25:43Z</time>
      </trkpt>
      <trkpt lat="43.78231" lon="3.98444">
        <ele>52</ele>
        <time>2020-11-04T18:25:56Z</time>
      </trkpt>
      <trkpt lat="43.78237" lon="3.98409">
        <ele>52</ele>
        <time>2020-11-04T18:26:02Z</time>
      </trkpt>
      <trkpt lat="43.78244" lon="3.98378">
        <ele>53</ele>
        <time>2020-11-04T18:26:08Z</time>
      </trkpt>
      <trkpt lat="43.78246" lon="3.98368">
        <ele>53</ele>
        <time>2020-11-04T18:26:10Z</time>
      </trkpt>
      <trkpt lat="43.78248" lon="3.98364">
        <ele>53</ele>
        <time>2020-11-04T18:26:11Z</time>
      </trkpt>
      <trkpt lat="43.78249" lon="3.98359">
        <ele>53</ele>
        <time>2020-11-04T18:26:12Z</time>
      </trkpt>
      <trkpt lat="43.78251" lon="3.98354">
        <ele>53</ele>
        <time>2020-11-04T18:26:13Z</time>
      </trkpt>
      <trkpt lat="43.78252" lon="3.98348">
        <ele>53</ele>
        <time>2020-11-04T18:26:14Z</time>
      </trkpt>
      <trkpt lat="43.78259" lon="3.98334">
        <ele>53</ele>
        <time>2020-11-04T18:26:17Z</time>
      </trkpt>
      <trkpt lat="43.78262" lon="3.98329">
        <ele>53</ele>
        <time>2020-11-04T18:26:18Z</time>
      </trkpt>
      <trkpt lat="43.78264" lon="3.98323">
        <ele>53</ele>
        <time>2020-11-04T18:26:19Z</time>
      </trkpt>
      <trkpt lat="43.78267" lon="3.98318">
        <ele>53</ele>
        <time>2020-11-04T18:26:20Z</time>
      </trkpt>
      <trkpt lat="43.7827" lon="3.98312">
        <ele>53</ele>
        <time>2020-11-04T18:26:21Z</time>
      </trkpt>
      <trkpt lat="43.78273" lon="3.98305">
        <ele>53</ele>
        <time>2020-11-04T18:26:22Z</time>
      </trkpt>
      <trkpt lat="43.78276" lon="3.98299">
        <ele>53</ele>
        <time>2020-11-04T18:26:23Z</time>
      </trkpt>
      <trkpt lat="43.7828" lon="3.98292">
        <ele>52</ele>
        <time>2020-11-04T18:26:24Z</time>
      </trkpt>
      <trkpt lat="43.78283" lon="3.98286">
        <ele>52</ele>
        <time>2020-11-04T18:26:25Z</time>
      </trkpt>
      <trkpt lat="43.78298" lon="3.98261">
        <ele>52</ele>
        <time>2020-11-04T18:26:29Z</time>
      </trkpt>
      <trkpt lat="43.7831" lon="3.98238">
        <ele>51</ele>
        <time>2020-11-04T18:26:33Z</time>
      </trkpt>
      <trkpt lat="43.78312" lon="3.98233">
        <ele>51</ele>
        <time>2020-11-04T18:26:34Z</time>
      </trkpt>
      <trkpt lat="43.78314" lon="3.98226">
        <ele>51</ele>
        <time>2020-11-04T18:26:35Z</time>
      </trkpt>
      <trkpt lat="43.78317" lon="3.98221">
        <ele>51</ele>
        <time>2020-11-04T18:26:36Z</time>
      </trkpt>
      <trkpt lat="43.78319" lon="3.98214">
        <ele>51</ele>
        <time>2020-11-04T18:26:37Z</time>
      </trkpt>
      <trkpt lat="43.78324" lon="3.98202">
        <ele>51</ele>
        <time>2020-11-04T18:26:39Z</time>
      </trkpt>
      <trkpt lat="43.78326" lon="3.98196">
        <ele>51</ele>
        <time>2020-11-04T18:26:40Z</time>
      </trkpt>
      <trkpt lat="43.78328" lon="3.9819">
        <ele>51</ele>
        <time>2020-11-04T18:26:41Z</time>
      </trkpt>
      <trkpt lat="43.78331" lon="3.98183">
        <ele>50</ele>
        <time>2020-11-04T18:26:42Z</time>
      </trkpt>
      <trkpt lat="43.78337" lon="3.98163">
        <ele>51</ele>
        <time>2020-11-04T18:26:45Z</time>
      </trkpt>
      <trkpt lat="43.78339" lon="3.98156">
        <ele>50</ele>
        <time>2020-11-04T18:26:46Z</time>
      </trkpt>
      <trkpt lat="43.78368" lon="3.98062">
        <ele>50</ele>
        <time>2020-11-04T18:27:00Z</time>
      </trkpt>
      <trkpt lat="43.78372" lon="3.98048">
        <ele>50</ele>
        <time>2020-11-04T18:27:02Z</time>
      </trkpt>
      <trkpt lat="43.78376" lon="3.98034">
        <ele>50</ele>
        <time>2020-11-04T18:27:04Z</time>
      </trkpt>
      <trkpt lat="43.7838" lon="3.9802">
        <ele>50</ele>
        <time>2020-11-04T18:27:06Z</time>
      </trkpt>
      <trkpt lat="43.78382" lon="3.98014">
        <ele>50</ele>
        <time>2020-11-04T18:27:07Z</time>
      </trkpt>
      <trkpt lat="43.78388" lon="3.97994">
        <ele>50</ele>
        <time>2020-11-04T18:27:10Z</time>
      </trkpt>
      <trkpt lat="43.7839" lon="3.97987">
        <ele>50</ele>
        <time>2020-11-04T18:27:11Z</time>
      </trkpt>
      <trkpt lat="43.78398" lon="3.9796">
        <ele>50</ele>
        <time>2020-11-04T18:27:15Z</time>
      </trkpt>
      <trkpt lat="43.78399" lon="3.97953">
        <ele>50</ele>
        <time>2020-11-04T18:27:16Z</time>
      </trkpt>
      <trkpt lat="43.78401" lon="3.97947">
        <ele>50</ele>
        <time>2020-11-04T18:27:17Z</time>
      </trkpt>
      <trkpt lat="43.78405" lon="3.97934">
        <ele>50</ele>
        <time>2020-11-04T18:27:19Z</time>
      </trkpt>
      <trkpt lat="43.78406" lon="3.97929">
        <ele>51</ele>
        <time>2020-11-04T18:27:20Z</time>
      </trkpt>
      <trkpt lat="43.78411" lon="3.97922">
        <ele>51</ele>
        <time>2020-11-04T18:27:22Z</time>
      </trkpt>
      <trkpt lat="43.78416" lon="3.97921">
        <ele>51</ele>
        <time>2020-11-04T18:27:24Z</time>
      </trkpt>
      <trkpt lat="43.78421" lon="3.97925">
        <ele>51</ele>
        <time>2020-11-04T18:27:27Z</time>
      </trkpt>
      <trkpt lat="43.78426" lon="3.97934">
        <ele>52</ele>
        <time>2020-11-04T18:27:31Z</time>
      </trkpt>
      <trkpt lat="43.78427" lon="3.97937">
        <ele>52</ele>
        <time>2020-11-04T18:27:32Z</time>
      </trkpt>
      <trkpt lat="43.78429" lon="3.97948">
        <ele>53</ele>
        <time>2020-11-04T18:27:36Z</time>
      </trkpt>
      <trkpt lat="43.78429" lon="3.97952">
        <ele>53</ele>
        <time>2020-11-04T18:27:38Z</time>
      </trkpt>
      <trkpt lat="43.7843" lon="3.97956">
        <ele>53</ele>
        <time>2020-11-04T18:27:40Z</time>
      </trkpt>
      <trkpt lat="43.7843" lon="3.97959">
        <ele>54</ele>
        <time>2020-11-04T18:28:48Z</time>
      </trkpt>
      <trkpt lat="43.78431" lon="3.97963">
        <ele>54</ele>
        <time>2020-11-04T18:28:49Z</time>
      </trkpt>
      <trkpt lat="43.78431" lon="3.97966">
        <ele>54</ele>
        <time>2020-11-04T18:28:50Z</time>
      </trkpt>
      <trkpt lat="43.78432" lon="3.97973">
        <ele>54</ele>
        <time>2020-11-04T18:28:52Z</time>
      </trkpt>
      <trkpt lat="43.78431" lon="3.97984">
        <ele>54</ele>
        <time>2020-11-04T18:28:56Z</time>
      </trkpt>
      <trkpt lat="43.7843" lon="3.9799">
        <ele>55</ele>
        <time>2020-11-04T18:28:58Z</time>
      </trkpt>
      <trkpt lat="43.78427" lon="3.97999">
        <ele>55</ele>
        <time>2020-11-04T18:29:01Z</time>
      </trkpt>
      <trkpt lat="43.78424" lon="3.98009">
        <ele>55</ele>
        <time>2020-11-04T18:29:04Z</time>
      </trkpt>
      <trkpt lat="43.78423" lon="3.98013">
        <ele>56</ele>
        <time>2020-11-04T18:29:05Z</time>
      </trkpt>
      <trkpt lat="43.78418" lon="3.98051">
        <ele>57</ele>
        <time>2020-11-04T18:29:15Z</time>
      </trkpt>
      <trkpt lat="43.78417" lon="3.98055">
        <ele>57</ele>
        <time>2020-11-04T18:29:16Z</time>
      </trkpt>
      <trkpt lat="43.78416" lon="3.98063">
        <ele>57</ele>
        <time>2020-11-04T18:29:18Z</time>
      </trkpt>
      <trkpt lat="43.7841" lon="3.98101">
        <ele>59</ele>
        <time>2020-11-04T18:29:29Z</time>
      </trkpt>
      <trkpt lat="43.7841" lon="3.98104">
        <ele>59</ele>
        <time>2020-11-04T18:29:30Z</time>
      </trkpt>
      <trkpt lat="43.78403" lon="3.98148">
        <ele>62</ele>
        <time>2020-11-04T18:29:44Z</time>
      </trkpt>
      <trkpt lat="43.78403" lon="3.98158">
        <ele>62</ele>
        <time>2020-11-04T18:29:47Z</time>
      </trkpt>
      <trkpt lat="43.784" lon="3.98174">
        <ele>63</ele>
        <time>2020-11-04T18:29:52Z</time>
      </trkpt>
      <trkpt lat="43.784" lon="3.98179">
        <ele>63</ele>
        <time>2020-11-04T18:29:54Z</time>
      </trkpt>
      <trkpt lat="43.78397" lon="3.98218">
        <ele>66</ele>
        <time>2020-11-04T18:30:08Z</time>
      </trkpt>
      <trkpt lat="43.78394" lon="3.98259">
        <ele>69</ele>
        <time>2020-11-04T18:30:23Z</time>
      </trkpt>
      <trkpt lat="43.78392" lon="3.98268">
        <ele>70</ele>
        <time>2020-11-04T18:30:26Z</time>
      </trkpt>
      <trkpt lat="43.78392" lon="3.98271">
        <ele>70</ele>
        <time>2020-11-04T18:30:27Z</time>
      </trkpt>
      <trkpt lat="43.78392" lon="3.98294">
        <ele>71</ele>
        <time>2020-11-04T18:30:35Z</time>
      </trkpt>
      <trkpt lat="43.78392" lon="3.98296">
        <ele>72</ele>
        <time>2020-11-04T18:30:36Z</time>
      </trkpt>
      <trkpt lat="43.78393" lon="3.98307">
        <ele>72</ele>
        <time>2020-11-04T18:30:40Z</time>
      </trkpt>
      <trkpt lat="43.78393" lon="3.9831">
        <ele>72</ele>
        <time>2020-11-04T18:30:41Z</time>
      </trkpt>
      <trkpt lat="43.78397" lon="3.98328">
        <ele>74</ele>
        <time>2020-11-04T18:30:48Z</time>
      </trkpt>
      <trkpt lat="43.78404" lon="3.98372">
        <ele>77</ele>
        <time>2020-11-04T18:31:02Z</time>
      </trkpt>
      <trkpt lat="43.78408" lon="3.98395">
        <ele>78</ele>
        <time>2020-11-04T18:31:10Z</time>
      </trkpt>
      <trkpt lat="43.78409" lon="3.98399">
        <ele>78</ele>
        <time>2020-11-04T18:31:12Z</time>
      </trkpt>
      <trkpt lat="43.7841" lon="3.98403">
        <ele>79</ele>
        <time>2020-11-04T18:31:15Z</time>
      </trkpt>
      <trkpt lat="43.7841" lon="3.98405">
        <ele>79</ele>
        <time>2020-11-04T18:31:16Z</time>
      </trkpt>
      <trkpt lat="43.78412" lon="3.98417">
        <ele>80</ele>
        <time>2020-11-04T18:31:22Z</time>
      </trkpt>
      <trkpt lat="43.78412" lon="3.98419">
        <ele>80</ele>
        <time>2020-11-04T18:31:23Z</time>
      </trkpt>
      <trkpt lat="43.78413" lon="3.98422">
        <ele>80</ele>
        <time>2020-11-04T18:31:24Z</time>
      </trkpt>
      <trkpt lat="43.78419" lon="3.98459">
        <ele>80</ele>
        <time>2020-11-04T18:31:38Z</time>
      </trkpt>
      <trkpt lat="43.7842" lon="3.98461">
        <ele>80</ele>
        <time>2020-11-04T18:31:39Z</time>
      </trkpt>
      <trkpt lat="43.78421" lon="3.98469">
        <ele>81</ele>
        <time>2020-11-04T18:31:43Z</time>
      </trkpt>
      <trkpt lat="43.78421" lon="3.98471">
        <ele>81</ele>
        <time>2020-11-04T18:31:44Z</time>
      </trkpt>
      <trkpt lat="43.78422" lon="3.98473">
        <ele>81</ele>
        <time>2020-11-04T18:31:45Z</time>
      </trkpt>
      <trkpt lat="43.78423" lon="3.98482">
        <ele>81</ele>
        <time>2020-11-04T18:31:49Z</time>
      </trkpt>
      <trkpt lat="43.78423" lon="3.98489">
        <ele>81</ele>
        <time>2020-11-04T18:31:52Z</time>
      </trkpt>
      <trkpt lat="43.78424" lon="3.98492">
        <ele>82</ele>
        <time>2020-11-04T18:31:53Z</time>
      </trkpt>
      <trkpt lat="43.78424" lon="3.98495">
        <ele>82</ele>
        <time>2020-11-04T18:31:54Z</time>
      </trkpt>
      <trkpt lat="43.78425" lon="3.98497">
        <ele>82</ele>
        <time>2020-11-04T18:31:55Z</time>
      </trkpt>
      <trkpt lat="43.78429" lon="3.98516">
        <ele>82</ele>
        <time>2020-11-04T18:32:03Z</time>
      </trkpt>
      <trkpt lat="43.78429" lon="3.98519">
        <ele>82</ele>
        <time>2020-11-04T18:32:04Z</time>
      </trkpt>
      <trkpt lat="43.7843" lon="3.98521">
        <ele>83</ele>
        <time>2020-11-04T18:32:05Z</time>
      </trkpt>
      <trkpt lat="43.78433" lon="3.98543">
        <ele>84</ele>
        <time>2020-11-04T18:32:15Z</time>
      </trkpt>
      <trkpt lat="43.78433" lon="3.98546">
        <ele>84</ele>
        <time>2020-11-04T18:32:16Z</time>
      </trkpt>
      <trkpt lat="43.78433" lon="3.9856">
        <ele>85</ele>
        <time>2020-11-04T18:32:22Z</time>
      </trkpt>
      <trkpt lat="43.78433" lon="3.98563">
        <ele>85</ele>
        <time>2020-11-04T18:32:23Z</time>
      </trkpt>
      <trkpt lat="43.78433" lon="3.98565">
        <ele>85</ele>
        <time>2020-11-04T18:32:24Z</time>
      </trkpt>
      <trkpt lat="43.7844" lon="3.98577">
        <ele>86</ele>
        <time>2020-11-04T18:32:33Z</time>
      </trkpt>
      <trkpt lat="43.78443" lon="3.98576">
        <ele>86</ele>
        <time>2020-11-04T18:32:35Z</time>
      </trkpt>
      <trkpt lat="43.78444" lon="3.98573">
        <ele>87</ele>
        <time>2020-11-04T18:32:37Z</time>
      </trkpt>
      <trkpt lat="43.78444" lon="3.98571">
        <ele>87</ele>
        <time>2020-11-04T18:32:38Z</time>
      </trkpt>
      <trkpt lat="43.78445" lon="3.98561">
        <ele>87</ele>
        <time>2020-11-04T18:32:42Z</time>
      </trkpt>
      <trkpt lat="43.78445" lon="3.98554">
        <ele>88</ele>
        <time>2020-11-04T18:32:45Z</time>
      </trkpt>
      <trkpt lat="43.78445" lon="3.98547">
        <ele>88</ele>
        <time>2020-11-04T18:32:48Z</time>
      </trkpt>
      <trkpt lat="43.78445" lon="3.98544">
        <ele>88</ele>
        <time>2020-11-04T18:32:49Z</time>
      </trkpt>
      <trkpt lat="43.78445" lon="3.98542">
        <ele>88</ele>
        <time>2020-11-04T18:32:50Z</time>
      </trkpt>
      <trkpt lat="43.78445" lon="3.9854">
        <ele>88</ele>
        <time>2020-11-04T18:32:51Z</time>
      </trkpt>
      <trkpt lat="43.78449" lon="3.9852">
        <ele>88</ele>
        <time>2020-11-04T18:32:59Z</time>
      </trkpt>
      <trkpt lat="43.78449" lon="3.98518">
        <ele>88</ele>
        <time>2020-11-04T18:33:00Z</time>
      </trkpt>
      <trkpt lat="43.78448" lon="3.98516">
        <ele>88</ele>
        <time>2020-11-04T18:33:01Z</time>
      </trkpt>
      <trkpt lat="43.78448" lon="3.9851">
        <ele>88</ele>
        <time>2020-11-04T18:33:03Z</time>
      </trkpt>
      <trkpt lat="43.78448" lon="3.98507">
        <ele>88</ele>
        <time>2020-11-04T18:33:04Z</time>
      </trkpt>
      <trkpt lat="43.78449" lon="3.98486">
        <ele>89</ele>
        <time>2020-11-04T18:33:12Z</time>
      </trkpt>
      <trkpt lat="43.7845" lon="3.98483">
        <ele>89</ele>
        <time>2020-11-04T18:33:13Z</time>
      </trkpt>
      <trkpt lat="43.7845" lon="3.98476">
        <ele>89</ele>
        <time>2020-11-04T18:33:15Z</time>
      </trkpt>
      <trkpt lat="43.7845" lon="3.98471">
        <ele>89</ele>
        <time>2020-11-04T18:33:17Z</time>
      </trkpt>
      <trkpt lat="43.78452" lon="3.98453">
        <ele>90</ele>
        <time>2020-11-04T18:33:25Z</time>
      </trkpt>
      <trkpt lat="43.78455" lon="3.98421">
        <ele>93</ele>
        <time>2020-11-04T18:33:39Z</time>
      </trkpt>
      <trkpt lat="43.78462" lon="3.9839">
        <ele>95</ele>
        <time>2020-11-04T18:33:54Z</time>
      </trkpt>
      <trkpt lat="43.78473" lon="3.98356">
        <ele>96</ele>
        <time>2020-11-04T18:34:09Z</time>
      </trkpt>
      <trkpt lat="43.78476" lon="3.98336">
        <ele>97</ele>
        <time>2020-11-04T18:34:19Z</time>
      </trkpt>
      <trkpt lat="43.78477" lon="3.98331">
        <ele>98</ele>
        <time>2020-11-04T18:34:21Z</time>
      </trkpt>
      <trkpt lat="43.7848" lon="3.9832">
        <ele>98</ele>
        <time>2020-11-04T18:34:26Z</time>
      </trkpt>
      <trkpt lat="43.78482" lon="3.98318">
        <ele>98</ele>
        <time>2020-11-04T18:34:27Z</time>
      </trkpt>
      <trkpt lat="43.78484" lon="3.98313">
        <ele>99</ele>
        <time>2020-11-04T18:34:30Z</time>
      </trkpt>
      <trkpt lat="43.78485" lon="3.98307">
        <ele>99</ele>
        <time>2020-11-04T18:34:33Z</time>
      </trkpt>
      <trkpt lat="43.78488" lon="3.983">
        <ele>99</ele>
        <time>2020-11-04T18:34:36Z</time>
      </trkpt>
      <trkpt lat="43.78489" lon="3.98296">
        <ele>99</ele>
        <time>2020-11-04T18:34:38Z</time>
      </trkpt>
      <trkpt lat="43.7849" lon="3.98294">
        <ele>100</ele>
        <time>2020-11-04T18:34:39Z</time>
      </trkpt>
      <trkpt lat="43.78491" lon="3.9829">
        <ele>100</ele>
        <time>2020-11-04T18:34:41Z</time>
      </trkpt>
      <trkpt lat="43.78491" lon="3.98287">
        <ele>100</ele>
        <time>2020-11-04T18:34:42Z</time>
      </trkpt>
      <trkpt lat="43.78492" lon="3.98285">
        <ele>100</ele>
        <time>2020-11-04T18:34:43Z</time>
      </trkpt>
      <trkpt lat="43.78493" lon="3.98283">
        <ele>100</ele>
        <time>2020-11-04T18:34:44Z</time>
      </trkpt>
      <trkpt lat="43.78493" lon="3.98281">
        <ele>100</ele>
        <time>2020-11-04T18:34:45Z</time>
      </trkpt>
      <trkpt lat="43.78493" lon="3.98278">
        <ele>101</ele>
        <time>2020-11-04T18:34:46Z</time>
      </trkpt>
      <trkpt lat="43.78497" lon="3.98263">
        <ele>102</ele>
        <time>2020-11-04T18:34:53Z</time>
      </trkpt>
      <trkpt lat="43.78498" lon="3.98261">
        <ele>102</ele>
        <time>2020-11-04T18:34:54Z</time>
      </trkpt>
      <trkpt lat="43.78499" lon="3.98259">
        <ele>102</ele>
        <time>2020-11-04T18:34:55Z</time>
      </trkpt>
      <trkpt lat="43.785" lon="3.98256">
        <ele>102</ele>
        <time>2020-11-04T18:34:57Z</time>
      </trkpt>
      <trkpt lat="43.785" lon="3.98254">
        <ele>102</ele>
        <time>2020-11-04T18:34:58Z</time>
      </trkpt>
      <trkpt lat="43.78501" lon="3.98251">
        <ele>102</ele>
        <time>2020-11-04T18:34:59Z</time>
      </trkpt>
      <trkpt lat="43.78503" lon="3.98247">
        <ele>103</ele>
        <time>2020-11-04T18:35:01Z</time>
      </trkpt>
      <trkpt lat="43.78505" lon="3.98243">
        <ele>103</ele>
        <time>2020-11-04T18:35:03Z</time>
      </trkpt>
      <trkpt lat="43.78506" lon="3.98241">
        <ele>103</ele>
        <time>2020-11-04T18:35:04Z</time>
      </trkpt>
      <trkpt lat="43.78509" lon="3.98232">
        <ele>103</ele>
        <time>2020-11-04T18:35:08Z</time>
      </trkpt>
      <trkpt lat="43.7851" lon="3.9823">
        <ele>103</ele>
        <time>2020-11-04T18:35:09Z</time>
      </trkpt>
      <trkpt lat="43.78512" lon="3.98223">
        <ele>103</ele>
        <time>2020-11-04T18:35:12Z</time>
      </trkpt>
      <trkpt lat="43.78514" lon="3.98216">
        <ele>104</ele>
        <time>2020-11-04T18:35:15Z</time>
      </trkpt>
      <trkpt lat="43.78514" lon="3.98213">
        <ele>104</ele>
        <time>2020-11-04T18:35:16Z</time>
      </trkpt>
      <trkpt lat="43.78516" lon="3.98208">
        <ele>104</ele>
        <time>2020-11-04T18:35:18Z</time>
      </trkpt>
      <trkpt lat="43.78522" lon="3.98196">
        <ele>105</ele>
        <time>2020-11-04T18:35:24Z</time>
      </trkpt>
      <trkpt lat="43.78523" lon="3.98192">
        <ele>105</ele>
        <time>2020-11-04T18:35:26Z</time>
      </trkpt>
      <trkpt lat="43.78535" lon="3.98166">
        <ele>107</ele>
        <time>2020-11-04T18:35:40Z</time>
      </trkpt>
      <trkpt lat="43.78538" lon="3.98159">
        <ele>108</ele>
        <time>2020-11-04T18:35:43Z</time>
      </trkpt>
      <trkpt lat="43.78541" lon="3.98153">
        <ele>108</ele>
        <time>2020-11-04T18:35:46Z</time>
      </trkpt>
      <trkpt lat="43.78544" lon="3.9815">
        <ele>109</ele>
        <time>2020-11-04T18:35:48Z</time>
      </trkpt>
      <trkpt lat="43.78549" lon="3.98134">
        <ele>110</ele>
        <time>2020-11-04T18:35:55Z</time>
      </trkpt>
      <trkpt lat="43.78552" lon="3.98131">
        <ele>111</ele>
        <time>2020-11-04T18:35:57Z</time>
      </trkpt>
      <trkpt lat="43.78552" lon="3.9813">
        <ele>111</ele>
        <time>2020-11-04T18:35:58Z</time>
      </trkpt>
      <trkpt lat="43.78553" lon="3.98127">
        <ele>111</ele>
        <time>2020-11-04T18:35:59Z</time>
      </trkpt>
      <trkpt lat="43.78554" lon="3.98125">
        <ele>111</ele>
        <time>2020-11-04T18:36:00Z</time>
      </trkpt>
      <trkpt lat="43.78556" lon="3.98121">
        <ele>111</ele>
        <time>2020-11-04T18:36:02Z</time>
      </trkpt>
      <trkpt lat="43.78557" lon="3.98118">
        <ele>112</ele>
        <time>2020-11-04T18:36:03Z</time>
      </trkpt>
      <trkpt lat="43.78562" lon="3.98108">
        <ele>112</ele>
        <time>2020-11-04T18:36:07Z</time>
      </trkpt>
      <trkpt lat="43.78564" lon="3.98105">
        <ele>112</ele>
        <time>2020-11-04T18:36:08Z</time>
      </trkpt>
      <trkpt lat="43.7857" lon="3.98094">
        <ele>112</ele>
        <time>2020-11-04T18:36:12Z</time>
      </trkpt>
      <trkpt lat="43.78572" lon="3.98093">
        <ele>112</ele>
        <time>2020-11-04T18:36:13Z</time>
      </trkpt>
      <trkpt lat="43.78576" lon="3.98089">
        <ele>113</ele>
        <time>2020-11-04T18:36:15Z</time>
      </trkpt>
      <trkpt lat="43.78579" lon="3.98085">
        <ele>113</ele>
        <time>2020-11-04T18:36:17Z</time>
      </trkpt>
      <trkpt lat="43.78581" lon="3.98082">
        <ele>113</ele>
        <time>2020-11-04T18:36:18Z</time>
      </trkpt>
      <trkpt lat="43.78588" lon="3.98078">
        <ele>114</ele>
        <time>2020-11-04T18:36:22Z</time>
      </trkpt>
      <trkpt lat="43.78592" lon="3.98076">
        <ele>114</ele>
        <time>2020-11-04T18:36:24Z</time>
      </trkpt>
      <trkpt lat="43.78596" lon="3.98074">
        <ele>114</ele>
        <time>2020-11-04T18:36:26Z</time>
      </trkpt>
      <trkpt lat="43.786" lon="3.98072">
        <ele>115</ele>
        <time>2020-11-04T18:36:28Z</time>
      </trkpt>
      <trkpt lat="43.78613" lon="3.98071">
        <ele>116</ele>
        <time>2020-11-04T18:36:34Z</time>
      </trkpt>
      <trkpt lat="43.78618" lon="3.9807">
        <ele>117</ele>
        <time>2020-11-04T18:36:36Z</time>
      </trkpt>
      <trkpt lat="43.78622" lon="3.98068">
        <ele>117</ele>
        <time>2020-11-04T18:36:38Z</time>
      </trkpt>
      <trkpt lat="43.78626" lon="3.98066">
        <ele>117</ele>
        <time>2020-11-04T18:36:40Z</time>
      </trkpt>
      <trkpt lat="43.78632" lon="3.98056">
        <ele>119</ele>
        <time>2020-11-04T18:36:45Z</time>
      </trkpt>
      <trkpt lat="43.78632" lon="3.98048">
        <ele>119</ele>
        <time>2020-11-04T18:36:48Z</time>
      </trkpt>
      <trkpt lat="43.78632" lon="3.98035">
        <ele>120</ele>
        <time>2020-11-04T18:36:56Z</time>
      </trkpt>
      <trkpt lat="43.78632" lon="3.98021">
        <ele>120</ele>
        <time>2020-11-04T18:37:02Z</time>
      </trkpt>
      <trkpt lat="43.78632" lon="3.98021">
        <ele>120</ele>
        <time>2020-11-04T18:37:03Z</time>
      </trkpt>
      <trkpt lat="43.78632" lon="3.98019">
        <ele>120</ele>
        <time>2020-11-04T18:37:04Z</time>
      </trkpt>
      <trkpt lat="43.78631" lon="3.98016">
        <ele>120</ele>
        <time>2020-11-04T18:37:05Z</time>
      </trkpt>
      <trkpt lat="43.78631" lon="3.98012">
        <ele>120</ele>
        <time>2020-11-04T18:37:06Z</time>
      </trkpt>
      <trkpt lat="43.78631" lon="3.98008">
        <ele>120</ele>
        <time>2020-11-04T18:37:07Z</time>
      </trkpt>
      <trkpt lat="43.78631" lon="3.98004">
        <ele>120</ele>
        <time>2020-11-04T18:37:08Z</time>
      </trkpt>
      <trkpt lat="43.78631" lon="3.97999">
        <ele>120</ele>
        <time>2020-11-04T18:37:09Z</time>
      </trkpt>
      <trkpt lat="43.78632" lon="3.97993">
        <ele>120</ele>
        <time>2020-11-04T18:37:10Z</time>
      </trkpt>
      <trkpt lat="43.78632" lon="3.97987">
        <ele>120</ele>
        <time>2020-11-04T18:37:11Z</time>
      </trkpt>
      <trkpt lat="43.78633" lon="3.97981">
        <ele>119</ele>
        <time>2020-11-04T18:37:12Z</time>
      </trkpt>
      <trkpt lat="43.78634" lon="3.97975">
        <ele>119</ele>
        <time>2020-11-04T18:37:13Z</time>
      </trkpt>
      <trkpt lat="43.78636" lon="3.97968">
        <ele>119</ele>
        <time>2020-11-04T18:37:14Z</time>
      </trkpt>
      <trkpt lat="43.78638" lon="3.97957">
        <ele>119</ele>
        <time>2020-11-04T18:37:16Z</time>
      </trkpt>
      <trkpt lat="43.78645" lon="3.97942">
        <ele>118</ele>
        <time>2020-11-04T18:37:19Z</time>
      </trkpt>
      <trkpt lat="43.78647" lon="3.97939">
        <ele>118</ele>
        <time>2020-11-04T18:37:20Z</time>
      </trkpt>
      <trkpt lat="43.78656" lon="3.97916">
        <ele>118</ele>
        <time>2020-11-04T18:37:27Z</time>
      </trkpt>
      <trkpt lat="43.78659" lon="3.97911">
        <ele>118</ele>
        <time>2020-11-04T18:37:29Z</time>
      </trkpt>
      <trkpt lat="43.78661" lon="3.97907">
        <ele>118</ele>
        <time>2020-11-04T18:37:30Z</time>
      </trkpt>
      <trkpt lat="43.78666" lon="3.97898">
        <ele>119</ele>
        <time>2020-11-04T18:37:33Z</time>
      </trkpt>
      <trkpt lat="43.78667" lon="3.97894">
        <ele>119</ele>
        <time>2020-11-04T18:37:34Z</time>
      </trkpt>
      <trkpt lat="43.78669" lon="3.97888">
        <ele>119</ele>
        <time>2020-11-04T18:37:36Z</time>
      </trkpt>
      <trkpt lat="43.78672" lon="3.97882">
        <ele>119</ele>
        <time>2020-11-04T18:37:38Z</time>
      </trkpt>
      <trkpt lat="43.78675" lon="3.97875">
        <ele>118</ele>
        <time>2020-11-04T18:37:40Z</time>
      </trkpt>
      <trkpt lat="43.78677" lon="3.97871">
        <ele>118</ele>
        <time>2020-11-04T18:37:41Z</time>
      </trkpt>
      <trkpt lat="43.78679" lon="3.97867">
        <ele>118</ele>
        <time>2020-11-04T18:37:42Z</time>
      </trkpt>
      <trkpt lat="43.78681" lon="3.97864">
        <ele>119</ele>
        <time>2020-11-04T18:37:43Z</time>
      </trkpt>
      <trkpt lat="43.78691" lon="3.97843">
        <ele>119</ele>
        <time>2020-11-04T18:37:49Z</time>
      </trkpt>
      <trkpt lat="43.78703" lon="3.97813">
        <ele>120</ele>
        <time>2020-11-04T18:37:59Z</time>
      </trkpt>
      <trkpt lat="43.78704" lon="3.9781">
        <ele>120</ele>
        <time>2020-11-04T18:38:00Z</time>
      </trkpt>
      <trkpt lat="43.78705" lon="3.97807">
        <ele>121</ele>
        <time>2020-11-04T18:38:01Z</time>
      </trkpt>
      <trkpt lat="43.78706" lon="3.97802">
        <ele>121</ele>
        <time>2020-11-04T18:38:03Z</time>
      </trkpt>
      <trkpt lat="43.7871" lon="3.97795">
        <ele>121</ele>
        <time>2020-11-04T18:38:06Z</time>
      </trkpt>
      <trkpt lat="43.78713" lon="3.9779">
        <ele>122</ele>
        <time>2020-11-04T18:38:08Z</time>
      </trkpt>
      <trkpt lat="43.78715" lon="3.97789">
        <ele>122</ele>
        <time>2020-11-04T18:38:09Z</time>
      </trkpt>
      <trkpt lat="43.78718" lon="3.97788">
        <ele>123</ele>
        <time>2020-11-04T18:38:11Z</time>
      </trkpt>
      <trkpt lat="43.78721" lon="3.97789">
        <ele>123</ele>
        <time>2020-11-04T18:38:12Z</time>
      </trkpt>
      <trkpt lat="43.78724" lon="3.97795">
        <ele>123</ele>
        <time>2020-11-04T18:38:14Z</time>
      </trkpt>
      <trkpt lat="43.78725" lon="3.97802">
        <ele>124</ele>
        <time>2020-11-04T18:38:16Z</time>
      </trkpt>
      <trkpt lat="43.78725" lon="3.97811">
        <ele>124</ele>
        <time>2020-11-04T18:38:19Z</time>
      </trkpt>
      <trkpt lat="43.78725" lon="3.97813">
        <ele>125</ele>
        <time>2020-11-04T18:38:20Z</time>
      </trkpt>
      <trkpt lat="43.78725" lon="3.97827">
        <ele>126</ele>
        <time>2020-11-04T18:38:26Z</time>
      </trkpt>
      <trkpt lat="43.78726" lon="3.97837">
        <ele>127</ele>
        <time>2020-11-04T18:38:30Z</time>
      </trkpt>
      <trkpt lat="43.7873" lon="3.97871">
        <ele>129</ele>
        <time>2020-11-04T18:38:44Z</time>
      </trkpt>
      <trkpt lat="43.78731" lon="3.97877">
        <ele>129</ele>
        <time>2020-11-04T18:38:46Z</time>
      </trkpt>
      <trkpt lat="43.78732" lon="3.97883">
        <ele>130</ele>
        <time>2020-11-04T18:38:48Z</time>
      </trkpt>
      <trkpt lat="43.78733" lon="3.97891">
        <ele>131</ele>
        <time>2020-11-04T18:38:51Z</time>
      </trkpt>
      <trkpt lat="43.78735" lon="3.979">
        <ele>131</ele>
        <time>2020-11-04T18:38:54Z</time>
      </trkpt>
      <trkpt lat="43.78735" lon="3.97903">
        <ele>131</ele>
        <time>2020-11-04T18:38:55Z</time>
      </trkpt>
      <trkpt lat="43.78738" lon="3.97913">
        <ele>132</ele>
        <time>2020-11-04T18:38:58Z</time>
      </trkpt>
      <trkpt lat="43.78741" lon="3.97918">
        <ele>133</ele>
        <time>2020-11-04T18:39:00Z</time>
      </trkpt>
      <trkpt lat="43.7875" lon="3.9793">
        <ele>134</ele>
        <time>2020-11-04T18:39:05Z</time>
      </trkpt>
      <trkpt lat="43.78752" lon="3.97932">
        <ele>135</ele>
        <time>2020-11-04T18:39:06Z</time>
      </trkpt>
      <trkpt lat="43.78754" lon="3.97935">
        <ele>135</ele>
        <time>2020-11-04T18:39:07Z</time>
      </trkpt>
      <trkpt lat="43.78761" lon="3.97946">
        <ele>137</ele>
        <time>2020-11-04T18:39:11Z</time>
      </trkpt>
      <trkpt lat="43.78762" lon="3.97948">
        <ele>137</ele>
        <time>2020-11-04T18:39:12Z</time>
      </trkpt>
      <trkpt lat="43.78764" lon="3.9795">
        <ele>137</ele>
        <time>2020-11-04T18:39:13Z</time>
      </trkpt>
      <trkpt lat="43.78777" lon="3.97971">
        <ele>140</ele>
        <time>2020-11-04T18:39:21Z</time>
      </trkpt>
      <trkpt lat="43.78778" lon="3.97973">
        <ele>140</ele>
        <time>2020-11-04T18:39:22Z</time>
      </trkpt>
      <trkpt lat="43.78779" lon="3.97976">
        <ele>140</ele>
        <time>2020-11-04T18:39:23Z</time>
      </trkpt>
      <trkpt lat="43.78784" lon="3.98007">
        <ele>143</ele>
        <time>2020-11-04T18:39:37Z</time>
      </trkpt>
      <trkpt lat="43.78777" lon="3.98007">
        <ele>144</ele>
        <time>2020-11-04T18:39:40Z</time>
      </trkpt>
      <trkpt lat="43.7877" lon="3.98007">
        <ele>145</ele>
        <time>2020-11-04T18:39:43Z</time>
      </trkpt>
      <trkpt lat="43.78768" lon="3.98007">
        <ele>145</ele>
        <time>2020-11-04T18:39:44Z</time>
      </trkpt>
      <trkpt lat="43.78751" lon="3.98017">
        <ele>147</ele>
        <time>2020-11-04T18:39:52Z</time>
      </trkpt>
      <trkpt lat="43.78747" lon="3.98023">
        <ele>148</ele>
        <time>2020-11-04T18:39:55Z</time>
      </trkpt>
      <trkpt lat="43.78747" lon="3.98024">
        <ele>148</ele>
        <time>2020-11-04T18:39:56Z</time>
      </trkpt>
      <trkpt lat="43.78746" lon="3.98028">
        <ele>148</ele>
        <time>2020-11-04T18:39:58Z</time>
      </trkpt>
      <trkpt lat="43.78744" lon="3.98032">
        <ele>148</ele>
        <time>2020-11-04T18:40:00Z</time>
      </trkpt>
      <trkpt lat="43.78743" lon="3.98034">
        <ele>149</ele>
        <time>2020-11-04T18:40:01Z</time>
      </trkpt>
      <trkpt lat="43.78733" lon="3.9806">
        <ele>151</ele>
        <time>2020-11-04T18:40:15Z</time>
      </trkpt>
      <trkpt lat="43.78732" lon="3.98062">
        <ele>151</ele>
        <time>2020-11-04T18:40:16Z</time>
      </trkpt>
      <trkpt lat="43.78729" lon="3.9807">
        <ele>151</ele>
        <time>2020-11-04T18:40:20Z</time>
      </trkpt>
      <trkpt lat="43.78727" lon="3.98074">
        <ele>152</ele>
        <time>2020-11-04T18:40:23Z</time>
      </trkpt>
      <trkpt lat="43.78726" lon="3.98077">
        <ele>152</ele>
        <time>2020-11-04T18:40:25Z</time>
      </trkpt>
      <trkpt lat="43.78726" lon="3.98079">
        <ele>152</ele>
        <time>2020-11-04T18:40:26Z</time>
      </trkpt>
      <trkpt lat="43.78723" lon="3.981">
        <ele>153</ele>
        <time>2020-11-04T18:40:37Z</time>
      </trkpt>
      <trkpt lat="43.78723" lon="3.98102">
        <ele>154</ele>
        <time>2020-11-04T18:40:38Z</time>
      </trkpt>
      <trkpt lat="43.78723" lon="3.98107">
        <ele>154</ele>
        <time>2020-11-04T18:40:40Z</time>
      </trkpt>
      <trkpt lat="43.78723" lon="3.9811">
        <ele>154</ele>
        <time>2020-11-04T18:40:42Z</time>
      </trkpt>
      <trkpt lat="43.78724" lon="3.98112">
        <ele>154</ele>
        <time>2020-11-04T18:40:43Z</time>
      </trkpt>
      <trkpt lat="43.78724" lon="3.98114">
        <ele>154</ele>
        <time>2020-11-04T18:40:44Z</time>
      </trkpt>
      <trkpt lat="43.78723" lon="3.98116">
        <ele>157</ele>
        <time>2020-11-04T18:41:23Z</time>
      </trkpt>
      <trkpt lat="43.78723" lon="3.98118">
        <ele>157</ele>
        <time>2020-11-04T18:41:24Z</time>
      </trkpt>
      <trkpt lat="43.78722" lon="3.9812">
        <ele>157</ele>
        <time>2020-11-04T18:41:25Z</time>
      </trkpt>
      <trkpt lat="43.78723" lon="3.98122">
        <ele>157</ele>
        <time>2020-11-04T18:41:26Z</time>
      </trkpt>
      <trkpt lat="43.78723" lon="3.98125">
        <ele>157</ele>
        <time>2020-11-04T18:41:27Z</time>
      </trkpt>
      <trkpt lat="43.78724" lon="3.9813">
        <ele>157</ele>
        <time>2020-11-04T18:41:29Z</time>
      </trkpt>
      <trkpt lat="43.78724" lon="3.98134">
        <ele>157</ele>
        <time>2020-11-04T18:41:30Z</time>
      </trkpt>
      <trkpt lat="43.78724" lon="3.98139">
        <ele>157</ele>
        <time>2020-11-04T18:41:31Z</time>
      </trkpt>
      <trkpt lat="43.78725" lon="3.98142">
        <ele>157</ele>
        <time>2020-11-04T18:41:32Z</time>
      </trkpt>
      <trkpt lat="43.78725" lon="3.98145">
        <ele>157</ele>
        <time>2020-11-04T18:41:33Z</time>
      </trkpt>
      <trkpt lat="43.78727" lon="3.98149">
        <ele>158</ele>
        <time>2020-11-04T18:41:36Z</time>
      </trkpt>
      <trkpt lat="43.78727" lon="3.98151">
        <ele>158</ele>
        <time>2020-11-04T18:41:37Z</time>
      </trkpt>
      <trkpt lat="43.78727" lon="3.98153">
        <ele>158</ele>
        <time>2020-11-04T18:41:38Z</time>
      </trkpt>
      <trkpt lat="43.78728" lon="3.98154">
        <ele>158</ele>
        <time>2020-11-04T18:41:39Z</time>
      </trkpt>
      <trkpt lat="43.78727" lon="3.9816">
        <ele>159</ele>
        <time>2020-11-04T18:41:42Z</time>
      </trkpt>
      <trkpt lat="43.78726" lon="3.98163">
        <ele>159</ele>
        <time>2020-11-04T18:41:44Z</time>
      </trkpt>
      <trkpt lat="43.78726" lon="3.98165">
        <ele>160</ele>
        <time>2020-11-04T18:41:45Z</time>
      </trkpt>
      <trkpt lat="43.78725" lon="3.98169">
        <ele>160</ele>
        <time>2020-11-04T18:41:47Z</time>
      </trkpt>
      <trkpt lat="43.78724" lon="3.98172">
        <ele>160</ele>
        <time>2020-11-04T18:41:48Z</time>
      </trkpt>
      <trkpt lat="43.78712" lon="3.98184">
        <ele>161</ele>
        <time>2020-11-04T18:41:56Z</time>
      </trkpt>
      <trkpt lat="43.78702" lon="3.98187">
        <ele>162</ele>
        <time>2020-11-04T18:42:01Z</time>
      </trkpt>
      <trkpt lat="43.7869" lon="3.98198">
        <ele>163</ele>
        <time>2020-11-04T18:42:09Z</time>
      </trkpt>
      <trkpt lat="43.78686" lon="3.98204">
        <ele>163</ele>
        <time>2020-11-04T18:42:13Z</time>
      </trkpt>
      <trkpt lat="43.78682" lon="3.98212">
        <ele>164</ele>
        <time>2020-11-04T18:42:18Z</time>
      </trkpt>
      <trkpt lat="43.7868" lon="3.98217">
        <ele>165</ele>
        <time>2020-11-04T18:42:21Z</time>
      </trkpt>
      <trkpt lat="43.78679" lon="3.98219">
        <ele>165</ele>
        <time>2020-11-04T18:42:22Z</time>
      </trkpt>
      <trkpt lat="43.78679" lon="3.98221">
        <ele>165</ele>
        <time>2020-11-04T18:42:23Z</time>
      </trkpt>
      <trkpt lat="43.78678" lon="3.98222">
        <ele>165</ele>
        <time>2020-11-04T18:42:24Z</time>
      </trkpt>
      <trkpt lat="43.78667" lon="3.98248">
        <ele>168</ele>
        <time>2020-11-04T18:42:38Z</time>
      </trkpt>
      <trkpt lat="43.78666" lon="3.9825">
        <ele>168</ele>
        <time>2020-11-04T18:42:39Z</time>
      </trkpt>
      <trkpt lat="43.78665" lon="3.98252">
        <ele>168</ele>
        <time>2020-11-04T18:42:40Z</time>
      </trkpt>
      <trkpt lat="43.78661" lon="3.9826">
        <ele>169</ele>
        <time>2020-11-04T18:42:44Z</time>
      </trkpt>
      <trkpt lat="43.7866" lon="3.98262">
        <ele>169</ele>
        <time>2020-11-04T18:42:45Z</time>
      </trkpt>
      <trkpt lat="43.78654" lon="3.98275">
        <ele>170</ele>
        <time>2020-11-04T18:42:52Z</time>
      </trkpt>
      <trkpt lat="43.78652" lon="3.98277">
        <ele>171</ele>
        <time>2020-11-04T18:42:54Z</time>
      </trkpt>
      <trkpt lat="43.78651" lon="3.98279">
        <ele>171</ele>
        <time>2020-11-04T18:42:55Z</time>
      </trkpt>
      <trkpt lat="43.78649" lon="3.9828">
        <ele>171</ele>
        <time>2020-11-04T18:42:56Z</time>
      </trkpt>
      <trkpt lat="43.78647" lon="3.98284">
        <ele>171</ele>
        <time>2020-11-04T18:42:58Z</time>
      </trkpt>
      <trkpt lat="43.78646" lon="3.98287">
        <ele>172</ele>
        <time>2020-11-04T18:42:59Z</time>
      </trkpt>
      <trkpt lat="43.78645" lon="3.98289">
        <ele>172</ele>
        <time>2020-11-04T18:43:00Z</time>
      </trkpt>
      <trkpt lat="43.78644" lon="3.9829">
        <ele>172</ele>
        <time>2020-11-04T18:43:01Z</time>
      </trkpt>
      <trkpt lat="43.78643" lon="3.98291">
        <ele>172</ele>
        <time>2020-11-04T18:43:02Z</time>
      </trkpt>
      <trkpt lat="43.78645" lon="3.9829">
        <ele>176</ele>
        <time>2020-11-04T18:46:23Z</time>
      </trkpt>
      <trkpt lat="43.78645" lon="3.9829">
        <ele>176</ele>
        <time>2020-11-04T18:46:24Z</time>
      </trkpt>
      <trkpt lat="43.78647" lon="3.98291">
        <ele>176</ele>
        <time>2020-11-04T18:46:26Z</time>
      </trkpt>
      <trkpt lat="43.7865" lon="3.98294">
        <ele>176</ele>
        <time>2020-11-04T18:46:28Z</time>
      </trkpt>
      <trkpt lat="43.78652" lon="3.98295">
        <ele>176</ele>
        <time>2020-11-04T18:46:29Z</time>
      </trkpt>
      <trkpt lat="43.78653" lon="3.98295">
        <ele>176</ele>
        <time>2020-11-04T18:46:30Z</time>
      </trkpt>
      <trkpt lat="43.78657" lon="3.98292">
        <ele>176</ele>
        <time>2020-11-04T18:46:33Z</time>
      </trkpt>
      <trkpt lat="43.78658" lon="3.98291">
        <ele>177</ele>
        <time>2020-11-04T18:46:34Z</time>
      </trkpt>
      <trkpt lat="43.78667" lon="3.98278">
        <ele>177</ele>
        <time>2020-11-04T18:46:45Z</time>
      </trkpt>
      <trkpt lat="43.78674" lon="3.98274">
        <ele>178</ele>
        <time>2020-11-04T18:46:50Z</time>
      </trkpt>
      <trkpt lat="43.78677" lon="3.98272">
        <ele>178</ele>
        <time>2020-11-04T18:46:52Z</time>
      </trkpt>
      <trkpt lat="43.78678" lon="3.98271">
        <ele>178</ele>
        <time>2020-11-04T18:46:53Z</time>
      </trkpt>
      <trkpt lat="43.78682" lon="3.98267">
        <ele>179</ele>
        <time>2020-11-04T18:46:57Z</time>
      </trkpt>
      <trkpt lat="43.78697" lon="3.9825">
        <ele>180</ele>
        <time>2020-11-04T18:47:11Z</time>
      </trkpt>
      <trkpt lat="43.78703" lon="3.98244">
        <ele>181</ele>
        <time>2020-11-04T18:47:16Z</time>
      </trkpt>
      <trkpt lat="43.78706" lon="3.98242">
        <ele>181</ele>
        <time>2020-11-04T18:47:19Z</time>
      </trkpt>
      <trkpt lat="43.78711" lon="3.9824">
        <ele>182</ele>
        <time>2020-11-04T18:47:22Z</time>
      </trkpt>
      <trkpt lat="43.78713" lon="3.98239">
        <ele>182</ele>
        <time>2020-11-04T18:47:23Z</time>
      </trkpt>
      <trkpt lat="43.78722" lon="3.98236">
        <ele>183</ele>
        <time>2020-11-04T18:47:29Z</time>
      </trkpt>
      <trkpt lat="43.78723" lon="3.98234">
        <ele>183</ele>
        <time>2020-11-04T18:47:30Z</time>
      </trkpt>
      <trkpt lat="43.78741" lon="3.98227">
        <ele>184</ele>
        <time>2020-11-04T18:47:43Z</time>
      </trkpt>
      <trkpt lat="43.78743" lon="3.98227">
        <ele>184</ele>
        <time>2020-11-04T18:47:44Z</time>
      </trkpt>
      <trkpt lat="43.78744" lon="3.98227">
        <ele>184</ele>
        <time>2020-11-04T18:47:45Z</time>
      </trkpt>
      <trkpt lat="43.78747" lon="3.98225">
        <ele>185</ele>
        <time>2020-11-04T18:47:47Z</time>
      </trkpt>
      <trkpt lat="43.78755" lon="3.98221">
        <ele>186</ele>
        <time>2020-11-04T18:47:53Z</time>
      </trkpt>
      <trkpt lat="43.7876" lon="3.98218">
        <ele>187</ele>
        <time>2020-11-04T18:47:57Z</time>
      </trkpt>
      <trkpt lat="43.78761" lon="3.98218">
        <ele>187</ele>
        <time>2020-11-04T18:47:58Z</time>
      </trkpt>
      <trkpt lat="43.78763" lon="3.98216">
        <ele>187</ele>
        <time>2020-11-04T18:48:00Z</time>
      </trkpt>
      <trkpt lat="43.78763" lon="3.98216">
        <ele>187</ele>
        <time>2020-11-04T18:48:01Z</time>
      </trkpt>
      <trkpt lat="43.78765" lon="3.98215">
        <ele>188</ele>
        <time>2020-11-04T18:48:02Z</time>
      </trkpt>
      <trkpt lat="43.78766" lon="3.98214">
        <ele>188</ele>
        <time>2020-11-04T18:48:03Z</time>
      </trkpt>
      <trkpt lat="43.78768" lon="3.98212">
        <ele>188</ele>
        <time>2020-11-04T18:48:04Z</time>
      </trkpt>
      <trkpt lat="43.78771" lon="3.9821">
        <ele>188</ele>
        <time>2020-11-04T18:48:06Z</time>
      </trkpt>
      <trkpt lat="43.78778" lon="3.98201">
        <ele>189</ele>
        <time>2020-11-04T18:48:12Z</time>
      </trkpt>
      <trkpt lat="43.78782" lon="3.98198">
        <ele>190</ele>
        <time>2020-11-04T18:48:15Z</time>
      </trkpt>
      <trkpt lat="43.78784" lon="3.98197">
        <ele>190</ele>
        <time>2020-11-04T18:48:16Z</time>
      </trkpt>
      <trkpt lat="43.78786" lon="3.98196">
        <ele>190</ele>
        <time>2020-11-04T18:48:17Z</time>
      </trkpt>
      <trkpt lat="43.78795" lon="3.98191">
        <ele>191</ele>
        <time>2020-11-04T18:48:22Z</time>
      </trkpt>
      <trkpt lat="43.78797" lon="3.9819">
        <ele>192</ele>
        <time>2020-11-04T18:48:23Z</time>
      </trkpt>
      <trkpt lat="43.78805" lon="3.98187">
        <ele>192</ele>
        <time>2020-11-04T18:48:27Z</time>
      </trkpt>
      <trkpt lat="43.78811" lon="3.98187">
        <ele>193</ele>
        <time>2020-11-04T18:48:30Z</time>
      </trkpt>
      <trkpt lat="43.78814" lon="3.98187">
        <ele>193</ele>
        <time>2020-11-04T18:48:31Z</time>
      </trkpt>
      <trkpt lat="43.78816" lon="3.98187">
        <ele>193</ele>
        <time>2020-11-04T18:48:32Z</time>
      </trkpt>
      <trkpt lat="43.78818" lon="3.98187">
        <ele>193</ele>
        <time>2020-11-04T18:48:33Z</time>
      </trkpt>
      <trkpt lat="43.78843" lon="3.98191">
        <ele>194</ele>
        <time>2020-11-04T18:48:47Z</time>
      </trkpt>
      <trkpt lat="43.78868" lon="3.98199">
        <ele>196</ele>
        <time>2020-11-04T18:49:02Z</time>
      </trkpt>
      <trkpt lat="43.78873" lon="3.98202">
        <ele>197</ele>
        <time>2020-11-04T18:49:05Z</time>
      </trkpt>
      <trkpt lat="43.78875" lon="3.98203">
        <ele>197</ele>
        <time>2020-11-04T18:49:06Z</time>
      </trkpt>
      <trkpt lat="43.78879" lon="3.98206">
        <ele>198</ele>
        <time>2020-11-04T18:49:09Z</time>
      </trkpt>
      <trkpt lat="43.78888" lon="3.98211">
        <ele>199</ele>
        <time>2020-11-04T18:49:15Z</time>
      </trkpt>
      <trkpt lat="43.78914" lon="3.98213">
        <ele>202</ele>
        <time>2020-11-04T18:49:29Z</time>
      </trkpt>
      <trkpt lat="43.78925" lon="3.98212">
        <ele>203</ele>
        <time>2020-11-04T18:49:34Z</time>
      </trkpt>
      <trkpt lat="43.78927" lon="3.98212">
        <ele>203</ele>
        <time>2020-11-04T18:49:35Z</time>
      </trkpt>
      <trkpt lat="43.78929" lon="3.98212">
        <ele>203</ele>
        <time>2020-11-04T18:49:36Z</time>
      </trkpt>
      <trkpt lat="43.78941" lon="3.98212">
        <ele>204</ele>
        <time>2020-11-04T18:49:42Z</time>
      </trkpt>
      <trkpt lat="43.78971" lon="3.98216">
        <ele>207</ele>
        <time>2020-11-04T18:49:56Z</time>
      </trkpt>
      <trkpt lat="43.78998" lon="3.98239">
        <ele>211</ele>
        <time>2020-11-04T18:50:11Z</time>
      </trkpt>
      <trkpt lat="43.79" lon="3.98241">
        <ele>211</ele>
        <time>2020-11-04T18:50:12Z</time>
      </trkpt>
      <trkpt lat="43.79002" lon="3.98242">
        <ele>211</ele>
        <time>2020-11-04T18:50:13Z</time>
      </trkpt>
      <trkpt lat="43.79009" lon="3.98247">
        <ele>212</ele>
        <time>2020-11-04T18:50:16Z</time>
      </trkpt>
      <trkpt lat="43.79025" lon="3.98253">
        <ele>213</ele>
        <time>2020-11-04T18:50:24Z</time>
      </trkpt>
      <trkpt lat="43.79031" lon="3.98256">
        <ele>213</ele>
        <time>2020-11-04T18:50:28Z</time>
      </trkpt>
      <trkpt lat="43.79032" lon="3.98257">
        <ele>213</ele>
        <time>2020-11-04T18:50:29Z</time>
      </trkpt>
      <trkpt lat="43.79033" lon="3.98259">
        <ele>213</ele>
        <time>2020-11-04T18:50:30Z</time>
      </trkpt>
      <trkpt lat="43.79033" lon="3.98259">
        <ele>213</ele>
        <time>2020-11-04T18:50:31Z</time>
      </trkpt>
      <trkpt lat="43.79035" lon="3.98269">
        <ele>212</ele>
        <time>2020-11-04T18:51:42Z</time>
      </trkpt>
      <trkpt lat="43.79035" lon="3.98269">
        <ele>212</ele>
        <time>2020-11-04T18:51:43Z</time>
      </trkpt>
      <trkpt lat="43.79036" lon="3.98273">
        <ele>212</ele>
        <time>2020-11-04T18:51:44Z</time>
      </trkpt>
      <trkpt lat="43.79036" lon="3.98277">
        <ele>212</ele>
        <time>2020-11-04T18:51:45Z</time>
      </trkpt>
      <trkpt lat="43.79037" lon="3.98281">
        <ele>212</ele>
        <time>2020-11-04T18:51:46Z</time>
      </trkpt>
      <trkpt lat="43.79037" lon="3.98285">
        <ele>212</ele>
        <time>2020-11-04T18:51:47Z</time>
      </trkpt>
      <trkpt lat="43.79038" lon="3.98289">
        <ele>212</ele>
        <time>2020-11-04T18:51:48Z</time>
      </trkpt>
      <trkpt lat="43.79039" lon="3.98294">
        <ele>212</ele>
        <time>2020-11-04T18:51:49Z</time>
      </trkpt>
      <trkpt lat="43.79041" lon="3.98326">
        <ele>211</ele>
        <time>2020-11-04T18:51:56Z</time>
      </trkpt>
      <trkpt lat="43.79042" lon="3.98331">
        <ele>211</ele>
        <time>2020-11-04T18:51:57Z</time>
      </trkpt>
      <trkpt lat="43.79047" lon="3.98362">
        <ele>211</ele>
        <time>2020-11-04T18:52:04Z</time>
      </trkpt>
      <trkpt lat="43.79048" lon="3.98367">
        <ele>211</ele>
        <time>2020-11-04T18:52:05Z</time>
      </trkpt>
      <trkpt lat="43.79049" lon="3.98371">
        <ele>211</ele>
        <time>2020-11-04T18:52:06Z</time>
      </trkpt>
      <trkpt lat="43.79051" lon="3.98376">
        <ele>211</ele>
        <time>2020-11-04T18:52:07Z</time>
      </trkpt>
      <trkpt lat="43.79052" lon="3.98381">
        <ele>211</ele>
        <time>2020-11-04T18:52:08Z</time>
      </trkpt>
      <trkpt lat="43.79054" lon="3.98385">
        <ele>211</ele>
        <time>2020-11-04T18:52:09Z</time>
      </trkpt>
      <trkpt lat="43.79056" lon="3.98391">
        <ele>211</ele>
        <time>2020-11-04T18:52:10Z</time>
      </trkpt>
      <trkpt lat="43.79058" lon="3.98396">
        <ele>211</ele>
        <time>2020-11-04T18:52:11Z</time>
      </trkpt>
      <trkpt lat="43.79064" lon="3.98414">
        <ele>210</ele>
        <time>2020-11-04T18:52:14Z</time>
      </trkpt>
      <trkpt lat="43.79068" lon="3.98425">
        <ele>210</ele>
        <time>2020-11-04T18:52:16Z</time>
      </trkpt>
      <trkpt lat="43.79075" lon="3.98443">
        <ele>209</ele>
        <time>2020-11-04T18:52:19Z</time>
      </trkpt>
      <trkpt lat="43.79086" lon="3.98479">
        <ele>209</ele>
        <time>2020-11-04T18:52:25Z</time>
      </trkpt>
      <trkpt lat="43.79088" lon="3.98484">
        <ele>209</ele>
        <time>2020-11-04T18:52:26Z</time>
      </trkpt>
      <trkpt lat="43.79091" lon="3.98489">
        <ele>209</ele>
        <time>2020-11-04T18:52:27Z</time>
      </trkpt>
      <trkpt lat="43.79096" lon="3.985">
        <ele>209</ele>
        <time>2020-11-04T18:52:29Z</time>
      </trkpt>
      <trkpt lat="43.791" lon="3.98508">
        <ele>209</ele>
        <time>2020-11-04T18:52:31Z</time>
      </trkpt>
      <trkpt lat="43.7911" lon="3.98544">
        <ele>210</ele>
        <time>2020-11-04T18:52:40Z</time>
      </trkpt>
      <trkpt lat="43.79111" lon="3.98548">
        <ele>211</ele>
        <time>2020-11-04T18:52:41Z</time>
      </trkpt>
      <trkpt lat="43.79114" lon="3.98561">
        <ele>212</ele>
        <time>2020-11-04T18:52:45Z</time>
      </trkpt>
      <trkpt lat="43.79114" lon="3.98564">
        <ele>212</ele>
        <time>2020-11-04T18:52:46Z</time>
      </trkpt>
      <trkpt lat="43.79114" lon="3.98568">
        <ele>213</ele>
        <time>2020-11-04T18:52:47Z</time>
      </trkpt>
      <trkpt lat="43.79116" lon="3.98577">
        <ele>214</ele>
        <time>2020-11-04T18:52:50Z</time>
      </trkpt>
      <trkpt lat="43.79116" lon="3.98587">
        <ele>215</ele>
        <time>2020-11-04T18:52:53Z</time>
      </trkpt>
      <trkpt lat="43.79116" lon="3.98589">
        <ele>215</ele>
        <time>2020-11-04T18:52:54Z</time>
      </trkpt>
      <trkpt lat="43.79116" lon="3.98593">
        <ele>216</ele>
        <time>2020-11-04T18:52:56Z</time>
      </trkpt>
      <trkpt lat="43.79116" lon="3.98598">
        <ele>217</ele>
        <time>2020-11-04T18:52:59Z</time>
      </trkpt>
      <trkpt lat="43.79116" lon="3.98606">
        <ele>218</ele>
        <time>2020-11-04T18:53:03Z</time>
      </trkpt>
      <trkpt lat="43.79117" lon="3.98621">
        <ele>219</ele>
        <time>2020-11-04T18:53:12Z</time>
      </trkpt>
      <trkpt lat="43.79117" lon="3.98624">
        <ele>220</ele>
        <time>2020-11-04T18:53:14Z</time>
      </trkpt>
      <trkpt lat="43.79118" lon="3.98632">
        <ele>220</ele>
        <time>2020-11-04T18:53:20Z</time>
      </trkpt>
      <trkpt lat="43.79118" lon="3.98633">
        <ele>220</ele>
        <time>2020-11-04T18:53:21Z</time>
      </trkpt>
      <trkpt lat="43.79121" lon="3.98642">
        <ele>220</ele>
        <time>2020-11-04T18:53:27Z</time>
      </trkpt>
      <trkpt lat="43.79121" lon="3.98644">
        <ele>221</ele>
        <time>2020-11-04T18:53:28Z</time>
      </trkpt>
      <trkpt lat="43.79122" lon="3.98647">
        <ele>221</ele>
        <time>2020-11-04T18:53:29Z</time>
      </trkpt>
      <trkpt lat="43.79124" lon="3.9865">
        <ele>221</ele>
        <time>2020-11-04T18:53:30Z</time>
      </trkpt>
      <trkpt lat="43.79124" lon="3.98654">
        <ele>221</ele>
        <time>2020-11-04T18:53:31Z</time>
      </trkpt>
      <trkpt lat="43.7913" lon="3.98668">
        <ele>221</ele>
        <time>2020-11-04T18:53:35Z</time>
      </trkpt>
      <trkpt lat="43.79131" lon="3.98671">
        <ele>221</ele>
        <time>2020-11-04T18:53:36Z</time>
      </trkpt>
      <trkpt lat="43.79135" lon="3.98685">
        <ele>222</ele>
        <time>2020-11-04T18:53:41Z</time>
      </trkpt>
      <trkpt lat="43.79135" lon="3.98685">
        <ele>222</ele>
        <time>2020-11-04T18:53:42Z</time>
      </trkpt>
      <trkpt lat="43.79139" lon="3.98693">
        <ele>222</ele>
        <time>2020-11-04T18:54:16Z</time>
      </trkpt>
      <trkpt lat="43.79139" lon="3.98693">
        <ele>222</ele>
        <time>2020-11-04T18:54:17Z</time>
      </trkpt>
      <trkpt lat="43.79141" lon="3.98697">
        <ele>222</ele>
        <time>2020-11-04T18:54:18Z</time>
      </trkpt>
      <trkpt lat="43.79142" lon="3.98702">
        <ele>222</ele>
        <time>2020-11-04T18:54:19Z</time>
      </trkpt>
      <trkpt lat="43.79144" lon="3.98707">
        <ele>222</ele>
        <time>2020-11-04T18:54:20Z</time>
      </trkpt>
      <trkpt lat="43.79146" lon="3.98713">
        <ele>222</ele>
        <time>2020-11-04T18:54:21Z</time>
      </trkpt>
      <trkpt lat="43.79148" lon="3.98719">
        <ele>222</ele>
        <time>2020-11-04T18:54:22Z</time>
      </trkpt>
      <trkpt lat="43.79151" lon="3.98725">
        <ele>222</ele>
        <time>2020-11-04T18:54:23Z</time>
      </trkpt>
      <trkpt lat="43.79154" lon="3.98733">
        <ele>221</ele>
        <time>2020-11-04T18:54:24Z</time>
      </trkpt>
      <trkpt lat="43.79159" lon="3.98747">
        <ele>221</ele>
        <time>2020-11-04T18:54:26Z</time>
      </trkpt>
      <trkpt lat="43.79162" lon="3.98753">
        <ele>220</ele>
        <time>2020-11-04T18:54:27Z</time>
      </trkpt>
      <trkpt lat="43.79165" lon="3.9876">
        <ele>220</ele>
        <time>2020-11-04T18:54:28Z</time>
      </trkpt>
      <trkpt lat="43.79169" lon="3.98768">
        <ele>219</ele>
        <time>2020-11-04T18:54:29Z</time>
      </trkpt>
      <trkpt lat="43.79173" lon="3.98777">
        <ele>218</ele>
        <time>2020-11-04T18:54:30Z</time>
      </trkpt>
      <trkpt lat="43.79178" lon="3.98787">
        <ele>218</ele>
        <time>2020-11-04T18:54:31Z</time>
      </trkpt>
      <trkpt lat="43.79181" lon="3.98797">
        <ele>217</ele>
        <time>2020-11-04T18:54:32Z</time>
      </trkpt>
      <trkpt lat="43.79184" lon="3.98808">
        <ele>216</ele>
        <time>2020-11-04T18:54:33Z</time>
      </trkpt>
      <trkpt lat="43.79189" lon="3.98829">
        <ele>214</ele>
        <time>2020-11-04T18:54:35Z</time>
      </trkpt>
      <trkpt lat="43.79189" lon="3.9884">
        <ele>213</ele>
        <time>2020-11-04T18:54:36Z</time>
      </trkpt>
      <trkpt lat="43.79187" lon="3.9885">
        <ele>212</ele>
        <time>2020-11-04T18:54:37Z</time>
      </trkpt>
      <trkpt lat="43.79181" lon="3.98866">
        <ele>209</ele>
        <time>2020-11-04T18:54:39Z</time>
      </trkpt>
      <trkpt lat="43.79177" lon="3.9887">
        <ele>208</ele>
        <time>2020-11-04T18:54:40Z</time>
      </trkpt>
      <trkpt lat="43.79166" lon="3.9887">
        <ele>206</ele>
        <time>2020-11-04T18:54:42Z</time>
      </trkpt>
      <trkpt lat="43.79155" lon="3.98868">
        <ele>204</ele>
        <time>2020-11-04T18:54:44Z</time>
      </trkpt>
      <trkpt lat="43.79144" lon="3.98865">
        <ele>202</ele>
        <time>2020-11-04T18:54:46Z</time>
      </trkpt>
      <trkpt lat="43.79134" lon="3.98861">
        <ele>201</ele>
        <time>2020-11-04T18:54:48Z</time>
      </trkpt>
      <trkpt lat="43.79121" lon="3.98855">
        <ele>200</ele>
        <time>2020-11-04T18:54:51Z</time>
      </trkpt>
      <trkpt lat="43.79111" lon="3.9885">
        <ele>199</ele>
        <time>2020-11-04T18:54:54Z</time>
      </trkpt>
      <trkpt lat="43.79091" lon="3.98843">
        <ele>199</ele>
        <time>2020-11-04T18:55:00Z</time>
      </trkpt>
      <trkpt lat="43.79082" lon="3.98842">
        <ele>200</ele>
        <time>2020-11-04T18:55:03Z</time>
      </trkpt>
      <trkpt lat="43.79078" lon="3.98842">
        <ele>200</ele>
        <time>2020-11-04T18:55:04Z</time>
      </trkpt>
      <trkpt lat="43.79074" lon="3.98842">
        <ele>201</ele>
        <time>2020-11-04T18:55:05Z</time>
      </trkpt>
      <trkpt lat="43.79058" lon="3.98846">
        <ele>202</ele>
        <time>2020-11-04T18:55:10Z</time>
      </trkpt>
      <trkpt lat="43.79055" lon="3.98847">
        <ele>202</ele>
        <time>2020-11-04T18:55:11Z</time>
      </trkpt>
      <trkpt lat="43.79038" lon="3.9886">
        <ele>203</ele>
        <time>2020-11-04T18:55:16Z</time>
      </trkpt>
      <trkpt lat="43.7903" lon="3.98868">
        <ele>204</ele>
        <time>2020-11-04T18:55:19Z</time>
      </trkpt>
      <trkpt lat="43.79027" lon="3.9887">
        <ele>205</ele>
        <time>2020-11-04T18:55:20Z</time>
      </trkpt>
      <trkpt lat="43.79019" lon="3.98877">
        <ele>205</ele>
        <time>2020-11-04T18:55:23Z</time>
      </trkpt>
      <trkpt lat="43.79016" lon="3.98879">
        <ele>205</ele>
        <time>2020-11-04T18:55:24Z</time>
      </trkpt>
      <trkpt lat="43.7901" lon="3.98884">
        <ele>205</ele>
        <time>2020-11-04T18:55:26Z</time>
      </trkpt>
      <trkpt lat="43.79007" lon="3.98886">
        <ele>206</ele>
        <time>2020-11-04T18:55:27Z</time>
      </trkpt>
      <trkpt lat="43.79004" lon="3.98889">
        <ele>206</ele>
        <time>2020-11-04T18:55:28Z</time>
      </trkpt>
      <trkpt lat="43.79" lon="3.98891">
        <ele>206</ele>
        <time>2020-11-04T18:55:29Z</time>
      </trkpt>
      <trkpt lat="43.78996" lon="3.98894">
        <ele>206</ele>
        <time>2020-11-04T18:55:30Z</time>
      </trkpt>
      <trkpt lat="43.78992" lon="3.98897">
        <ele>206</ele>
        <time>2020-11-04T18:55:31Z</time>
      </trkpt>
      <trkpt lat="43.78988" lon="3.989">
        <ele>206</ele>
        <time>2020-11-04T18:55:32Z</time>
      </trkpt>
      <trkpt lat="43.78983" lon="3.98903">
        <ele>206</ele>
        <time>2020-11-04T18:55:33Z</time>
      </trkpt>
      <trkpt lat="43.78978" lon="3.98906">
        <ele>206</ele>
        <time>2020-11-04T18:55:34Z</time>
      </trkpt>
      <trkpt lat="43.78972" lon="3.98909">
        <ele>205</ele>
        <time>2020-11-04T18:55:35Z</time>
      </trkpt>
      <trkpt lat="43.78967" lon="3.98912">
        <ele>205</ele>
        <time>2020-11-04T18:55:36Z</time>
      </trkpt>
      <trkpt lat="43.78961" lon="3.98916">
        <ele>205</ele>
        <time>2020-11-04T18:55:37Z</time>
      </trkpt>
      <trkpt lat="43.78954" lon="3.9892">
        <ele>205</ele>
        <time>2020-11-04T18:55:38Z</time>
      </trkpt>
      <trkpt lat="43.78946" lon="3.98925">
        <ele>204</ele>
        <time>2020-11-04T18:55:39Z</time>
      </trkpt>
      <trkpt lat="43.78938" lon="3.9893">
        <ele>204</ele>
        <time>2020-11-04T18:55:40Z</time>
      </trkpt>
      <trkpt lat="43.78915" lon="3.98946">
        <ele>202</ele>
        <time>2020-11-04T18:55:43Z</time>
      </trkpt>
      <trkpt lat="43.78909" lon="3.98951">
        <ele>202</ele>
        <time>2020-11-04T18:55:44Z</time>
      </trkpt>
      <trkpt lat="43.78903" lon="3.98955">
        <ele>201</ele>
        <time>2020-11-04T18:55:45Z</time>
      </trkpt>
      <trkpt lat="43.78896" lon="3.9896">
        <ele>200</ele>
        <time>2020-11-04T18:55:46Z</time>
      </trkpt>
      <trkpt lat="43.7889" lon="3.98964">
        <ele>199</ele>
        <time>2020-11-04T18:55:47Z</time>
      </trkpt>
      <trkpt lat="43.78875" lon="3.98967">
        <ele>197</ele>
        <time>2020-11-04T18:55:49Z</time>
      </trkpt>
      <trkpt lat="43.78867" lon="3.98966">
        <ele>196</ele>
        <time>2020-11-04T18:55:50Z</time>
      </trkpt>
      <trkpt lat="43.78851" lon="3.98959">
        <ele>194</ele>
        <time>2020-11-04T18:55:52Z</time>
      </trkpt>
      <trkpt lat="43.78843" lon="3.98955">
        <ele>194</ele>
        <time>2020-11-04T18:55:53Z</time>
      </trkpt>
      <trkpt lat="43.78835" lon="3.98952">
        <ele>193</ele>
        <time>2020-11-04T18:55:54Z</time>
      </trkpt>
      <trkpt lat="43.78803" lon="3.98943">
        <ele>190</ele>
        <time>2020-11-04T18:55:58Z</time>
      </trkpt>
      <trkpt lat="43.78781" lon="3.98949">
        <ele>189</ele>
        <time>2020-11-04T18:56:01Z</time>
      </trkpt>
      <trkpt lat="43.78776" lon="3.98954">
        <ele>188</ele>
        <time>2020-11-04T18:56:02Z</time>
      </trkpt>
      <trkpt lat="43.7877" lon="3.98961">
        <ele>188</ele>
        <time>2020-11-04T18:56:03Z</time>
      </trkpt>
      <trkpt lat="43.78749" lon="3.98989">
        <ele>185</ele>
        <time>2020-11-04T18:56:07Z</time>
      </trkpt>
      <trkpt lat="43.78738" lon="3.99005">
        <ele>183</ele>
        <time>2020-11-04T18:56:09Z</time>
      </trkpt>
      <trkpt lat="43.78733" lon="3.99013">
        <ele>182</ele>
        <time>2020-11-04T18:56:10Z</time>
      </trkpt>
      <trkpt lat="43.78727" lon="3.99021">
        <ele>180</ele>
        <time>2020-11-04T18:56:11Z</time>
      </trkpt>
      <trkpt lat="43.78721" lon="3.99028">
        <ele>179</ele>
        <time>2020-11-04T18:56:12Z</time>
      </trkpt>
      <trkpt lat="43.78714" lon="3.99035">
        <ele>178</ele>
        <time>2020-11-04T18:56:13Z</time>
      </trkpt>
      <trkpt lat="43.78706" lon="3.99042">
        <ele>176</ele>
        <time>2020-11-04T18:56:14Z</time>
      </trkpt>
      <trkpt lat="43.78698" lon="3.99049">
        <ele>175</ele>
        <time>2020-11-04T18:56:15Z</time>
      </trkpt>
      <trkpt lat="43.78691" lon="3.99054">
        <ele>173</ele>
        <time>2020-11-04T18:56:16Z</time>
      </trkpt>
      <trkpt lat="43.7868" lon="3.99067">
        <ele>170</ele>
        <time>2020-11-04T18:56:18Z</time>
      </trkpt>
      <trkpt lat="43.78675" lon="3.99074">
        <ele>168</ele>
        <time>2020-11-04T18:56:19Z</time>
      </trkpt>
      <trkpt lat="43.78671" lon="3.99079">
        <ele>166</ele>
        <time>2020-11-04T18:56:20Z</time>
      </trkpt>
      <trkpt lat="43.78664" lon="3.99091">
        <ele>163</ele>
        <time>2020-11-04T18:56:22Z</time>
      </trkpt>
      <trkpt lat="43.78661" lon="3.99096">
        <ele>161</ele>
        <time>2020-11-04T18:56:23Z</time>
      </trkpt>
      <trkpt lat="43.78657" lon="3.9911">
        <ele>157</ele>
        <time>2020-11-04T18:56:26Z</time>
      </trkpt>
      <trkpt lat="43.78659" lon="3.99118">
        <ele>154</ele>
        <time>2020-11-04T18:56:28Z</time>
      </trkpt>
      <trkpt lat="43.78661" lon="3.99122">
        <ele>153</ele>
        <time>2020-11-04T18:56:29Z</time>
      </trkpt>
      <trkpt lat="43.78663" lon="3.99128">
        <ele>151</ele>
        <time>2020-11-04T18:56:30Z</time>
      </trkpt>
      <trkpt lat="43.78665" lon="3.99136">
        <ele>150</ele>
        <time>2020-11-04T18:56:31Z</time>
      </trkpt>
      <trkpt lat="43.78668" lon="3.99144">
        <ele>149</ele>
        <time>2020-11-04T18:56:32Z</time>
      </trkpt>
      <trkpt lat="43.78672" lon="3.99153">
        <ele>148</ele>
        <time>2020-11-04T18:56:33Z</time>
      </trkpt>
      <trkpt lat="43.78678" lon="3.99169">
        <ele>146</ele>
        <time>2020-11-04T18:56:35Z</time>
      </trkpt>
      <trkpt lat="43.7868" lon="3.99178">
        <ele>145</ele>
        <time>2020-11-04T18:56:36Z</time>
      </trkpt>
      <trkpt lat="43.78674" lon="3.99213">
        <ele>140</ele>
        <time>2020-11-04T18:56:40Z</time>
      </trkpt>
      <trkpt lat="43.78668" lon="3.99221">
        <ele>139</ele>
        <time>2020-11-04T18:56:41Z</time>
      </trkpt>
      <trkpt lat="43.78662" lon="3.99229">
        <ele>138</ele>
        <time>2020-11-04T18:56:42Z</time>
      </trkpt>
      <trkpt lat="43.78656" lon="3.99237">
        <ele>136</ele>
        <time>2020-11-04T18:56:43Z</time>
      </trkpt>
      <trkpt lat="43.78651" lon="3.99242">
        <ele>135</ele>
        <time>2020-11-04T18:56:44Z</time>
      </trkpt>
      <trkpt lat="43.78639" lon="3.99246">
        <ele>132</ele>
        <time>2020-11-04T18:56:46Z</time>
      </trkpt>
      <trkpt lat="43.78633" lon="3.99244">
        <ele>131</ele>
        <time>2020-11-04T18:56:47Z</time>
      </trkpt>
      <trkpt lat="43.78629" lon="3.9924">
        <ele>129</ele>
        <time>2020-11-04T18:56:48Z</time>
      </trkpt>
      <trkpt lat="43.78628" lon="3.99237">
        <ele>128</ele>
        <time>2020-11-04T18:56:49Z</time>
      </trkpt>
      <trkpt lat="43.78627" lon="3.99235">
        <ele>126</ele>
        <time>2020-11-04T18:56:50Z</time>
      </trkpt>
      <trkpt lat="43.78625" lon="3.9923">
        <ele>124</ele>
        <time>2020-11-04T18:56:52Z</time>
      </trkpt>
      <trkpt lat="43.78624" lon="3.99226">
        <ele>123</ele>
        <time>2020-11-04T18:56:53Z</time>
      </trkpt>
      <trkpt lat="43.78622" lon="3.99222">
        <ele>122</ele>
        <time>2020-11-04T18:56:54Z</time>
      </trkpt>
      <trkpt lat="43.7862" lon="3.99217">
        <ele>121</ele>
        <time>2020-11-04T18:56:55Z</time>
      </trkpt>
      <trkpt lat="43.78617" lon="3.99211">
        <ele>120</ele>
        <time>2020-11-04T18:56:56Z</time>
      </trkpt>
      <trkpt lat="43.78613" lon="3.99203">
        <ele>120</ele>
        <time>2020-11-04T18:56:57Z</time>
      </trkpt>
      <trkpt lat="43.7861" lon="3.99195">
        <ele>119</ele>
        <time>2020-11-04T18:56:58Z</time>
      </trkpt>
      <trkpt lat="43.78606" lon="3.99186">
        <ele>118</ele>
        <time>2020-11-04T18:56:59Z</time>
      </trkpt>
      <trkpt lat="43.78589" lon="3.99163">
        <ele>116</ele>
        <time>2020-11-04T18:57:02Z</time>
      </trkpt>
      <trkpt lat="43.78581" lon="3.99158">
        <ele>115</ele>
        <time>2020-11-04T18:57:03Z</time>
      </trkpt>
      <trkpt lat="43.78572" lon="3.99154">
        <ele>115</ele>
        <time>2020-11-04T18:57:04Z</time>
      </trkpt>
      <trkpt lat="43.7856" lon="3.99151">
        <ele>114</ele>
        <time>2020-11-04T18:57:05Z</time>
      </trkpt>
      <trkpt lat="43.78539" lon="3.99145">
        <ele>112</ele>
        <time>2020-11-04T18:57:07Z</time>
      </trkpt>
      <trkpt lat="43.78529" lon="3.99142">
        <ele>111</ele>
        <time>2020-11-04T18:57:08Z</time>
      </trkpt>
      <trkpt lat="43.78501" lon="3.99132">
        <ele>106</ele>
        <time>2020-11-04T18:57:11Z</time>
      </trkpt>
      <trkpt lat="43.78493" lon="3.9913">
        <ele>105</ele>
        <time>2020-11-04T18:57:12Z</time>
      </trkpt>
      <trkpt lat="43.78485" lon="3.9913">
        <ele>103</ele>
        <time>2020-11-04T18:57:13Z</time>
      </trkpt>
      <trkpt lat="43.78478" lon="3.99132">
        <ele>101</ele>
        <time>2020-11-04T18:57:14Z</time>
      </trkpt>
      <trkpt lat="43.78469" lon="3.99136">
        <ele>100</ele>
        <time>2020-11-04T18:57:15Z</time>
      </trkpt>
      <trkpt lat="43.78451" lon="3.9914">
        <ele>96</ele>
        <time>2020-11-04T18:57:17Z</time>
      </trkpt>
      <trkpt lat="43.78417" lon="3.99147">
        <ele>89</ele>
        <time>2020-11-04T18:57:21Z</time>
      </trkpt>
      <trkpt lat="43.78408" lon="3.99149">
        <ele>87</ele>
        <time>2020-11-04T18:57:22Z</time>
      </trkpt>
      <trkpt lat="43.784" lon="3.99152">
        <ele>86</ele>
        <time>2020-11-04T18:57:23Z</time>
      </trkpt>
      <trkpt lat="43.78391" lon="3.99153">
        <ele>84</ele>
        <time>2020-11-04T18:57:24Z</time>
      </trkpt>
      <trkpt lat="43.78382" lon="3.99154">
        <ele>82</ele>
        <time>2020-11-04T18:57:25Z</time>
      </trkpt>
      <trkpt lat="43.78374" lon="3.99156">
        <ele>80</ele>
        <time>2020-11-04T18:57:26Z</time>
      </trkpt>
      <trkpt lat="43.78364" lon="3.9916">
        <ele>79</ele>
        <time>2020-11-04T18:57:27Z</time>
      </trkpt>
      <trkpt lat="43.78356" lon="3.99166">
        <ele>77</ele>
        <time>2020-11-04T18:57:28Z</time>
      </trkpt>
      <trkpt lat="43.78347" lon="3.99172">
        <ele>76</ele>
        <time>2020-11-04T18:57:29Z</time>
      </trkpt>
      <trkpt lat="43.78338" lon="3.99178">
        <ele>74</ele>
        <time>2020-11-04T18:57:30Z</time>
      </trkpt>
      <trkpt lat="43.78321" lon="3.99191">
        <ele>72</ele>
        <time>2020-11-04T18:57:32Z</time>
      </trkpt>
      <trkpt lat="43.78314" lon="3.99198">
        <ele>71</ele>
        <time>2020-11-04T18:57:33Z</time>
      </trkpt>
      <trkpt lat="43.78299" lon="3.99209">
        <ele>69</ele>
        <time>2020-11-04T18:57:35Z</time>
      </trkpt>
      <trkpt lat="43.78291" lon="3.99215">
        <ele>68</ele>
        <time>2020-11-04T18:57:36Z</time>
      </trkpt>
      <trkpt lat="43.78276" lon="3.99225">
        <ele>66</ele>
        <time>2020-11-04T18:57:38Z</time>
      </trkpt>
      <trkpt lat="43.7827" lon="3.99229">
        <ele>65</ele>
        <time>2020-11-04T18:57:39Z</time>
      </trkpt>
      <trkpt lat="43.78267" lon="3.99231">
        <ele>64</ele>
        <time>2020-11-04T18:57:40Z</time>
      </trkpt>
      <trkpt lat="43.78266" lon="3.99232">
        <ele>63</ele>
        <time>2020-11-04T18:57:41Z</time>
      </trkpt>
      <trkpt lat="43.78265" lon="3.99233">
        <ele>62</ele>
        <time>2020-11-04T18:57:42Z</time>
      </trkpt>
      <trkpt lat="43.78264" lon="3.99215">
        <ele>56</ele>
        <time>2020-11-04T18:57:52Z</time>
      </trkpt>
      <trkpt lat="43.78264" lon="3.99215">
        <ele>56</ele>
        <time>2020-11-04T18:57:53Z</time>
      </trkpt>
      <trkpt lat="43.78264" lon="3.99209">
        <ele>56</ele>
        <time>2020-11-04T18:57:54Z</time>
      </trkpt>
      <trkpt lat="43.78264" lon="3.99202">
        <ele>56</ele>
        <time>2020-11-04T18:57:55Z</time>
      </trkpt>
      <trkpt lat="43.78263" lon="3.99195">
        <ele>56</ele>
        <time>2020-11-04T18:57:56Z</time>
      </trkpt>
      <trkpt lat="43.78263" lon="3.99187">
        <ele>56</ele>
        <time>2020-11-04T18:57:57Z</time>
      </trkpt>
      <trkpt lat="43.78263" lon="3.9918">
        <ele>55</ele>
        <time>2020-11-04T18:57:58Z</time>
      </trkpt>
      <trkpt lat="43.78263" lon="3.99172">
        <ele>55</ele>
        <time>2020-11-04T18:57:59Z</time>
      </trkpt>
      <trkpt lat="43.78264" lon="3.99164">
        <ele>55</ele>
        <time>2020-11-04T18:58:00Z</time>
      </trkpt>
      <trkpt lat="43.78264" lon="3.99156">
        <ele>55</ele>
        <time>2020-11-04T18:58:01Z</time>
      </trkpt>
      <trkpt lat="43.78264" lon="3.99147">
        <ele>54</ele>
        <time>2020-11-04T18:58:02Z</time>
      </trkpt>
      <trkpt lat="43.78265" lon="3.99112">
        <ele>53</ele>
        <time>2020-11-04T18:58:06Z</time>
      </trkpt>
      <trkpt lat="43.78267" lon="3.99078">
        <ele>52</ele>
        <time>2020-11-04T18:58:10Z</time>
      </trkpt>
      <trkpt lat="43.78268" lon="3.99069">
        <ele>52</ele>
        <time>2020-11-04T18:58:11Z</time>
      </trkpt>
      <trkpt lat="43.78271" lon="3.99027">
        <ele>52</ele>
        <time>2020-11-04T18:58:16Z</time>
      </trkpt>
      <trkpt lat="43.78271" lon="3.99019">
        <ele>52</ele>
        <time>2020-11-04T18:58:17Z</time>
      </trkpt>
      <trkpt lat="43.78276" lon="3.98948">
        <ele>53</ele>
        <time>2020-11-04T18:58:26Z</time>
      </trkpt>
      <trkpt lat="43.78277" lon="3.9894">
        <ele>53</ele>
        <time>2020-11-04T18:58:27Z</time>
      </trkpt>
      <trkpt lat="43.78278" lon="3.98932">
        <ele>53</ele>
        <time>2020-11-04T18:58:28Z</time>
      </trkpt>
      <trkpt lat="43.78278" lon="3.98924">
        <ele>53</ele>
        <time>2020-11-04T18:58:29Z</time>
      </trkpt>
      <trkpt lat="43.78279" lon="3.98909">
        <ele>54</ele>
        <time>2020-11-04T18:58:31Z</time>
      </trkpt>
      <trkpt lat="43.78279" lon="3.98901">
        <ele>54</ele>
        <time>2020-11-04T18:58:32Z</time>
      </trkpt>
      <trkpt lat="43.78278" lon="3.98893">
        <ele>55</ele>
        <time>2020-11-04T18:58:33Z</time>
      </trkpt>
      <trkpt lat="43.78278" lon="3.98885">
        <ele>55</ele>
        <time>2020-11-04T18:58:34Z</time>
      </trkpt>
      <trkpt lat="43.78279" lon="3.98868">
        <ele>55</ele>
        <time>2020-11-04T18:58:36Z</time>
      </trkpt>
      <trkpt lat="43.78279" lon="3.9886">
        <ele>56</ele>
        <time>2020-11-04T18:58:37Z</time>
      </trkpt>
      <trkpt lat="43.78279" lon="3.98851">
        <ele>56</ele>
        <time>2020-11-04T18:58:38Z</time>
      </trkpt>
      <trkpt lat="43.78279" lon="3.98843">
        <ele>56</ele>
        <time>2020-11-04T18:58:39Z</time>
      </trkpt>
      <trkpt lat="43.78279" lon="3.98834">
        <ele>56</ele>
        <time>2020-11-04T18:58:40Z</time>
      </trkpt>
      <trkpt lat="43.78279" lon="3.98824">
        <ele>56</ele>
        <time>2020-11-04T18:58:41Z</time>
      </trkpt>
      <trkpt lat="43.78279" lon="3.98815">
        <ele>56</ele>
        <time>2020-11-04T18:58:42Z</time>
      </trkpt>
      <trkpt lat="43.78279" lon="3.98805">
        <ele>56</ele>
        <time>2020-11-04T18:58:43Z</time>
      </trkpt>
      <trkpt lat="43.78278" lon="3.98796">
        <ele>56</ele>
        <time>2020-11-04T18:58:44Z</time>
      </trkpt>
      <trkpt lat="43.78275" lon="3.98727">
        <ele>55</ele>
        <time>2020-11-04T18:58:51Z</time>
      </trkpt>
      <trkpt lat="43.78275" lon="3.98718">
        <ele>55</ele>
        <time>2020-11-04T18:58:52Z</time>
      </trkpt>
      <trkpt lat="43.78275" lon="3.98708">
        <ele>55</ele>
        <time>2020-11-04T18:58:53Z</time>
      </trkpt>
      <trkpt lat="43.78274" lon="3.98698">
        <ele>55</ele>
        <time>2020-11-04T18:58:54Z</time>
      </trkpt>
      <trkpt lat="43.78265" lon="3.98641">
        <ele>54</ele>
        <time>2020-11-04T18:59:00Z</time>
      </trkpt>
      <trkpt lat="43.78257" lon="3.98607">
        <ele>53</ele>
        <time>2020-11-04T18:59:04Z</time>
      </trkpt>
      <trkpt lat="43.78241" lon="3.98531">
        <ele>52</ele>
        <time>2020-11-04T18:59:14Z</time>
      </trkpt>
      <trkpt lat="43.78236" lon="3.98508">
        <ele>52</ele>
        <time>2020-11-04T18:59:17Z</time>
      </trkpt>
      <trkpt lat="43.78235" lon="3.98501">
        <ele>52</ele>
        <time>2020-11-04T18:59:18Z</time>
      </trkpt>
      <trkpt lat="43.78232" lon="3.98477">
        <ele>52</ele>
        <time>2020-11-04T18:59:21Z</time>
      </trkpt>
      <trkpt lat="43.78232" lon="3.98458">
        <ele>51</ele>
        <time>2020-11-04T18:59:24Z</time>
      </trkpt>
      <trkpt lat="43.78232" lon="3.98451">
        <ele>51</ele>
        <time>2020-11-04T18:59:25Z</time>
      </trkpt>
      <trkpt lat="43.78233" lon="3.98444">
        <ele>51</ele>
        <time>2020-11-04T18:59:26Z</time>
      </trkpt>
      <trkpt lat="43.78244" lon="3.98387">
        <ele>52</ele>
        <time>2020-11-04T18:59:34Z</time>
      </trkpt>
      <trkpt lat="43.78247" lon="3.98373">
        <ele>52</ele>
        <time>2020-11-04T18:59:36Z</time>
      </trkpt>
      <trkpt lat="43.78249" lon="3.98366">
        <ele>52</ele>
        <time>2020-11-04T18:59:37Z</time>
      </trkpt>
      <trkpt lat="43.7825" lon="3.9836">
        <ele>52</ele>
        <time>2020-11-04T18:59:38Z</time>
      </trkpt>
      <trkpt lat="43.78253" lon="3.98353">
        <ele>53</ele>
        <time>2020-11-04T18:59:39Z</time>
      </trkpt>
      <trkpt lat="43.78255" lon="3.98346">
        <ele>53</ele>
        <time>2020-11-04T18:59:40Z</time>
      </trkpt>
      <trkpt lat="43.78258" lon="3.98339">
        <ele>53</ele>
        <time>2020-11-04T18:59:41Z</time>
      </trkpt>
      <trkpt lat="43.78261" lon="3.98333">
        <ele>53</ele>
        <time>2020-11-04T18:59:42Z</time>
      </trkpt>
      <trkpt lat="43.78269" lon="3.9832">
        <ele>53</ele>
        <time>2020-11-04T18:59:44Z</time>
      </trkpt>
      <trkpt lat="43.78273" lon="3.98313">
        <ele>53</ele>
        <time>2020-11-04T18:59:45Z</time>
      </trkpt>
      <trkpt lat="43.78277" lon="3.98306">
        <ele>53</ele>
        <time>2020-11-04T18:59:46Z</time>
      </trkpt>
      <trkpt lat="43.78281" lon="3.98298">
        <ele>53</ele>
        <time>2020-11-04T18:59:47Z</time>
      </trkpt>
      <trkpt lat="43.78286" lon="3.9829">
        <ele>53</ele>
        <time>2020-11-04T18:59:48Z</time>
      </trkpt>
      <trkpt lat="43.78294" lon="3.98274">
        <ele>52</ele>
        <time>2020-11-04T18:59:50Z</time>
      </trkpt>
      <trkpt lat="43.78332" lon="3.982">
        <ele>51</ele>
        <time>2020-11-04T19:00:00Z</time>
      </trkpt>
      <trkpt lat="43.78353" lon="3.98131">
        <ele>51</ele>
        <time>2020-11-04T19:00:08Z</time>
      </trkpt>
      <trkpt lat="43.78372" lon="3.9806">
        <ele>51</ele>
        <time>2020-11-04T19:00:17Z</time>
      </trkpt>
      <trkpt lat="43.78376" lon="3.98045">
        <ele>51</ele>
        <time>2020-11-04T19:00:19Z</time>
      </trkpt>
      <trkpt lat="43.78381" lon="3.98025">
        <ele>51</ele>
        <time>2020-11-04T19:00:22Z</time>
      </trkpt>
      <trkpt lat="43.78387" lon="3.98002">
        <ele>51</ele>
        <time>2020-11-04T19:00:26Z</time>
      </trkpt>
      <trkpt lat="43.78392" lon="3.97984">
        <ele>51</ele>
        <time>2020-11-04T19:00:30Z</time>
      </trkpt>
      <trkpt lat="43.78396" lon="3.97972">
        <ele>51</ele>
        <time>2020-11-04T19:00:33Z</time>
      </trkpt>
      <trkpt lat="43.78399" lon="3.97966">
        <ele>51</ele>
        <time>2020-11-04T19:00:35Z</time>
      </trkpt>
      <trkpt lat="43.784" lon="3.97959">
        <ele>51</ele>
        <time>2020-11-04T19:00:37Z</time>
      </trkpt>
      <trkpt lat="43.78403" lon="3.97952">
        <ele>51</ele>
        <time>2020-11-04T19:00:39Z</time>
      </trkpt>
      <trkpt lat="43.78403" lon="3.97947">
        <ele>51</ele>
        <time>2020-11-04T19:00:40Z</time>
      </trkpt>
      <trkpt lat="43.78405" lon="3.97943">
        <ele>51</ele>
        <time>2020-11-04T19:00:41Z</time>
      </trkpt>
      <trkpt lat="43.78406" lon="3.97939">
        <ele>52</ele>
        <time>2020-11-04T19:00:42Z</time>
      </trkpt>
      <trkpt lat="43.78407" lon="3.97935">
        <ele>52</ele>
        <time>2020-11-04T19:00:43Z</time>
      </trkpt>
      <trkpt lat="43.78408" lon="3.97931">
        <ele>52</ele>
        <time>2020-11-04T19:00:44Z</time>
      </trkpt>
      <trkpt lat="43.78409" lon="3.97926">
        <ele>52</ele>
        <time>2020-11-04T19:00:45Z</time>
      </trkpt>
      <trkpt lat="43.78417" lon="3.97904">
        <ele>52</ele>
        <time>2020-11-04T19:00:50Z</time>
      </trkpt>
      <trkpt lat="43.78418" lon="3.97899">
        <ele>52</ele>
        <time>2020-11-04T19:00:51Z</time>
      </trkpt>
      <trkpt lat="43.7842" lon="3.97894">
        <ele>53</ele>
        <time>2020-11-04T19:00:52Z</time>
      </trkpt>
      <trkpt lat="43.78421" lon="3.97889">
        <ele>53</ele>
        <time>2020-11-04T19:00:53Z</time>
      </trkpt>
      <trkpt lat="43.7843" lon="3.97859">
        <ele>54</ele>
        <time>2020-11-04T19:00:59Z</time>
      </trkpt>
      <trkpt lat="43.78431" lon="3.97854">
        <ele>54</ele>
        <time>2020-11-04T19:01:00Z</time>
      </trkpt>
      <trkpt lat="43.78434" lon="3.97843">
        <ele>54</ele>
        <time>2020-11-04T19:01:02Z</time>
      </trkpt>
      <trkpt lat="43.78436" lon="3.97837">
        <ele>54</ele>
        <time>2020-11-04T19:01:03Z</time>
      </trkpt>
      <trkpt lat="43.78441" lon="3.97821">
        <ele>54</ele>
        <time>2020-11-04T19:01:06Z</time>
      </trkpt>
      <trkpt lat="43.78445" lon="3.97809">
        <ele>54</ele>
        <time>2020-11-04T19:01:08Z</time>
      </trkpt>
      <trkpt lat="43.78447" lon="3.97803">
        <ele>54</ele>
        <time>2020-11-04T19:01:09Z</time>
      </trkpt>
      <trkpt lat="43.78462" lon="3.97755">
        <ele>53</ele>
        <time>2020-11-04T19:01:17Z</time>
      </trkpt>
      <trkpt lat="43.78476" lon="3.97725">
        <ele>54</ele>
        <time>2020-11-04T19:01:22Z</time>
      </trkpt>
      <trkpt lat="43.78506" lon="3.97657">
        <ele>54</ele>
        <time>2020-11-04T19:01:34Z</time>
      </trkpt>
      <trkpt lat="43.78514" lon="3.97642">
        <ele>54</ele>
        <time>2020-11-04T19:01:37Z</time>
      </trkpt>
      <trkpt lat="43.78518" lon="3.97632">
        <ele>55</ele>
        <time>2020-11-04T19:01:39Z</time>
      </trkpt>
      <trkpt lat="43.78521" lon="3.97622">
        <ele>55</ele>
        <time>2020-11-04T19:01:41Z</time>
      </trkpt>
      <trkpt lat="43.78528" lon="3.97607">
        <ele>55</ele>
        <time>2020-11-04T19:01:44Z</time>
      </trkpt>
      <trkpt lat="43.78529" lon="3.97602">
        <ele>55</ele>
        <time>2020-11-04T19:01:45Z</time>
      </trkpt>
      <trkpt lat="43.78536" lon="3.97586">
        <ele>55</ele>
        <time>2020-11-04T19:01:48Z</time>
      </trkpt>
      <trkpt lat="43.78538" lon="3.97581">
        <ele>56</ele>
        <time>2020-11-04T19:01:49Z</time>
      </trkpt>
      <trkpt lat="43.7854" lon="3.97575">
        <ele>56</ele>
        <time>2020-11-04T19:01:50Z</time>
      </trkpt>
      <trkpt lat="43.78546" lon="3.97559">
        <ele>56</ele>
        <time>2020-11-04T19:01:53Z</time>
      </trkpt>
      <trkpt lat="43.78548" lon="3.97553">
        <ele>56</ele>
        <time>2020-11-04T19:01:54Z</time>
      </trkpt>
      <trkpt lat="43.7855" lon="3.97548">
        <ele>56</ele>
        <time>2020-11-04T19:01:55Z</time>
      </trkpt>
      <trkpt lat="43.78558" lon="3.97524">
        <ele>56</ele>
        <time>2020-11-04T19:01:59Z</time>
      </trkpt>
      <trkpt lat="43.78559" lon="3.97518">
        <ele>56</ele>
        <time>2020-11-04T19:02:00Z</time>
      </trkpt>
      <trkpt lat="43.7856" lon="3.97511">
        <ele>56</ele>
        <time>2020-11-04T19:02:01Z</time>
      </trkpt>
      <trkpt lat="43.78562" lon="3.97505">
        <ele>56</ele>
        <time>2020-11-04T19:02:02Z</time>
      </trkpt>
      <trkpt lat="43.78563" lon="3.97498">
        <ele>56</ele>
        <time>2020-11-04T19:02:03Z</time>
      </trkpt>
      <trkpt lat="43.78565" lon="3.97485">
        <ele>56</ele>
        <time>2020-11-04T19:02:05Z</time>
      </trkpt>
      <trkpt lat="43.78566" lon="3.97478">
        <ele>56</ele>
        <time>2020-11-04T19:02:06Z</time>
      </trkpt>
      <trkpt lat="43.78567" lon="3.97471">
        <ele>56</ele>
        <time>2020-11-04T19:02:07Z</time>
      </trkpt>
      <trkpt lat="43.78578" lon="3.97394">
        <ele>57</ele>
        <time>2020-11-04T19:02:18Z</time>
      </trkpt>
      <trkpt lat="43.78579" lon="3.97388">
        <ele>57</ele>
        <time>2020-11-04T19:02:19Z</time>
      </trkpt>
      <trkpt lat="43.7858" lon="3.97381">
        <ele>57</ele>
        <time>2020-11-04T19:02:20Z</time>
      </trkpt>
      <trkpt lat="43.78586" lon="3.9731">
        <ele>57</ele>
        <time>2020-11-04T19:02:31Z</time>
      </trkpt>
      <trkpt lat="43.78586" lon="3.97304">
        <ele>57</ele>
        <time>2020-11-04T19:02:32Z</time>
      </trkpt>
      <trkpt lat="43.78585" lon="3.97273">
        <ele>57</ele>
        <time>2020-11-04T19:02:37Z</time>
      </trkpt>
      <trkpt lat="43.78585" lon="3.97267">
        <ele>57</ele>
        <time>2020-11-04T19:02:38Z</time>
      </trkpt>
      <trkpt lat="43.78583" lon="3.97255">
        <ele>58</ele>
        <time>2020-11-04T19:02:40Z</time>
      </trkpt>
      <trkpt lat="43.78582" lon="3.97248">
        <ele>57</ele>
        <time>2020-11-04T19:02:41Z</time>
      </trkpt>
      <trkpt lat="43.78581" lon="3.97242">
        <ele>57</ele>
        <time>2020-11-04T19:02:42Z</time>
      </trkpt>
      <trkpt lat="43.7858" lon="3.97223">
        <ele>58</ele>
        <time>2020-11-04T19:02:45Z</time>
      </trkpt>
      <trkpt lat="43.78573" lon="3.97142">
        <ele>58</ele>
        <time>2020-11-04T19:02:58Z</time>
      </trkpt>
      <trkpt lat="43.78569" lon="3.97112">
        <ele>58</ele>
        <time>2020-11-04T19:03:04Z</time>
      </trkpt>
      <trkpt lat="43.78568" lon="3.97095">
        <ele>58</ele>
        <time>2020-11-04T19:03:08Z</time>
      </trkpt>
      <trkpt lat="43.78568" lon="3.9709">
        <ele>58</ele>
        <time>2020-11-04T19:03:09Z</time>
      </trkpt>
      <trkpt lat="43.78565" lon="3.97064">
        <ele>58</ele>
        <time>2020-11-04T19:03:14Z</time>
      </trkpt>
      <trkpt lat="43.78564" lon="3.97042">
        <ele>58</ele>
        <time>2020-11-04T19:03:18Z</time>
      </trkpt>
      <trkpt lat="43.78564" lon="3.97037">
        <ele>59</ele>
        <time>2020-11-04T19:03:19Z</time>
      </trkpt>
      <trkpt lat="43.78563" lon="3.97031">
        <ele>59</ele>
        <time>2020-11-04T19:03:20Z</time>
      </trkpt>
      <trkpt lat="43.78563" lon="3.96971">
        <ele>59</ele>
        <time>2020-11-04T19:03:31Z</time>
      </trkpt>
      <trkpt lat="43.78563" lon="3.96965">
        <ele>59</ele>
        <time>2020-11-04T19:03:32Z</time>
      </trkpt>
      <trkpt lat="43.78564" lon="3.9696">
        <ele>59</ele>
        <time>2020-11-04T19:03:33Z</time>
      </trkpt>
      <trkpt lat="43.78569" lon="3.96938">
        <ele>59</ele>
        <time>2020-11-04T19:03:37Z</time>
      </trkpt>
      <trkpt lat="43.78596" lon="3.96869">
        <ele>60</ele>
        <time>2020-11-04T19:03:51Z</time>
      </trkpt>
      <trkpt lat="43.786" lon="3.96859">
        <ele>61</ele>
        <time>2020-11-04T19:03:53Z</time>
      </trkpt>
      <trkpt lat="43.78611" lon="3.96835">
        <ele>62</ele>
        <time>2020-11-04T19:03:58Z</time>
      </trkpt>
      <trkpt lat="43.78616" lon="3.96821">
        <ele>62</ele>
        <time>2020-11-04T19:04:01Z</time>
      </trkpt>
      <trkpt lat="43.78618" lon="3.96817">
        <ele>62</ele>
        <time>2020-11-04T19:04:02Z</time>
      </trkpt>
      <trkpt lat="43.78631" lon="3.96783">
        <ele>63</ele>
        <time>2020-11-04T19:04:10Z</time>
      </trkpt>
      <trkpt lat="43.78632" lon="3.9678">
        <ele>63</ele>
        <time>2020-11-04T19:04:11Z</time>
      </trkpt>
      <trkpt lat="43.78635" lon="3.96774">
        <ele>64</ele>
        <time>2020-11-04T19:04:13Z</time>
      </trkpt>
      <trkpt lat="43.78636" lon="3.9677">
        <ele>64</ele>
        <time>2020-11-04T19:04:14Z</time>
      </trkpt>
      <trkpt lat="43.78637" lon="3.96765">
        <ele>64</ele>
        <time>2020-11-04T19:04:15Z</time>
      </trkpt>
      <trkpt lat="43.78639" lon="3.96761">
        <ele>64</ele>
        <time>2020-11-04T19:04:16Z</time>
      </trkpt>
      <trkpt lat="43.7864" lon="3.96757">
        <ele>65</ele>
        <time>2020-11-04T19:04:17Z</time>
      </trkpt>
      <trkpt lat="43.78642" lon="3.96753">
        <ele>65</ele>
        <time>2020-11-04T19:04:18Z</time>
      </trkpt>
      <trkpt lat="43.78643" lon="3.96749">
        <ele>65</ele>
        <time>2020-11-04T19:04:19Z</time>
      </trkpt>
      <trkpt lat="43.78645" lon="3.96745">
        <ele>65</ele>
        <time>2020-11-04T19:04:20Z</time>
      </trkpt>
      <trkpt lat="43.78646" lon="3.96741">
        <ele>65</ele>
        <time>2020-11-04T19:04:21Z</time>
      </trkpt>
      <trkpt lat="43.78648" lon="3.96734">
        <ele>65</ele>
        <time>2020-11-04T19:04:23Z</time>
      </trkpt>
      <trkpt lat="43.7865" lon="3.9673">
        <ele>65</ele>
        <time>2020-11-04T19:04:24Z</time>
      </trkpt>
      <trkpt lat="43.78651" lon="3.96726">
        <ele>65</ele>
        <time>2020-11-04T19:04:25Z</time>
      </trkpt>
      <trkpt lat="43.78652" lon="3.96722">
        <ele>65</ele>
        <time>2020-11-04T19:04:26Z</time>
      </trkpt>
      <trkpt lat="43.78662" lon="3.96695">
        <ele>66</ele>
        <time>2020-11-04T19:04:33Z</time>
      </trkpt>
      <trkpt lat="43.7867" lon="3.96681">
        <ele>67</ele>
        <time>2020-11-04T19:04:37Z</time>
      </trkpt>
      <trkpt lat="43.78672" lon="3.96678">
        <ele>67</ele>
        <time>2020-11-04T19:04:38Z</time>
      </trkpt>
      <trkpt lat="43.78675" lon="3.96675">
        <ele>67</ele>
        <time>2020-11-04T19:04:39Z</time>
      </trkpt>
      <trkpt lat="43.78677" lon="3.96672">
        <ele>67</ele>
        <time>2020-11-04T19:04:40Z</time>
      </trkpt>
      <trkpt lat="43.78685" lon="3.9666">
        <ele>68</ele>
        <time>2020-11-04T19:04:44Z</time>
      </trkpt>
      <trkpt lat="43.78689" lon="3.96654">
        <ele>68</ele>
        <time>2020-11-04T19:04:46Z</time>
      </trkpt>
      <trkpt lat="43.78694" lon="3.96648">
        <ele>68</ele>
        <time>2020-11-04T19:04:48Z</time>
      </trkpt>
      <trkpt lat="43.78699" lon="3.96642">
        <ele>68</ele>
        <time>2020-11-04T19:04:50Z</time>
      </trkpt>
      <trkpt lat="43.78704" lon="3.96636">
        <ele>69</ele>
        <time>2020-11-04T19:04:52Z</time>
      </trkpt>
      <trkpt lat="43.78706" lon="3.96633">
        <ele>69</ele>
        <time>2020-11-04T19:04:53Z</time>
      </trkpt>
      <trkpt lat="43.78709" lon="3.9663">
        <ele>69</ele>
        <time>2020-11-04T19:04:54Z</time>
      </trkpt>
      <trkpt lat="43.78734" lon="3.96595">
        <ele>70</ele>
        <time>2020-11-04T19:05:05Z</time>
      </trkpt>
      <trkpt lat="43.78739" lon="3.96589">
        <ele>70</ele>
        <time>2020-11-04T19:05:07Z</time>
      </trkpt>
      <trkpt lat="43.78742" lon="3.96586">
        <ele>70</ele>
        <time>2020-11-04T19:05:08Z</time>
      </trkpt>
      <trkpt lat="43.78755" lon="3.96567">
        <ele>71</ele>
        <time>2020-11-04T19:05:14Z</time>
      </trkpt>
      <trkpt lat="43.7877" lon="3.96549">
        <ele>71</ele>
        <time>2020-11-04T19:05:21Z</time>
      </trkpt>
      <trkpt lat="43.78773" lon="3.96543">
        <ele>71</ele>
        <time>2020-11-04T19:05:23Z</time>
      </trkpt>
      <trkpt lat="43.78779" lon="3.96534">
        <ele>71</ele>
        <time>2020-11-04T19:05:26Z</time>
      </trkpt>
      <trkpt lat="43.78781" lon="3.96531">
        <ele>71</ele>
        <time>2020-11-04T19:05:27Z</time>
      </trkpt>
      <trkpt lat="43.78785" lon="3.96526">
        <ele>71</ele>
        <time>2020-11-04T19:05:29Z</time>
      </trkpt>
      <trkpt lat="43.7879" lon="3.96518">
        <ele>71</ele>
        <time>2020-11-04T19:05:32Z</time>
      </trkpt>
      <trkpt lat="43.78793" lon="3.96513">
        <ele>71</ele>
        <time>2020-11-04T19:05:34Z</time>
      </trkpt>
      <trkpt lat="43.78794" lon="3.96511">
        <ele>71</ele>
        <time>2020-11-04T19:05:35Z</time>
      </trkpt>
      <trkpt lat="43.78796" lon="3.96508">
        <ele>71</ele>
        <time>2020-11-04T19:05:36Z</time>
      </trkpt>
      <trkpt lat="43.78804" lon="3.96497">
        <ele>72</ele>
        <time>2020-11-04T19:05:40Z</time>
      </trkpt>
      <trkpt lat="43.78807" lon="3.96492">
        <ele>72</ele>
        <time>2020-11-04T19:05:42Z</time>
      </trkpt>
      <trkpt lat="43.78808" lon="3.9649">
        <ele>72</ele>
        <time>2020-11-04T19:05:43Z</time>
      </trkpt>
      <trkpt lat="43.7881" lon="3.96488">
        <ele>72</ele>
        <time>2020-11-04T19:05:44Z</time>
      </trkpt>
      <trkpt lat="43.78814" lon="3.96484">
        <ele>72</ele>
        <time>2020-11-04T19:05:46Z</time>
      </trkpt>
      <trkpt lat="43.7883" lon="3.96465">
        <ele>72</ele>
        <time>2020-11-04T19:05:54Z</time>
      </trkpt>
      <trkpt lat="43.78832" lon="3.96462">
        <ele>72</ele>
        <time>2020-11-04T19:05:55Z</time>
      </trkpt>
      <trkpt lat="43.78839" lon="3.96453">
        <ele>72</ele>
        <time>2020-11-04T19:05:58Z</time>
      </trkpt>
      <trkpt lat="43.78841" lon="3.9645">
        <ele>72</ele>
        <time>2020-11-04T19:05:59Z</time>
      </trkpt>
      <trkpt lat="43.78848" lon="3.96442">
        <ele>72</ele>
        <time>2020-11-04T19:06:02Z</time>
      </trkpt>
      <trkpt lat="43.7885" lon="3.96439">
        <ele>72</ele>
        <time>2020-11-04T19:06:03Z</time>
      </trkpt>
      <trkpt lat="43.78855" lon="3.96433">
        <ele>72</ele>
        <time>2020-11-04T19:06:05Z</time>
      </trkpt>
      <trkpt lat="43.78857" lon="3.96429">
        <ele>72</ele>
        <time>2020-11-04T19:06:06Z</time>
      </trkpt>
      <trkpt lat="43.7886" lon="3.96426">
        <ele>72</ele>
        <time>2020-11-04T19:06:07Z</time>
      </trkpt>
      <trkpt lat="43.78871" lon="3.96412">
        <ele>71</ele>
        <time>2020-11-04T19:06:11Z</time>
      </trkpt>
      <trkpt lat="43.78874" lon="3.96409">
        <ele>71</ele>
        <time>2020-11-04T19:06:12Z</time>
      </trkpt>
      <trkpt lat="43.78877" lon="3.96406">
        <ele>71</ele>
        <time>2020-11-04T19:06:13Z</time>
      </trkpt>
      <trkpt lat="43.7888" lon="3.96402">
        <ele>71</ele>
        <time>2020-11-04T19:06:14Z</time>
      </trkpt>
      <trkpt lat="43.789" lon="3.96368">
        <ele>71</ele>
        <time>2020-11-04T19:06:22Z</time>
      </trkpt>
      <trkpt lat="43.78906" lon="3.96346">
        <ele>70</ele>
        <time>2020-11-04T19:06:26Z</time>
      </trkpt>
      <trkpt lat="43.78907" lon="3.96325">
        <ele>70</ele>
        <time>2020-11-04T19:06:30Z</time>
      </trkpt>
      <trkpt lat="43.78907" lon="3.96314">
        <ele>70</ele>
        <time>2020-11-04T19:06:32Z</time>
      </trkpt>
      <trkpt lat="43.78908" lon="3.96302">
        <ele>70</ele>
        <time>2020-11-04T19:06:35Z</time>
      </trkpt>
      <trkpt lat="43.78908" lon="3.96294">
        <ele>70</ele>
        <time>2020-11-04T19:06:37Z</time>
      </trkpt>
      <trkpt lat="43.78908" lon="3.9629">
        <ele>70</ele>
        <time>2020-11-04T19:06:38Z</time>
      </trkpt>
      <trkpt lat="43.78908" lon="3.96286">
        <ele>70</ele>
        <time>2020-11-04T19:06:39Z</time>
      </trkpt>
      <trkpt lat="43.78908" lon="3.96282">
        <ele>70</ele>
        <time>2020-11-04T19:06:40Z</time>
      </trkpt>
      <trkpt lat="43.78908" lon="3.96268">
        <ele>70</ele>
        <time>2020-11-04T19:06:43Z</time>
      </trkpt>
      <trkpt lat="43.78909" lon="3.96264">
        <ele>70</ele>
        <time>2020-11-04T19:06:44Z</time>
      </trkpt>
      <trkpt lat="43.7891" lon="3.96255">
        <ele>70</ele>
        <time>2020-11-04T19:06:46Z</time>
      </trkpt>
      <trkpt lat="43.7891" lon="3.96251">
        <ele>70</ele>
        <time>2020-11-04T19:06:47Z</time>
      </trkpt>
      <trkpt lat="43.7891" lon="3.96246">
        <ele>70</ele>
        <time>2020-11-04T19:06:48Z</time>
      </trkpt>
      <trkpt lat="43.78909" lon="3.96242">
        <ele>70</ele>
        <time>2020-11-04T19:06:49Z</time>
      </trkpt>
      <trkpt lat="43.78895" lon="3.96235">
        <ele>69</ele>
        <time>2020-11-04T19:06:56Z</time>
      </trkpt>
      <trkpt lat="43.78892" lon="3.96236">
        <ele>69</ele>
        <time>2020-11-04T19:06:57Z</time>
      </trkpt>
      <trkpt lat="43.78886" lon="3.96239">
        <ele>69</ele>
        <time>2020-11-04T19:06:59Z</time>
      </trkpt>
      <trkpt lat="43.78882" lon="3.9624">
        <ele>69</ele>
        <time>2020-11-04T19:07:00Z</time>
      </trkpt>
      <trkpt lat="43.78874" lon="3.96243">
        <ele>68</ele>
        <time>2020-11-04T19:07:02Z</time>
      </trkpt>
      <trkpt lat="43.78866" lon="3.96246">
        <ele>68</ele>
        <time>2020-11-04T19:07:04Z</time>
      </trkpt>
      <trkpt lat="43.78861" lon="3.96247">
        <ele>68</ele>
        <time>2020-11-04T19:07:05Z</time>
      </trkpt>
      <trkpt lat="43.78855" lon="3.96248">
        <ele>68</ele>
        <time>2020-11-04T19:07:06Z</time>
      </trkpt>
      <trkpt lat="43.78833" lon="3.9625">
        <ele>68</ele>
        <time>2020-11-04T19:07:10Z</time>
      </trkpt>
      <trkpt lat="43.78819" lon="3.96249">
        <ele>68</ele>
        <time>2020-11-04T19:07:13Z</time>
      </trkpt>
      <trkpt lat="43.78801" lon="3.96249">
        <ele>68</ele>
        <time>2020-11-04T19:07:17Z</time>
      </trkpt>
      <trkpt lat="43.78783" lon="3.96252">
        <ele>67</ele>
        <time>2020-11-04T19:07:21Z</time>
      </trkpt>
      <trkpt lat="43.7877" lon="3.96262">
        <ele>67</ele>
        <time>2020-11-04T19:07:24Z</time>
      </trkpt>
      <trkpt lat="43.78729" lon="3.96319">
        <ele>67</ele>
        <time>2020-11-04T19:07:36Z</time>
      </trkpt>
      <trkpt lat="43.78703" lon="3.96359">
        <ele>67</ele>
        <time>2020-11-04T19:07:44Z</time>
      </trkpt>
      <trkpt lat="43.78672" lon="3.96405">
        <ele>67</ele>
        <time>2020-11-04T19:07:53Z</time>
      </trkpt>
      <trkpt lat="43.78666" lon="3.96414">
        <ele>67</ele>
        <time>2020-11-04T19:07:55Z</time>
      </trkpt>
      <trkpt lat="43.78662" lon="3.96419">
        <ele>67</ele>
        <time>2020-11-04T19:07:56Z</time>
      </trkpt>
      <trkpt lat="43.78658" lon="3.96424">
        <ele>67</ele>
        <time>2020-11-04T19:07:57Z</time>
      </trkpt>
      <trkpt lat="43.78654" lon="3.96428">
        <ele>67</ele>
        <time>2020-11-04T19:07:58Z</time>
      </trkpt>
      <trkpt lat="43.7865" lon="3.96433">
        <ele>67</ele>
        <time>2020-11-04T19:07:59Z</time>
      </trkpt>
      <trkpt lat="43.78594" lon="3.96473">
        <ele>67</ele>
        <time>2020-11-04T19:08:11Z</time>
      </trkpt>
      <trkpt lat="43.78584" lon="3.96479">
        <ele>67</ele>
        <time>2020-11-04T19:08:13Z</time>
      </trkpt>
      <trkpt lat="43.78579" lon="3.96482">
        <ele>67</ele>
        <time>2020-11-04T19:08:14Z</time>
      </trkpt>
      <trkpt lat="43.78564" lon="3.96492">
        <ele>67</ele>
        <time>2020-11-04T19:08:17Z</time>
      </trkpt>
      <trkpt lat="43.7855" lon="3.96503">
        <ele>67</ele>
        <time>2020-11-04T19:08:20Z</time>
      </trkpt>
      <trkpt lat="43.78545" lon="3.96507">
        <ele>67</ele>
        <time>2020-11-04T19:08:21Z</time>
      </trkpt>
      <trkpt lat="43.7854" lon="3.9651">
        <ele>67</ele>
        <time>2020-11-04T19:08:22Z</time>
      </trkpt>
      <trkpt lat="43.78521" lon="3.96524">
        <ele>67</ele>
        <time>2020-11-04T19:08:26Z</time>
      </trkpt>
      <trkpt lat="43.78503" lon="3.96536">
        <ele>67</ele>
        <time>2020-11-04T19:08:30Z</time>
      </trkpt>
      <trkpt lat="43.78494" lon="3.96542">
        <ele>67</ele>
        <time>2020-11-04T19:08:32Z</time>
      </trkpt>
      <trkpt lat="43.7849" lon="3.96545">
        <ele>67</ele>
        <time>2020-11-04T19:08:33Z</time>
      </trkpt>
      <trkpt lat="43.7848" lon="3.96552">
        <ele>67</ele>
        <time>2020-11-04T19:08:35Z</time>
      </trkpt>
      <trkpt lat="43.78434" lon="3.96581">
        <ele>67</ele>
        <time>2020-11-04T19:08:44Z</time>
      </trkpt>
      <trkpt lat="43.78418" lon="3.96586">
        <ele>67</ele>
        <time>2020-11-04T19:08:47Z</time>
      </trkpt>
      <trkpt lat="43.78412" lon="3.96587">
        <ele>67</ele>
        <time>2020-11-04T19:08:48Z</time>
      </trkpt>
      <trkpt lat="43.78407" lon="3.96588">
        <ele>67</ele>
        <time>2020-11-04T19:08:49Z</time>
      </trkpt>
      <trkpt lat="43.78357" lon="3.96591">
        <ele>67</ele>
        <time>2020-11-04T19:08:58Z</time>
      </trkpt>
      <trkpt lat="43.78281" lon="3.96594">
        <ele>67</ele>
        <time>2020-11-04T19:09:12Z</time>
      </trkpt>
      <trkpt lat="43.78212" lon="3.96597">
        <ele>68</ele>
        <time>2020-11-04T19:09:25Z</time>
      </trkpt>
      <trkpt lat="43.78192" lon="3.96598">
        <ele>67</ele>
        <time>2020-11-04T19:09:29Z</time>
      </trkpt>
      <trkpt lat="43.78186" lon="3.96592">
        <ele>67</ele>
        <time>2020-11-04T19:09:31Z</time>
      </trkpt>
      <trkpt lat="43.78186" lon="3.96589">
        <ele>67</ele>
        <time>2020-11-04T19:09:32Z</time>
      </trkpt>
      <trkpt lat="43.78187" lon="3.96587">
        <ele>67</ele>
        <time>2020-11-04T19:09:33Z</time>
      </trkpt>
      <trkpt lat="43.7819" lon="3.96585">
        <ele>67</ele>
        <time>2020-11-04T19:09:34Z</time>
      </trkpt>
      <trkpt lat="43.78193" lon="3.96583">
        <ele>67</ele>
        <time>2020-11-04T19:09:35Z</time>
      </trkpt>
      <trkpt lat="43.78196" lon="3.96581">
        <ele>67</ele>
        <time>2020-11-04T19:09:36Z</time>
      </trkpt>
      <trkpt lat="43.78199" lon="3.96579">
        <ele>68</ele>
        <time>2020-11-04T19:09:37Z</time>
      </trkpt>
      <trkpt lat="43.78203" lon="3.96576">
        <ele>68</ele>
        <time>2020-11-04T19:09:38Z</time>
      </trkpt>
      <trkpt lat="43.78209" lon="3.96571">
        <ele>68</ele>
        <time>2020-11-04T19:09:40Z</time>
      </trkpt>
      <trkpt lat="43.78225" lon="3.96563">
        <ele>68</ele>
        <time>2020-11-04T19:09:44Z</time>
      </trkpt>
      <trkpt lat="43.78229" lon="3.96562">
        <ele>68</ele>
        <time>2020-11-04T19:09:45Z</time>
      </trkpt>
      <trkpt lat="43.78234" lon="3.9656">
        <ele>68</ele>
        <time>2020-11-04T19:09:46Z</time>
      </trkpt>
      <trkpt lat="43.78238" lon="3.96559">
        <ele>68</ele>
        <time>2020-11-04T19:09:47Z</time>
      </trkpt>
      <trkpt lat="43.78243" lon="3.96558">
        <ele>68</ele>
        <time>2020-11-04T19:09:48Z</time>
      </trkpt>
      <trkpt lat="43.78253" lon="3.96557">
        <ele>68</ele>
        <time>2020-11-04T19:09:50Z</time>
      </trkpt>
      <trkpt lat="43.78258" lon="3.96556">
        <ele>68</ele>
        <time>2020-11-04T19:09:51Z</time>
      </trkpt>
      <trkpt lat="43.78263" lon="3.96556">
        <ele>68</ele>
        <time>2020-11-04T19:09:52Z</time>
      </trkpt>
      <trkpt lat="43.78268" lon="3.96554">
        <ele>68</ele>
        <time>2020-11-04T19:09:53Z</time>
      </trkpt>
      <trkpt lat="43.78274" lon="3.96553">
        <ele>68</ele>
        <time>2020-11-04T19:09:54Z</time>
      </trkpt>
      <trkpt lat="43.78279" lon="3.96552">
        <ele>68</ele>
        <time>2020-11-04T19:09:55Z</time>
      </trkpt>
      <trkpt lat="43.78285" lon="3.96551">
        <ele>68</ele>
        <time>2020-11-04T19:09:56Z</time>
      </trkpt>
      <trkpt lat="43.78297" lon="3.96549">
        <ele>68</ele>
        <time>2020-11-04T19:09:58Z</time>
      </trkpt>
      <trkpt lat="43.78303" lon="3.96548">
        <ele>68</ele>
        <time>2020-11-04T19:09:59Z</time>
      </trkpt>
      <trkpt lat="43.78308" lon="3.96547">
        <ele>68</ele>
        <time>2020-11-04T19:10:00Z</time>
      </trkpt>
      <trkpt lat="43.78344" lon="3.96534">
        <ele>66</ele>
        <time>2020-11-04T19:10:07Z</time>
      </trkpt>
      <trkpt lat="43.78349" lon="3.96523">
        <ele>66</ele>
        <time>2020-11-04T19:10:09Z</time>
      </trkpt>
      <trkpt lat="43.7835" lon="3.96517">
        <ele>66</ele>
        <time>2020-11-04T19:10:10Z</time>
      </trkpt>
      <trkpt lat="43.78352" lon="3.96503">
        <ele>66</ele>
        <time>2020-11-04T19:10:12Z</time>
      </trkpt>
      <trkpt lat="43.78353" lon="3.9648">
        <ele>66</ele>
        <time>2020-11-04T19:10:15Z</time>
      </trkpt>
      <trkpt lat="43.78344" lon="3.96431">
        <ele>65</ele>
        <time>2020-11-04T19:10:22Z</time>
      </trkpt>
      <trkpt lat="43.78343" lon="3.96424">
        <ele>65</ele>
        <time>2020-11-04T19:10:23Z</time>
      </trkpt>
      <trkpt lat="43.78342" lon="3.96417">
        <ele>65</ele>
        <time>2020-11-04T19:10:24Z</time>
      </trkpt>
      <trkpt lat="43.7834" lon="3.96391">
        <ele>66</ele>
        <time>2020-11-04T19:10:28Z</time>
      </trkpt>
      <trkpt lat="43.78341" lon="3.96379">
        <ele>66</ele>
        <time>2020-11-04T19:10:30Z</time>
      </trkpt>
      <trkpt lat="43.78341" lon="3.96367">
        <ele>66</ele>
        <time>2020-11-04T19:10:32Z</time>
      </trkpt>
      <trkpt lat="43.78342" lon="3.9636">
        <ele>66</ele>
        <time>2020-11-04T19:10:33Z</time>
      </trkpt>
      <trkpt lat="43.78342" lon="3.96354">
        <ele>66</ele>
        <time>2020-11-04T19:10:34Z</time>
      </trkpt>
      <trkpt lat="43.78343" lon="3.96347">
        <ele>66</ele>
        <time>2020-11-04T19:10:35Z</time>
      </trkpt>
      <trkpt lat="43.78346" lon="3.9626">
        <ele>66</ele>
        <time>2020-11-04T19:10:49Z</time>
      </trkpt>
      <trkpt lat="43.78345" lon="3.96248">
        <ele>66</ele>
        <time>2020-11-04T19:10:51Z</time>
      </trkpt>
      <trkpt lat="43.78345" lon="3.96242">
        <ele>66</ele>
        <time>2020-11-04T19:10:52Z</time>
      </trkpt>
      <trkpt lat="43.78344" lon="3.96236">
        <ele>66</ele>
        <time>2020-11-04T19:10:53Z</time>
      </trkpt>
      <trkpt lat="43.78344" lon="3.9623">
        <ele>66</ele>
        <time>2020-11-04T19:10:54Z</time>
      </trkpt>
      <trkpt lat="43.78345" lon="3.96188">
        <ele>67</ele>
        <time>2020-11-04T19:11:01Z</time>
      </trkpt>
      <trkpt lat="43.78353" lon="3.9611">
        <ele>67</ele>
        <time>2020-11-04T19:11:15Z</time>
      </trkpt>
      <trkpt lat="43.78365" lon="3.96043">
        <ele>68</ele>
        <time>2020-11-04T19:11:27Z</time>
      </trkpt>
      <trkpt lat="43.78365" lon="3.96037">
        <ele>68</ele>
        <time>2020-11-04T19:11:28Z</time>
      </trkpt>
      <trkpt lat="43.78366" lon="3.9603">
        <ele>68</ele>
        <time>2020-11-04T19:11:29Z</time>
      </trkpt>
      <trkpt lat="43.78367" lon="3.96023">
        <ele>68</ele>
        <time>2020-11-04T19:11:30Z</time>
      </trkpt>
      <trkpt lat="43.78366" lon="3.95988">
        <ele>68</ele>
        <time>2020-11-04T19:11:35Z</time>
      </trkpt>
      <trkpt lat="43.78366" lon="3.95982">
        <ele>68</ele>
        <time>2020-11-04T19:11:36Z</time>
      </trkpt>
      <trkpt lat="43.78366" lon="3.95976">
        <ele>68</ele>
        <time>2020-11-04T19:11:37Z</time>
      </trkpt>
      <trkpt lat="43.78368" lon="3.95954">
        <ele>68</ele>
        <time>2020-11-04T19:11:41Z</time>
      </trkpt>
      <trkpt lat="43.78369" lon="3.95948">
        <ele>68</ele>
        <time>2020-11-04T19:11:42Z</time>
      </trkpt>
      <trkpt lat="43.78372" lon="3.95921">
        <ele>69</ele>
        <time>2020-11-04T19:11:46Z</time>
      </trkpt>
      <trkpt lat="43.78374" lon="3.9591">
        <ele>69</ele>
        <time>2020-11-04T19:11:48Z</time>
      </trkpt>
      <trkpt lat="43.78375" lon="3.95906">
        <ele>69</ele>
        <time>2020-11-04T19:11:49Z</time>
      </trkpt>
      <trkpt lat="43.78379" lon="3.95892">
        <ele>70</ele>
        <time>2020-11-04T19:11:53Z</time>
      </trkpt>
      <trkpt lat="43.78382" lon="3.95873">
        <ele>71</ele>
        <time>2020-11-04T19:11:58Z</time>
      </trkpt>
      <trkpt lat="43.78382" lon="3.95869">
        <ele>71</ele>
        <time>2020-11-04T19:11:59Z</time>
      </trkpt>
      <trkpt lat="43.78383" lon="3.95866">
        <ele>71</ele>
        <time>2020-11-04T19:12:00Z</time>
      </trkpt>
      <trkpt lat="43.78383" lon="3.95862">
        <ele>71</ele>
        <time>2020-11-04T19:12:01Z</time>
      </trkpt>
      <trkpt lat="43.78383" lon="3.95858">
        <ele>71</ele>
        <time>2020-11-04T19:12:02Z</time>
      </trkpt>
      <trkpt lat="43.78383" lon="3.95846">
        <ele>71</ele>
        <time>2020-11-04T19:12:05Z</time>
      </trkpt>
      <trkpt lat="43.78383" lon="3.95843">
        <ele>72</ele>
        <time>2020-11-04T19:12:06Z</time>
      </trkpt>
      <trkpt lat="43.78379" lon="3.95824">
        <ele>73</ele>
        <time>2020-11-04T19:12:13Z</time>
      </trkpt>
      <trkpt lat="43.78378" lon="3.95821">
        <ele>73</ele>
        <time>2020-11-04T19:12:14Z</time>
      </trkpt>
      <trkpt lat="43.78377" lon="3.95816">
        <ele>73</ele>
        <time>2020-11-04T19:12:16Z</time>
      </trkpt>
      <trkpt lat="43.78373" lon="3.95801">
        <ele>74</ele>
        <time>2020-11-04T19:12:21Z</time>
      </trkpt>
      <trkpt lat="43.78373" lon="3.95797">
        <ele>74</ele>
        <time>2020-11-04T19:12:22Z</time>
      </trkpt>
      <trkpt lat="43.78374" lon="3.95788">
        <ele>74</ele>
        <time>2020-11-04T19:12:24Z</time>
      </trkpt>
      <trkpt lat="43.78375" lon="3.95784">
        <ele>74</ele>
        <time>2020-11-04T19:12:25Z</time>
      </trkpt>
      <trkpt lat="43.78376" lon="3.9578">
        <ele>74</ele>
        <time>2020-11-04T19:12:26Z</time>
      </trkpt>
      <trkpt lat="43.78377" lon="3.95769">
        <ele>74</ele>
        <time>2020-11-04T19:12:29Z</time>
      </trkpt>
      <trkpt lat="43.78378" lon="3.95766">
        <ele>74</ele>
        <time>2020-11-04T19:12:30Z</time>
      </trkpt>
      <trkpt lat="43.78378" lon="3.95763">
        <ele>74</ele>
        <time>2020-11-04T19:12:31Z</time>
      </trkpt>
      <trkpt lat="43.78379" lon="3.9575">
        <ele>74</ele>
        <time>2020-11-04T19:12:35Z</time>
      </trkpt>
      <trkpt lat="43.78381" lon="3.95742">
        <ele>74</ele>
        <time>2020-11-04T19:12:37Z</time>
      </trkpt>
      <trkpt lat="43.78382" lon="3.95737">
        <ele>74</ele>
        <time>2020-11-04T19:12:38Z</time>
      </trkpt>
      <trkpt lat="43.78385" lon="3.95723">
        <ele>74</ele>
        <time>2020-11-04T19:12:42Z</time>
      </trkpt>
      <trkpt lat="43.78389" lon="3.95704">
        <ele>74</ele>
        <time>2020-11-04T19:12:47Z</time>
      </trkpt>
      <trkpt lat="43.78389" lon="3.95701">
        <ele>74</ele>
        <time>2020-11-04T19:12:48Z</time>
      </trkpt>
      <trkpt lat="43.7839" lon="3.95697">
        <ele>74</ele>
        <time>2020-11-04T19:12:49Z</time>
      </trkpt>
      <trkpt lat="43.7839" lon="3.95692">
        <ele>74</ele>
        <time>2020-11-04T19:12:50Z</time>
      </trkpt>
      <trkpt lat="43.7839" lon="3.95688">
        <ele>74</ele>
        <time>2020-11-04T19:12:51Z</time>
      </trkpt>
      <trkpt lat="43.78392" lon="3.95676">
        <ele>74</ele>
        <time>2020-11-04T19:12:54Z</time>
      </trkpt>
      <trkpt lat="43.78392" lon="3.95672">
        <ele>74</ele>
        <time>2020-11-04T19:12:55Z</time>
      </trkpt>
      <trkpt lat="43.78391" lon="3.95663">
        <ele>74</ele>
        <time>2020-11-04T19:12:57Z</time>
      </trkpt>
      <trkpt lat="43.7839" lon="3.95658">
        <ele>74</ele>
        <time>2020-11-04T19:12:58Z</time>
      </trkpt>
      <trkpt lat="43.7839" lon="3.95652">
        <ele>74</ele>
        <time>2020-11-04T19:12:59Z</time>
      </trkpt>
      <trkpt lat="43.78385" lon="3.95613">
        <ele>74</ele>
        <time>2020-11-04T19:13:07Z</time>
      </trkpt>
      <trkpt lat="43.78377" lon="3.9558">
        <ele>73</ele>
        <time>2020-11-04T19:13:16Z</time>
      </trkpt>
      <trkpt lat="43.78376" lon="3.95571">
        <ele>73</ele>
        <time>2020-11-04T19:13:19Z</time>
      </trkpt>
      <trkpt lat="43.78376" lon="3.95567">
        <ele>72</ele>
        <time>2020-11-04T19:13:20Z</time>
      </trkpt>
      <trkpt lat="43.78376" lon="3.95563">
        <ele>72</ele>
        <time>2020-11-04T19:13:21Z</time>
      </trkpt>
      <trkpt lat="43.78374" lon="3.95553">
        <ele>72</ele>
        <time>2020-11-04T19:13:23Z</time>
      </trkpt>
      <trkpt lat="43.78373" lon="3.95548">
        <ele>72</ele>
        <time>2020-11-04T19:13:24Z</time>
      </trkpt>
      <trkpt lat="43.78372" lon="3.95543">
        <ele>72</ele>
        <time>2020-11-04T19:13:25Z</time>
      </trkpt>
      <trkpt lat="43.78369" lon="3.95527">
        <ele>72</ele>
        <time>2020-11-04T19:13:28Z</time>
      </trkpt>
      <trkpt lat="43.78364" lon="3.955">
        <ele>72</ele>
        <time>2020-11-04T19:13:33Z</time>
      </trkpt>
      <trkpt lat="43.7836" lon="3.95483">
        <ele>72</ele>
        <time>2020-11-04T19:13:36Z</time>
      </trkpt>
      <trkpt lat="43.78357" lon="3.95466">
        <ele>72</ele>
        <time>2020-11-04T19:13:39Z</time>
      </trkpt>
      <trkpt lat="43.78355" lon="3.95457">
        <ele>72</ele>
        <time>2020-11-04T19:13:41Z</time>
      </trkpt>
      <trkpt lat="43.78354" lon="3.95454">
        <ele>72</ele>
        <time>2020-11-04T19:13:42Z</time>
      </trkpt>
      <trkpt lat="43.78352" lon="3.95452">
        <ele>72</ele>
        <time>2020-11-04T19:13:44Z</time>
      </trkpt>
      <trkpt lat="43.78352" lon="3.95454">
        <ele>72</ele>
        <time>2020-11-04T19:13:46Z</time>
      </trkpt>
      <trkpt lat="43.78351" lon="3.95455">
        <ele>72</ele>
        <time>2020-11-04T19:13:47Z</time>
      </trkpt>
      <trkpt lat="43.78351" lon="3.95456">
        <ele>73</ele>
        <time>2020-11-04T19:17:01Z</time>
      </trkpt>
      <trkpt lat="43.78351" lon="3.95457">
        <ele>73</ele>
        <time>2020-11-04T19:17:02Z</time>
      </trkpt>
      <trkpt lat="43.78351" lon="3.95459">
        <ele>73</ele>
        <time>2020-11-04T19:17:03Z</time>
      </trkpt>
      <trkpt lat="43.7835" lon="3.9546">
        <ele>73</ele>
        <time>2020-11-04T19:17:04Z</time>
      </trkpt>
      <trkpt lat="43.7835" lon="3.95463">
        <ele>73</ele>
        <time>2020-11-04T19:17:05Z</time>
      </trkpt>
      <trkpt lat="43.78349" lon="3.9547">
        <ele>73</ele>
        <time>2020-11-04T19:17:09Z</time>
      </trkpt>
      <trkpt lat="43.78349" lon="3.95473">
        <ele>73</ele>
        <time>2020-11-04T19:17:10Z</time>
      </trkpt>
      <trkpt lat="43.78349" lon="3.95477">
        <ele>73</ele>
        <time>2020-11-04T19:17:11Z</time>
      </trkpt>
      <trkpt lat="43.78349" lon="3.95482">
        <ele>73</ele>
        <time>2020-11-04T19:17:12Z</time>
      </trkpt>
      <trkpt lat="43.78349" lon="3.95486">
        <ele>73</ele>
        <time>2020-11-04T19:17:13Z</time>
      </trkpt>
      <trkpt lat="43.78349" lon="3.95491">
        <ele>73</ele>
        <time>2020-11-04T19:17:14Z</time>
      </trkpt>
      <trkpt lat="43.78349" lon="3.955">
        <ele>74</ele>
        <time>2020-11-04T19:17:16Z</time>
      </trkpt>
      <trkpt lat="43.78349" lon="3.95505">
        <ele>74</ele>
        <time>2020-11-04T19:17:17Z</time>
      </trkpt>
      <trkpt lat="43.7835" lon="3.95511">
        <ele>74</ele>
        <time>2020-11-04T19:17:18Z</time>
      </trkpt>
      <trkpt lat="43.7835" lon="3.95516">
        <ele>74</ele>
        <time>2020-11-04T19:17:19Z</time>
      </trkpt>
      <trkpt lat="43.78351" lon="3.95522">
        <ele>75</ele>
        <time>2020-11-04T19:17:20Z</time>
      </trkpt>
      <trkpt lat="43.78348" lon="3.95548">
        <ele>76</ele>
        <time>2020-11-04T19:17:25Z</time>
      </trkpt>
      <trkpt lat="43.78333" lon="3.95569">
        <ele>77</ele>
        <time>2020-11-04T19:17:30Z</time>
      </trkpt>
      <trkpt lat="43.7833" lon="3.95572">
        <ele>77</ele>
        <time>2020-11-04T19:17:31Z</time>
      </trkpt>
      <trkpt lat="43.78326" lon="3.95575">
        <ele>78</ele>
        <time>2020-11-04T19:17:32Z</time>
      </trkpt>
      <trkpt lat="43.78322" lon="3.95579">
        <ele>78</ele>
        <time>2020-11-04T19:17:33Z</time>
      </trkpt>
      <trkpt lat="43.783" lon="3.95602">
        <ele>79</ele>
        <time>2020-11-04T19:17:39Z</time>
      </trkpt>
      <trkpt lat="43.78294" lon="3.9561">
        <ele>80</ele>
        <time>2020-11-04T19:17:41Z</time>
      </trkpt>
      <trkpt lat="43.78283" lon="3.95626">
        <ele>81</ele>
        <time>2020-11-04T19:17:45Z</time>
      </trkpt>
      <trkpt lat="43.78278" lon="3.95632">
        <ele>82</ele>
        <time>2020-11-04T19:17:47Z</time>
      </trkpt>
      <trkpt lat="43.78276" lon="3.95634">
        <ele>82</ele>
        <time>2020-11-04T19:17:48Z</time>
      </trkpt>
      <trkpt lat="43.78275" lon="3.95636">
        <ele>82</ele>
        <time>2020-11-04T19:17:49Z</time>
      </trkpt>
      <trkpt lat="43.78273" lon="3.95638">
        <ele>83</ele>
        <time>2020-11-04T19:17:51Z</time>
      </trkpt>
      <trkpt lat="43.78265" lon="3.95651">
        <ele>84</ele>
        <time>2020-11-04T19:18:01Z</time>
      </trkpt>
      <trkpt lat="43.78265" lon="3.95651">
        <ele>84</ele>
        <time>2020-11-04T19:18:02Z</time>
      </trkpt>
      <trkpt lat="43.78263" lon="3.95652">
        <ele>84</ele>
        <time>2020-11-04T19:18:03Z</time>
      </trkpt>
      <trkpt lat="43.78258" lon="3.95657">
        <ele>85</ele>
        <time>2020-11-04T19:18:06Z</time>
      </trkpt>
      <trkpt lat="43.78247" lon="3.95665">
        <ele>85</ele>
        <time>2020-11-04T19:18:12Z</time>
      </trkpt>
      <trkpt lat="43.78243" lon="3.95666">
        <ele>86</ele>
        <time>2020-11-04T19:18:14Z</time>
      </trkpt>
      <trkpt lat="43.78233" lon="3.95674">
        <ele>87</ele>
        <time>2020-11-04T19:18:20Z</time>
      </trkpt>
      <trkpt lat="43.78229" lon="3.95677">
        <ele>87</ele>
        <time>2020-11-04T19:18:23Z</time>
      </trkpt>
      <trkpt lat="43.78227" lon="3.95678">
        <ele>87</ele>
        <time>2020-11-04T19:18:24Z</time>
      </trkpt>
      <trkpt lat="43.78222" lon="3.95685">
        <ele>87</ele>
        <time>2020-11-04T19:18:29Z</time>
      </trkpt>
      <trkpt lat="43.78219" lon="3.95688">
        <ele>88</ele>
        <time>2020-11-04T19:18:31Z</time>
      </trkpt>
      <trkpt lat="43.78217" lon="3.95689">
        <ele>88</ele>
        <time>2020-11-04T19:18:32Z</time>
      </trkpt>
      <trkpt lat="43.78212" lon="3.95695">
        <ele>88</ele>
        <time>2020-11-04T19:18:36Z</time>
      </trkpt>
      <trkpt lat="43.78206" lon="3.95699">
        <ele>89</ele>
        <time>2020-11-04T19:18:39Z</time>
      </trkpt>
      <trkpt lat="43.78196" lon="3.95705">
        <ele>89</ele>
        <time>2020-11-04T19:18:44Z</time>
      </trkpt>
      <trkpt lat="43.78172" lon="3.95729">
        <ele>92</ele>
        <time>2020-11-04T19:18:58Z</time>
      </trkpt>
      <trkpt lat="43.78165" lon="3.95734">
        <ele>92</ele>
        <time>2020-11-04T19:19:02Z</time>
      </trkpt>
      <trkpt lat="43.78164" lon="3.95735">
        <ele>92</ele>
        <time>2020-11-04T19:19:03Z</time>
      </trkpt>
      <trkpt lat="43.78162" lon="3.95736">
        <ele>93</ele>
        <time>2020-11-04T19:19:04Z</time>
      </trkpt>
      <trkpt lat="43.7816" lon="3.95737">
        <ele>93</ele>
        <time>2020-11-04T19:19:05Z</time>
      </trkpt>
      <trkpt lat="43.78159" lon="3.95739">
        <ele>93</ele>
        <time>2020-11-04T19:19:06Z</time>
      </trkpt>
      <trkpt lat="43.78156" lon="3.95741">
        <ele>93</ele>
        <time>2020-11-04T19:19:08Z</time>
      </trkpt>
      <trkpt lat="43.78154" lon="3.95743">
        <ele>93</ele>
        <time>2020-11-04T19:19:09Z</time>
      </trkpt>
      <trkpt lat="43.78148" lon="3.95746">
        <ele>94</ele>
        <time>2020-11-04T19:19:13Z</time>
      </trkpt>
      <trkpt lat="43.78144" lon="3.95749">
        <ele>94</ele>
        <time>2020-11-04T19:19:15Z</time>
      </trkpt>
      <trkpt lat="43.78143" lon="3.9575">
        <ele>94</ele>
        <time>2020-11-04T19:19:16Z</time>
      </trkpt>
      <trkpt lat="43.78141" lon="3.95752">
        <ele>94</ele>
        <time>2020-11-04T19:19:18Z</time>
      </trkpt>
      <trkpt lat="43.7813" lon="3.95761">
        <ele>96</ele>
        <time>2020-11-04T19:19:27Z</time>
      </trkpt>
      <trkpt lat="43.78129" lon="3.95761">
        <ele>96</ele>
        <time>2020-11-04T19:19:28Z</time>
      </trkpt>
      <trkpt lat="43.78128" lon="3.95762">
        <ele>96</ele>
        <time>2020-11-04T19:19:29Z</time>
      </trkpt>
      <trkpt lat="43.7812" lon="3.95766">
        <ele>97</ele>
        <time>2020-11-04T19:19:35Z</time>
      </trkpt>
      <trkpt lat="43.78119" lon="3.95767">
        <ele>97</ele>
        <time>2020-11-04T19:19:36Z</time>
      </trkpt>
      <trkpt lat="43.78118" lon="3.95768">
        <ele>98</ele>
        <time>2020-11-04T19:19:50Z</time>
      </trkpt>
      <trkpt lat="43.78116" lon="3.95769">
        <ele>98</ele>
        <time>2020-11-04T19:19:51Z</time>
      </trkpt>
      <trkpt lat="43.78115" lon="3.9577">
        <ele>98</ele>
        <time>2020-11-04T19:19:52Z</time>
      </trkpt>
      <trkpt lat="43.78114" lon="3.95771">
        <ele>99</ele>
        <time>2020-11-04T19:19:53Z</time>
      </trkpt>
      <trkpt lat="43.78112" lon="3.95772">
        <ele>99</ele>
        <time>2020-11-04T19:19:54Z</time>
      </trkpt>
      <trkpt lat="43.78111" lon="3.95773">
        <ele>99</ele>
        <time>2020-11-04T19:19:55Z</time>
      </trkpt>
      <trkpt lat="43.78108" lon="3.95774">
        <ele>99</ele>
        <time>2020-11-04T19:19:56Z</time>
      </trkpt>
      <trkpt lat="43.78106" lon="3.95775">
        <ele>99</ele>
        <time>2020-11-04T19:19:57Z</time>
      </trkpt>
      <trkpt lat="43.78099" lon="3.9578">
        <ele>99</ele>
        <time>2020-11-04T19:20:01Z</time>
      </trkpt>
      <trkpt lat="43.78097" lon="3.95781">
        <ele>100</ele>
        <time>2020-11-04T19:20:02Z</time>
      </trkpt>
      <trkpt lat="43.78091" lon="3.95784">
        <ele>101</ele>
        <time>2020-11-04T19:20:05Z</time>
      </trkpt>
      <trkpt lat="43.78089" lon="3.95784">
        <ele>101</ele>
        <time>2020-11-04T19:20:06Z</time>
      </trkpt>
      <trkpt lat="43.78088" lon="3.95786">
        <ele>101</ele>
        <time>2020-11-04T19:20:07Z</time>
      </trkpt>
      <trkpt lat="43.78086" lon="3.95787">
        <ele>101</ele>
        <time>2020-11-04T19:20:08Z</time>
      </trkpt>
      <trkpt lat="43.78076" lon="3.95795">
        <ele>102</ele>
        <time>2020-11-04T19:20:13Z</time>
      </trkpt>
      <trkpt lat="43.78072" lon="3.95798">
        <ele>103</ele>
        <time>2020-11-04T19:20:15Z</time>
      </trkpt>
      <trkpt lat="43.7807" lon="3.958">
        <ele>103</ele>
        <time>2020-11-04T19:20:16Z</time>
      </trkpt>
      <trkpt lat="43.78059" lon="3.95809">
        <ele>104</ele>
        <time>2020-11-04T19:20:21Z</time>
      </trkpt>
      <trkpt lat="43.78056" lon="3.95812">
        <ele>104</ele>
        <time>2020-11-04T19:20:22Z</time>
      </trkpt>
      <trkpt lat="43.78054" lon="3.95814">
        <ele>104</ele>
        <time>2020-11-04T19:20:23Z</time>
      </trkpt>
      <trkpt lat="43.78051" lon="3.95817">
        <ele>104</ele>
        <time>2020-11-04T19:20:24Z</time>
      </trkpt>
      <trkpt lat="43.78039" lon="3.95826">
        <ele>105</ele>
        <time>2020-11-04T19:20:28Z</time>
      </trkpt>
      <trkpt lat="43.78033" lon="3.9583">
        <ele>105</ele>
        <time>2020-11-04T19:20:30Z</time>
      </trkpt>
      <trkpt lat="43.78023" lon="3.95836">
        <ele>105</ele>
        <time>2020-11-04T19:20:33Z</time>
      </trkpt>
      <trkpt lat="43.78018" lon="3.95841">
        <ele>106</ele>
        <time>2020-11-04T19:20:35Z</time>
      </trkpt>
      <trkpt lat="43.78013" lon="3.95845">
        <ele>106</ele>
        <time>2020-11-04T19:20:37Z</time>
      </trkpt>
      <trkpt lat="43.7801" lon="3.95848">
        <ele>106</ele>
        <time>2020-11-04T19:20:38Z</time>
      </trkpt>
      <trkpt lat="43.77997" lon="3.95857">
        <ele>107</ele>
        <time>2020-11-04T19:20:43Z</time>
      </trkpt>
      <trkpt lat="43.77994" lon="3.95861">
        <ele>107</ele>
        <time>2020-11-04T19:20:45Z</time>
      </trkpt>
      <trkpt lat="43.77989" lon="3.95866">
        <ele>108</ele>
        <time>2020-11-04T19:20:48Z</time>
      </trkpt>
      <trkpt lat="43.77987" lon="3.95867">
        <ele>108</ele>
        <time>2020-11-04T19:20:49Z</time>
      </trkpt>
      <trkpt lat="43.77983" lon="3.9587">
        <ele>108</ele>
        <time>2020-11-04T19:20:51Z</time>
      </trkpt>
      <trkpt lat="43.77982" lon="3.95872">
        <ele>109</ele>
        <time>2020-11-04T19:20:52Z</time>
      </trkpt>
      <trkpt lat="43.77981" lon="3.95873">
        <ele>109</ele>
        <time>2020-11-04T19:20:53Z</time>
      </trkpt>
      <trkpt lat="43.7798" lon="3.95875">
        <ele>109</ele>
        <time>2020-11-04T19:20:54Z</time>
      </trkpt>
      <trkpt lat="43.77976" lon="3.95878">
        <ele>109</ele>
        <time>2020-11-04T19:20:56Z</time>
      </trkpt>
      <trkpt lat="43.77967" lon="3.95881">
        <ele>110</ele>
        <time>2020-11-04T19:21:01Z</time>
      </trkpt>
      <trkpt lat="43.77958" lon="3.95884">
        <ele>111</ele>
        <time>2020-11-04T19:21:07Z</time>
      </trkpt>
      <trkpt lat="43.77957" lon="3.95885">
        <ele>111</ele>
        <time>2020-11-04T19:21:08Z</time>
      </trkpt>
      <trkpt lat="43.77956" lon="3.95885">
        <ele>111</ele>
        <time>2020-11-04T19:21:09Z</time>
      </trkpt>
      <trkpt lat="43.77954" lon="3.95886">
        <ele>112</ele>
        <time>2020-11-04T19:21:10Z</time>
      </trkpt>
      <trkpt lat="43.77954" lon="3.95886">
        <ele>112</ele>
        <time>2020-11-04T19:21:11Z</time>
      </trkpt>
      <trkpt lat="43.77949" lon="3.95888">
        <ele>113</ele>
        <time>2020-11-04T19:21:39Z</time>
      </trkpt>
      <trkpt lat="43.77949" lon="3.95888">
        <ele>113</ele>
        <time>2020-11-04T19:21:40Z</time>
      </trkpt>
      <trkpt lat="43.77947" lon="3.95889">
        <ele>114</ele>
        <time>2020-11-04T19:21:41Z</time>
      </trkpt>
      <trkpt lat="43.77944" lon="3.9589">
        <ele>114</ele>
        <time>2020-11-04T19:21:43Z</time>
      </trkpt>
      <trkpt lat="43.77938" lon="3.95892">
        <ele>114</ele>
        <time>2020-11-04T19:21:47Z</time>
      </trkpt>
      <trkpt lat="43.77914" lon="3.95894">
        <ele>116</ele>
        <time>2020-11-04T19:22:01Z</time>
      </trkpt>
      <trkpt lat="43.77912" lon="3.95894">
        <ele>116</ele>
        <time>2020-11-04T19:22:02Z</time>
      </trkpt>
      <trkpt lat="43.77908" lon="3.95894">
        <ele>116</ele>
        <time>2020-11-04T19:22:04Z</time>
      </trkpt>
      <trkpt lat="43.77906" lon="3.95894">
        <ele>117</ele>
        <time>2020-11-04T19:22:05Z</time>
      </trkpt>
      <trkpt lat="43.77887" lon="3.95893">
        <ele>117</ele>
        <time>2020-11-04T19:22:15Z</time>
      </trkpt>
      <trkpt lat="43.77884" lon="3.95893">
        <ele>117</ele>
        <time>2020-11-04T19:22:16Z</time>
      </trkpt>
      <trkpt lat="43.77882" lon="3.95892">
        <ele>118</ele>
        <time>2020-11-04T19:22:17Z</time>
      </trkpt>
      <trkpt lat="43.77877" lon="3.95892">
        <ele>118</ele>
        <time>2020-11-04T19:22:19Z</time>
      </trkpt>
      <trkpt lat="43.77875" lon="3.95892">
        <ele>118</ele>
        <time>2020-11-04T19:22:20Z</time>
      </trkpt>
      <trkpt lat="43.77873" lon="3.95892">
        <ele>118</ele>
        <time>2020-11-04T19:22:21Z</time>
      </trkpt>
      <trkpt lat="43.77865" lon="3.95892">
        <ele>118</ele>
        <time>2020-11-04T19:22:25Z</time>
      </trkpt>
      <trkpt lat="43.77864" lon="3.95892">
        <ele>118</ele>
        <time>2020-11-04T19:22:26Z</time>
      </trkpt>
      <trkpt lat="43.77858" lon="3.95893">
        <ele>119</ele>
        <time>2020-11-04T19:22:30Z</time>
      </trkpt>
      <trkpt lat="43.77849" lon="3.95889">
        <ele>120</ele>
        <time>2020-11-04T19:22:36Z</time>
      </trkpt>
      <trkpt lat="43.77836" lon="3.95889">
        <ele>121</ele>
        <time>2020-11-04T19:22:43Z</time>
      </trkpt>
      <trkpt lat="43.77834" lon="3.95889">
        <ele>121</ele>
        <time>2020-11-04T19:22:44Z</time>
      </trkpt>
      <trkpt lat="43.77817" lon="3.95885">
        <ele>122</ele>
        <time>2020-11-04T19:22:54Z</time>
      </trkpt>
      <trkpt lat="43.77804" lon="3.95879">
        <ele>123</ele>
        <time>2020-11-04T19:23:01Z</time>
      </trkpt>
      <trkpt lat="43.77787" lon="3.95873">
        <ele>123</ele>
        <time>2020-11-04T19:23:09Z</time>
      </trkpt>
      <trkpt lat="43.77783" lon="3.95871">
        <ele>123</ele>
        <time>2020-11-04T19:23:11Z</time>
      </trkpt>
      <trkpt lat="43.77781" lon="3.9587">
        <ele>123</ele>
        <time>2020-11-04T19:23:12Z</time>
      </trkpt>
      <trkpt lat="43.77779" lon="3.95869">
        <ele>123</ele>
        <time>2020-11-04T19:23:13Z</time>
      </trkpt>
      <trkpt lat="43.77765" lon="3.95864">
        <ele>124</ele>
        <time>2020-11-04T19:23:21Z</time>
      </trkpt>
      <trkpt lat="43.77745" lon="3.95859">
        <ele>125</ele>
        <time>2020-11-04T19:23:31Z</time>
      </trkpt>
      <trkpt lat="43.77743" lon="3.95859">
        <ele>125</ele>
        <time>2020-11-04T19:23:32Z</time>
      </trkpt>
      <trkpt lat="43.77742" lon="3.95859">
        <ele>125</ele>
        <time>2020-11-04T19:23:33Z</time>
      </trkpt>
      <trkpt lat="43.77738" lon="3.95857">
        <ele>125</ele>
        <time>2020-11-04T19:23:35Z</time>
      </trkpt>
      <trkpt lat="43.77737" lon="3.95856">
        <ele>126</ele>
        <time>2020-11-04T19:23:36Z</time>
      </trkpt>
      <trkpt lat="43.77735" lon="3.95855">
        <ele>126</ele>
        <time>2020-11-04T19:23:37Z</time>
      </trkpt>
      <trkpt lat="43.77733" lon="3.95855">
        <ele>126</ele>
        <time>2020-11-04T19:23:38Z</time>
      </trkpt>
      <trkpt lat="43.77731" lon="3.95854">
        <ele>126</ele>
        <time>2020-11-04T19:23:39Z</time>
      </trkpt>
      <trkpt lat="43.77728" lon="3.95854">
        <ele>126</ele>
        <time>2020-11-04T19:23:40Z</time>
      </trkpt>
      <trkpt lat="43.77716" lon="3.95849">
        <ele>127</ele>
        <time>2020-11-04T19:23:45Z</time>
      </trkpt>
      <trkpt lat="43.77686" lon="3.95833">
        <ele>129</ele>
        <time>2020-11-04T19:23:58Z</time>
      </trkpt>
      <trkpt lat="43.77681" lon="3.95829">
        <ele>129</ele>
        <time>2020-11-04T19:24:02Z</time>
      </trkpt>
      <trkpt lat="43.7768" lon="3.95829">
        <ele>129</ele>
        <time>2020-11-04T19:24:03Z</time>
      </trkpt>
      <trkpt lat="43.77673" lon="3.95824">
        <ele>130</ele>
        <time>2020-11-04T19:25:01Z</time>
      </trkpt>
      <trkpt lat="43.77673" lon="3.95824">
        <ele>130</ele>
        <time>2020-11-04T19:25:02Z</time>
      </trkpt>
      <trkpt lat="43.77671" lon="3.95823">
        <ele>130</ele>
        <time>2020-11-04T19:25:03Z</time>
      </trkpt>
      <trkpt lat="43.7766" lon="3.95816">
        <ele>130</ele>
        <time>2020-11-04T19:25:09Z</time>
      </trkpt>
      <trkpt lat="43.77658" lon="3.95815">
        <ele>130</ele>
        <time>2020-11-04T19:25:10Z</time>
      </trkpt>
      <trkpt lat="43.77655" lon="3.95813">
        <ele>130</ele>
        <time>2020-11-04T19:25:11Z</time>
      </trkpt>
      <trkpt lat="43.77653" lon="3.95812">
        <ele>130</ele>
        <time>2020-11-04T19:25:12Z</time>
      </trkpt>
      <trkpt lat="43.7763" lon="3.95796">
        <ele>130</ele>
        <time>2020-11-04T19:25:23Z</time>
      </trkpt>
      <trkpt lat="43.776" lon="3.95775">
        <ele>132</ele>
        <time>2020-11-04T19:25:37Z</time>
      </trkpt>
      <trkpt lat="43.7757" lon="3.95751">
        <ele>135</ele>
        <time>2020-11-04T19:25:52Z</time>
      </trkpt>
      <trkpt lat="43.77564" lon="3.95744">
        <ele>135</ele>
        <time>2020-11-04T19:25:55Z</time>
      </trkpt>
      <trkpt lat="43.77562" lon="3.95742">
        <ele>135</ele>
        <time>2020-11-04T19:25:56Z</time>
      </trkpt>
      <trkpt lat="43.7756" lon="3.95739">
        <ele>136</ele>
        <time>2020-11-04T19:25:57Z</time>
      </trkpt>
      <trkpt lat="43.77555" lon="3.95731">
        <ele>136</ele>
        <time>2020-11-04T19:26:00Z</time>
      </trkpt>
      <trkpt lat="43.77546" lon="3.95722">
        <ele>137</ele>
        <time>2020-11-04T19:26:05Z</time>
      </trkpt>
      <trkpt lat="43.77544" lon="3.9572">
        <ele>137</ele>
        <time>2020-11-04T19:26:06Z</time>
      </trkpt>
      <trkpt lat="43.77534" lon="3.95708">
        <ele>138</ele>
        <time>2020-11-04T19:26:12Z</time>
      </trkpt>
      <trkpt lat="43.77525" lon="3.95696">
        <ele>139</ele>
        <time>2020-11-04T19:26:18Z</time>
      </trkpt>
      <trkpt lat="43.77522" lon="3.95693">
        <ele>139</ele>
        <time>2020-11-04T19:26:19Z</time>
      </trkpt>
      <trkpt lat="43.77518" lon="3.95689">
        <ele>139</ele>
        <time>2020-11-04T19:26:23Z</time>
      </trkpt>
      <trkpt lat="43.77515" lon="3.95686">
        <ele>139</ele>
        <time>2020-11-04T19:26:24Z</time>
      </trkpt>
      <trkpt lat="43.77511" lon="3.95683">
        <ele>139</ele>
        <time>2020-11-04T19:26:31Z</time>
      </trkpt>
      <trkpt lat="43.77506" lon="3.95673">
        <ele>148.7</ele>
      </trkpt>
      <trkpt lat="43.77493" lon="3.95669">
        <ele>147.1</ele>
      </trkpt>
      <trkpt lat="43.77458" lon="3.95682">
        <ele>144.8</ele>
      </trkpt>
      <trkpt lat="43.77422" lon="3.95734">
        <ele>142.2</ele>
      </trkpt>
      <trkpt lat="43.77408" lon="3.95738">
        <ele>139</ele>
      </trkpt>
      <trkpt lat="43.77393" lon="3.95729">
        <ele>138.3</ele>
      </trkpt>
      <trkpt lat="43.77377" lon="3.95732">
        <ele>137.5</ele>
      </trkpt>
      <trkpt lat="43.77362" lon="3.95744">
        <ele>136.5</ele>
      </trkpt>
      <trkpt lat="43.77349" lon="3.95737">
        <ele>135.6</ele>
      </trkpt>
      <trkpt lat="43.77324" lon="3.95716">
        <ele>131.3</ele>
      </trkpt>
      <trkpt lat="43.77309" lon="3.95708">
        <ele>130.8</ele>
      </trkpt>
      <trkpt lat="43.77273" lon="3.95678">
        <ele>128.8</ele>
      </trkpt>
      <trkpt lat="43.77236" lon="3.95626">
        <ele>124.4</ele>
      </trkpt>
      <trkpt lat="43.7723" lon="3.95609">
        <ele>124.5</ele>
      </trkpt>
      <trkpt lat="43.77191" lon="3.95631">
        <ele>122.9</ele>
      </trkpt>
      <trkpt lat="43.7718" lon="3.95608">
        <ele>122.6</ele>
      </trkpt>
      <trkpt lat="43.77168" lon="3.95564">
        <ele>123.1</ele>
      </trkpt>
      <trkpt lat="43.77147" lon="3.95559">
        <ele>121.6</ele>
      </trkpt>
      <trkpt lat="43.77116" lon="3.95559">
        <ele>121.3</ele>
      </trkpt>
      <trkpt lat="43.77087" lon="3.95549">
        <ele>121.2</ele>
      </trkpt>
      <trkpt lat="43.77048" lon="3.95566">
        <ele>119</ele>
      </trkpt>
      <trkpt lat="43.77019" lon="3.95574">
        <ele>118.2</ele>
      </trkpt>
      <trkpt lat="43.76998" lon="3.95587">
        <ele>116.6</ele>
      </trkpt>
      <trkpt lat="43.76974" lon="3.95612">
        <ele>114.8</ele>
      </trkpt>
      <trkpt lat="43.76938" lon="3.95474">
        <ele>115</ele>
      </trkpt>
      <trkpt lat="43.76941" lon="3.95279">
        <ele>116.3</ele>
      </trkpt>
      <trkpt lat="43.76972" lon="3.95024">
        <ele>120.3</ele>
      </trkpt>
      <trkpt lat="43.76967" lon="3.95017">
        <ele>120.2</ele>
      </trkpt>
      <trkpt lat="43.76955" lon="3.95023">
        <ele>119.6</ele>
      </trkpt>
      <trkpt lat="43.76925" lon="3.95019">
        <ele>118.5</ele>
      </trkpt>
      <trkpt lat="43.76902" lon="3.94993">
        <ele>118.5</ele>
      </trkpt>
      <trkpt lat="43.76886" lon="3.94951">
        <ele>120</ele>
      </trkpt>
      <trkpt lat="43.76856" lon="3.94894">
        <ele>122.2</ele>
      </trkpt>
      <trkpt lat="43.76832" lon="3.9484">
        <ele>123.9</ele>
      </trkpt>
      <trkpt lat="43.76821" lon="3.94819">
        <ele>125.4</ele>
      </trkpt>
      <trkpt lat="43.76813" lon="3.94797">
        <ele>126.3</ele>
      </trkpt>
      <trkpt lat="43.76802" lon="3.94745">
        <ele>130.1</ele>
      </trkpt>
      <trkpt lat="43.76798" lon="3.94739">
        <ele>130.4</ele>
      </trkpt>
      <trkpt lat="43.76772" lon="3.9475">
        <ele>128.6</ele>
      </trkpt>
      <trkpt lat="43.76761" lon="3.94747">
        <ele>131.2</ele>
      </trkpt>
      <trkpt lat="43.76745" lon="3.9467">
        <ele>139.4</ele>
      </trkpt>
      <trkpt lat="43.76721" lon="3.946">
        <ele>144.1</ele>
      </trkpt>
      <trkpt lat="43.76671" lon="3.94515">
        <ele>148</ele>
      </trkpt>
      <trkpt lat="43.76659" lon="3.94465">
        <ele>143.6</ele>
      </trkpt>
      <trkpt lat="43.76649" lon="3.9442">
        <ele>144.4</ele>
      </trkpt>
      <trkpt lat="43.76653" lon="3.94392">
        <ele>141.5</ele>
      </trkpt>
      <trkpt lat="43.76662" lon="3.94355">
        <ele>140.5</ele>
      </trkpt>
      <trkpt lat="43.7668" lon="3.94321">
        <ele>144</ele>
      </trkpt>
      <trkpt lat="43.76686" lon="3.9431">
        <ele>144.7</ele>
      </trkpt>
      <trkpt lat="43.76691" lon="3.94275">
        <ele>144.8</ele>
      </trkpt>
      <trkpt lat="43.76666" lon="3.94208">
        <ele>139.4</ele>
      </trkpt>
      <trkpt lat="43.76648" lon="3.94138">
        <ele>141.1</ele>
      </trkpt>
      <trkpt lat="43.7665" lon="3.94063">
        <ele>143.8</ele>
      </trkpt>
      <trkpt lat="43.76664" lon="3.94015">
        <ele>144.9</ele>
      </trkpt>
      <trkpt lat="43.76661" lon="3.93988">
        <ele>147</ele>
      </trkpt>
      <trkpt lat="43.76635" lon="3.93972">
        <ele>148</ele>
      </trkpt>
      <trkpt lat="43.76599" lon="3.9393">
        <ele>150.4</ele>
      </trkpt>
      <trkpt lat="43.76576" lon="3.93903">
        <ele>154</ele>
      </trkpt>
      <trkpt lat="43.76549" lon="3.93841">
        <ele>156.5</ele>
      </trkpt>
      <trkpt lat="43.76531" lon="3.93781">
        <ele>161.6</ele>
      </trkpt>
      <trkpt lat="43.7653" lon="3.93732">
        <ele>167.4</ele>
      </trkpt>
      <trkpt lat="43.76502" lon="3.93668">
        <ele>169.1</ele>
      </trkpt>
      <trkpt lat="43.76464" lon="3.93638">
        <ele>169.6</ele>
      </trkpt>
      <trkpt lat="43.76443" lon="3.9362">
        <ele>169.8</ele>
      </trkpt>
      <trkpt lat="43.76441" lon="3.93557">
        <ele>175.7</ele>
      </trkpt>
      <trkpt lat="43.76437" lon="3.93488">
        <ele>181</ele>
      </trkpt>
      <trkpt lat="43.76432" lon="3.93417">
        <ele>186</ele>
      </trkpt>
      <trkpt lat="43.76439" lon="3.93382">
        <ele>186.8</ele>
      </trkpt>
      <trkpt lat="43.76429" lon="3.93342">
        <ele>189.5</ele>
      </trkpt>
      <trkpt lat="43.76405" lon="3.93323">
        <ele>196.2</ele>
      </trkpt>
      <trkpt lat="43.7636" lon="3.93345">
        <ele>199.9</ele>
      </trkpt>
      <trkpt lat="43.7633" lon="3.93381">
        <ele>203.5</ele>
      </trkpt>
      <trkpt lat="43.76274" lon="3.93454">
        <ele>201.4</ele>
      </trkpt>
      <trkpt lat="43.76307" lon="3.93374">
        <ele>204.3</ele>
      </trkpt>
      <trkpt lat="43.76325" lon="3.93292">
        <ele>206.2</ele>
      </trkpt>
      <trkpt lat="43.76303" lon="3.93234">
        <ele>205.6</ele>
      </trkpt>
      <trkpt lat="43.763" lon="3.93134">
        <ele>203.5</ele>
      </trkpt>
      <trkpt lat="43.76307" lon="3.93004">
        <ele>198.6</ele>
      </trkpt>
      <trkpt lat="43.76304" lon="3.92938">
        <ele>194.8</ele>
      </trkpt>
      <trkpt lat="43.76264" lon="3.92888">
        <ele>196</ele>
      </trkpt>
      <trkpt lat="43.76239" lon="3.9285">
        <ele>196.9</ele>
      </trkpt>
      <trkpt lat="43.76231" lon="3.92814">
        <ele>200</ele>
      </trkpt>
      <trkpt lat="43.76182" lon="3.9279">
        <ele>199.9</ele>
      </trkpt>
      <trkpt lat="43.76101" lon="3.92788">
        <ele>199.5</ele>
      </trkpt>
      <trkpt lat="43.76082" lon="3.92772">
        <ele>200.5</ele>
      </trkpt>
      <trkpt lat="43.76064" lon="3.92673">
        <ele>200.8</ele>
      </trkpt>
      <trkpt lat="43.76025" lon="3.92615">
        <ele>199.2</ele>
      </trkpt>
      <trkpt lat="43.75947" lon="3.92627">
        <ele>190</ele>
      </trkpt>
      <trkpt lat="43.75892" lon="3.92573">
        <ele>187.3</ele>
      </trkpt>
      <trkpt lat="43.7581" lon="3.92433">
        <ele>185.4</ele>
      </trkpt>
      <trkpt lat="43.757" lon="3.92333">
        <ele>190.3</ele>
      </trkpt>
      <trkpt lat="43.75652" lon="3.92299">
        <ele>185.5</ele>
      </trkpt>
      <trkpt lat="43.75608" lon="3.92223">
        <ele>186.6</ele>
      </trkpt>
      <trkpt lat="43.75574" lon="3.92173">
        <ele>182.3</ele>
      </trkpt>
      <trkpt lat="43.75535" lon="3.92141">
        <ele>179.5</ele>
      </trkpt>
      <trkpt lat="43.75506" lon="3.92109">
        <ele>178.3</ele>
      </trkpt>
      <trkpt lat="43.75506" lon="3.92037">
        <ele>177.9</ele>
      </trkpt>
      <trkpt lat="43.75474" lon="3.91973">
        <ele>169.2</ele>
      </trkpt>
      <trkpt lat="43.75448" lon="3.91927">
        <ele>167.4</ele>
      </trkpt>
      <trkpt lat="43.75422" lon="3.91837">
        <ele>164.7</ele>
      </trkpt>
      <trkpt lat="43.75385" lon="3.91763">
        <ele>162.3</ele>
      </trkpt>
      <trkpt lat="43.75346" lon="3.91737">
        <ele>161.3</ele>
      </trkpt>
      <trkpt lat="43.75295" lon="3.9172">
        <ele>156.5</ele>
      </trkpt>
      <trkpt lat="43.75255" lon="3.91624">
        <ele>152.7</ele>
      </trkpt>
      <trkpt lat="43.7524" lon="3.91533">
        <ele>144.9</ele>
      </trkpt>
      <trkpt lat="43.75243" lon="3.91478">
        <ele>142.7</ele>
      </trkpt>
      <trkpt lat="43.75256" lon="3.91435">
        <ele>145.3</ele>
      </trkpt>
      <trkpt lat="43.75269" lon="3.91391">
        <ele>144.6</ele>
      </trkpt>
      <trkpt lat="43.75264" lon="3.91247">
        <ele>138.7</ele>
      </trkpt>
      <trkpt lat="43.75268" lon="3.91123">
        <ele>140.2</ele>
      </trkpt>
      <trkpt lat="43.75272" lon="3.9099">
        <ele>135.3</ele>
      </trkpt>
      <trkpt lat="43.75284" lon="3.90844">
        <ele>132.6</ele>
      </trkpt>
      <trkpt lat="43.75284" lon="3.90769">
        <ele>131.2</ele>
      </trkpt>
      <trkpt lat="43.75273" lon="3.90723">
        <ele>129.2</ele>
      </trkpt>
      <trkpt lat="43.75256" lon="3.90685">
        <ele>128.1</ele>
      </trkpt>
      <trkpt lat="43.75198" lon="3.90665">
        <ele>128.5</ele>
      </trkpt>
      <trkpt lat="43.75185" lon="3.90641">
        <ele>128.4</ele>
      </trkpt>
      <trkpt lat="43.75191" lon="3.90605">
        <ele>127.4</ele>
      </trkpt>
      <trkpt lat="43.75173" lon="3.90562">
        <ele>125.7</ele>
      </trkpt>
      <trkpt lat="43.75169" lon="3.90518">
        <ele>124.9</ele>
      </trkpt>
      <trkpt lat="43.75152" lon="3.90469">
        <ele>124.9</ele>
      </trkpt>
      <trkpt lat="43.75115" lon="3.90441">
        <ele>125.2</ele>
      </trkpt>
      <trkpt lat="43.75099" lon="3.90401">
        <ele>124.3</ele>
      </trkpt>
      <trkpt lat="43.75104" lon="3.90375">
        <ele>123.6</ele>
      </trkpt>
      <trkpt lat="43.75072" lon="3.90335">
        <ele>123.9</ele>
      </trkpt>
      <trkpt lat="43.75053" lon="3.90314">
        <ele>122.9</ele>
      </trkpt>
      <trkpt lat="43.75" lon="3.90236">
        <ele>121.6</ele>
      </trkpt>
      <trkpt lat="43.74966" lon="3.90186">
        <ele>120.8</ele>
      </trkpt>
      <trkpt lat="43.74949" lon="3.90144">
        <ele>119.3</ele>
      </trkpt>
      <trkpt lat="43.74903" lon="3.90113">
        <ele>118.7</ele>
      </trkpt>
      <trkpt lat="43.74866" lon="3.90079">
        <ele>117.4</ele>
      </trkpt>
      <trkpt lat="43.74857" lon="3.90095">
        <ele>118.1</ele>
      </trkpt>
      <trkpt lat="43.74857" lon="3.90134">
        <ele>118.7</ele>
      </trkpt>
      <trkpt lat="43.74852" lon="3.90165">
        <ele>119</ele>
      </trkpt>
      <trkpt lat="43.74831" lon="3.90196">
        <ele>118.8</ele>
      </trkpt>
      <trkpt lat="43.74805" lon="3.90228">
        <ele>118.9</ele>
      </trkpt>
      <trkpt lat="43.74789" lon="3.90242">
        <ele>119</ele>
      </trkpt>
      <trkpt lat="43.74776" lon="3.90244">
        <ele>119.2</ele>
      </trkpt>
      <trkpt lat="43.7458" lon="3.90019">
        <ele>117.7</ele>
      </trkpt>
      <trkpt lat="43.74573" lon="3.9">
        <ele>117.8</ele>
      </trkpt>
      <trkpt lat="43.7459" lon="3.89967">
        <ele>117.5</ele>
      </trkpt>
      <trkpt lat="43.74586" lon="3.89942">
        <ele>118</ele>
      </trkpt>
      <trkpt lat="43.74595" lon="3.89864">
        <ele>119.5</ele>
      </trkpt>
      <trkpt lat="43.74594" lon="3.89783">
        <ele>119.3</ele>
      </trkpt>
      <trkpt lat="43.74588" lon="3.89742">
        <ele>119</ele>
      </trkpt>
      <trkpt lat="43.74538" lon="3.89688">
        <ele>120.4</ele>
      </trkpt>
      <trkpt lat="43.74453" lon="3.89446">
        <ele>121.4</ele>
      </trkpt>
      <trkpt lat="43.74416" lon="3.89401">
        <ele>125.5</ele>
      </trkpt>
      <trkpt lat="43.74378" lon="3.89336">
        <ele>127.2</ele>
      </trkpt>
      <trkpt lat="43.74348" lon="3.89286">
        <ele>127.9</ele>
      </trkpt>
      <trkpt lat="43.7433" lon="3.89234">
        <ele>132</ele>
      </trkpt>
      <trkpt lat="43.74244" lon="3.89169">
        <ele>138</ele>
      </trkpt>
      <trkpt lat="43.74218" lon="3.89114">
        <ele>137.1</ele>
      </trkpt>
      <trkpt lat="43.74206" lon="3.89111">
        <ele>137.2</ele>
      </trkpt>
      <trkpt lat="43.74117" lon="3.89162">
        <ele>141.8</ele>
      </trkpt>
      <trkpt lat="43.7406" lon="3.89186">
        <ele>145.6</ele>
      </trkpt>
      <trkpt lat="43.74032" lon="3.89179">
        <ele>145</ele>
      </trkpt>
      <trkpt lat="43.73978" lon="3.89198">
        <ele>143.6</ele>
      </trkpt>
      <trkpt lat="43.73938" lon="3.89192">
        <ele>142.3</ele>
      </trkpt>
      <trkpt lat="43.73816" lon="3.89218">
        <ele>142.7</ele>
      </trkpt>
      <trkpt lat="43.73712" lon="3.89132">
        <ele>139.5</ele>
      </trkpt>
      <trkpt lat="43.73662" lon="3.89028">
        <ele>136.1</ele>
      </trkpt>
      <trkpt lat="43.73627" lon="3.88985">
        <ele>133.5</ele>
      </trkpt>
      <trkpt lat="43.73553" lon="3.8895">
        <ele>132.9</ele>
      </trkpt>
      <trkpt lat="43.73474" lon="3.88887">
        <ele>133.1</ele>
      </trkpt>
      <trkpt lat="43.73437" lon="3.88826">
        <ele>136.6</ele>
      </trkpt>
      <trkpt lat="43.73362" lon="3.88793">
        <ele>134.2</ele>
      </trkpt>
      <trkpt lat="43.73329" lon="3.88747">
        <ele>133.4</ele>
      </trkpt>
      <trkpt lat="43.73306" lon="3.88632">
        <ele>130.4</ele>
      </trkpt>
      <trkpt lat="43.73293" lon="3.88604">
        <ele>130.1</ele>
      </trkpt>
      <trkpt lat="43.73254" lon="3.886">
        <ele>130.1</ele>
      </trkpt>
      <trkpt lat="43.7312" lon="3.88541">
        <ele>129.5</ele>
      </trkpt>
      <trkpt lat="43.7308" lon="3.88527">
        <ele>128.4</ele>
      </trkpt>
      <trkpt lat="43.73076" lon="3.88583">
        <ele>130.4</ele>
      </trkpt>
      <trkpt lat="43.73055" lon="3.88652">
        <ele>128.8</ele>
      </trkpt>
      <trkpt lat="43.73025" lon="3.88706">
        <ele>127</ele>
      </trkpt>
      <trkpt lat="43.72968" lon="3.88788">
        <ele>124.5</ele>
      </trkpt>
      <trkpt lat="43.72909" lon="3.88841">
        <ele>123.5</ele>
      </trkpt>
      <trkpt lat="43.72853" lon="3.88899">
        <ele>122</ele>
      </trkpt>
      <trkpt lat="43.7282" lon="3.8895">
        <ele>120</ele>
      </trkpt>
      <trkpt lat="43.72792" lon="3.89">
        <ele>117.9</ele>
      </trkpt>
      <trkpt lat="43.72725" lon="3.89051">
        <ele>116.7</ele>
      </trkpt>
      <trkpt lat="43.72624" lon="3.89139">
        <ele>114.3</ele>
      </trkpt>
      <trkpt lat="43.72587" lon="3.89193">
        <ele>112.9</ele>
      </trkpt>
      <trkpt lat="43.72578" lon="3.89232">
        <ele>112.9</ele>
      </trkpt>
      <trkpt lat="43.72575" lon="3.89252">
        <ele>112.1</ele>
      </trkpt>
      <trkpt lat="43.72512" lon="3.8928">
        <ele>112.1</ele>
      </trkpt>
      <trkpt lat="43.72431" lon="3.8933">
        <ele>115</ele>
      </trkpt>
      <trkpt lat="43.72373" lon="3.89375">
        <ele>113</ele>
      </trkpt>
      <trkpt lat="43.72331" lon="3.89392">
        <ele>112.2</ele>
      </trkpt>
      <trkpt lat="43.72299" lon="3.89419">
        <ele>110</ele>
      </trkpt>
      <trkpt lat="43.72263" lon="3.89468">
        <ele>109.1</ele>
      </trkpt>
      <trkpt lat="43.72243" lon="3.8947">
        <ele>109.3</ele>
      </trkpt>
      <trkpt lat="43.72219" lon="3.89461">
        <ele>110.1</ele>
      </trkpt>
      <trkpt lat="43.72144" lon="3.89459">
        <ele>109.3</ele>
      </trkpt>
      <trkpt lat="43.72096" lon="3.89465">
        <ele>108.3</ele>
      </trkpt>
      <trkpt lat="43.72078" lon="3.8946">
        <ele>107.3</ele>
      </trkpt>
      <trkpt lat="43.72012" lon="3.89496">
        <ele>108.2</ele>
      </trkpt>
      <trkpt lat="43.71883" lon="3.89582">
        <ele>106.6</ele>
      </trkpt>
      <trkpt lat="43.71863" lon="3.89603">
        <ele>105.7</ele>
      </trkpt>
      <trkpt lat="43.71794" lon="3.8963">
        <ele>104.4</ele>
      </trkpt>
      <trkpt lat="43.71524" lon="3.89719">
        <ele>104.9</ele>
      </trkpt>
      <trkpt lat="43.71496" lon="3.89725">
        <ele>107.9</ele>
      </trkpt>
      <trkpt lat="43.71421" lon="3.89714">
        <ele>109.9</ele>
      </trkpt>
      <trkpt lat="43.71247" lon="3.89698">
        <ele>126.2</ele>
      </trkpt>
      <trkpt lat="43.7116" lon="3.89697">
        <ele>135.7</ele>
      </trkpt>
      <trkpt lat="43.71087" lon="3.89739">
        <ele>140.3</ele>
      </trkpt>
      <trkpt lat="43.71035" lon="3.89757">
        <ele>141.9</ele>
      </trkpt>
      <trkpt lat="43.70987" lon="3.89801">
        <ele>142.6</ele>
      </trkpt>
      <trkpt lat="43.70916" lon="3.89821">
        <ele>140.6</ele>
      </trkpt>
      <trkpt lat="43.70903" lon="3.89819">
        <ele>140.7</ele>
      </trkpt>
      <trkpt lat="43.70828" lon="3.89843">
        <ele>133.9</ele>
      </trkpt>
      <trkpt lat="43.7079" lon="3.8987">
        <ele>131.7</ele>
      </trkpt>
      <trkpt lat="43.70765" lon="3.89887">
        <ele>130.9</ele>
      </trkpt>
      <trkpt lat="43.70728" lon="3.89917">
        <ele>125.8</ele>
      </trkpt>
      <trkpt lat="43.70694" lon="3.89887">
        <ele>123.7</ele>
      </trkpt>
      <trkpt lat="43.70664" lon="3.89873">
        <ele>118.3</ele>
      </trkpt>
      <trkpt lat="43.70656" lon="3.89848">
        <ele>119.1</ele>
      </trkpt>
      <trkpt lat="43.70638" lon="3.89847">
        <ele>118.3</ele>
      </trkpt>
      <trkpt lat="43.70598" lon="3.8984">
        <ele>117.1</ele>
      </trkpt>
      <trkpt lat="43.70543" lon="3.89801">
        <ele>121.2</ele>
      </trkpt>
      <trkpt lat="43.70528" lon="3.89748">
        <ele>121.9</ele>
      </trkpt>
      <trkpt lat="43.70475" lon="3.89741">
        <ele>123.5</ele>
      </trkpt>
      <trkpt lat="43.70312" lon="3.8968">
        <ele>125</ele>
      </trkpt>
      <trkpt lat="43.70269" lon="3.89667">
        <ele>125</ele>
      </trkpt>
      <trkpt lat="43.7023" lon="3.89647">
        <ele>126.6</ele>
      </trkpt>
      <trkpt lat="43.7019" lon="3.89662">
        <ele>128.1</ele>
      </trkpt>
      <trkpt lat="43.7014" lon="3.896">
        <ele>126.5</ele>
      </trkpt>
      <trkpt lat="43.70125" lon="3.8958">
        <ele>126.2</ele>
      </trkpt>
      <trkpt lat="43.70026" lon="3.89501">
        <ele>124.5</ele>
      </trkpt>
      <trkpt lat="43.69928" lon="3.89433">
        <ele>130.8</ele>
      </trkpt>
      <trkpt lat="43.69879" lon="3.89395">
        <ele>135.4</ele>
      </trkpt>
      <trkpt lat="43.69811" lon="3.89368">
        <ele>135.1</ele>
      </trkpt>
      <trkpt lat="43.69746" lon="3.89317">
        <ele>135.6</ele>
      </trkpt>
      <trkpt lat="43.69672" lon="3.8928">
        <ele>133.8</ele>
      </trkpt>
      <trkpt lat="43.69528" lon="3.8921">
        <ele>119.3</ele>
      </trkpt>
      <trkpt lat="43.69517" lon="3.89197">
        <ele>118.9</ele>
      </trkpt>
      <trkpt lat="43.69491" lon="3.89185">
        <ele>117.3</ele>
      </trkpt>
      <trkpt lat="43.69478" lon="3.89144">
        <ele>117.3</ele>
      </trkpt>
      <trkpt lat="43.69461" lon="3.89091">
        <ele>117.1</ele>
      </trkpt>
      <trkpt lat="43.69457" lon="3.8906">
        <ele>116</ele>
      </trkpt>
      <trkpt lat="43.6946" lon="3.89034">
        <ele>115.7</ele>
      </trkpt>
      <trkpt lat="43.69452" lon="3.89009">
        <ele>115.4</ele>
      </trkpt>
      <trkpt lat="43.69409" lon="3.8896">
        <ele>112.9</ele>
      </trkpt>
      <trkpt lat="43.6936" lon="3.88919">
        <ele>109.8</ele>
      </trkpt>
      <trkpt lat="43.69327" lon="3.88907">
        <ele>104</ele>
      </trkpt>
      <trkpt lat="43.69303" lon="3.8887">
        <ele>102.8</ele>
      </trkpt>
      <trkpt lat="43.69283" lon="3.88823">
        <ele>101.7</ele>
      </trkpt>
      <trkpt lat="43.69272" lon="3.88762">
        <ele>100.1</ele>
      </trkpt>
      <trkpt lat="43.69266" lon="3.88697">
        <ele>98.7</ele>
      </trkpt>
      <trkpt lat="43.69239" lon="3.88639">
        <ele>98.9</ele>
      </trkpt>
      <trkpt lat="43.69221" lon="3.88573">
        <ele>101.6</ele>
      </trkpt>
      <trkpt lat="43.69206" lon="3.88545">
        <ele>102.9</ele>
      </trkpt>
      <trkpt lat="43.69146" lon="3.88487">
        <ele>107.2</ele>
      </trkpt>
      <trkpt lat="43.69091" lon="3.88447">
        <ele>108.8</ele>
      </trkpt>
      <trkpt lat="43.69051" lon="3.8843">
        <ele>112.2</ele>
      </trkpt>
      <trkpt lat="43.69025" lon="3.88398">
        <ele>113.1</ele>
      </trkpt>
      <trkpt lat="43.68945" lon="3.88342">
        <ele>115.6</ele>
      </trkpt>
      <trkpt lat="43.68909" lon="3.88348">
        <ele>116.8</ele>
      </trkpt>
      <trkpt lat="43.68763" lon="3.88334">
        <ele>126.7</ele>
      </trkpt>
      <trkpt lat="43.68724" lon="3.88322">
        <ele>127.3</ele>
      </trkpt>
      <trkpt lat="43.6863" lon="3.88273">
        <ele>120.7</ele>
      </trkpt>
      <trkpt lat="43.68567" lon="3.88272">
        <ele>118.3</ele>
      </trkpt>
      <trkpt lat="43.6852" lon="3.88266">
        <ele>118.4</ele>
      </trkpt>
      <trkpt lat="43.68431" lon="3.88239">
        <ele>119.8</ele>
      </trkpt>
      <trkpt lat="43.68333" lon="3.88247">
        <ele>121.5</ele>
      </trkpt>
      <trkpt lat="43.68304" lon="3.88247">
        <ele>119.7</ele>
      </trkpt>
      <trkpt lat="43.6827" lon="3.88264">
        <ele>119.4</ele>
      </trkpt>
      <trkpt lat="43.68244" lon="3.88272">
        <ele>119.2</ele>
      </trkpt>
      <trkpt lat="43.68208" lon="3.88269">
        <ele>119.3</ele>
      </trkpt>
      <trkpt lat="43.6816" lon="3.8824">
        <ele>120.2</ele>
      </trkpt>
      <trkpt lat="43.68077" lon="3.88176">
        <ele>121.1</ele>
      </trkpt>
      <trkpt lat="43.68034" lon="3.88136">
        <ele>118.7</ele>
      </trkpt>
      <trkpt lat="43.67988" lon="3.88134">
        <ele>117.4</ele>
      </trkpt>
      <trkpt lat="43.67918" lon="3.88141">
        <ele>117.2</ele>
      </trkpt>
      <trkpt lat="43.67869" lon="3.88172">
        <ele>114.9</ele>
      </trkpt>
      <trkpt lat="43.67789" lon="3.88198">
        <ele>116.1</ele>
      </trkpt>
      <trkpt lat="43.67676" lon="3.88254">
        <ele>119.4</ele>
      </trkpt>
      <trkpt lat="43.67545" lon="3.88264">
        <ele>115.6</ele>
      </trkpt>
      <trkpt lat="43.67418" lon="3.88261">
        <ele>120.1</ele>
      </trkpt>
      <trkpt lat="43.67293" lon="3.88156">
        <ele>120.1</ele>
      </trkpt>
      <trkpt lat="43.67208" lon="3.88004">
        <ele>115.5</ele>
      </trkpt>
      <trkpt lat="43.67142" lon="3.87923">
        <ele>110.1</ele>
      </trkpt>
      <trkpt lat="43.67136" lon="3.88026">
        <ele>108.6</ele>
      </trkpt>
      <trkpt lat="43.67093" lon="3.88111">
        <ele>108.3</ele>
      </trkpt>
      <trkpt lat="43.67051" lon="3.88191">
        <ele>109</ele>
      </trkpt>
      <trkpt lat="43.66946" lon="3.88216">
        <ele>109.5</ele>
      </trkpt>
      <trkpt lat="43.66879" lon="3.88228">
        <ele>113.3</ele>
      </trkpt>
      <trkpt lat="43.66771" lon="3.88145">
        <ele>121.6</ele>
      </trkpt>
      <trkpt lat="43.66726" lon="3.88079">
        <ele>120.6</ele>
      </trkpt>
      <trkpt lat="43.66677" lon="3.87962">
        <ele>113.5</ele>
      </trkpt>
      <trkpt lat="43.66621" lon="3.87891">
        <ele>108.2</ele>
      </trkpt>
      <trkpt lat="43.66588" lon="3.87794">
        <ele>103.6</ele>
      </trkpt>
      <trkpt lat="43.6655" lon="3.87834">
        <ele>103.7</ele>
      </trkpt>
      <trkpt lat="43.66518" lon="3.87841">
        <ele>102</ele>
      </trkpt>
      <trkpt lat="43.66487" lon="3.87915">
        <ele>99.6</ele>
      </trkpt>
      <trkpt lat="43.66445" lon="3.87958">
        <ele>92.2</ele>
      </trkpt>
      <trkpt lat="43.6636" lon="3.87968">
        <ele>85.9</ele>
      </trkpt>
      <trkpt lat="43.66286" lon="3.88026">
        <ele>78.1</ele>
      </trkpt>
      <trkpt lat="43.66232" lon="3.88039">
        <ele>77.9</ele>
      </trkpt>
      <trkpt lat="43.6621" lon="3.88063">
        <ele>77.9</ele>
      </trkpt>
      <trkpt lat="43.66199" lon="3.88098">
        <ele>76</ele>
      </trkpt>
      <trkpt lat="43.66176" lon="3.88108">
        <ele>76</ele>
      </trkpt>
      <trkpt lat="43.66116" lon="3.88096">
        <ele>74.9</ele>
      </trkpt>
      <trkpt lat="43.66032" lon="3.88082">
        <ele>72.9</ele>
      </trkpt>
      <trkpt lat="43.65901" lon="3.88021">
        <ele>67.5</ele>
      </trkpt>
      <trkpt lat="43.65777" lon="3.87979">
        <ele>62.6</ele>
      </trkpt>
      <trkpt lat="43.65726" lon="3.88003">
        <ele>59.9</ele>
      </trkpt>
      <trkpt lat="43.65674" lon="3.88031">
        <ele>58.7</ele>
      </trkpt>
      <trkpt lat="43.6565" lon="3.88024">
        <ele>56.7</ele>
      </trkpt>
      <trkpt lat="43.65533" lon="3.88105">
        <ele>55.9</ele>
      </trkpt>
      <trkpt lat="43.65419" lon="3.88159">
        <ele>53</ele>
      </trkpt>
      <trkpt lat="43.65323" lon="3.88216">
        <ele>53.4</ele>
      </trkpt>
      <trkpt lat="43.65318" lon="3.88262">
        <ele>52.7</ele>
      </trkpt>
      <trkpt lat="43.6535" lon="3.88338">
        <ele>49.9</ele>
      </trkpt>
      <trkpt lat="43.65361" lon="3.88566">
        <ele>50</ele>
      </trkpt>
      <trkpt lat="43.65363" lon="3.88623">
        <ele>51.2</ele>
      </trkpt>
      <trkpt lat="43.65373" lon="3.88755">
        <ele>55.1</ele>
      </trkpt>
      <trkpt lat="43.65335" lon="3.88869">
        <ele>53.7</ele>
      </trkpt>
      <trkpt lat="43.65336" lon="3.88893">
        <ele>52.7</ele>
      </trkpt>
      <trkpt lat="43.65261" lon="3.88966">
        <ele>49.4</ele>
      </trkpt>
      <trkpt lat="43.65173" lon="3.89014">
        <ele>48.6</ele>
      </trkpt>
      <trkpt lat="43.65098" lon="3.89023">
        <ele>47.2</ele>
      </trkpt>
      <trkpt lat="43.65038" lon="3.89049">
        <ele>45.4</ele>
      </trkpt>
      <trkpt lat="43.64912" lon="3.89173">
        <ele>46.3</ele>
      </trkpt>
      <trkpt lat="43.64894" lon="3.8919">
        <ele>48.8</ele>
      </trkpt>
      <trkpt lat="43.64874" lon="3.8919">
        <ele>49.7</ele>
      </trkpt>
      <trkpt lat="43.64866" lon="3.89212">
        <ele>50.4</ele>
      </trkpt>
      <trkpt lat="43.64807" lon="3.89267">
        <ele>54.9</ele>
      </trkpt>
      <trkpt lat="43.64758" lon="3.89264">
        <ele>54.5</ele>
      </trkpt>
      <trkpt lat="43.64723" lon="3.89274">
        <ele>51.3</ele>
      </trkpt>
      <trkpt lat="43.64667" lon="3.89319">
        <ele>46</ele>
      </trkpt>
    </trkseg>
  </trk>
</gpx>